<?xml version="1.0" encoding="UTF-8" standalone="no" ?>
<gpx xmlns="http://www.topografix.com/GPX/1/1" xmlns:xsi="http://www.w3.org/2001/XMLSchema-instance" xsi:schemaLocation="http://www.topografix.com/GPX/1/1 http://www.topografix.com/GPX/1/1/gpx.xsd" version="1.1" creator="VisuGPX - https://www.visugpx.com">
  <metadata>
    <name>Arriou Né</name>
    <desc><![CDATA[[url]https://plus.google.com/photos/105108571230570121986/albums/5853441163775085201?banner=pwa[/url]]]></desc>
  </metadata>
  <trk>
    <name><![CDATA[Ariou Né]]></name>
    <trkseg>
      <trkpt lat="42.88962" lon="-0.03847">
        <ele>1192</ele>
        <time>2013-03-09T07:46:51Z</time>
      </trkpt>
      <trkpt lat="42.88962" lon="-0.03847">
        <ele>1192</ele>
        <time>2013-03-09T07:46:52Z</time>
      </trkpt>
      <trkpt lat="42.88961" lon="-0.03847">
        <ele>1192</ele>
        <time>2013-03-09T07:46:53Z</time>
      </trkpt>
      <trkpt lat="42.88961" lon="-0.03847">
        <ele>1192</ele>
        <time>2013-03-09T07:47:03Z</time>
      </trkpt>
      <trkpt lat="42.88961" lon="-0.03847">
        <ele>1192</ele>
        <time>2013-03-09T07:47:05Z</time>
      </trkpt>
      <trkpt lat="42.88961" lon="-0.03847">
        <ele>1192</ele>
        <time>2013-03-09T07:47:06Z</time>
      </trkpt>
      <trkpt lat="42.88961" lon="-0.03848">
        <ele>1192</ele>
        <time>2013-03-09T07:47:07Z</time>
      </trkpt>
      <trkpt lat="42.8896" lon="-0.03848">
        <ele>1192</ele>
        <time>2013-03-09T07:47:09Z</time>
      </trkpt>
      <trkpt lat="42.8896" lon="-0.03848">
        <ele>1192</ele>
        <time>2013-03-09T07:47:10Z</time>
      </trkpt>
      <trkpt lat="42.8896" lon="-0.03848">
        <ele>1192</ele>
        <time>2013-03-09T07:47:11Z</time>
      </trkpt>
      <trkpt lat="42.8896" lon="-0.03847">
        <ele>1192</ele>
        <time>2013-03-09T07:47:12Z</time>
      </trkpt>
      <trkpt lat="42.8896" lon="-0.03846">
        <ele>1192</ele>
        <time>2013-03-09T07:47:14Z</time>
      </trkpt>
      <trkpt lat="42.8896" lon="-0.03854">
        <ele>1193</ele>
        <time>2013-03-09T07:47:25Z</time>
      </trkpt>
      <trkpt lat="42.88961" lon="-0.03853">
        <ele>1192</ele>
        <time>2013-03-09T07:47:38Z</time>
      </trkpt>
      <trkpt lat="42.88959" lon="-0.03854">
        <ele>1193</ele>
        <time>2013-03-09T07:47:53Z</time>
      </trkpt>
      <trkpt lat="42.88962" lon="-0.03848">
        <ele>1192</ele>
        <time>2013-03-09T07:48:03Z</time>
      </trkpt>
      <trkpt lat="42.88963" lon="-0.03844">
        <ele>1192</ele>
        <time>2013-03-09T07:48:21Z</time>
      </trkpt>
      <trkpt lat="42.88958" lon="-0.03847">
        <ele>1192</ele>
        <time>2013-03-09T07:48:26Z</time>
      </trkpt>
      <trkpt lat="42.88959" lon="-0.03851">
        <ele>1192</ele>
        <time>2013-03-09T07:48:32Z</time>
      </trkpt>
      <trkpt lat="42.88959" lon="-0.03852">
        <ele>1192</ele>
        <time>2013-03-09T07:48:38Z</time>
      </trkpt>
      <trkpt lat="42.88961" lon="-0.03858">
        <ele>1193</ele>
        <time>2013-03-09T07:48:46Z</time>
      </trkpt>
      <trkpt lat="42.88958" lon="-0.03855">
        <ele>1193</ele>
        <time>2013-03-09T07:48:54Z</time>
      </trkpt>
      <trkpt lat="42.8896" lon="-0.03853">
        <ele>1192</ele>
        <time>2013-03-09T07:49:04Z</time>
      </trkpt>
      <trkpt lat="42.8896" lon="-0.0385">
        <ele>1192</ele>
        <time>2013-03-09T07:49:17Z</time>
      </trkpt>
      <trkpt lat="42.8896" lon="-0.0385">
        <ele>1192</ele>
        <time>2013-03-09T07:49:25Z</time>
      </trkpt>
      <trkpt lat="42.8896" lon="-0.03851">
        <ele>1192</ele>
        <time>2013-03-09T07:49:30Z</time>
      </trkpt>
      <trkpt lat="42.88955" lon="-0.03855">
        <ele>1192</ele>
        <time>2013-03-09T07:49:39Z</time>
      </trkpt>
      <trkpt lat="42.88952" lon="-0.03858">
        <ele>1193</ele>
        <time>2013-03-09T07:49:53Z</time>
      </trkpt>
      <trkpt lat="42.88952" lon="-0.03859">
        <ele>1193</ele>
        <time>2013-03-09T07:50:05Z</time>
      </trkpt>
      <trkpt lat="42.88953" lon="-0.03863">
        <ele>1194</ele>
        <time>2013-03-09T07:50:17Z</time>
      </trkpt>
      <trkpt lat="42.88952" lon="-0.03864">
        <ele>1194</ele>
        <time>2013-03-09T07:50:30Z</time>
      </trkpt>
      <trkpt lat="42.88952" lon="-0.03863">
        <ele>1194</ele>
        <time>2013-03-09T07:50:42Z</time>
      </trkpt>
      <trkpt lat="42.88953" lon="-0.03846">
        <ele>1191</ele>
        <time>2013-03-09T07:50:49Z</time>
      </trkpt>
      <trkpt lat="42.8895" lon="-0.03847">
        <ele>1191</ele>
        <time>2013-03-09T07:50:56Z</time>
      </trkpt>
      <trkpt lat="42.88947" lon="-0.03845">
        <ele>1191</ele>
        <time>2013-03-09T07:51:00Z</time>
      </trkpt>
      <trkpt lat="42.88942" lon="-0.0384">
        <ele>1189</ele>
        <time>2013-03-09T07:51:08Z</time>
      </trkpt>
      <trkpt lat="42.88939" lon="-0.03846">
        <ele>1189</ele>
        <time>2013-03-09T07:51:16Z</time>
      </trkpt>
      <trkpt lat="42.88932" lon="-0.03869">
        <ele>1193</ele>
        <time>2013-03-09T07:51:26Z</time>
      </trkpt>
      <trkpt lat="42.88928" lon="-0.03872">
        <ele>1194</ele>
        <time>2013-03-09T07:51:29Z</time>
      </trkpt>
      <trkpt lat="42.88921" lon="-0.03878">
        <ele>1195</ele>
        <time>2013-03-09T07:51:36Z</time>
      </trkpt>
      <trkpt lat="42.88917" lon="-0.03879">
        <ele>1195</ele>
        <time>2013-03-09T07:51:42Z</time>
      </trkpt>
      <trkpt lat="42.88913" lon="-0.03881">
        <ele>1191</ele>
        <time>2013-03-09T07:51:51Z</time>
      </trkpt>
      <trkpt lat="42.8891" lon="-0.03883">
        <ele>1191</ele>
        <time>2013-03-09T07:52:00Z</time>
      </trkpt>
      <trkpt lat="42.88912" lon="-0.03882">
        <ele>1191</ele>
        <time>2013-03-09T07:52:10Z</time>
      </trkpt>
      <trkpt lat="42.88911" lon="-0.03879">
        <ele>1190</ele>
        <time>2013-03-09T07:52:20Z</time>
      </trkpt>
      <trkpt lat="42.88909" lon="-0.03879">
        <ele>1190</ele>
        <time>2013-03-09T07:52:31Z</time>
      </trkpt>
      <trkpt lat="42.88906" lon="-0.03873">
        <ele>1189</ele>
        <time>2013-03-09T07:52:45Z</time>
      </trkpt>
      <trkpt lat="42.88909" lon="-0.03875">
        <ele>1189</ele>
        <time>2013-03-09T07:52:54Z</time>
      </trkpt>
      <trkpt lat="42.88909" lon="-0.0388">
        <ele>1190</ele>
        <time>2013-03-09T07:53:04Z</time>
      </trkpt>
      <trkpt lat="42.88908" lon="-0.03877">
        <ele>1190</ele>
        <time>2013-03-09T07:53:12Z</time>
      </trkpt>
      <trkpt lat="42.88907" lon="-0.03879">
        <ele>1190</ele>
        <time>2013-03-09T07:53:19Z</time>
      </trkpt>
      <trkpt lat="42.88908" lon="-0.0388">
        <ele>1190</ele>
        <time>2013-03-09T07:53:33Z</time>
      </trkpt>
      <trkpt lat="42.88908" lon="-0.0388">
        <ele>1190</ele>
        <time>2013-03-09T07:53:48Z</time>
      </trkpt>
      <trkpt lat="42.88908" lon="-0.03881">
        <ele>1191</ele>
        <time>2013-03-09T07:54:01Z</time>
      </trkpt>
      <trkpt lat="42.88906" lon="-0.03883">
        <ele>1191</ele>
        <time>2013-03-09T07:54:14Z</time>
      </trkpt>
      <trkpt lat="42.88905" lon="-0.03883">
        <ele>1191</ele>
        <time>2013-03-09T07:54:24Z</time>
      </trkpt>
      <trkpt lat="42.88904" lon="-0.03885">
        <ele>1191</ele>
        <time>2013-03-09T07:54:32Z</time>
      </trkpt>
      <trkpt lat="42.88902" lon="-0.03886">
        <ele>1191</ele>
        <time>2013-03-09T07:54:38Z</time>
      </trkpt>
      <trkpt lat="42.88893" lon="-0.03888">
        <ele>1191</ele>
        <time>2013-03-09T07:54:46Z</time>
      </trkpt>
      <trkpt lat="42.88882" lon="-0.03887">
        <ele>1190</ele>
        <time>2013-03-09T07:54:54Z</time>
      </trkpt>
      <trkpt lat="42.88874" lon="-0.03889">
        <ele>1190</ele>
        <time>2013-03-09T07:55:03Z</time>
      </trkpt>
      <trkpt lat="42.88865" lon="-0.03893">
        <ele>1190</ele>
        <time>2013-03-09T07:55:11Z</time>
      </trkpt>
      <trkpt lat="42.88861" lon="-0.03895">
        <ele>1190</ele>
        <time>2013-03-09T07:55:14Z</time>
      </trkpt>
      <trkpt lat="42.88848" lon="-0.03896">
        <ele>1190</ele>
        <time>2013-03-09T07:55:23Z</time>
      </trkpt>
      <trkpt lat="42.88847" lon="-0.03896">
        <ele>1190</ele>
        <time>2013-03-09T07:55:24Z</time>
      </trkpt>
      <trkpt lat="42.88838" lon="-0.03896">
        <ele>1190</ele>
        <time>2013-03-09T07:55:32Z</time>
      </trkpt>
      <trkpt lat="42.88825" lon="-0.03895">
        <ele>1188</ele>
        <time>2013-03-09T07:55:41Z</time>
      </trkpt>
      <trkpt lat="42.88815" lon="-0.03892">
        <ele>1187</ele>
        <time>2013-03-09T07:55:49Z</time>
      </trkpt>
      <trkpt lat="42.88806" lon="-0.03891">
        <ele>1187</ele>
        <time>2013-03-09T07:55:57Z</time>
      </trkpt>
      <trkpt lat="42.88801" lon="-0.03892">
        <ele>1187</ele>
        <time>2013-03-09T07:56:02Z</time>
      </trkpt>
      <trkpt lat="42.88787" lon="-0.03893">
        <ele>1187</ele>
        <time>2013-03-09T07:56:12Z</time>
      </trkpt>
      <trkpt lat="42.88778" lon="-0.03893">
        <ele>1188</ele>
        <time>2013-03-09T07:56:20Z</time>
      </trkpt>
      <trkpt lat="42.8877" lon="-0.03891">
        <ele>1188</ele>
        <time>2013-03-09T07:56:29Z</time>
      </trkpt>
      <trkpt lat="42.88761" lon="-0.0389">
        <ele>1189</ele>
        <time>2013-03-09T07:56:36Z</time>
      </trkpt>
      <trkpt lat="42.88751" lon="-0.03888">
        <ele>1188</ele>
        <time>2013-03-09T07:56:44Z</time>
      </trkpt>
      <trkpt lat="42.88744" lon="-0.03887">
        <ele>1192</ele>
        <time>2013-03-09T07:56:51Z</time>
      </trkpt>
      <trkpt lat="42.88737" lon="-0.03886">
        <ele>1192</ele>
        <time>2013-03-09T07:56:58Z</time>
      </trkpt>
      <trkpt lat="42.88731" lon="-0.03884">
        <ele>1192</ele>
        <time>2013-03-09T07:57:04Z</time>
      </trkpt>
      <trkpt lat="42.8873" lon="-0.03884">
        <ele>1192</ele>
        <time>2013-03-09T07:57:05Z</time>
      </trkpt>
      <trkpt lat="42.88723" lon="-0.03884">
        <ele>1193</ele>
        <time>2013-03-09T07:57:12Z</time>
      </trkpt>
      <trkpt lat="42.88714" lon="-0.03883">
        <ele>1193</ele>
        <time>2013-03-09T07:57:20Z</time>
      </trkpt>
      <trkpt lat="42.88706" lon="-0.03883">
        <ele>1193</ele>
        <time>2013-03-09T07:57:28Z</time>
      </trkpt>
      <trkpt lat="42.887" lon="-0.03883">
        <ele>1194</ele>
        <time>2013-03-09T07:57:34Z</time>
      </trkpt>
      <trkpt lat="42.88693" lon="-0.03885">
        <ele>1195</ele>
        <time>2013-03-09T07:57:41Z</time>
      </trkpt>
      <trkpt lat="42.88685" lon="-0.03887">
        <ele>1196</ele>
        <time>2013-03-09T07:57:49Z</time>
      </trkpt>
      <trkpt lat="42.88676" lon="-0.03888">
        <ele>1197</ele>
        <time>2013-03-09T07:57:58Z</time>
      </trkpt>
      <trkpt lat="42.88669" lon="-0.03885">
        <ele>1197</ele>
        <time>2013-03-09T07:58:06Z</time>
      </trkpt>
      <trkpt lat="42.88668" lon="-0.03885">
        <ele>1197</ele>
        <time>2013-03-09T07:58:07Z</time>
      </trkpt>
      <trkpt lat="42.88661" lon="-0.03881">
        <ele>1202</ele>
        <time>2013-03-09T07:58:15Z</time>
      </trkpt>
      <trkpt lat="42.88652" lon="-0.03879">
        <ele>1201</ele>
        <time>2013-03-09T07:58:24Z</time>
      </trkpt>
      <trkpt lat="42.88642" lon="-0.03877">
        <ele>1201</ele>
        <time>2013-03-09T07:58:33Z</time>
      </trkpt>
      <trkpt lat="42.88635" lon="-0.03871">
        <ele>1201</ele>
        <time>2013-03-09T07:58:40Z</time>
      </trkpt>
      <trkpt lat="42.88631" lon="-0.03869">
        <ele>1200</ele>
        <time>2013-03-09T07:58:45Z</time>
      </trkpt>
      <trkpt lat="42.88626" lon="-0.03866">
        <ele>1200</ele>
        <time>2013-03-09T07:58:50Z</time>
      </trkpt>
      <trkpt lat="42.88615" lon="-0.03864">
        <ele>1200</ele>
        <time>2013-03-09T07:59:00Z</time>
      </trkpt>
      <trkpt lat="42.88607" lon="-0.03863">
        <ele>1200</ele>
        <time>2013-03-09T07:59:07Z</time>
      </trkpt>
      <trkpt lat="42.88599" lon="-0.03863">
        <ele>1200</ele>
        <time>2013-03-09T07:59:16Z</time>
      </trkpt>
      <trkpt lat="42.88592" lon="-0.03862">
        <ele>1200</ele>
        <time>2013-03-09T07:59:24Z</time>
      </trkpt>
      <trkpt lat="42.88589" lon="-0.03861">
        <ele>1200</ele>
        <time>2013-03-09T07:59:28Z</time>
      </trkpt>
      <trkpt lat="42.88585" lon="-0.03859">
        <ele>1199</ele>
        <time>2013-03-09T07:59:33Z</time>
      </trkpt>
      <trkpt lat="42.8858" lon="-0.03857">
        <ele>1204</ele>
        <time>2013-03-09T07:59:39Z</time>
      </trkpt>
      <trkpt lat="42.88572" lon="-0.03855">
        <ele>1204</ele>
        <time>2013-03-09T07:59:46Z</time>
      </trkpt>
      <trkpt lat="42.88565" lon="-0.03852">
        <ele>1204</ele>
        <time>2013-03-09T07:59:53Z</time>
      </trkpt>
      <trkpt lat="42.88559" lon="-0.03851">
        <ele>1205</ele>
        <time>2013-03-09T08:00:00Z</time>
      </trkpt>
      <trkpt lat="42.8855" lon="-0.03851">
        <ele>1206</ele>
        <time>2013-03-09T08:00:08Z</time>
      </trkpt>
      <trkpt lat="42.88541" lon="-0.03848">
        <ele>1207</ele>
        <time>2013-03-09T08:00:17Z</time>
      </trkpt>
      <trkpt lat="42.88535" lon="-0.03846">
        <ele>1207</ele>
        <time>2013-03-09T08:00:25Z</time>
      </trkpt>
      <trkpt lat="42.88529" lon="-0.03844">
        <ele>1207</ele>
        <time>2013-03-09T08:00:31Z</time>
      </trkpt>
      <trkpt lat="42.88521" lon="-0.03842">
        <ele>1206</ele>
        <time>2013-03-09T08:00:39Z</time>
      </trkpt>
      <trkpt lat="42.88513" lon="-0.03839">
        <ele>1205</ele>
        <time>2013-03-09T08:00:47Z</time>
      </trkpt>
      <trkpt lat="42.88506" lon="-0.03836">
        <ele>1204</ele>
        <time>2013-03-09T08:00:54Z</time>
      </trkpt>
      <trkpt lat="42.88499" lon="-0.03833">
        <ele>1202</ele>
        <time>2013-03-09T08:01:01Z</time>
      </trkpt>
      <trkpt lat="42.88493" lon="-0.03829">
        <ele>1201</ele>
        <time>2013-03-09T08:01:08Z</time>
      </trkpt>
      <trkpt lat="42.88485" lon="-0.03824">
        <ele>1200</ele>
        <time>2013-03-09T08:01:16Z</time>
      </trkpt>
      <trkpt lat="42.88481" lon="-0.0382">
        <ele>1200</ele>
        <time>2013-03-09T08:01:21Z</time>
      </trkpt>
      <trkpt lat="42.88473" lon="-0.03814">
        <ele>1200</ele>
        <time>2013-03-09T08:01:30Z</time>
      </trkpt>
      <trkpt lat="42.88464" lon="-0.03806">
        <ele>1199</ele>
        <time>2013-03-09T08:01:39Z</time>
      </trkpt>
      <trkpt lat="42.88458" lon="-0.03803">
        <ele>1199</ele>
        <time>2013-03-09T08:01:45Z</time>
      </trkpt>
      <trkpt lat="42.88449" lon="-0.03805">
        <ele>1200</ele>
        <time>2013-03-09T08:01:54Z</time>
      </trkpt>
      <trkpt lat="42.88441" lon="-0.03809">
        <ele>1200</ele>
        <time>2013-03-09T08:02:03Z</time>
      </trkpt>
      <trkpt lat="42.88435" lon="-0.03813">
        <ele>1201</ele>
        <time>2013-03-09T08:02:12Z</time>
      </trkpt>
      <trkpt lat="42.88427" lon="-0.03818">
        <ele>1202</ele>
        <time>2013-03-09T08:02:20Z</time>
      </trkpt>
      <trkpt lat="42.8842" lon="-0.03823">
        <ele>1204</ele>
        <time>2013-03-09T08:02:29Z</time>
      </trkpt>
      <trkpt lat="42.88413" lon="-0.03827">
        <ele>1206</ele>
        <time>2013-03-09T08:02:36Z</time>
      </trkpt>
      <trkpt lat="42.88407" lon="-0.03831">
        <ele>1206</ele>
        <time>2013-03-09T08:02:44Z</time>
      </trkpt>
      <trkpt lat="42.88406" lon="-0.03832">
        <ele>1206</ele>
        <time>2013-03-09T08:02:46Z</time>
      </trkpt>
      <trkpt lat="42.88399" lon="-0.03838">
        <ele>1217</ele>
        <time>2013-03-09T08:02:54Z</time>
      </trkpt>
      <trkpt lat="42.8839" lon="-0.03842">
        <ele>1219</ele>
        <time>2013-03-09T08:03:02Z</time>
      </trkpt>
      <trkpt lat="42.88383" lon="-0.03847">
        <ele>1221</ele>
        <time>2013-03-09T08:03:10Z</time>
      </trkpt>
      <trkpt lat="42.88376" lon="-0.03851">
        <ele>1222</ele>
        <time>2013-03-09T08:03:17Z</time>
      </trkpt>
      <trkpt lat="42.88369" lon="-0.03854">
        <ele>1223</ele>
        <time>2013-03-09T08:03:23Z</time>
      </trkpt>
      <trkpt lat="42.8836" lon="-0.03856">
        <ele>1224</ele>
        <time>2013-03-09T08:03:31Z</time>
      </trkpt>
      <trkpt lat="42.88351" lon="-0.03858">
        <ele>1224</ele>
        <time>2013-03-09T08:03:40Z</time>
      </trkpt>
      <trkpt lat="42.88342" lon="-0.03858">
        <ele>1224</ele>
        <time>2013-03-09T08:03:47Z</time>
      </trkpt>
      <trkpt lat="42.88333" lon="-0.03858">
        <ele>1226</ele>
        <time>2013-03-09T08:03:55Z</time>
      </trkpt>
      <trkpt lat="42.88325" lon="-0.03859">
        <ele>1226</ele>
        <time>2013-03-09T08:04:02Z</time>
      </trkpt>
      <trkpt lat="42.88316" lon="-0.0386">
        <ele>1227</ele>
        <time>2013-03-09T08:04:11Z</time>
      </trkpt>
      <trkpt lat="42.88309" lon="-0.0386">
        <ele>1227</ele>
        <time>2013-03-09T08:04:18Z</time>
      </trkpt>
      <trkpt lat="42.88296" lon="-0.03857">
        <ele>1227</ele>
        <time>2013-03-09T08:04:29Z</time>
      </trkpt>
      <trkpt lat="42.88295" lon="-0.03857">
        <ele>1227</ele>
        <time>2013-03-09T08:04:30Z</time>
      </trkpt>
      <trkpt lat="42.88284" lon="-0.03854">
        <ele>1227</ele>
        <time>2013-03-09T08:04:41Z</time>
      </trkpt>
      <trkpt lat="42.88277" lon="-0.03847">
        <ele>1226</ele>
        <time>2013-03-09T08:04:51Z</time>
      </trkpt>
      <trkpt lat="42.88269" lon="-0.03842">
        <ele>1225</ele>
        <time>2013-03-09T08:04:59Z</time>
      </trkpt>
      <trkpt lat="42.8827" lon="-0.03825">
        <ele>1216</ele>
        <time>2013-03-09T08:05:07Z</time>
      </trkpt>
      <trkpt lat="42.88264" lon="-0.03821">
        <ele>1216</ele>
        <time>2013-03-09T08:05:14Z</time>
      </trkpt>
      <trkpt lat="42.88257" lon="-0.03816">
        <ele>1216</ele>
        <time>2013-03-09T08:05:22Z</time>
      </trkpt>
      <trkpt lat="42.88254" lon="-0.03815">
        <ele>1216</ele>
        <time>2013-03-09T08:05:25Z</time>
      </trkpt>
      <trkpt lat="42.88243" lon="-0.03815">
        <ele>1217</ele>
        <time>2013-03-09T08:05:34Z</time>
      </trkpt>
      <trkpt lat="42.88239" lon="-0.03814">
        <ele>1217</ele>
        <time>2013-03-09T08:05:41Z</time>
      </trkpt>
      <trkpt lat="42.88237" lon="-0.03815">
        <ele>1216</ele>
        <time>2013-03-09T08:05:43Z</time>
      </trkpt>
      <trkpt lat="42.88231" lon="-0.03818">
        <ele>1216</ele>
        <time>2013-03-09T08:05:51Z</time>
      </trkpt>
      <trkpt lat="42.88225" lon="-0.03823">
        <ele>1216</ele>
        <time>2013-03-09T08:05:58Z</time>
      </trkpt>
      <trkpt lat="42.8822" lon="-0.03833">
        <ele>1216</ele>
        <time>2013-03-09T08:06:06Z</time>
      </trkpt>
      <trkpt lat="42.88213" lon="-0.03838">
        <ele>1224</ele>
        <time>2013-03-09T08:06:15Z</time>
      </trkpt>
      <trkpt lat="42.88206" lon="-0.03848">
        <ele>1224</ele>
        <time>2013-03-09T08:06:24Z</time>
      </trkpt>
      <trkpt lat="42.88199" lon="-0.03855">
        <ele>1224</ele>
        <time>2013-03-09T08:06:32Z</time>
      </trkpt>
      <trkpt lat="42.88194" lon="-0.03861">
        <ele>1225</ele>
        <time>2013-03-09T08:06:40Z</time>
      </trkpt>
      <trkpt lat="42.88185" lon="-0.03868">
        <ele>1225</ele>
        <time>2013-03-09T08:06:48Z</time>
      </trkpt>
      <trkpt lat="42.88178" lon="-0.03876">
        <ele>1226</ele>
        <time>2013-03-09T08:06:56Z</time>
      </trkpt>
      <trkpt lat="42.8817" lon="-0.03886">
        <ele>1228</ele>
        <time>2013-03-09T08:07:05Z</time>
      </trkpt>
      <trkpt lat="42.88161" lon="-0.03893">
        <ele>1226</ele>
        <time>2013-03-09T08:07:14Z</time>
      </trkpt>
      <trkpt lat="42.8815" lon="-0.03899">
        <ele>1227</ele>
        <time>2013-03-09T08:07:22Z</time>
      </trkpt>
      <trkpt lat="42.88142" lon="-0.039">
        <ele>1226</ele>
        <time>2013-03-09T08:07:29Z</time>
      </trkpt>
      <trkpt lat="42.88132" lon="-0.03899">
        <ele>1226</ele>
        <time>2013-03-09T08:07:37Z</time>
      </trkpt>
      <trkpt lat="42.88126" lon="-0.039">
        <ele>1225</ele>
        <time>2013-03-09T08:07:43Z</time>
      </trkpt>
      <trkpt lat="42.88118" lon="-0.03905">
        <ele>1226</ele>
        <time>2013-03-09T08:07:52Z</time>
      </trkpt>
      <trkpt lat="42.88109" lon="-0.03907">
        <ele>1226</ele>
        <time>2013-03-09T08:08:02Z</time>
      </trkpt>
      <trkpt lat="42.88101" lon="-0.03908">
        <ele>1227</ele>
        <time>2013-03-09T08:08:11Z</time>
      </trkpt>
      <trkpt lat="42.88088" lon="-0.0391">
        <ele>1228</ele>
        <time>2013-03-09T08:08:20Z</time>
      </trkpt>
      <trkpt lat="42.8808" lon="-0.03912">
        <ele>1228</ele>
        <time>2013-03-09T08:08:27Z</time>
      </trkpt>
      <trkpt lat="42.8807" lon="-0.03909">
        <ele>1227</ele>
        <time>2013-03-09T08:08:35Z</time>
      </trkpt>
      <trkpt lat="42.8806" lon="-0.03904">
        <ele>1226</ele>
        <time>2013-03-09T08:08:42Z</time>
      </trkpt>
      <trkpt lat="42.88049" lon="-0.03901">
        <ele>1225</ele>
        <time>2013-03-09T08:08:51Z</time>
      </trkpt>
      <trkpt lat="42.88039" lon="-0.03897">
        <ele>1225</ele>
        <time>2013-03-09T08:08:59Z</time>
      </trkpt>
      <trkpt lat="42.88029" lon="-0.03895">
        <ele>1225</ele>
        <time>2013-03-09T08:09:08Z</time>
      </trkpt>
      <trkpt lat="42.8803" lon="-0.0389">
        <ele>1224</ele>
        <time>2013-03-09T08:09:13Z</time>
      </trkpt>
      <trkpt lat="42.88028" lon="-0.03889">
        <ele>1224</ele>
        <time>2013-03-09T08:09:16Z</time>
      </trkpt>
      <trkpt lat="42.88023" lon="-0.03887">
        <ele>1224</ele>
        <time>2013-03-09T08:09:21Z</time>
      </trkpt>
      <trkpt lat="42.88016" lon="-0.03888">
        <ele>1224</ele>
        <time>2013-03-09T08:09:27Z</time>
      </trkpt>
      <trkpt lat="42.88008" lon="-0.03889">
        <ele>1225</ele>
        <time>2013-03-09T08:09:33Z</time>
      </trkpt>
      <trkpt lat="42.87997" lon="-0.03892">
        <ele>1226</ele>
        <time>2013-03-09T08:09:41Z</time>
      </trkpt>
      <trkpt lat="42.87987" lon="-0.03894">
        <ele>1226</ele>
        <time>2013-03-09T08:09:49Z</time>
      </trkpt>
      <trkpt lat="42.87978" lon="-0.03899">
        <ele>1226</ele>
        <time>2013-03-09T08:09:57Z</time>
      </trkpt>
      <trkpt lat="42.87968" lon="-0.03903">
        <ele>1225</ele>
        <time>2013-03-09T08:10:05Z</time>
      </trkpt>
      <trkpt lat="42.87957" lon="-0.03907">
        <ele>1225</ele>
        <time>2013-03-09T08:10:13Z</time>
      </trkpt>
      <trkpt lat="42.87948" lon="-0.03913">
        <ele>1225</ele>
        <time>2013-03-09T08:10:22Z</time>
      </trkpt>
      <trkpt lat="42.87942" lon="-0.03919">
        <ele>1233</ele>
        <time>2013-03-09T08:10:31Z</time>
      </trkpt>
      <trkpt lat="42.87937" lon="-0.03921">
        <ele>1232</ele>
        <time>2013-03-09T08:10:39Z</time>
      </trkpt>
      <trkpt lat="42.87925" lon="-0.03917">
        <ele>1230</ele>
        <time>2013-03-09T08:10:47Z</time>
      </trkpt>
      <trkpt lat="42.8792" lon="-0.03917">
        <ele>1228</ele>
        <time>2013-03-09T08:10:48Z</time>
      </trkpt>
      <trkpt lat="42.87905" lon="-0.03915">
        <ele>1229</ele>
        <time>2013-03-09T08:10:57Z</time>
      </trkpt>
      <trkpt lat="42.87896" lon="-0.0391">
        <ele>1230</ele>
        <time>2013-03-09T08:11:05Z</time>
      </trkpt>
      <trkpt lat="42.8789" lon="-0.03906">
        <ele>1230</ele>
        <time>2013-03-09T08:11:12Z</time>
      </trkpt>
      <trkpt lat="42.8789" lon="-0.03905">
        <ele>1230</ele>
        <time>2013-03-09T08:11:21Z</time>
      </trkpt>
      <trkpt lat="42.87887" lon="-0.03909">
        <ele>1231</ele>
        <time>2013-03-09T08:11:29Z</time>
      </trkpt>
      <trkpt lat="42.87881" lon="-0.03914">
        <ele>1231</ele>
        <time>2013-03-09T08:11:37Z</time>
      </trkpt>
      <trkpt lat="42.87881" lon="-0.03922">
        <ele>1236</ele>
        <time>2013-03-09T08:11:44Z</time>
      </trkpt>
      <trkpt lat="42.87877" lon="-0.03928">
        <ele>1237</ele>
        <time>2013-03-09T08:11:51Z</time>
      </trkpt>
      <trkpt lat="42.87871" lon="-0.03937">
        <ele>1238</ele>
        <time>2013-03-09T08:11:59Z</time>
      </trkpt>
      <trkpt lat="42.87868" lon="-0.03943">
        <ele>1238</ele>
        <time>2013-03-09T08:12:06Z</time>
      </trkpt>
      <trkpt lat="42.87866" lon="-0.0395">
        <ele>1239</ele>
        <time>2013-03-09T08:12:15Z</time>
      </trkpt>
      <trkpt lat="42.87866" lon="-0.03958">
        <ele>1239</ele>
        <time>2013-03-09T08:12:24Z</time>
      </trkpt>
      <trkpt lat="42.87863" lon="-0.03965">
        <ele>1240</ele>
        <time>2013-03-09T08:12:30Z</time>
      </trkpt>
      <trkpt lat="42.87859" lon="-0.03968">
        <ele>1240</ele>
        <time>2013-03-09T08:12:38Z</time>
      </trkpt>
      <trkpt lat="42.87855" lon="-0.03972">
        <ele>1241</ele>
        <time>2013-03-09T08:12:45Z</time>
      </trkpt>
      <trkpt lat="42.87855" lon="-0.03975">
        <ele>1241</ele>
        <time>2013-03-09T08:12:55Z</time>
      </trkpt>
      <trkpt lat="42.87847" lon="-0.03976">
        <ele>1242</ele>
        <time>2013-03-09T08:13:03Z</time>
      </trkpt>
      <trkpt lat="42.87846" lon="-0.03977">
        <ele>1242</ele>
        <time>2013-03-09T08:13:09Z</time>
      </trkpt>
      <trkpt lat="42.87841" lon="-0.03978">
        <ele>1242</ele>
        <time>2013-03-09T08:13:15Z</time>
      </trkpt>
      <trkpt lat="42.87841" lon="-0.03978">
        <ele>1242</ele>
        <time>2013-03-09T08:13:16Z</time>
      </trkpt>
      <trkpt lat="42.87835" lon="-0.03973">
        <ele>1242</ele>
        <time>2013-03-09T08:13:24Z</time>
      </trkpt>
      <trkpt lat="42.87832" lon="-0.03972">
        <ele>1251</ele>
        <time>2013-03-09T08:13:31Z</time>
      </trkpt>
      <trkpt lat="42.87828" lon="-0.03973">
        <ele>1251</ele>
        <time>2013-03-09T08:13:40Z</time>
      </trkpt>
      <trkpt lat="42.87823" lon="-0.03975">
        <ele>1252</ele>
        <time>2013-03-09T08:13:47Z</time>
      </trkpt>
      <trkpt lat="42.87821" lon="-0.03978">
        <ele>1252</ele>
        <time>2013-03-09T08:13:55Z</time>
      </trkpt>
      <trkpt lat="42.87818" lon="-0.03979">
        <ele>1252</ele>
        <time>2013-03-09T08:14:02Z</time>
      </trkpt>
      <trkpt lat="42.87813" lon="-0.03983">
        <ele>1253</ele>
        <time>2013-03-09T08:14:11Z</time>
      </trkpt>
      <trkpt lat="42.87811" lon="-0.03983">
        <ele>1253</ele>
        <time>2013-03-09T08:14:18Z</time>
      </trkpt>
      <trkpt lat="42.87801" lon="-0.03985">
        <ele>1254</ele>
        <time>2013-03-09T08:14:26Z</time>
      </trkpt>
      <trkpt lat="42.87795" lon="-0.03986">
        <ele>1255</ele>
        <time>2013-03-09T08:14:34Z</time>
      </trkpt>
      <trkpt lat="42.87784" lon="-0.03987">
        <ele>1258</ele>
        <time>2013-03-09T08:14:43Z</time>
      </trkpt>
      <trkpt lat="42.8778" lon="-0.03987">
        <ele>1258</ele>
        <time>2013-03-09T08:14:47Z</time>
      </trkpt>
      <trkpt lat="42.87778" lon="-0.03987">
        <ele>1259</ele>
        <time>2013-03-09T08:14:55Z</time>
      </trkpt>
      <trkpt lat="42.87776" lon="-0.03992">
        <ele>1260</ele>
        <time>2013-03-09T08:15:03Z</time>
      </trkpt>
      <trkpt lat="42.87773" lon="-0.03999">
        <ele>1261</ele>
        <time>2013-03-09T08:15:12Z</time>
      </trkpt>
      <trkpt lat="42.87771" lon="-0.04006">
        <ele>1265</ele>
        <time>2013-03-09T08:15:19Z</time>
      </trkpt>
      <trkpt lat="42.87767" lon="-0.04011">
        <ele>1265</ele>
        <time>2013-03-09T08:15:27Z</time>
      </trkpt>
      <trkpt lat="42.87759" lon="-0.0401">
        <ele>1267</ele>
        <time>2013-03-09T08:15:34Z</time>
      </trkpt>
      <trkpt lat="42.87747" lon="-0.04008">
        <ele>1275</ele>
        <time>2013-03-09T08:15:42Z</time>
      </trkpt>
      <trkpt lat="42.87745" lon="-0.04002">
        <ele>1273</ele>
        <time>2013-03-09T08:15:51Z</time>
      </trkpt>
      <trkpt lat="42.87745" lon="-0.03992">
        <ele>1274</ele>
        <time>2013-03-09T08:15:58Z</time>
      </trkpt>
      <trkpt lat="42.87743" lon="-0.03986">
        <ele>1276</ele>
        <time>2013-03-09T08:16:06Z</time>
      </trkpt>
      <trkpt lat="42.8774" lon="-0.0398">
        <ele>1277</ele>
        <time>2013-03-09T08:16:10Z</time>
      </trkpt>
      <trkpt lat="42.87741" lon="-0.03972">
        <ele>1278</ele>
        <time>2013-03-09T08:16:14Z</time>
      </trkpt>
      <trkpt lat="42.8774" lon="-0.0397">
        <ele>1278</ele>
        <time>2013-03-09T08:16:16Z</time>
      </trkpt>
      <trkpt lat="42.87732" lon="-0.03972">
        <ele>1279</ele>
        <time>2013-03-09T08:16:20Z</time>
      </trkpt>
      <trkpt lat="42.87722" lon="-0.03973">
        <ele>1281</ele>
        <time>2013-03-09T08:16:26Z</time>
      </trkpt>
      <trkpt lat="42.87719" lon="-0.0397">
        <ele>1282</ele>
        <time>2013-03-09T08:16:32Z</time>
      </trkpt>
      <trkpt lat="42.87722" lon="-0.03968">
        <ele>1281</ele>
        <time>2013-03-09T08:16:39Z</time>
      </trkpt>
      <trkpt lat="42.87728" lon="-0.03971">
        <ele>1280</ele>
        <time>2013-03-09T08:16:47Z</time>
      </trkpt>
      <trkpt lat="42.87732" lon="-0.03976">
        <ele>1279</ele>
        <time>2013-03-09T08:16:54Z</time>
      </trkpt>
      <trkpt lat="42.87735" lon="-0.03979">
        <ele>1278</ele>
        <time>2013-03-09T08:17:02Z</time>
      </trkpt>
      <trkpt lat="42.87736" lon="-0.03982">
        <ele>1278</ele>
        <time>2013-03-09T08:17:10Z</time>
      </trkpt>
      <trkpt lat="42.87734" lon="-0.03985">
        <ele>1278</ele>
        <time>2013-03-09T08:17:18Z</time>
      </trkpt>
      <trkpt lat="42.87728" lon="-0.03993">
        <ele>1279</ele>
        <time>2013-03-09T08:17:28Z</time>
      </trkpt>
      <trkpt lat="42.87726" lon="-0.03995">
        <ele>1280</ele>
        <time>2013-03-09T08:17:31Z</time>
      </trkpt>
      <trkpt lat="42.87721" lon="-0.04003">
        <ele>1284</ele>
        <time>2013-03-09T08:17:40Z</time>
      </trkpt>
      <trkpt lat="42.87717" lon="-0.04012">
        <ele>1285</ele>
        <time>2013-03-09T08:17:48Z</time>
      </trkpt>
      <trkpt lat="42.87715" lon="-0.04018">
        <ele>1286</ele>
        <time>2013-03-09T08:17:56Z</time>
      </trkpt>
      <trkpt lat="42.87711" lon="-0.04024">
        <ele>1287</ele>
        <time>2013-03-09T08:18:04Z</time>
      </trkpt>
      <trkpt lat="42.87711" lon="-0.04026">
        <ele>1287</ele>
        <time>2013-03-09T08:18:05Z</time>
      </trkpt>
      <trkpt lat="42.87708" lon="-0.04036">
        <ele>1288</ele>
        <time>2013-03-09T08:18:12Z</time>
      </trkpt>
      <trkpt lat="42.87706" lon="-0.04037">
        <ele>1288</ele>
        <time>2013-03-09T08:18:16Z</time>
      </trkpt>
      <trkpt lat="42.87703" lon="-0.04039">
        <ele>1288</ele>
        <time>2013-03-09T08:18:25Z</time>
      </trkpt>
      <trkpt lat="42.87699" lon="-0.04044">
        <ele>1289</ele>
        <time>2013-03-09T08:18:33Z</time>
      </trkpt>
      <trkpt lat="42.87694" lon="-0.04042">
        <ele>1290</ele>
        <time>2013-03-09T08:18:42Z</time>
      </trkpt>
      <trkpt lat="42.87691" lon="-0.04038">
        <ele>1291</ele>
        <time>2013-03-09T08:18:51Z</time>
      </trkpt>
      <trkpt lat="42.87689" lon="-0.04036">
        <ele>1291</ele>
        <time>2013-03-09T08:18:58Z</time>
      </trkpt>
      <trkpt lat="42.87687" lon="-0.04036">
        <ele>1291</ele>
        <time>2013-03-09T08:19:05Z</time>
      </trkpt>
      <trkpt lat="42.87682" lon="-0.04035">
        <ele>1292</ele>
        <time>2013-03-09T08:19:12Z</time>
      </trkpt>
      <trkpt lat="42.87677" lon="-0.04036">
        <ele>1293</ele>
        <time>2013-03-09T08:19:21Z</time>
      </trkpt>
      <trkpt lat="42.87675" lon="-0.04039">
        <ele>1293</ele>
        <time>2013-03-09T08:19:28Z</time>
      </trkpt>
      <trkpt lat="42.87674" lon="-0.04042">
        <ele>1293</ele>
        <time>2013-03-09T08:19:38Z</time>
      </trkpt>
      <trkpt lat="42.87671" lon="-0.0405">
        <ele>1293</ele>
        <time>2013-03-09T08:19:47Z</time>
      </trkpt>
      <trkpt lat="42.87666" lon="-0.04052">
        <ele>1316</ele>
        <time>2013-03-09T08:19:54Z</time>
      </trkpt>
      <trkpt lat="42.8766" lon="-0.04051">
        <ele>1317</ele>
        <time>2013-03-09T08:20:02Z</time>
      </trkpt>
      <trkpt lat="42.87659" lon="-0.04048">
        <ele>1317</ele>
        <time>2013-03-09T08:20:10Z</time>
      </trkpt>
      <trkpt lat="42.87659" lon="-0.04049">
        <ele>1317</ele>
        <time>2013-03-09T08:20:17Z</time>
      </trkpt>
      <trkpt lat="42.87658" lon="-0.04052">
        <ele>1317</ele>
        <time>2013-03-09T08:20:25Z</time>
      </trkpt>
      <trkpt lat="42.87657" lon="-0.04063">
        <ele>1315</ele>
        <time>2013-03-09T08:20:33Z</time>
      </trkpt>
      <trkpt lat="42.87656" lon="-0.04072">
        <ele>1312</ele>
        <time>2013-03-09T08:20:42Z</time>
      </trkpt>
      <trkpt lat="42.87657" lon="-0.04079">
        <ele>1310</ele>
        <time>2013-03-09T08:20:49Z</time>
      </trkpt>
      <trkpt lat="42.87655" lon="-0.04089">
        <ele>1312</ele>
        <time>2013-03-09T08:20:57Z</time>
      </trkpt>
      <trkpt lat="42.87655" lon="-0.04098">
        <ele>1315</ele>
        <time>2013-03-09T08:21:03Z</time>
      </trkpt>
      <trkpt lat="42.87654" lon="-0.04107">
        <ele>1317</ele>
        <time>2013-03-09T08:21:09Z</time>
      </trkpt>
      <trkpt lat="42.87653" lon="-0.04107">
        <ele>1318</ele>
        <time>2013-03-09T08:21:10Z</time>
      </trkpt>
      <trkpt lat="42.87652" lon="-0.04118">
        <ele>1320</ele>
        <time>2013-03-09T08:21:19Z</time>
      </trkpt>
      <trkpt lat="42.87651" lon="-0.04129">
        <ele>1321</ele>
        <time>2013-03-09T08:21:27Z</time>
      </trkpt>
      <trkpt lat="42.8765" lon="-0.04139">
        <ele>1321</ele>
        <time>2013-03-09T08:21:35Z</time>
      </trkpt>
      <trkpt lat="42.8765" lon="-0.0415">
        <ele>1320</ele>
        <time>2013-03-09T08:21:43Z</time>
      </trkpt>
      <trkpt lat="42.87649" lon="-0.0416">
        <ele>1319</ele>
        <time>2013-03-09T08:21:51Z</time>
      </trkpt>
      <trkpt lat="42.87648" lon="-0.04165">
        <ele>1319</ele>
        <time>2013-03-09T08:22:00Z</time>
      </trkpt>
      <trkpt lat="42.87649" lon="-0.04176">
        <ele>1323</ele>
        <time>2013-03-09T08:22:09Z</time>
      </trkpt>
      <trkpt lat="42.87647" lon="-0.04185">
        <ele>1325</ele>
        <time>2013-03-09T08:22:18Z</time>
      </trkpt>
      <trkpt lat="42.87646" lon="-0.04195">
        <ele>1327</ele>
        <time>2013-03-09T08:22:27Z</time>
      </trkpt>
      <trkpt lat="42.87646" lon="-0.04201">
        <ele>1328</ele>
        <time>2013-03-09T08:22:31Z</time>
      </trkpt>
      <trkpt lat="42.87646" lon="-0.04215">
        <ele>1329</ele>
        <time>2013-03-09T08:22:40Z</time>
      </trkpt>
      <trkpt lat="42.87648" lon="-0.04226">
        <ele>1329</ele>
        <time>2013-03-09T08:22:49Z</time>
      </trkpt>
      <trkpt lat="42.87647" lon="-0.04237">
        <ele>1329</ele>
        <time>2013-03-09T08:22:57Z</time>
      </trkpt>
      <trkpt lat="42.87649" lon="-0.04246">
        <ele>1327</ele>
        <time>2013-03-09T08:23:05Z</time>
      </trkpt>
      <trkpt lat="42.87652" lon="-0.04258">
        <ele>1333</ele>
        <time>2013-03-09T08:23:14Z</time>
      </trkpt>
      <trkpt lat="42.87653" lon="-0.04262">
        <ele>1334</ele>
        <time>2013-03-09T08:23:18Z</time>
      </trkpt>
      <trkpt lat="42.87655" lon="-0.04267">
        <ele>1336</ele>
        <time>2013-03-09T08:23:22Z</time>
      </trkpt>
      <trkpt lat="42.87656" lon="-0.04271">
        <ele>1336</ele>
        <time>2013-03-09T08:23:26Z</time>
      </trkpt>
      <trkpt lat="42.8766" lon="-0.0428">
        <ele>1339</ele>
        <time>2013-03-09T08:23:34Z</time>
      </trkpt>
      <trkpt lat="42.87663" lon="-0.04291">
        <ele>1341</ele>
        <time>2013-03-09T08:23:43Z</time>
      </trkpt>
      <trkpt lat="42.87666" lon="-0.04304">
        <ele>1342</ele>
        <time>2013-03-09T08:23:52Z</time>
      </trkpt>
      <trkpt lat="42.87668" lon="-0.04314">
        <ele>1327</ele>
        <time>2013-03-09T08:24:00Z</time>
      </trkpt>
      <trkpt lat="42.87671" lon="-0.04326">
        <ele>1332</ele>
        <time>2013-03-09T08:24:09Z</time>
      </trkpt>
      <trkpt lat="42.87673" lon="-0.04332">
        <ele>1334</ele>
        <time>2013-03-09T08:24:13Z</time>
      </trkpt>
      <trkpt lat="42.87675" lon="-0.04342">
        <ele>1337</ele>
        <time>2013-03-09T08:24:22Z</time>
      </trkpt>
      <trkpt lat="42.87677" lon="-0.04353">
        <ele>1336</ele>
        <time>2013-03-09T08:24:30Z</time>
      </trkpt>
      <trkpt lat="42.87679" lon="-0.04364">
        <ele>1336</ele>
        <time>2013-03-09T08:24:39Z</time>
      </trkpt>
      <trkpt lat="42.87681" lon="-0.04381">
        <ele>1337</ele>
        <time>2013-03-09T08:24:50Z</time>
      </trkpt>
      <trkpt lat="42.87682" lon="-0.04395">
        <ele>1339</ele>
        <time>2013-03-09T08:24:59Z</time>
      </trkpt>
      <trkpt lat="42.87683" lon="-0.04398">
        <ele>1340</ele>
        <time>2013-03-09T08:25:01Z</time>
      </trkpt>
      <trkpt lat="42.87685" lon="-0.04411">
        <ele>1341</ele>
        <time>2013-03-09T08:25:11Z</time>
      </trkpt>
      <trkpt lat="42.87686" lon="-0.0442">
        <ele>1348</ele>
        <time>2013-03-09T08:25:19Z</time>
      </trkpt>
      <trkpt lat="42.87688" lon="-0.0443">
        <ele>1348</ele>
        <time>2013-03-09T08:25:27Z</time>
      </trkpt>
      <trkpt lat="42.87689" lon="-0.0444">
        <ele>1348</ele>
        <time>2013-03-09T08:25:34Z</time>
      </trkpt>
      <trkpt lat="42.87689" lon="-0.0445">
        <ele>1349</ele>
        <time>2013-03-09T08:25:42Z</time>
      </trkpt>
      <trkpt lat="42.87688" lon="-0.04459">
        <ele>1350</ele>
        <time>2013-03-09T08:25:50Z</time>
      </trkpt>
      <trkpt lat="42.87688" lon="-0.04468">
        <ele>1350</ele>
        <time>2013-03-09T08:25:58Z</time>
      </trkpt>
      <trkpt lat="42.87689" lon="-0.04476">
        <ele>1351</ele>
        <time>2013-03-09T08:26:05Z</time>
      </trkpt>
      <trkpt lat="42.87688" lon="-0.04486">
        <ele>1352</ele>
        <time>2013-03-09T08:26:13Z</time>
      </trkpt>
      <trkpt lat="42.87689" lon="-0.04498">
        <ele>1353</ele>
        <time>2013-03-09T08:26:22Z</time>
      </trkpt>
      <trkpt lat="42.87688" lon="-0.04507">
        <ele>1361</ele>
        <time>2013-03-09T08:26:29Z</time>
      </trkpt>
      <trkpt lat="42.87685" lon="-0.04515">
        <ele>1362</ele>
        <time>2013-03-09T08:26:36Z</time>
      </trkpt>
      <trkpt lat="42.8768" lon="-0.04521">
        <ele>1362</ele>
        <time>2013-03-09T08:26:44Z</time>
      </trkpt>
      <trkpt lat="42.87675" lon="-0.04528">
        <ele>1363</ele>
        <time>2013-03-09T08:26:53Z</time>
      </trkpt>
      <trkpt lat="42.87671" lon="-0.04535">
        <ele>1364</ele>
        <time>2013-03-09T08:27:01Z</time>
      </trkpt>
      <trkpt lat="42.87667" lon="-0.04544">
        <ele>1365</ele>
        <time>2013-03-09T08:27:09Z</time>
      </trkpt>
      <trkpt lat="42.87662" lon="-0.04551">
        <ele>1369</ele>
        <time>2013-03-09T08:27:17Z</time>
      </trkpt>
      <trkpt lat="42.87654" lon="-0.04561">
        <ele>1369</ele>
        <time>2013-03-09T08:27:26Z</time>
      </trkpt>
      <trkpt lat="42.87649" lon="-0.04571">
        <ele>1369</ele>
        <time>2013-03-09T08:27:34Z</time>
      </trkpt>
      <trkpt lat="42.87645" lon="-0.04579">
        <ele>1370</ele>
        <time>2013-03-09T08:27:42Z</time>
      </trkpt>
      <trkpt lat="42.87642" lon="-0.04591">
        <ele>1373</ele>
        <time>2013-03-09T08:27:51Z</time>
      </trkpt>
      <trkpt lat="42.87637" lon="-0.04598">
        <ele>1374</ele>
        <time>2013-03-09T08:27:58Z</time>
      </trkpt>
      <trkpt lat="42.87633" lon="-0.04608">
        <ele>1375</ele>
        <time>2013-03-09T08:28:07Z</time>
      </trkpt>
      <trkpt lat="42.8763" lon="-0.04612">
        <ele>1375</ele>
        <time>2013-03-09T08:28:10Z</time>
      </trkpt>
      <trkpt lat="42.87623" lon="-0.04617">
        <ele>1376</ele>
        <time>2013-03-09T08:28:18Z</time>
      </trkpt>
      <trkpt lat="42.87616" lon="-0.04619">
        <ele>1375</ele>
        <time>2013-03-09T08:28:25Z</time>
      </trkpt>
      <trkpt lat="42.87608" lon="-0.04621">
        <ele>1375</ele>
        <time>2013-03-09T08:28:32Z</time>
      </trkpt>
      <trkpt lat="42.87604" lon="-0.04629">
        <ele>1375</ele>
        <time>2013-03-09T08:28:39Z</time>
      </trkpt>
      <trkpt lat="42.87597" lon="-0.04636">
        <ele>1375</ele>
        <time>2013-03-09T08:28:48Z</time>
      </trkpt>
      <trkpt lat="42.87593" lon="-0.04638">
        <ele>1375</ele>
        <time>2013-03-09T08:28:57Z</time>
      </trkpt>
      <trkpt lat="42.87592" lon="-0.04646">
        <ele>1374</ele>
        <time>2013-03-09T08:29:04Z</time>
      </trkpt>
      <trkpt lat="42.87591" lon="-0.04648">
        <ele>1374</ele>
        <time>2013-03-09T08:29:09Z</time>
      </trkpt>
      <trkpt lat="42.87592" lon="-0.04652">
        <ele>1374</ele>
        <time>2013-03-09T08:29:12Z</time>
      </trkpt>
      <trkpt lat="42.87593" lon="-0.04666">
        <ele>1373</ele>
        <time>2013-03-09T08:29:21Z</time>
      </trkpt>
      <trkpt lat="42.87593" lon="-0.04676">
        <ele>1379</ele>
        <time>2013-03-09T08:29:28Z</time>
      </trkpt>
      <trkpt lat="42.87592" lon="-0.04688">
        <ele>1382</ele>
        <time>2013-03-09T08:29:36Z</time>
      </trkpt>
      <trkpt lat="42.87587" lon="-0.04695">
        <ele>1384</ele>
        <time>2013-03-09T08:29:44Z</time>
      </trkpt>
      <trkpt lat="42.87584" lon="-0.04695">
        <ele>1384</ele>
        <time>2013-03-09T08:29:52Z</time>
      </trkpt>
      <trkpt lat="42.87582" lon="-0.04696">
        <ele>1379</ele>
        <time>2013-03-09T08:29:58Z</time>
      </trkpt>
      <trkpt lat="42.87581" lon="-0.04698">
        <ele>1379</ele>
        <time>2013-03-09T08:30:07Z</time>
      </trkpt>
      <trkpt lat="42.87579" lon="-0.04699">
        <ele>1380</ele>
        <time>2013-03-09T08:30:18Z</time>
      </trkpt>
      <trkpt lat="42.8758" lon="-0.047">
        <ele>1380</ele>
        <time>2013-03-09T08:30:29Z</time>
      </trkpt>
      <trkpt lat="42.87579" lon="-0.04702">
        <ele>1380</ele>
        <time>2013-03-09T08:30:41Z</time>
      </trkpt>
      <trkpt lat="42.87581" lon="-0.04702">
        <ele>1380</ele>
        <time>2013-03-09T08:30:50Z</time>
      </trkpt>
      <trkpt lat="42.87581" lon="-0.04701">
        <ele>1380</ele>
        <time>2013-03-09T08:30:57Z</time>
      </trkpt>
      <trkpt lat="42.87579" lon="-0.04701">
        <ele>1380</ele>
        <time>2013-03-09T08:30:59Z</time>
      </trkpt>
      <trkpt lat="42.87575" lon="-0.04703">
        <ele>1380</ele>
        <time>2013-03-09T08:31:05Z</time>
      </trkpt>
      <trkpt lat="42.8757" lon="-0.04702">
        <ele>1380</ele>
        <time>2013-03-09T08:31:14Z</time>
      </trkpt>
      <trkpt lat="42.87567" lon="-0.04702">
        <ele>1380</ele>
        <time>2013-03-09T08:31:28Z</time>
      </trkpt>
      <trkpt lat="42.87563" lon="-0.04702">
        <ele>1381</ele>
        <time>2013-03-09T08:31:35Z</time>
      </trkpt>
      <trkpt lat="42.8756" lon="-0.04696">
        <ele>1380</ele>
        <time>2013-03-09T08:31:42Z</time>
      </trkpt>
      <trkpt lat="42.87551" lon="-0.04702">
        <ele>1382</ele>
        <time>2013-03-09T08:31:50Z</time>
      </trkpt>
      <trkpt lat="42.87544" lon="-0.04706">
        <ele>1382</ele>
        <time>2013-03-09T08:31:58Z</time>
      </trkpt>
      <trkpt lat="42.87539" lon="-0.04709">
        <ele>1382</ele>
        <time>2013-03-09T08:32:05Z</time>
      </trkpt>
      <trkpt lat="42.87532" lon="-0.04716">
        <ele>1383</ele>
        <time>2013-03-09T08:32:15Z</time>
      </trkpt>
      <trkpt lat="42.87527" lon="-0.04723">
        <ele>1383</ele>
        <time>2013-03-09T08:32:23Z</time>
      </trkpt>
      <trkpt lat="42.87522" lon="-0.04729">
        <ele>1383</ele>
        <time>2013-03-09T08:32:31Z</time>
      </trkpt>
      <trkpt lat="42.87515" lon="-0.04735">
        <ele>1383</ele>
        <time>2013-03-09T08:32:38Z</time>
      </trkpt>
      <trkpt lat="42.8751" lon="-0.0474">
        <ele>1383</ele>
        <time>2013-03-09T08:32:47Z</time>
      </trkpt>
      <trkpt lat="42.87505" lon="-0.04743">
        <ele>1383</ele>
        <time>2013-03-09T08:32:55Z</time>
      </trkpt>
      <trkpt lat="42.87504" lon="-0.04744">
        <ele>1383</ele>
        <time>2013-03-09T08:32:57Z</time>
      </trkpt>
      <trkpt lat="42.875" lon="-0.04749">
        <ele>1383</ele>
        <time>2013-03-09T08:33:06Z</time>
      </trkpt>
      <trkpt lat="42.87497" lon="-0.04754">
        <ele>1386</ele>
        <time>2013-03-09T08:33:14Z</time>
      </trkpt>
      <trkpt lat="42.87494" lon="-0.04759">
        <ele>1389</ele>
        <time>2013-03-09T08:33:21Z</time>
      </trkpt>
      <trkpt lat="42.8749" lon="-0.04769">
        <ele>1392</ele>
        <time>2013-03-09T08:33:31Z</time>
      </trkpt>
      <trkpt lat="42.87482" lon="-0.04773">
        <ele>1394</ele>
        <time>2013-03-09T08:33:40Z</time>
      </trkpt>
      <trkpt lat="42.87479" lon="-0.04777">
        <ele>1395</ele>
        <time>2013-03-09T08:33:47Z</time>
      </trkpt>
      <trkpt lat="42.87476" lon="-0.0478">
        <ele>1396</ele>
        <time>2013-03-09T08:33:55Z</time>
      </trkpt>
      <trkpt lat="42.87471" lon="-0.04781">
        <ele>1396</ele>
        <time>2013-03-09T08:34:04Z</time>
      </trkpt>
      <trkpt lat="42.87464" lon="-0.04785">
        <ele>1397</ele>
        <time>2013-03-09T08:34:11Z</time>
      </trkpt>
      <trkpt lat="42.87459" lon="-0.04793">
        <ele>1398</ele>
        <time>2013-03-09T08:34:18Z</time>
      </trkpt>
      <trkpt lat="42.87455" lon="-0.04797">
        <ele>1398</ele>
        <time>2013-03-09T08:34:26Z</time>
      </trkpt>
      <trkpt lat="42.87449" lon="-0.04803">
        <ele>1399</ele>
        <time>2013-03-09T08:34:35Z</time>
      </trkpt>
      <trkpt lat="42.87445" lon="-0.04809">
        <ele>1399</ele>
        <time>2013-03-09T08:34:42Z</time>
      </trkpt>
      <trkpt lat="42.8744" lon="-0.04813">
        <ele>1399</ele>
        <time>2013-03-09T08:34:49Z</time>
      </trkpt>
      <trkpt lat="42.87438" lon="-0.04815">
        <ele>1400</ele>
        <time>2013-03-09T08:34:58Z</time>
      </trkpt>
      <trkpt lat="42.87433" lon="-0.0482">
        <ele>1400</ele>
        <time>2013-03-09T08:35:05Z</time>
      </trkpt>
      <trkpt lat="42.87428" lon="-0.0483">
        <ele>1400</ele>
        <time>2013-03-09T08:35:14Z</time>
      </trkpt>
      <trkpt lat="42.87426" lon="-0.04834">
        <ele>1408</ele>
        <time>2013-03-09T08:35:21Z</time>
      </trkpt>
      <trkpt lat="42.8742" lon="-0.04833">
        <ele>1401</ele>
        <time>2013-03-09T08:35:28Z</time>
      </trkpt>
      <trkpt lat="42.87416" lon="-0.04832">
        <ele>1402</ele>
        <time>2013-03-09T08:35:35Z</time>
      </trkpt>
      <trkpt lat="42.87414" lon="-0.04831">
        <ele>1403</ele>
        <time>2013-03-09T08:35:42Z</time>
      </trkpt>
      <trkpt lat="42.87405" lon="-0.04829">
        <ele>1407</ele>
        <time>2013-03-09T08:35:50Z</time>
      </trkpt>
      <trkpt lat="42.87402" lon="-0.04827">
        <ele>1409</ele>
        <time>2013-03-09T08:35:55Z</time>
      </trkpt>
      <trkpt lat="42.87398" lon="-0.04825">
        <ele>1410</ele>
        <time>2013-03-09T08:36:02Z</time>
      </trkpt>
      <trkpt lat="42.87393" lon="-0.04825">
        <ele>1412</ele>
        <time>2013-03-09T08:36:11Z</time>
      </trkpt>
      <trkpt lat="42.8739" lon="-0.04826">
        <ele>1413</ele>
        <time>2013-03-09T08:36:18Z</time>
      </trkpt>
      <trkpt lat="42.87386" lon="-0.04824">
        <ele>1414</ele>
        <time>2013-03-09T08:36:24Z</time>
      </trkpt>
      <trkpt lat="42.87387" lon="-0.04823">
        <ele>1414</ele>
        <time>2013-03-09T08:36:35Z</time>
      </trkpt>
      <trkpt lat="42.87387" lon="-0.04821">
        <ele>1414</ele>
        <time>2013-03-09T08:36:48Z</time>
      </trkpt>
      <trkpt lat="42.87388" lon="-0.04819">
        <ele>1414</ele>
        <time>2013-03-09T08:37:01Z</time>
      </trkpt>
      <trkpt lat="42.8739" lon="-0.04821">
        <ele>1413</ele>
        <time>2013-03-09T08:37:12Z</time>
      </trkpt>
      <trkpt lat="42.8739" lon="-0.04822">
        <ele>1413</ele>
        <time>2013-03-09T08:37:24Z</time>
      </trkpt>
      <trkpt lat="42.87386" lon="-0.04821">
        <ele>1414</ele>
        <time>2013-03-09T08:37:32Z</time>
      </trkpt>
      <trkpt lat="42.87388" lon="-0.04823">
        <ele>1413</ele>
        <time>2013-03-09T08:37:49Z</time>
      </trkpt>
      <trkpt lat="42.87389" lon="-0.04819">
        <ele>1414</ele>
        <time>2013-03-09T08:38:01Z</time>
      </trkpt>
      <trkpt lat="42.87388" lon="-0.04816">
        <ele>1414</ele>
        <time>2013-03-09T08:38:08Z</time>
      </trkpt>
      <trkpt lat="42.87386" lon="-0.04816">
        <ele>1414</ele>
        <time>2013-03-09T08:38:19Z</time>
      </trkpt>
      <trkpt lat="42.87385" lon="-0.04821">
        <ele>1414</ele>
        <time>2013-03-09T08:38:28Z</time>
      </trkpt>
      <trkpt lat="42.87385" lon="-0.0482">
        <ele>1414</ele>
        <time>2013-03-09T08:38:39Z</time>
      </trkpt>
      <trkpt lat="42.87384" lon="-0.04823">
        <ele>1414</ele>
        <time>2013-03-09T08:38:49Z</time>
      </trkpt>
      <trkpt lat="42.87382" lon="-0.04825">
        <ele>1415</ele>
        <time>2013-03-09T08:39:00Z</time>
      </trkpt>
      <trkpt lat="42.87381" lon="-0.04823">
        <ele>1415</ele>
        <time>2013-03-09T08:39:11Z</time>
      </trkpt>
      <trkpt lat="42.87383" lon="-0.0482">
        <ele>1415</ele>
        <time>2013-03-09T08:39:22Z</time>
      </trkpt>
      <trkpt lat="42.87381" lon="-0.0482">
        <ele>1415</ele>
        <time>2013-03-09T08:39:42Z</time>
      </trkpt>
      <trkpt lat="42.87384" lon="-0.04819">
        <ele>1415</ele>
        <time>2013-03-09T08:39:56Z</time>
      </trkpt>
      <trkpt lat="42.87384" lon="-0.04822">
        <ele>1415</ele>
        <time>2013-03-09T08:40:09Z</time>
      </trkpt>
      <trkpt lat="42.87384" lon="-0.04825">
        <ele>1415</ele>
        <time>2013-03-09T08:40:23Z</time>
      </trkpt>
      <trkpt lat="42.87383" lon="-0.04831">
        <ele>1414</ele>
        <time>2013-03-09T08:40:34Z</time>
      </trkpt>
      <trkpt lat="42.87379" lon="-0.04833">
        <ele>1420</ele>
        <time>2013-03-09T08:40:41Z</time>
      </trkpt>
      <trkpt lat="42.87376" lon="-0.0483">
        <ele>1416</ele>
        <time>2013-03-09T08:40:50Z</time>
      </trkpt>
      <trkpt lat="42.87374" lon="-0.04827">
        <ele>1417</ele>
        <time>2013-03-09T08:40:57Z</time>
      </trkpt>
      <trkpt lat="42.87375" lon="-0.04828">
        <ele>1417</ele>
        <time>2013-03-09T08:41:04Z</time>
      </trkpt>
      <trkpt lat="42.87374" lon="-0.04828">
        <ele>1417</ele>
        <time>2013-03-09T08:41:14Z</time>
      </trkpt>
      <trkpt lat="42.87373" lon="-0.04825">
        <ele>1417</ele>
        <time>2013-03-09T08:41:33Z</time>
      </trkpt>
      <trkpt lat="42.87372" lon="-0.0483">
        <ele>1417</ele>
        <time>2013-03-09T08:41:41Z</time>
      </trkpt>
      <trkpt lat="42.8737" lon="-0.04833">
        <ele>1418</ele>
        <time>2013-03-09T08:41:50Z</time>
      </trkpt>
      <trkpt lat="42.87369" lon="-0.04836">
        <ele>1423</ele>
        <time>2013-03-09T08:42:00Z</time>
      </trkpt>
      <trkpt lat="42.87367" lon="-0.04843">
        <ele>1423</ele>
        <time>2013-03-09T08:42:07Z</time>
      </trkpt>
      <trkpt lat="42.87365" lon="-0.04849">
        <ele>1424</ele>
        <time>2013-03-09T08:42:15Z</time>
      </trkpt>
      <trkpt lat="42.87362" lon="-0.04853">
        <ele>1425</ele>
        <time>2013-03-09T08:42:23Z</time>
      </trkpt>
      <trkpt lat="42.87355" lon="-0.04849">
        <ele>1425</ele>
        <time>2013-03-09T08:42:32Z</time>
      </trkpt>
      <trkpt lat="42.87354" lon="-0.04847">
        <ele>1426</ele>
        <time>2013-03-09T08:42:35Z</time>
      </trkpt>
      <trkpt lat="42.87351" lon="-0.04843">
        <ele>1426</ele>
        <time>2013-03-09T08:42:42Z</time>
      </trkpt>
      <trkpt lat="42.87345" lon="-0.04843">
        <ele>1426</ele>
        <time>2013-03-09T08:42:51Z</time>
      </trkpt>
      <trkpt lat="42.87345" lon="-0.04842">
        <ele>1426</ele>
        <time>2013-03-09T08:42:58Z</time>
      </trkpt>
      <trkpt lat="42.87343" lon="-0.04849">
        <ele>1426</ele>
        <time>2013-03-09T08:43:09Z</time>
      </trkpt>
      <trkpt lat="42.87341" lon="-0.04852">
        <ele>1427</ele>
        <time>2013-03-09T08:43:12Z</time>
      </trkpt>
      <trkpt lat="42.8734" lon="-0.04856">
        <ele>1427</ele>
        <time>2013-03-09T08:43:20Z</time>
      </trkpt>
      <trkpt lat="42.87337" lon="-0.04863">
        <ele>1428</ele>
        <time>2013-03-09T08:43:29Z</time>
      </trkpt>
      <trkpt lat="42.87332" lon="-0.0487">
        <ele>1445</ele>
        <time>2013-03-09T08:43:37Z</time>
      </trkpt>
      <trkpt lat="42.87328" lon="-0.04872">
        <ele>1446</ele>
        <time>2013-03-09T08:43:45Z</time>
      </trkpt>
      <trkpt lat="42.87322" lon="-0.0487">
        <ele>1446</ele>
        <time>2013-03-09T08:43:55Z</time>
      </trkpt>
      <trkpt lat="42.87312" lon="-0.04867">
        <ele>1447</ele>
        <time>2013-03-09T08:44:06Z</time>
      </trkpt>
      <trkpt lat="42.87306" lon="-0.04867">
        <ele>1448</ele>
        <time>2013-03-09T08:44:14Z</time>
      </trkpt>
      <trkpt lat="42.87307" lon="-0.04866">
        <ele>1448</ele>
        <time>2013-03-09T08:44:19Z</time>
      </trkpt>
      <trkpt lat="42.87307" lon="-0.04875">
        <ele>1449</ele>
        <time>2013-03-09T08:44:27Z</time>
      </trkpt>
      <trkpt lat="42.87308" lon="-0.04876">
        <ele>1449</ele>
        <time>2013-03-09T08:44:29Z</time>
      </trkpt>
      <trkpt lat="42.8731" lon="-0.04883">
        <ele>1449</ele>
        <time>2013-03-09T08:44:36Z</time>
      </trkpt>
      <trkpt lat="42.87311" lon="-0.0489">
        <ele>1449</ele>
        <time>2013-03-09T08:44:43Z</time>
      </trkpt>
      <trkpt lat="42.87311" lon="-0.04894">
        <ele>1450</ele>
        <time>2013-03-09T08:44:50Z</time>
      </trkpt>
      <trkpt lat="42.8731" lon="-0.04894">
        <ele>1450</ele>
        <time>2013-03-09T08:44:57Z</time>
      </trkpt>
      <trkpt lat="42.87305" lon="-0.04894">
        <ele>1451</ele>
        <time>2013-03-09T08:45:08Z</time>
      </trkpt>
      <trkpt lat="42.87301" lon="-0.04892">
        <ele>1452</ele>
        <time>2013-03-09T08:45:17Z</time>
      </trkpt>
      <trkpt lat="42.87301" lon="-0.04898">
        <ele>1452</ele>
        <time>2013-03-09T08:45:26Z</time>
      </trkpt>
      <trkpt lat="42.87301" lon="-0.04902">
        <ele>1452</ele>
        <time>2013-03-09T08:45:30Z</time>
      </trkpt>
      <trkpt lat="42.873" lon="-0.04909">
        <ele>1452</ele>
        <time>2013-03-09T08:45:38Z</time>
      </trkpt>
      <trkpt lat="42.87299" lon="-0.04913">
        <ele>1453</ele>
        <time>2013-03-09T08:45:46Z</time>
      </trkpt>
      <trkpt lat="42.87297" lon="-0.04912">
        <ele>1453</ele>
        <time>2013-03-09T08:45:55Z</time>
      </trkpt>
      <trkpt lat="42.87296" lon="-0.04914">
        <ele>1453</ele>
        <time>2013-03-09T08:46:01Z</time>
      </trkpt>
      <trkpt lat="42.87294" lon="-0.04912">
        <ele>1454</ele>
        <time>2013-03-09T08:46:07Z</time>
      </trkpt>
      <trkpt lat="42.87285" lon="-0.0491">
        <ele>1456</ele>
        <time>2013-03-09T08:46:15Z</time>
      </trkpt>
      <trkpt lat="42.87278" lon="-0.04908">
        <ele>1459</ele>
        <time>2013-03-09T08:46:24Z</time>
      </trkpt>
      <trkpt lat="42.87274" lon="-0.04906">
        <ele>1460</ele>
        <time>2013-03-09T08:46:29Z</time>
      </trkpt>
      <trkpt lat="42.87269" lon="-0.04903">
        <ele>1461</ele>
        <time>2013-03-09T08:46:37Z</time>
      </trkpt>
      <trkpt lat="42.8727" lon="-0.04899">
        <ele>1460</ele>
        <time>2013-03-09T08:46:45Z</time>
      </trkpt>
      <trkpt lat="42.8727" lon="-0.04903">
        <ele>1461</ele>
        <time>2013-03-09T08:46:53Z</time>
      </trkpt>
      <trkpt lat="42.87272" lon="-0.04908">
        <ele>1461</ele>
        <time>2013-03-09T08:47:01Z</time>
      </trkpt>
      <trkpt lat="42.87274" lon="-0.04915">
        <ele>1461</ele>
        <time>2013-03-09T08:47:09Z</time>
      </trkpt>
      <trkpt lat="42.87275" lon="-0.04922">
        <ele>1472</ele>
        <time>2013-03-09T08:47:17Z</time>
      </trkpt>
      <trkpt lat="42.87277" lon="-0.0493">
        <ele>1472</ele>
        <time>2013-03-09T08:47:24Z</time>
      </trkpt>
      <trkpt lat="42.87278" lon="-0.04936">
        <ele>1472</ele>
        <time>2013-03-09T08:47:30Z</time>
      </trkpt>
      <trkpt lat="42.87278" lon="-0.0494">
        <ele>1473</ele>
        <time>2013-03-09T08:47:36Z</time>
      </trkpt>
      <trkpt lat="42.87278" lon="-0.04942">
        <ele>1473</ele>
        <time>2013-03-09T08:47:43Z</time>
      </trkpt>
      <trkpt lat="42.87275" lon="-0.04946">
        <ele>1474</ele>
        <time>2013-03-09T08:47:53Z</time>
      </trkpt>
      <trkpt lat="42.87272" lon="-0.04945">
        <ele>1474</ele>
        <time>2013-03-09T08:48:01Z</time>
      </trkpt>
      <trkpt lat="42.87268" lon="-0.04945">
        <ele>1475</ele>
        <time>2013-03-09T08:48:08Z</time>
      </trkpt>
      <trkpt lat="42.87264" lon="-0.04944">
        <ele>1475</ele>
        <time>2013-03-09T08:48:16Z</time>
      </trkpt>
      <trkpt lat="42.87259" lon="-0.04942">
        <ele>1475</ele>
        <time>2013-03-09T08:48:22Z</time>
      </trkpt>
      <trkpt lat="42.87254" lon="-0.0494">
        <ele>1475</ele>
        <time>2013-03-09T08:48:32Z</time>
      </trkpt>
      <trkpt lat="42.87246" lon="-0.04936">
        <ele>1492</ele>
        <time>2013-03-09T08:48:43Z</time>
      </trkpt>
      <trkpt lat="42.87245" lon="-0.04935">
        <ele>1491</ele>
        <time>2013-03-09T08:48:48Z</time>
      </trkpt>
      <trkpt lat="42.87244" lon="-0.04939">
        <ele>1493</ele>
        <time>2013-03-09T08:48:56Z</time>
      </trkpt>
      <trkpt lat="42.87247" lon="-0.04946">
        <ele>1496</ele>
        <time>2013-03-09T08:49:05Z</time>
      </trkpt>
      <trkpt lat="42.87247" lon="-0.04951">
        <ele>1497</ele>
        <time>2013-03-09T08:49:11Z</time>
      </trkpt>
      <trkpt lat="42.87249" lon="-0.04956">
        <ele>1498</ele>
        <time>2013-03-09T08:49:19Z</time>
      </trkpt>
      <trkpt lat="42.87251" lon="-0.04962">
        <ele>1479</ele>
        <time>2013-03-09T08:49:26Z</time>
      </trkpt>
      <trkpt lat="42.87251" lon="-0.0497">
        <ele>1481</ele>
        <time>2013-03-09T08:49:34Z</time>
      </trkpt>
      <trkpt lat="42.87252" lon="-0.04978">
        <ele>1484</ele>
        <time>2013-03-09T08:49:42Z</time>
      </trkpt>
      <trkpt lat="42.87252" lon="-0.04983">
        <ele>1486</ele>
        <time>2013-03-09T08:49:48Z</time>
      </trkpt>
      <trkpt lat="42.87253" lon="-0.0499">
        <ele>1490</ele>
        <time>2013-03-09T08:49:57Z</time>
      </trkpt>
      <trkpt lat="42.87252" lon="-0.05">
        <ele>1499</ele>
        <time>2013-03-09T08:50:05Z</time>
      </trkpt>
      <trkpt lat="42.87253" lon="-0.05005">
        <ele>1501</ele>
        <time>2013-03-09T08:50:12Z</time>
      </trkpt>
      <trkpt lat="42.87254" lon="-0.05013">
        <ele>1504</ele>
        <time>2013-03-09T08:50:19Z</time>
      </trkpt>
      <trkpt lat="42.87254" lon="-0.05018">
        <ele>1506</ele>
        <time>2013-03-09T08:50:25Z</time>
      </trkpt>
      <trkpt lat="42.87255" lon="-0.05021">
        <ele>1508</ele>
        <time>2013-03-09T08:50:31Z</time>
      </trkpt>
      <trkpt lat="42.87257" lon="-0.05024">
        <ele>1509</ele>
        <time>2013-03-09T08:50:36Z</time>
      </trkpt>
      <trkpt lat="42.8726" lon="-0.05025">
        <ele>1509</ele>
        <time>2013-03-09T08:50:43Z</time>
      </trkpt>
      <trkpt lat="42.8726" lon="-0.05026">
        <ele>1509</ele>
        <time>2013-03-09T08:50:51Z</time>
      </trkpt>
      <trkpt lat="42.87258" lon="-0.05026">
        <ele>1510</ele>
        <time>2013-03-09T08:51:05Z</time>
      </trkpt>
      <trkpt lat="42.87255" lon="-0.05029">
        <ele>1510</ele>
        <time>2013-03-09T08:51:12Z</time>
      </trkpt>
      <trkpt lat="42.87254" lon="-0.05031">
        <ele>1511</ele>
        <time>2013-03-09T08:51:19Z</time>
      </trkpt>
      <trkpt lat="42.87251" lon="-0.05032">
        <ele>1512</ele>
        <time>2013-03-09T08:51:26Z</time>
      </trkpt>
      <trkpt lat="42.87249" lon="-0.0503">
        <ele>1522</ele>
        <time>2013-03-09T08:51:32Z</time>
      </trkpt>
      <trkpt lat="42.87247" lon="-0.05025">
        <ele>1520</ele>
        <time>2013-03-09T08:51:40Z</time>
      </trkpt>
      <trkpt lat="42.87244" lon="-0.0502">
        <ele>1518</ele>
        <time>2013-03-09T08:51:47Z</time>
      </trkpt>
      <trkpt lat="42.8724" lon="-0.05014">
        <ele>1516</ele>
        <time>2013-03-09T08:51:56Z</time>
      </trkpt>
      <trkpt lat="42.87236" lon="-0.05007">
        <ele>1514</ele>
        <time>2013-03-09T08:52:04Z</time>
      </trkpt>
      <trkpt lat="42.87229" lon="-0.05004">
        <ele>1518</ele>
        <time>2013-03-09T08:52:16Z</time>
      </trkpt>
      <trkpt lat="42.87228" lon="-0.05">
        <ele>1518</ele>
        <time>2013-03-09T08:52:22Z</time>
      </trkpt>
      <trkpt lat="42.87227" lon="-0.05001">
        <ele>1518</ele>
        <time>2013-03-09T08:52:31Z</time>
      </trkpt>
      <trkpt lat="42.87227" lon="-0.05009">
        <ele>1520</ele>
        <time>2013-03-09T08:52:40Z</time>
      </trkpt>
      <trkpt lat="42.87226" lon="-0.05018">
        <ele>1522</ele>
        <time>2013-03-09T08:52:48Z</time>
      </trkpt>
      <trkpt lat="42.87226" lon="-0.05025">
        <ele>1525</ele>
        <time>2013-03-09T08:52:54Z</time>
      </trkpt>
      <trkpt lat="42.87227" lon="-0.05035">
        <ele>1527</ele>
        <time>2013-03-09T08:53:04Z</time>
      </trkpt>
      <trkpt lat="42.87228" lon="-0.0504">
        <ele>1529</ele>
        <time>2013-03-09T08:53:11Z</time>
      </trkpt>
      <trkpt lat="42.8723" lon="-0.05046">
        <ele>1530</ele>
        <time>2013-03-09T08:53:18Z</time>
      </trkpt>
      <trkpt lat="42.87231" lon="-0.05051">
        <ele>1531</ele>
        <time>2013-03-09T08:53:25Z</time>
      </trkpt>
      <trkpt lat="42.87234" lon="-0.05058">
        <ele>1532</ele>
        <time>2013-03-09T08:53:34Z</time>
      </trkpt>
      <trkpt lat="42.87237" lon="-0.05063">
        <ele>1533</ele>
        <time>2013-03-09T08:53:42Z</time>
      </trkpt>
      <trkpt lat="42.87238" lon="-0.05064">
        <ele>1533</ele>
        <time>2013-03-09T08:53:44Z</time>
      </trkpt>
      <trkpt lat="42.8724" lon="-0.05067">
        <ele>1534</ele>
        <time>2013-03-09T08:53:50Z</time>
      </trkpt>
      <trkpt lat="42.87243" lon="-0.05068">
        <ele>1534</ele>
        <time>2013-03-09T08:53:58Z</time>
      </trkpt>
      <trkpt lat="42.87244" lon="-0.05069">
        <ele>1535</ele>
        <time>2013-03-09T08:54:05Z</time>
      </trkpt>
      <trkpt lat="42.87244" lon="-0.05072">
        <ele>1535</ele>
        <time>2013-03-09T08:54:16Z</time>
      </trkpt>
      <trkpt lat="42.87238" lon="-0.05075">
        <ele>1535</ele>
        <time>2013-03-09T08:54:25Z</time>
      </trkpt>
      <trkpt lat="42.87237" lon="-0.05075">
        <ele>1535</ele>
        <time>2013-03-09T08:54:26Z</time>
      </trkpt>
      <trkpt lat="42.87232" lon="-0.05077">
        <ele>1536</ele>
        <time>2013-03-09T08:54:35Z</time>
      </trkpt>
      <trkpt lat="42.87226" lon="-0.05076">
        <ele>1536</ele>
        <time>2013-03-09T08:54:42Z</time>
      </trkpt>
      <trkpt lat="42.87224" lon="-0.05075">
        <ele>1536</ele>
        <time>2013-03-09T08:54:50Z</time>
      </trkpt>
      <trkpt lat="42.8722" lon="-0.05073">
        <ele>1536</ele>
        <time>2013-03-09T08:54:59Z</time>
      </trkpt>
      <trkpt lat="42.87212" lon="-0.05071">
        <ele>1537</ele>
        <time>2013-03-09T08:55:08Z</time>
      </trkpt>
      <trkpt lat="42.87213" lon="-0.05066">
        <ele>1536</ele>
        <time>2013-03-09T08:55:15Z</time>
      </trkpt>
      <trkpt lat="42.87212" lon="-0.05068">
        <ele>1536</ele>
        <time>2013-03-09T08:55:21Z</time>
      </trkpt>
      <trkpt lat="42.87212" lon="-0.05069">
        <ele>1536</ele>
        <time>2013-03-09T08:55:22Z</time>
      </trkpt>
      <trkpt lat="42.87213" lon="-0.05074">
        <ele>1537</ele>
        <time>2013-03-09T08:55:29Z</time>
      </trkpt>
      <trkpt lat="42.87215" lon="-0.05078">
        <ele>1537</ele>
        <time>2013-03-09T08:55:36Z</time>
      </trkpt>
      <trkpt lat="42.87216" lon="-0.05083">
        <ele>1556</ele>
        <time>2013-03-09T08:55:45Z</time>
      </trkpt>
      <trkpt lat="42.87218" lon="-0.05093">
        <ele>1557</ele>
        <time>2013-03-09T08:55:55Z</time>
      </trkpt>
      <trkpt lat="42.87218" lon="-0.05097">
        <ele>1557</ele>
        <time>2013-03-09T08:56:03Z</time>
      </trkpt>
      <trkpt lat="42.87221" lon="-0.05105">
        <ele>1558</ele>
        <time>2013-03-09T08:56:14Z</time>
      </trkpt>
      <trkpt lat="42.87225" lon="-0.05113">
        <ele>1559</ele>
        <time>2013-03-09T08:56:23Z</time>
      </trkpt>
      <trkpt lat="42.87227" lon="-0.05119">
        <ele>1560</ele>
        <time>2013-03-09T08:56:30Z</time>
      </trkpt>
      <trkpt lat="42.87226" lon="-0.05123">
        <ele>1561</ele>
        <time>2013-03-09T08:56:36Z</time>
      </trkpt>
      <trkpt lat="42.87224" lon="-0.05129">
        <ele>1563</ele>
        <time>2013-03-09T08:56:45Z</time>
      </trkpt>
      <trkpt lat="42.87225" lon="-0.05135">
        <ele>1564</ele>
        <time>2013-03-09T08:56:53Z</time>
      </trkpt>
      <trkpt lat="42.87226" lon="-0.05139">
        <ele>1565</ele>
        <time>2013-03-09T08:57:01Z</time>
      </trkpt>
      <trkpt lat="42.8723" lon="-0.05144">
        <ele>1565</ele>
        <time>2013-03-09T08:57:07Z</time>
      </trkpt>
      <trkpt lat="42.87232" lon="-0.05147">
        <ele>1565</ele>
        <time>2013-03-09T08:57:13Z</time>
      </trkpt>
      <trkpt lat="42.87235" lon="-0.0515">
        <ele>1565</ele>
        <time>2013-03-09T08:57:19Z</time>
      </trkpt>
      <trkpt lat="42.87238" lon="-0.05154">
        <ele>1566</ele>
        <time>2013-03-09T08:57:26Z</time>
      </trkpt>
      <trkpt lat="42.87239" lon="-0.0516">
        <ele>1566</ele>
        <time>2013-03-09T08:57:33Z</time>
      </trkpt>
      <trkpt lat="42.87237" lon="-0.05167">
        <ele>1578</ele>
        <time>2013-03-09T08:57:43Z</time>
      </trkpt>
      <trkpt lat="42.87236" lon="-0.05169">
        <ele>1579</ele>
        <time>2013-03-09T08:57:45Z</time>
      </trkpt>
      <trkpt lat="42.87234" lon="-0.05175">
        <ele>1581</ele>
        <time>2013-03-09T08:57:51Z</time>
      </trkpt>
      <trkpt lat="42.87233" lon="-0.0518">
        <ele>1583</ele>
        <time>2013-03-09T08:57:58Z</time>
      </trkpt>
      <trkpt lat="42.87229" lon="-0.05181">
        <ele>1585</ele>
        <time>2013-03-09T08:58:07Z</time>
      </trkpt>
      <trkpt lat="42.87223" lon="-0.05185">
        <ele>1588</ele>
        <time>2013-03-09T08:58:17Z</time>
      </trkpt>
      <trkpt lat="42.87219" lon="-0.05189">
        <ele>1589</ele>
        <time>2013-03-09T08:58:23Z</time>
      </trkpt>
      <trkpt lat="42.87215" lon="-0.05192">
        <ele>1591</ele>
        <time>2013-03-09T08:58:33Z</time>
      </trkpt>
      <trkpt lat="42.87211" lon="-0.05194">
        <ele>1592</ele>
        <time>2013-03-09T08:58:39Z</time>
      </trkpt>
      <trkpt lat="42.8721" lon="-0.05195">
        <ele>1592</ele>
        <time>2013-03-09T08:58:40Z</time>
      </trkpt>
      <trkpt lat="42.87209" lon="-0.05193">
        <ele>1592</ele>
        <time>2013-03-09T08:58:48Z</time>
      </trkpt>
      <trkpt lat="42.87213" lon="-0.05191">
        <ele>1591</ele>
        <time>2013-03-09T08:58:59Z</time>
      </trkpt>
      <trkpt lat="42.87212" lon="-0.05194">
        <ele>1592</ele>
        <time>2013-03-09T08:59:10Z</time>
      </trkpt>
      <trkpt lat="42.87207" lon="-0.05192">
        <ele>1593</ele>
        <time>2013-03-09T08:59:23Z</time>
      </trkpt>
      <trkpt lat="42.87209" lon="-0.05195">
        <ele>1593</ele>
        <time>2013-03-09T08:59:29Z</time>
      </trkpt>
      <trkpt lat="42.87212" lon="-0.05202">
        <ele>1593</ele>
        <time>2013-03-09T08:59:38Z</time>
      </trkpt>
      <trkpt lat="42.87214" lon="-0.05205">
        <ele>1593</ele>
        <time>2013-03-09T08:59:44Z</time>
      </trkpt>
      <trkpt lat="42.87215" lon="-0.05207">
        <ele>1594</ele>
        <time>2013-03-09T08:59:48Z</time>
      </trkpt>
      <trkpt lat="42.8722" lon="-0.05211">
        <ele>1593</ele>
        <time>2013-03-09T08:59:56Z</time>
      </trkpt>
      <trkpt lat="42.87223" lon="-0.05212">
        <ele>1593</ele>
        <time>2013-03-09T09:00:03Z</time>
      </trkpt>
      <trkpt lat="42.87225" lon="-0.05213">
        <ele>1593</ele>
        <time>2013-03-09T09:00:12Z</time>
      </trkpt>
      <trkpt lat="42.87227" lon="-0.05214">
        <ele>1593</ele>
        <time>2013-03-09T09:00:17Z</time>
      </trkpt>
      <trkpt lat="42.8723" lon="-0.05215">
        <ele>1592</ele>
        <time>2013-03-09T09:00:24Z</time>
      </trkpt>
      <trkpt lat="42.87234" lon="-0.05217">
        <ele>1592</ele>
        <time>2013-03-09T09:00:32Z</time>
      </trkpt>
      <trkpt lat="42.87237" lon="-0.05217">
        <ele>1592</ele>
        <time>2013-03-09T09:00:39Z</time>
      </trkpt>
      <trkpt lat="42.87243" lon="-0.05212">
        <ele>1590</ele>
        <time>2013-03-09T09:00:47Z</time>
      </trkpt>
      <trkpt lat="42.87248" lon="-0.05209">
        <ele>1589</ele>
        <time>2013-03-09T09:00:54Z</time>
      </trkpt>
      <trkpt lat="42.87253" lon="-0.05207">
        <ele>1577</ele>
        <time>2013-03-09T09:01:00Z</time>
      </trkpt>
      <trkpt lat="42.87256" lon="-0.05208">
        <ele>1577</ele>
        <time>2013-03-09T09:01:09Z</time>
      </trkpt>
      <trkpt lat="42.87261" lon="-0.0521">
        <ele>1578</ele>
        <time>2013-03-09T09:01:15Z</time>
      </trkpt>
      <trkpt lat="42.87266" lon="-0.05212">
        <ele>1578</ele>
        <time>2013-03-09T09:01:23Z</time>
      </trkpt>
      <trkpt lat="42.8727" lon="-0.05216">
        <ele>1579</ele>
        <time>2013-03-09T09:01:30Z</time>
      </trkpt>
      <trkpt lat="42.87272" lon="-0.0522">
        <ele>1579</ele>
        <time>2013-03-09T09:01:37Z</time>
      </trkpt>
      <trkpt lat="42.87274" lon="-0.05218">
        <ele>1579</ele>
        <time>2013-03-09T09:01:45Z</time>
      </trkpt>
      <trkpt lat="42.87275" lon="-0.05221">
        <ele>1579</ele>
        <time>2013-03-09T09:02:01Z</time>
      </trkpt>
      <trkpt lat="42.87275" lon="-0.05222">
        <ele>1579</ele>
        <time>2013-03-09T09:02:14Z</time>
      </trkpt>
      <trkpt lat="42.87272" lon="-0.05219">
        <ele>1579</ele>
        <time>2013-03-09T09:02:27Z</time>
      </trkpt>
      <trkpt lat="42.87276" lon="-0.05221">
        <ele>1579</ele>
        <time>2013-03-09T09:02:44Z</time>
      </trkpt>
      <trkpt lat="42.87277" lon="-0.05228">
        <ele>1580</ele>
        <time>2013-03-09T09:03:00Z</time>
      </trkpt>
      <trkpt lat="42.87279" lon="-0.05233">
        <ele>1580</ele>
        <time>2013-03-09T09:03:11Z</time>
      </trkpt>
      <trkpt lat="42.8728" lon="-0.05229">
        <ele>1580</ele>
        <time>2013-03-09T09:03:29Z</time>
      </trkpt>
      <trkpt lat="42.87278" lon="-0.05226">
        <ele>1579</ele>
        <time>2013-03-09T09:03:38Z</time>
      </trkpt>
      <trkpt lat="42.87278" lon="-0.05229">
        <ele>1580</ele>
        <time>2013-03-09T09:03:57Z</time>
      </trkpt>
      <trkpt lat="42.87277" lon="-0.05225">
        <ele>1579</ele>
        <time>2013-03-09T09:04:09Z</time>
      </trkpt>
      <trkpt lat="42.87277" lon="-0.05226">
        <ele>1580</ele>
        <time>2013-03-09T09:04:23Z</time>
      </trkpt>
      <trkpt lat="42.87278" lon="-0.05221">
        <ele>1579</ele>
        <time>2013-03-09T09:04:41Z</time>
      </trkpt>
      <trkpt lat="42.87276" lon="-0.0522">
        <ele>1579</ele>
        <time>2013-03-09T09:05:00Z</time>
      </trkpt>
      <trkpt lat="42.87275" lon="-0.05219">
        <ele>1579</ele>
        <time>2013-03-09T09:05:14Z</time>
      </trkpt>
      <trkpt lat="42.87276" lon="-0.05223">
        <ele>1579</ele>
        <time>2013-03-09T09:05:33Z</time>
      </trkpt>
      <trkpt lat="42.87277" lon="-0.05226">
        <ele>1579</ele>
        <time>2013-03-09T09:05:45Z</time>
      </trkpt>
      <trkpt lat="42.87277" lon="-0.0523">
        <ele>1580</ele>
        <time>2013-03-09T09:05:54Z</time>
      </trkpt>
      <trkpt lat="42.87273" lon="-0.05233">
        <ele>1581</ele>
        <time>2013-03-09T09:06:01Z</time>
      </trkpt>
      <trkpt lat="42.87272" lon="-0.05236">
        <ele>1581</ele>
        <time>2013-03-09T09:06:08Z</time>
      </trkpt>
      <trkpt lat="42.87271" lon="-0.05242">
        <ele>1582</ele>
        <time>2013-03-09T09:06:15Z</time>
      </trkpt>
      <trkpt lat="42.8727" lon="-0.05247">
        <ele>1583</ele>
        <time>2013-03-09T09:06:22Z</time>
      </trkpt>
      <trkpt lat="42.87269" lon="-0.05253">
        <ele>1588</ele>
        <time>2013-03-09T09:06:31Z</time>
      </trkpt>
      <trkpt lat="42.87268" lon="-0.05256">
        <ele>1589</ele>
        <time>2013-03-09T09:06:38Z</time>
      </trkpt>
      <trkpt lat="42.87264" lon="-0.0526">
        <ele>1589</ele>
        <time>2013-03-09T09:06:44Z</time>
      </trkpt>
      <trkpt lat="42.87262" lon="-0.05263">
        <ele>1589</ele>
        <time>2013-03-09T09:06:50Z</time>
      </trkpt>
      <trkpt lat="42.87257" lon="-0.05265">
        <ele>1589</ele>
        <time>2013-03-09T09:06:59Z</time>
      </trkpt>
      <trkpt lat="42.87253" lon="-0.05274">
        <ele>1590</ele>
        <time>2013-03-09T09:07:11Z</time>
      </trkpt>
      <trkpt lat="42.87251" lon="-0.0528">
        <ele>1590</ele>
        <time>2013-03-09T09:07:18Z</time>
      </trkpt>
      <trkpt lat="42.8725" lon="-0.05287">
        <ele>1611</ele>
        <time>2013-03-09T09:07:26Z</time>
      </trkpt>
      <trkpt lat="42.87246" lon="-0.05286">
        <ele>1612</ele>
        <time>2013-03-09T09:07:32Z</time>
      </trkpt>
      <trkpt lat="42.87241" lon="-0.05282">
        <ele>1612</ele>
        <time>2013-03-09T09:07:42Z</time>
      </trkpt>
      <trkpt lat="42.87238" lon="-0.0528">
        <ele>1612</ele>
        <time>2013-03-09T09:07:49Z</time>
      </trkpt>
      <trkpt lat="42.87231" lon="-0.05278">
        <ele>1613</ele>
        <time>2013-03-09T09:08:00Z</time>
      </trkpt>
      <trkpt lat="42.8723" lon="-0.05278">
        <ele>1613</ele>
        <time>2013-03-09T09:08:02Z</time>
      </trkpt>
      <trkpt lat="42.87224" lon="-0.05279">
        <ele>1615</ele>
        <time>2013-03-09T09:08:11Z</time>
      </trkpt>
      <trkpt lat="42.87219" lon="-0.0528">
        <ele>1617</ele>
        <time>2013-03-09T09:08:18Z</time>
      </trkpt>
      <trkpt lat="42.87214" lon="-0.0528">
        <ele>1618</ele>
        <time>2013-03-09T09:08:26Z</time>
      </trkpt>
      <trkpt lat="42.87215" lon="-0.05277">
        <ele>1618</ele>
        <time>2013-03-09T09:08:36Z</time>
      </trkpt>
      <trkpt lat="42.87215" lon="-0.05277">
        <ele>1618</ele>
        <time>2013-03-09T09:08:43Z</time>
      </trkpt>
      <trkpt lat="42.87215" lon="-0.05278">
        <ele>1618</ele>
        <time>2013-03-09T09:08:53Z</time>
      </trkpt>
      <trkpt lat="42.87218" lon="-0.05281">
        <ele>1617</ele>
        <time>2013-03-09T09:08:59Z</time>
      </trkpt>
      <trkpt lat="42.87216" lon="-0.05282">
        <ele>1618</ele>
        <time>2013-03-09T09:09:06Z</time>
      </trkpt>
      <trkpt lat="42.87213" lon="-0.05283">
        <ele>1619</ele>
        <time>2013-03-09T09:09:12Z</time>
      </trkpt>
      <trkpt lat="42.87211" lon="-0.05285">
        <ele>1620</ele>
        <time>2013-03-09T09:09:20Z</time>
      </trkpt>
      <trkpt lat="42.87206" lon="-0.05286">
        <ele>1622</ele>
        <time>2013-03-09T09:09:28Z</time>
      </trkpt>
      <trkpt lat="42.87205" lon="-0.05283">
        <ele>1622</ele>
        <time>2013-03-09T09:09:34Z</time>
      </trkpt>
      <trkpt lat="42.87206" lon="-0.05289">
        <ele>1622</ele>
        <time>2013-03-09T09:09:42Z</time>
      </trkpt>
      <trkpt lat="42.87208" lon="-0.05295">
        <ele>1622</ele>
        <time>2013-03-09T09:09:51Z</time>
      </trkpt>
      <trkpt lat="42.87212" lon="-0.05294">
        <ele>1621</ele>
        <time>2013-03-09T09:10:00Z</time>
      </trkpt>
      <trkpt lat="42.87209" lon="-0.05296">
        <ele>1622</ele>
        <time>2013-03-09T09:10:06Z</time>
      </trkpt>
      <trkpt lat="42.87206" lon="-0.05299">
        <ele>1624</ele>
        <time>2013-03-09T09:10:13Z</time>
      </trkpt>
      <trkpt lat="42.87206" lon="-0.05302">
        <ele>1624</ele>
        <time>2013-03-09T09:10:20Z</time>
      </trkpt>
      <trkpt lat="42.87207" lon="-0.05307">
        <ele>1624</ele>
        <time>2013-03-09T09:10:27Z</time>
      </trkpt>
      <trkpt lat="42.87209" lon="-0.05315">
        <ele>1624</ele>
        <time>2013-03-09T09:10:36Z</time>
      </trkpt>
      <trkpt lat="42.87208" lon="-0.05321">
        <ele>1625</ele>
        <time>2013-03-09T09:10:44Z</time>
      </trkpt>
      <trkpt lat="42.87206" lon="-0.05324">
        <ele>1626</ele>
        <time>2013-03-09T09:10:47Z</time>
      </trkpt>
      <trkpt lat="42.87203" lon="-0.05325">
        <ele>1628</ele>
        <time>2013-03-09T09:10:54Z</time>
      </trkpt>
      <trkpt lat="42.872" lon="-0.05329">
        <ele>1630</ele>
        <time>2013-03-09T09:11:02Z</time>
      </trkpt>
      <trkpt lat="42.87198" lon="-0.05333">
        <ele>1632</ele>
        <time>2013-03-09T09:11:09Z</time>
      </trkpt>
      <trkpt lat="42.87195" lon="-0.05338">
        <ele>1642</ele>
        <time>2013-03-09T09:11:16Z</time>
      </trkpt>
      <trkpt lat="42.87195" lon="-0.05342">
        <ele>1642</ele>
        <time>2013-03-09T09:11:22Z</time>
      </trkpt>
      <trkpt lat="42.87192" lon="-0.05348">
        <ele>1642</ele>
        <time>2013-03-09T09:11:29Z</time>
      </trkpt>
      <trkpt lat="42.87191" lon="-0.05352">
        <ele>1643</ele>
        <time>2013-03-09T09:11:37Z</time>
      </trkpt>
      <trkpt lat="42.8719" lon="-0.05356">
        <ele>1643</ele>
        <time>2013-03-09T09:11:45Z</time>
      </trkpt>
      <trkpt lat="42.87189" lon="-0.05362">
        <ele>1642</ele>
        <time>2013-03-09T09:11:54Z</time>
      </trkpt>
      <trkpt lat="42.87187" lon="-0.05367">
        <ele>1642</ele>
        <time>2013-03-09T09:12:02Z</time>
      </trkpt>
      <trkpt lat="42.87185" lon="-0.0537">
        <ele>1643</ele>
        <time>2013-03-09T09:12:08Z</time>
      </trkpt>
      <trkpt lat="42.87183" lon="-0.05375">
        <ele>1643</ele>
        <time>2013-03-09T09:12:16Z</time>
      </trkpt>
      <trkpt lat="42.87178" lon="-0.05376">
        <ele>1644</ele>
        <time>2013-03-09T09:12:25Z</time>
      </trkpt>
      <trkpt lat="42.87175" lon="-0.0538">
        <ele>1644</ele>
        <time>2013-03-09T09:12:40Z</time>
      </trkpt>
      <trkpt lat="42.87175" lon="-0.05379">
        <ele>1644</ele>
        <time>2013-03-09T09:12:59Z</time>
      </trkpt>
      <trkpt lat="42.8717" lon="-0.05372">
        <ele>1645</ele>
        <time>2013-03-09T09:13:10Z</time>
      </trkpt>
      <trkpt lat="42.87165" lon="-0.05365">
        <ele>1672</ele>
        <time>2013-03-09T09:13:20Z</time>
      </trkpt>
      <trkpt lat="42.87162" lon="-0.05363">
        <ele>1672</ele>
        <time>2013-03-09T09:13:26Z</time>
      </trkpt>
      <trkpt lat="42.87158" lon="-0.05358">
        <ele>1672</ele>
        <time>2013-03-09T09:13:35Z</time>
      </trkpt>
      <trkpt lat="42.87156" lon="-0.05353">
        <ele>1672</ele>
        <time>2013-03-09T09:13:41Z</time>
      </trkpt>
      <trkpt lat="42.87153" lon="-0.05346">
        <ele>1671</ele>
        <time>2013-03-09T09:13:50Z</time>
      </trkpt>
      <trkpt lat="42.8715" lon="-0.05342">
        <ele>1672</ele>
        <time>2013-03-09T09:13:57Z</time>
      </trkpt>
      <trkpt lat="42.87147" lon="-0.05339">
        <ele>1672</ele>
        <time>2013-03-09T09:14:05Z</time>
      </trkpt>
      <trkpt lat="42.87144" lon="-0.05335">
        <ele>1674</ele>
        <time>2013-03-09T09:14:12Z</time>
      </trkpt>
      <trkpt lat="42.87142" lon="-0.05331">
        <ele>1668</ele>
        <time>2013-03-09T09:14:20Z</time>
      </trkpt>
      <trkpt lat="42.87139" lon="-0.05327">
        <ele>1669</ele>
        <time>2013-03-09T09:14:30Z</time>
      </trkpt>
      <trkpt lat="42.87135" lon="-0.05325">
        <ele>1670</ele>
        <time>2013-03-09T09:14:37Z</time>
      </trkpt>
      <trkpt lat="42.87131" lon="-0.05323">
        <ele>1671</ele>
        <time>2013-03-09T09:14:44Z</time>
      </trkpt>
      <trkpt lat="42.87128" lon="-0.05322">
        <ele>1672</ele>
        <time>2013-03-09T09:14:48Z</time>
      </trkpt>
      <trkpt lat="42.87123" lon="-0.0532">
        <ele>1673</ele>
        <time>2013-03-09T09:14:55Z</time>
      </trkpt>
      <trkpt lat="42.8712" lon="-0.05319">
        <ele>1674</ele>
        <time>2013-03-09T09:15:04Z</time>
      </trkpt>
      <trkpt lat="42.87122" lon="-0.05316">
        <ele>1673</ele>
        <time>2013-03-09T09:15:18Z</time>
      </trkpt>
      <trkpt lat="42.87121" lon="-0.05317">
        <ele>1674</ele>
        <time>2013-03-09T09:15:36Z</time>
      </trkpt>
      <trkpt lat="42.8712" lon="-0.05319">
        <ele>1674</ele>
        <time>2013-03-09T09:15:48Z</time>
      </trkpt>
      <trkpt lat="42.87117" lon="-0.05316">
        <ele>1675</ele>
        <time>2013-03-09T09:15:55Z</time>
      </trkpt>
      <trkpt lat="42.87112" lon="-0.05314">
        <ele>1676</ele>
        <time>2013-03-09T09:16:02Z</time>
      </trkpt>
      <trkpt lat="42.87107" lon="-0.0531">
        <ele>1677</ele>
        <time>2013-03-09T09:16:14Z</time>
      </trkpt>
      <trkpt lat="42.87102" lon="-0.05307">
        <ele>1678</ele>
        <time>2013-03-09T09:16:20Z</time>
      </trkpt>
      <trkpt lat="42.87101" lon="-0.05302">
        <ele>1677</ele>
        <time>2013-03-09T09:16:29Z</time>
      </trkpt>
      <trkpt lat="42.87101" lon="-0.05302">
        <ele>1677</ele>
        <time>2013-03-09T09:16:39Z</time>
      </trkpt>
      <trkpt lat="42.87101" lon="-0.05307">
        <ele>1678</ele>
        <time>2013-03-09T09:16:46Z</time>
      </trkpt>
      <trkpt lat="42.87099" lon="-0.05313">
        <ele>1681</ele>
        <time>2013-03-09T09:16:53Z</time>
      </trkpt>
      <trkpt lat="42.87098" lon="-0.0532">
        <ele>1683</ele>
        <time>2013-03-09T09:17:00Z</time>
      </trkpt>
      <trkpt lat="42.87096" lon="-0.05325">
        <ele>1687</ele>
        <time>2013-03-09T09:17:07Z</time>
      </trkpt>
      <trkpt lat="42.87096" lon="-0.05327">
        <ele>1687</ele>
        <time>2013-03-09T09:17:09Z</time>
      </trkpt>
      <trkpt lat="42.87094" lon="-0.05333">
        <ele>1690</ele>
        <time>2013-03-09T09:17:15Z</time>
      </trkpt>
      <trkpt lat="42.87093" lon="-0.0534">
        <ele>1693</ele>
        <time>2013-03-09T09:17:24Z</time>
      </trkpt>
      <trkpt lat="42.87093" lon="-0.05341">
        <ele>1693</ele>
        <time>2013-03-09T09:17:25Z</time>
      </trkpt>
      <trkpt lat="42.87092" lon="-0.05346">
        <ele>1692</ele>
        <time>2013-03-09T09:17:32Z</time>
      </trkpt>
      <trkpt lat="42.87091" lon="-0.05353">
        <ele>1690</ele>
        <time>2013-03-09T09:17:39Z</time>
      </trkpt>
      <trkpt lat="42.87089" lon="-0.05358">
        <ele>1689</ele>
        <time>2013-03-09T09:17:46Z</time>
      </trkpt>
      <trkpt lat="42.87089" lon="-0.05359">
        <ele>1689</ele>
        <time>2013-03-09T09:17:59Z</time>
      </trkpt>
      <trkpt lat="42.87086" lon="-0.05356">
        <ele>1690</ele>
        <time>2013-03-09T09:18:05Z</time>
      </trkpt>
      <trkpt lat="42.87085" lon="-0.05355">
        <ele>1690</ele>
        <time>2013-03-09T09:18:07Z</time>
      </trkpt>
      <trkpt lat="42.87081" lon="-0.05349">
        <ele>1711</ele>
        <time>2013-03-09T09:18:15Z</time>
      </trkpt>
      <trkpt lat="42.87078" lon="-0.05344">
        <ele>1710</ele>
        <time>2013-03-09T09:18:21Z</time>
      </trkpt>
      <trkpt lat="42.87076" lon="-0.05341">
        <ele>1709</ele>
        <time>2013-03-09T09:18:28Z</time>
      </trkpt>
      <trkpt lat="42.87076" lon="-0.05342">
        <ele>1709</ele>
        <time>2013-03-09T09:18:38Z</time>
      </trkpt>
      <trkpt lat="42.87076" lon="-0.05342">
        <ele>1709</ele>
        <time>2013-03-09T09:18:44Z</time>
      </trkpt>
      <trkpt lat="42.87076" lon="-0.05343">
        <ele>1710</ele>
        <time>2013-03-09T09:18:46Z</time>
      </trkpt>
      <trkpt lat="42.87074" lon="-0.0535">
        <ele>1713</ele>
        <time>2013-03-09T09:18:53Z</time>
      </trkpt>
      <trkpt lat="42.87074" lon="-0.05354">
        <ele>1714</ele>
        <time>2013-03-09T09:18:59Z</time>
      </trkpt>
      <trkpt lat="42.87074" lon="-0.05358">
        <ele>1715</ele>
        <time>2013-03-09T09:19:05Z</time>
      </trkpt>
      <trkpt lat="42.87073" lon="-0.05367">
        <ele>1716</ele>
        <time>2013-03-09T09:19:16Z</time>
      </trkpt>
      <trkpt lat="42.87072" lon="-0.05369">
        <ele>1717</ele>
        <time>2013-03-09T09:19:19Z</time>
      </trkpt>
      <trkpt lat="42.8707" lon="-0.05374">
        <ele>1717</ele>
        <time>2013-03-09T09:19:26Z</time>
      </trkpt>
      <trkpt lat="42.87069" lon="-0.05381">
        <ele>1717</ele>
        <time>2013-03-09T09:19:36Z</time>
      </trkpt>
      <trkpt lat="42.87068" lon="-0.0539">
        <ele>1717</ele>
        <time>2013-03-09T09:19:47Z</time>
      </trkpt>
      <trkpt lat="42.87068" lon="-0.05395">
        <ele>1716</ele>
        <time>2013-03-09T09:19:54Z</time>
      </trkpt>
      <trkpt lat="42.87066" lon="-0.05401">
        <ele>1716</ele>
        <time>2013-03-09T09:20:03Z</time>
      </trkpt>
      <trkpt lat="42.87064" lon="-0.05403">
        <ele>1716</ele>
        <time>2013-03-09T09:20:09Z</time>
      </trkpt>
      <trkpt lat="42.8706" lon="-0.05402">
        <ele>1717</ele>
        <time>2013-03-09T09:20:18Z</time>
      </trkpt>
      <trkpt lat="42.8706" lon="-0.05402">
        <ele>1718</ele>
        <time>2013-03-09T09:20:36Z</time>
      </trkpt>
      <trkpt lat="42.87058" lon="-0.05404">
        <ele>1718</ele>
        <time>2013-03-09T09:20:50Z</time>
      </trkpt>
      <trkpt lat="42.87054" lon="-0.05399">
        <ele>1720</ele>
        <time>2013-03-09T09:21:00Z</time>
      </trkpt>
      <trkpt lat="42.87051" lon="-0.05395">
        <ele>1721</ele>
        <time>2013-03-09T09:21:08Z</time>
      </trkpt>
      <trkpt lat="42.87049" lon="-0.05389">
        <ele>1722</ele>
        <time>2013-03-09T09:21:16Z</time>
      </trkpt>
      <trkpt lat="42.87046" lon="-0.05385">
        <ele>1723</ele>
        <time>2013-03-09T09:21:22Z</time>
      </trkpt>
      <trkpt lat="42.87044" lon="-0.05381">
        <ele>1724</ele>
        <time>2013-03-09T09:21:30Z</time>
      </trkpt>
      <trkpt lat="42.87042" lon="-0.05375">
        <ele>1724</ele>
        <time>2013-03-09T09:21:41Z</time>
      </trkpt>
      <trkpt lat="42.87039" lon="-0.0537">
        <ele>1725</ele>
        <time>2013-03-09T09:21:48Z</time>
      </trkpt>
      <trkpt lat="42.87036" lon="-0.05365">
        <ele>1726</ele>
        <time>2013-03-09T09:21:55Z</time>
      </trkpt>
      <trkpt lat="42.87034" lon="-0.05362">
        <ele>1726</ele>
        <time>2013-03-09T09:22:01Z</time>
      </trkpt>
      <trkpt lat="42.8703" lon="-0.05359">
        <ele>1727</ele>
        <time>2013-03-09T09:22:08Z</time>
      </trkpt>
      <trkpt lat="42.87027" lon="-0.05357">
        <ele>1729</ele>
        <time>2013-03-09T09:22:15Z</time>
      </trkpt>
      <trkpt lat="42.87024" lon="-0.05355">
        <ele>1730</ele>
        <time>2013-03-09T09:22:22Z</time>
      </trkpt>
      <trkpt lat="42.87019" lon="-0.05355">
        <ele>1731</ele>
        <time>2013-03-09T09:22:30Z</time>
      </trkpt>
      <trkpt lat="42.87014" lon="-0.05354">
        <ele>1732</ele>
        <time>2013-03-09T09:22:38Z</time>
      </trkpt>
      <trkpt lat="42.87008" lon="-0.05352">
        <ele>1734</ele>
        <time>2013-03-09T09:22:46Z</time>
      </trkpt>
      <trkpt lat="42.87004" lon="-0.05351">
        <ele>1735</ele>
        <time>2013-03-09T09:22:53Z</time>
      </trkpt>
      <trkpt lat="42.87" lon="-0.05352">
        <ele>1755</ele>
        <time>2013-03-09T09:23:00Z</time>
      </trkpt>
      <trkpt lat="42.86995" lon="-0.0535">
        <ele>1755</ele>
        <time>2013-03-09T09:23:07Z</time>
      </trkpt>
      <trkpt lat="42.86988" lon="-0.05349">
        <ele>1756</ele>
        <time>2013-03-09T09:23:17Z</time>
      </trkpt>
      <trkpt lat="42.86985" lon="-0.05348">
        <ele>1757</ele>
        <time>2013-03-09T09:23:24Z</time>
      </trkpt>
      <trkpt lat="42.86982" lon="-0.05347">
        <ele>1757</ele>
        <time>2013-03-09T09:23:31Z</time>
      </trkpt>
      <trkpt lat="42.86979" lon="-0.05344">
        <ele>1758</ele>
        <time>2013-03-09T09:23:41Z</time>
      </trkpt>
      <trkpt lat="42.86976" lon="-0.05345">
        <ele>1759</ele>
        <time>2013-03-09T09:23:46Z</time>
      </trkpt>
      <trkpt lat="42.86975" lon="-0.05351">
        <ele>1760</ele>
        <time>2013-03-09T09:23:54Z</time>
      </trkpt>
      <trkpt lat="42.86973" lon="-0.05355">
        <ele>1761</ele>
        <time>2013-03-09T09:24:00Z</time>
      </trkpt>
      <trkpt lat="42.86972" lon="-0.0536">
        <ele>1762</ele>
        <time>2013-03-09T09:24:08Z</time>
      </trkpt>
      <trkpt lat="42.86971" lon="-0.05363">
        <ele>1762</ele>
        <time>2013-03-09T09:24:14Z</time>
      </trkpt>
      <trkpt lat="42.86969" lon="-0.05369">
        <ele>1763</ele>
        <time>2013-03-09T09:24:23Z</time>
      </trkpt>
      <trkpt lat="42.86968" lon="-0.05373">
        <ele>1763</ele>
        <time>2013-03-09T09:24:29Z</time>
      </trkpt>
      <trkpt lat="42.86967" lon="-0.05376">
        <ele>1764</ele>
        <time>2013-03-09T09:24:32Z</time>
      </trkpt>
      <trkpt lat="42.86962" lon="-0.05383">
        <ele>1765</ele>
        <time>2013-03-09T09:24:40Z</time>
      </trkpt>
      <trkpt lat="42.8696" lon="-0.05388">
        <ele>1765</ele>
        <time>2013-03-09T09:24:48Z</time>
      </trkpt>
      <trkpt lat="42.86957" lon="-0.05392">
        <ele>1766</ele>
        <time>2013-03-09T09:24:55Z</time>
      </trkpt>
      <trkpt lat="42.86955" lon="-0.05399">
        <ele>1767</ele>
        <time>2013-03-09T09:25:03Z</time>
      </trkpt>
      <trkpt lat="42.86955" lon="-0.05398">
        <ele>1767</ele>
        <time>2013-03-09T09:25:15Z</time>
      </trkpt>
      <trkpt lat="42.86957" lon="-0.05397">
        <ele>1766</ele>
        <time>2013-03-09T09:25:28Z</time>
      </trkpt>
      <trkpt lat="42.86957" lon="-0.05397">
        <ele>1766</ele>
        <time>2013-03-09T09:25:43Z</time>
      </trkpt>
      <trkpt lat="42.86954" lon="-0.05399">
        <ele>1767</ele>
        <time>2013-03-09T09:25:55Z</time>
      </trkpt>
      <trkpt lat="42.86954" lon="-0.05404">
        <ele>1767</ele>
        <time>2013-03-09T09:26:03Z</time>
      </trkpt>
      <trkpt lat="42.86952" lon="-0.05409">
        <ele>1768</ele>
        <time>2013-03-09T09:26:10Z</time>
      </trkpt>
      <trkpt lat="42.86951" lon="-0.05416">
        <ele>1768</ele>
        <time>2013-03-09T09:26:18Z</time>
      </trkpt>
      <trkpt lat="42.8695" lon="-0.0542">
        <ele>1771</ele>
        <time>2013-03-09T09:26:25Z</time>
      </trkpt>
      <trkpt lat="42.86947" lon="-0.05425">
        <ele>1771</ele>
        <time>2013-03-09T09:26:31Z</time>
      </trkpt>
      <trkpt lat="42.86945" lon="-0.0543">
        <ele>1772</ele>
        <time>2013-03-09T09:26:38Z</time>
      </trkpt>
      <trkpt lat="42.86945" lon="-0.05432">
        <ele>1772</ele>
        <time>2013-03-09T09:26:41Z</time>
      </trkpt>
      <trkpt lat="42.86942" lon="-0.05436">
        <ele>1772</ele>
        <time>2013-03-09T09:26:48Z</time>
      </trkpt>
      <trkpt lat="42.8694" lon="-0.05439">
        <ele>1772</ele>
        <time>2013-03-09T09:26:54Z</time>
      </trkpt>
      <trkpt lat="42.86938" lon="-0.05443">
        <ele>1773</ele>
        <time>2013-03-09T09:27:00Z</time>
      </trkpt>
      <trkpt lat="42.86935" lon="-0.05449">
        <ele>1773</ele>
        <time>2013-03-09T09:27:08Z</time>
      </trkpt>
      <trkpt lat="42.86931" lon="-0.05456">
        <ele>1774</ele>
        <time>2013-03-09T09:27:18Z</time>
      </trkpt>
      <trkpt lat="42.86928" lon="-0.05459">
        <ele>1774</ele>
        <time>2013-03-09T09:27:25Z</time>
      </trkpt>
      <trkpt lat="42.86926" lon="-0.05462">
        <ele>1775</ele>
        <time>2013-03-09T09:27:33Z</time>
      </trkpt>
      <trkpt lat="42.86925" lon="-0.05465">
        <ele>1776</ele>
        <time>2013-03-09T09:27:42Z</time>
      </trkpt>
      <trkpt lat="42.86925" lon="-0.05464">
        <ele>1775</ele>
        <time>2013-03-09T09:27:58Z</time>
      </trkpt>
      <trkpt lat="42.86922" lon="-0.05465">
        <ele>1776</ele>
        <time>2013-03-09T09:28:06Z</time>
      </trkpt>
      <trkpt lat="42.8692" lon="-0.05468">
        <ele>1777</ele>
        <time>2013-03-09T09:28:13Z</time>
      </trkpt>
      <trkpt lat="42.86918" lon="-0.05471">
        <ele>1777</ele>
        <time>2013-03-09T09:28:21Z</time>
      </trkpt>
      <trkpt lat="42.86913" lon="-0.05474">
        <ele>1804</ele>
        <time>2013-03-09T09:28:29Z</time>
      </trkpt>
      <trkpt lat="42.8691" lon="-0.05473">
        <ele>1804</ele>
        <time>2013-03-09T09:28:41Z</time>
      </trkpt>
      <trkpt lat="42.86911" lon="-0.05474">
        <ele>1804</ele>
        <time>2013-03-09T09:28:54Z</time>
      </trkpt>
      <trkpt lat="42.8691" lon="-0.0547">
        <ele>1805</ele>
        <time>2013-03-09T09:29:03Z</time>
      </trkpt>
      <trkpt lat="42.86907" lon="-0.05464">
        <ele>1806</ele>
        <time>2013-03-09T09:29:10Z</time>
      </trkpt>
      <trkpt lat="42.86905" lon="-0.0546">
        <ele>1806</ele>
        <time>2013-03-09T09:29:18Z</time>
      </trkpt>
      <trkpt lat="42.86902" lon="-0.05456">
        <ele>1806</ele>
        <time>2013-03-09T09:29:25Z</time>
      </trkpt>
      <trkpt lat="42.86897" lon="-0.05453">
        <ele>1807</ele>
        <time>2013-03-09T09:29:34Z</time>
      </trkpt>
      <trkpt lat="42.86895" lon="-0.05452">
        <ele>1807</ele>
        <time>2013-03-09T09:29:40Z</time>
      </trkpt>
      <trkpt lat="42.86894" lon="-0.05455">
        <ele>1808</ele>
        <time>2013-03-09T09:29:48Z</time>
      </trkpt>
      <trkpt lat="42.86893" lon="-0.05461">
        <ele>1809</ele>
        <time>2013-03-09T09:29:55Z</time>
      </trkpt>
      <trkpt lat="42.86891" lon="-0.05464">
        <ele>1809</ele>
        <time>2013-03-09T09:30:02Z</time>
      </trkpt>
      <trkpt lat="42.86889" lon="-0.05469">
        <ele>1810</ele>
        <time>2013-03-09T09:30:11Z</time>
      </trkpt>
      <trkpt lat="42.86886" lon="-0.05475">
        <ele>1811</ele>
        <time>2013-03-09T09:30:20Z</time>
      </trkpt>
      <trkpt lat="42.86883" lon="-0.05478">
        <ele>1812</ele>
        <time>2013-03-09T09:30:28Z</time>
      </trkpt>
      <trkpt lat="42.8688" lon="-0.05475">
        <ele>1813</ele>
        <time>2013-03-09T09:30:36Z</time>
      </trkpt>
      <trkpt lat="42.86877" lon="-0.0547">
        <ele>1813</ele>
        <time>2013-03-09T09:30:46Z</time>
      </trkpt>
      <trkpt lat="42.86873" lon="-0.0546">
        <ele>1815</ele>
        <time>2013-03-09T09:30:56Z</time>
      </trkpt>
      <trkpt lat="42.8687" lon="-0.05456">
        <ele>1815</ele>
        <time>2013-03-09T09:31:03Z</time>
      </trkpt>
      <trkpt lat="42.86872" lon="-0.05452">
        <ele>1815</ele>
        <time>2013-03-09T09:31:20Z</time>
      </trkpt>
      <trkpt lat="42.86872" lon="-0.05454">
        <ele>1814</ele>
        <time>2013-03-09T09:31:28Z</time>
      </trkpt>
      <trkpt lat="42.8687" lon="-0.05458">
        <ele>1815</ele>
        <time>2013-03-09T09:31:37Z</time>
      </trkpt>
      <trkpt lat="42.86869" lon="-0.05461">
        <ele>1816</ele>
        <time>2013-03-09T09:31:44Z</time>
      </trkpt>
      <trkpt lat="42.86868" lon="-0.05465">
        <ele>1816</ele>
        <time>2013-03-09T09:31:52Z</time>
      </trkpt>
      <trkpt lat="42.86866" lon="-0.05475">
        <ele>1818</ele>
        <time>2013-03-09T09:32:04Z</time>
      </trkpt>
      <trkpt lat="42.86865" lon="-0.05477">
        <ele>1818</ele>
        <time>2013-03-09T09:32:11Z</time>
      </trkpt>
      <trkpt lat="42.86865" lon="-0.05479">
        <ele>1819</ele>
        <time>2013-03-09T09:32:20Z</time>
      </trkpt>
      <trkpt lat="42.86861" lon="-0.05474">
        <ele>1819</ele>
        <time>2013-03-09T09:32:28Z</time>
      </trkpt>
      <trkpt lat="42.8686" lon="-0.0547">
        <ele>1819</ele>
        <time>2013-03-09T09:32:34Z</time>
      </trkpt>
      <trkpt lat="42.86859" lon="-0.05475">
        <ele>1820</ele>
        <time>2013-03-09T09:32:41Z</time>
      </trkpt>
      <trkpt lat="42.86858" lon="-0.05481">
        <ele>1822</ele>
        <time>2013-03-09T09:32:49Z</time>
      </trkpt>
      <trkpt lat="42.86857" lon="-0.05482">
        <ele>1822</ele>
        <time>2013-03-09T09:32:56Z</time>
      </trkpt>
      <trkpt lat="42.86856" lon="-0.0548">
        <ele>1822</ele>
        <time>2013-03-09T09:33:01Z</time>
      </trkpt>
      <trkpt lat="42.86852" lon="-0.05478">
        <ele>1823</ele>
        <time>2013-03-09T09:33:08Z</time>
      </trkpt>
      <trkpt lat="42.8685" lon="-0.05476">
        <ele>1823</ele>
        <time>2013-03-09T09:33:14Z</time>
      </trkpt>
      <trkpt lat="42.86848" lon="-0.05473">
        <ele>1823</ele>
        <time>2013-03-09T09:33:23Z</time>
      </trkpt>
      <trkpt lat="42.86844" lon="-0.05468">
        <ele>1823</ele>
        <time>2013-03-09T09:33:32Z</time>
      </trkpt>
      <trkpt lat="42.86842" lon="-0.05464">
        <ele>1823</ele>
        <time>2013-03-09T09:33:39Z</time>
      </trkpt>
      <trkpt lat="42.86841" lon="-0.05464">
        <ele>1823</ele>
        <time>2013-03-09T09:33:51Z</time>
      </trkpt>
      <trkpt lat="42.86842" lon="-0.05466">
        <ele>1823</ele>
        <time>2013-03-09T09:33:57Z</time>
      </trkpt>
      <trkpt lat="42.86841" lon="-0.05471">
        <ele>1824</ele>
        <time>2013-03-09T09:34:05Z</time>
      </trkpt>
      <trkpt lat="42.8684" lon="-0.05476">
        <ele>1826</ele>
        <time>2013-03-09T09:34:12Z</time>
      </trkpt>
      <trkpt lat="42.86841" lon="-0.05482">
        <ele>1828</ele>
        <time>2013-03-09T09:34:22Z</time>
      </trkpt>
      <trkpt lat="42.86841" lon="-0.05489">
        <ele>1831</ele>
        <time>2013-03-09T09:34:31Z</time>
      </trkpt>
      <trkpt lat="42.86841" lon="-0.05494">
        <ele>1834</ele>
        <time>2013-03-09T09:34:39Z</time>
      </trkpt>
      <trkpt lat="42.8684" lon="-0.05499">
        <ele>1836</ele>
        <time>2013-03-09T09:34:46Z</time>
      </trkpt>
      <trkpt lat="42.86839" lon="-0.05506">
        <ele>1837</ele>
        <time>2013-03-09T09:34:54Z</time>
      </trkpt>
      <trkpt lat="42.86838" lon="-0.05509">
        <ele>1837</ele>
        <time>2013-03-09T09:35:00Z</time>
      </trkpt>
      <trkpt lat="42.86834" lon="-0.05516">
        <ele>1835</ele>
        <time>2013-03-09T09:35:09Z</time>
      </trkpt>
      <trkpt lat="42.86832" lon="-0.0552">
        <ele>1857</ele>
        <time>2013-03-09T09:35:16Z</time>
      </trkpt>
      <trkpt lat="42.86832" lon="-0.05522">
        <ele>1858</ele>
        <time>2013-03-09T09:35:22Z</time>
      </trkpt>
      <trkpt lat="42.86832" lon="-0.05521">
        <ele>1858</ele>
        <time>2013-03-09T09:35:32Z</time>
      </trkpt>
      <trkpt lat="42.8683" lon="-0.05521">
        <ele>1858</ele>
        <time>2013-03-09T09:35:44Z</time>
      </trkpt>
      <trkpt lat="42.86827" lon="-0.0552">
        <ele>1858</ele>
        <time>2013-03-09T09:35:56Z</time>
      </trkpt>
      <trkpt lat="42.86822" lon="-0.05518">
        <ele>1859</ele>
        <time>2013-03-09T09:36:02Z</time>
      </trkpt>
      <trkpt lat="42.8682" lon="-0.05517">
        <ele>1859</ele>
        <time>2013-03-09T09:36:06Z</time>
      </trkpt>
      <trkpt lat="42.86816" lon="-0.05513">
        <ele>1859</ele>
        <time>2013-03-09T09:36:14Z</time>
      </trkpt>
      <trkpt lat="42.86812" lon="-0.05509">
        <ele>1860</ele>
        <time>2013-03-09T09:36:24Z</time>
      </trkpt>
      <trkpt lat="42.86808" lon="-0.05504">
        <ele>1862</ele>
        <time>2013-03-09T09:36:32Z</time>
      </trkpt>
      <trkpt lat="42.86806" lon="-0.05499">
        <ele>1860</ele>
        <time>2013-03-09T09:36:41Z</time>
      </trkpt>
      <trkpt lat="42.86803" lon="-0.05495">
        <ele>1862</ele>
        <time>2013-03-09T09:36:48Z</time>
      </trkpt>
      <trkpt lat="42.86798" lon="-0.05488">
        <ele>1864</ele>
        <time>2013-03-09T09:37:00Z</time>
      </trkpt>
      <trkpt lat="42.86795" lon="-0.05485">
        <ele>1865</ele>
        <time>2013-03-09T09:37:08Z</time>
      </trkpt>
      <trkpt lat="42.86793" lon="-0.0548">
        <ele>1866</ele>
        <time>2013-03-09T09:37:16Z</time>
      </trkpt>
      <trkpt lat="42.86794" lon="-0.05477">
        <ele>1866</ele>
        <time>2013-03-09T09:37:22Z</time>
      </trkpt>
      <trkpt lat="42.86794" lon="-0.05478">
        <ele>1866</ele>
        <time>2013-03-09T09:37:29Z</time>
      </trkpt>
      <trkpt lat="42.86795" lon="-0.05481">
        <ele>1866</ele>
        <time>2013-03-09T09:37:41Z</time>
      </trkpt>
      <trkpt lat="42.86792" lon="-0.05492">
        <ele>1866</ele>
        <time>2013-03-09T09:37:51Z</time>
      </trkpt>
      <trkpt lat="42.8679" lon="-0.05496">
        <ele>1867</ele>
        <time>2013-03-09T09:37:57Z</time>
      </trkpt>
      <trkpt lat="42.86789" lon="-0.05504">
        <ele>1870</ele>
        <time>2013-03-09T09:38:07Z</time>
      </trkpt>
      <trkpt lat="42.86789" lon="-0.05509">
        <ele>1871</ele>
        <time>2013-03-09T09:38:15Z</time>
      </trkpt>
      <trkpt lat="42.86787" lon="-0.05516">
        <ele>1871</ele>
        <time>2013-03-09T09:38:23Z</time>
      </trkpt>
      <trkpt lat="42.86786" lon="-0.05523">
        <ele>1871</ele>
        <time>2013-03-09T09:38:31Z</time>
      </trkpt>
      <trkpt lat="42.86785" lon="-0.05528">
        <ele>1872</ele>
        <time>2013-03-09T09:38:38Z</time>
      </trkpt>
      <trkpt lat="42.86784" lon="-0.05534">
        <ele>1872</ele>
        <time>2013-03-09T09:38:46Z</time>
      </trkpt>
      <trkpt lat="42.86782" lon="-0.05541">
        <ele>1873</ele>
        <time>2013-03-09T09:38:54Z</time>
      </trkpt>
      <trkpt lat="42.86783" lon="-0.05544">
        <ele>1873</ele>
        <time>2013-03-09T09:39:01Z</time>
      </trkpt>
      <trkpt lat="42.86782" lon="-0.05545">
        <ele>1873</ele>
        <time>2013-03-09T09:39:10Z</time>
      </trkpt>
      <trkpt lat="42.86779" lon="-0.05542">
        <ele>1874</ele>
        <time>2013-03-09T09:39:18Z</time>
      </trkpt>
      <trkpt lat="42.86774" lon="-0.05535">
        <ele>1875</ele>
        <time>2013-03-09T09:39:28Z</time>
      </trkpt>
      <trkpt lat="42.8677" lon="-0.05531">
        <ele>1876</ele>
        <time>2013-03-09T09:39:35Z</time>
      </trkpt>
      <trkpt lat="42.86766" lon="-0.05527">
        <ele>1877</ele>
        <time>2013-03-09T09:39:42Z</time>
      </trkpt>
      <trkpt lat="42.86764" lon="-0.05522">
        <ele>1878</ele>
        <time>2013-03-09T09:39:51Z</time>
      </trkpt>
      <trkpt lat="42.86759" lon="-0.05516">
        <ele>1881</ele>
        <time>2013-03-09T09:40:01Z</time>
      </trkpt>
      <trkpt lat="42.86757" lon="-0.05511">
        <ele>1883</ele>
        <time>2013-03-09T09:40:09Z</time>
      </trkpt>
      <trkpt lat="42.86754" lon="-0.05506">
        <ele>1886</ele>
        <time>2013-03-09T09:40:17Z</time>
      </trkpt>
      <trkpt lat="42.86752" lon="-0.05502">
        <ele>1889</ele>
        <time>2013-03-09T09:40:26Z</time>
      </trkpt>
      <trkpt lat="42.86754" lon="-0.05499">
        <ele>1888</ele>
        <time>2013-03-09T09:40:38Z</time>
      </trkpt>
      <trkpt lat="42.86754" lon="-0.05498">
        <ele>1887</ele>
        <time>2013-03-09T09:40:43Z</time>
      </trkpt>
      <trkpt lat="42.86755" lon="-0.05498">
        <ele>1886</ele>
        <time>2013-03-09T09:41:00Z</time>
      </trkpt>
      <trkpt lat="42.86753" lon="-0.05499">
        <ele>1888</ele>
        <time>2013-03-09T09:41:09Z</time>
      </trkpt>
      <trkpt lat="42.86752" lon="-0.05506">
        <ele>1887</ele>
        <time>2013-03-09T09:41:17Z</time>
      </trkpt>
      <trkpt lat="42.86751" lon="-0.05513">
        <ele>1883</ele>
        <time>2013-03-09T09:41:26Z</time>
      </trkpt>
      <trkpt lat="42.86751" lon="-0.0552">
        <ele>1881</ele>
        <time>2013-03-09T09:41:34Z</time>
      </trkpt>
      <trkpt lat="42.86751" lon="-0.05526">
        <ele>1880</ele>
        <time>2013-03-09T09:41:42Z</time>
      </trkpt>
      <trkpt lat="42.86751" lon="-0.05527">
        <ele>1879</ele>
        <time>2013-03-09T09:41:44Z</time>
      </trkpt>
      <trkpt lat="42.86751" lon="-0.05535">
        <ele>1879</ele>
        <time>2013-03-09T09:41:52Z</time>
      </trkpt>
      <trkpt lat="42.8675" lon="-0.05541">
        <ele>1879</ele>
        <time>2013-03-09T09:41:59Z</time>
      </trkpt>
      <trkpt lat="42.8675" lon="-0.05549">
        <ele>1879</ele>
        <time>2013-03-09T09:42:07Z</time>
      </trkpt>
      <trkpt lat="42.86751" lon="-0.05554">
        <ele>1880</ele>
        <time>2013-03-09T09:42:14Z</time>
      </trkpt>
      <trkpt lat="42.86751" lon="-0.0556">
        <ele>1881</ele>
        <time>2013-03-09T09:42:22Z</time>
      </trkpt>
      <trkpt lat="42.86752" lon="-0.05566">
        <ele>1883</ele>
        <time>2013-03-09T09:42:30Z</time>
      </trkpt>
      <trkpt lat="42.86753" lon="-0.05571">
        <ele>1885</ele>
        <time>2013-03-09T09:42:37Z</time>
      </trkpt>
      <trkpt lat="42.86753" lon="-0.05578">
        <ele>1888</ele>
        <time>2013-03-09T09:42:45Z</time>
      </trkpt>
      <trkpt lat="42.86752" lon="-0.0558">
        <ele>1890</ele>
        <time>2013-03-09T09:42:54Z</time>
      </trkpt>
      <trkpt lat="42.86752" lon="-0.05579">
        <ele>1889</ele>
        <time>2013-03-09T09:43:16Z</time>
      </trkpt>
      <trkpt lat="42.86753" lon="-0.05579">
        <ele>1889</ele>
        <time>2013-03-09T09:43:33Z</time>
      </trkpt>
      <trkpt lat="42.86752" lon="-0.05581">
        <ele>1890</ele>
        <time>2013-03-09T09:43:48Z</time>
      </trkpt>
      <trkpt lat="42.86751" lon="-0.05589">
        <ele>1890</ele>
        <time>2013-03-09T09:43:57Z</time>
      </trkpt>
      <trkpt lat="42.8675" lon="-0.05595">
        <ele>1901</ele>
        <time>2013-03-09T09:44:05Z</time>
      </trkpt>
      <trkpt lat="42.86747" lon="-0.05599">
        <ele>1903</ele>
        <time>2013-03-09T09:44:12Z</time>
      </trkpt>
      <trkpt lat="42.86745" lon="-0.05604">
        <ele>1905</ele>
        <time>2013-03-09T09:44:20Z</time>
      </trkpt>
      <trkpt lat="42.86741" lon="-0.05606">
        <ele>1906</ele>
        <time>2013-03-09T09:44:28Z</time>
      </trkpt>
      <trkpt lat="42.86736" lon="-0.05607">
        <ele>1907</ele>
        <time>2013-03-09T09:44:37Z</time>
      </trkpt>
      <trkpt lat="42.8673" lon="-0.05609">
        <ele>1909</ele>
        <time>2013-03-09T09:44:45Z</time>
      </trkpt>
      <trkpt lat="42.86725" lon="-0.05611">
        <ele>1911</ele>
        <time>2013-03-09T09:44:53Z</time>
      </trkpt>
      <trkpt lat="42.86721" lon="-0.05611">
        <ele>1912</ele>
        <time>2013-03-09T09:44:59Z</time>
      </trkpt>
      <trkpt lat="42.86716" lon="-0.05613">
        <ele>1913</ele>
        <time>2013-03-09T09:45:05Z</time>
      </trkpt>
      <trkpt lat="42.8671" lon="-0.05618">
        <ele>1915</ele>
        <time>2013-03-09T09:45:13Z</time>
      </trkpt>
      <trkpt lat="42.86705" lon="-0.05621">
        <ele>1916</ele>
        <time>2013-03-09T09:45:20Z</time>
      </trkpt>
      <trkpt lat="42.867" lon="-0.05622">
        <ele>1917</ele>
        <time>2013-03-09T09:45:27Z</time>
      </trkpt>
      <trkpt lat="42.86696" lon="-0.05625">
        <ele>1918</ele>
        <time>2013-03-09T09:45:35Z</time>
      </trkpt>
      <trkpt lat="42.86692" lon="-0.05628">
        <ele>1919</ele>
        <time>2013-03-09T09:45:42Z</time>
      </trkpt>
      <trkpt lat="42.8669" lon="-0.05629">
        <ele>1920</ele>
        <time>2013-03-09T09:45:49Z</time>
      </trkpt>
      <trkpt lat="42.86688" lon="-0.05629">
        <ele>1920</ele>
        <time>2013-03-09T09:46:03Z</time>
      </trkpt>
      <trkpt lat="42.86684" lon="-0.05629">
        <ele>1921</ele>
        <time>2013-03-09T09:46:16Z</time>
      </trkpt>
      <trkpt lat="42.86679" lon="-0.05631">
        <ele>1922</ele>
        <time>2013-03-09T09:46:25Z</time>
      </trkpt>
      <trkpt lat="42.86675" lon="-0.05632">
        <ele>1923</ele>
        <time>2013-03-09T09:46:32Z</time>
      </trkpt>
      <trkpt lat="42.86671" lon="-0.05635">
        <ele>1923</ele>
        <time>2013-03-09T09:46:41Z</time>
      </trkpt>
      <trkpt lat="42.86667" lon="-0.05637">
        <ele>1924</ele>
        <time>2013-03-09T09:46:49Z</time>
      </trkpt>
      <trkpt lat="42.86661" lon="-0.05637">
        <ele>1947</ele>
        <time>2013-03-09T09:46:57Z</time>
      </trkpt>
      <trkpt lat="42.86657" lon="-0.05633">
        <ele>1949</ele>
        <time>2013-03-09T09:47:05Z</time>
      </trkpt>
      <trkpt lat="42.86656" lon="-0.05625">
        <ele>1950</ele>
        <time>2013-03-09T09:47:13Z</time>
      </trkpt>
      <trkpt lat="42.86656" lon="-0.0562">
        <ele>1950</ele>
        <time>2013-03-09T09:47:19Z</time>
      </trkpt>
      <trkpt lat="42.86654" lon="-0.05613">
        <ele>1951</ele>
        <time>2013-03-09T09:47:27Z</time>
      </trkpt>
      <trkpt lat="42.86655" lon="-0.05608">
        <ele>1951</ele>
        <time>2013-03-09T09:47:34Z</time>
      </trkpt>
      <trkpt lat="42.86655" lon="-0.05607">
        <ele>1950</ele>
        <time>2013-03-09T09:47:43Z</time>
      </trkpt>
      <trkpt lat="42.86656" lon="-0.05604">
        <ele>1950</ele>
        <time>2013-03-09T09:47:50Z</time>
      </trkpt>
      <trkpt lat="42.86655" lon="-0.056">
        <ele>1950</ele>
        <time>2013-03-09T09:48:05Z</time>
      </trkpt>
      <trkpt lat="42.86653" lon="-0.05606">
        <ele>1951</ele>
        <time>2013-03-09T09:48:13Z</time>
      </trkpt>
      <trkpt lat="42.86646" lon="-0.05611">
        <ele>1952</ele>
        <time>2013-03-09T09:48:22Z</time>
      </trkpt>
      <trkpt lat="42.86642" lon="-0.05614">
        <ele>1953</ele>
        <time>2013-03-09T09:48:30Z</time>
      </trkpt>
      <trkpt lat="42.86639" lon="-0.05616">
        <ele>1954</ele>
        <time>2013-03-09T09:48:37Z</time>
      </trkpt>
      <trkpt lat="42.86636" lon="-0.05622">
        <ele>1954</ele>
        <time>2013-03-09T09:48:45Z</time>
      </trkpt>
      <trkpt lat="42.86633" lon="-0.05626">
        <ele>1954</ele>
        <time>2013-03-09T09:48:52Z</time>
      </trkpt>
      <trkpt lat="42.8663" lon="-0.05631">
        <ele>1954</ele>
        <time>2013-03-09T09:49:00Z</time>
      </trkpt>
      <trkpt lat="42.86626" lon="-0.05637">
        <ele>1954</ele>
        <time>2013-03-09T09:49:09Z</time>
      </trkpt>
      <trkpt lat="42.86622" lon="-0.05642">
        <ele>1955</ele>
        <time>2013-03-09T09:49:17Z</time>
      </trkpt>
      <trkpt lat="42.86621" lon="-0.05642">
        <ele>1955</ele>
        <time>2013-03-09T09:49:24Z</time>
      </trkpt>
      <trkpt lat="42.8662" lon="-0.05645">
        <ele>1955</ele>
        <time>2013-03-09T09:49:40Z</time>
      </trkpt>
      <trkpt lat="42.86616" lon="-0.05649">
        <ele>1955</ele>
        <time>2013-03-09T09:49:47Z</time>
      </trkpt>
      <trkpt lat="42.86616" lon="-0.05649">
        <ele>1955</ele>
        <time>2013-03-09T09:49:55Z</time>
      </trkpt>
      <trkpt lat="42.8661" lon="-0.05652">
        <ele>1956</ele>
        <time>2013-03-09T09:50:03Z</time>
      </trkpt>
      <trkpt lat="42.86607" lon="-0.05655">
        <ele>1956</ele>
        <time>2013-03-09T09:50:10Z</time>
      </trkpt>
      <trkpt lat="42.86603" lon="-0.05657">
        <ele>1957</ele>
        <time>2013-03-09T09:50:18Z</time>
      </trkpt>
      <trkpt lat="42.86597" lon="-0.0566">
        <ele>1957</ele>
        <time>2013-03-09T09:50:26Z</time>
      </trkpt>
      <trkpt lat="42.86593" lon="-0.05661">
        <ele>1958</ele>
        <time>2013-03-09T09:50:33Z</time>
      </trkpt>
      <trkpt lat="42.86588" lon="-0.05663">
        <ele>1959</ele>
        <time>2013-03-09T09:50:41Z</time>
      </trkpt>
      <trkpt lat="42.86584" lon="-0.05665">
        <ele>1959</ele>
        <time>2013-03-09T09:50:49Z</time>
      </trkpt>
      <trkpt lat="42.86577" lon="-0.05666">
        <ele>1965</ele>
        <time>2013-03-09T09:50:58Z</time>
      </trkpt>
      <trkpt lat="42.86571" lon="-0.05667">
        <ele>1961</ele>
        <time>2013-03-09T09:51:06Z</time>
      </trkpt>
      <trkpt lat="42.86567" lon="-0.05669">
        <ele>1962</ele>
        <time>2013-03-09T09:51:12Z</time>
      </trkpt>
      <trkpt lat="42.86561" lon="-0.0567">
        <ele>1963</ele>
        <time>2013-03-09T09:51:20Z</time>
      </trkpt>
      <trkpt lat="42.86558" lon="-0.0567">
        <ele>1964</ele>
        <time>2013-03-09T09:51:28Z</time>
      </trkpt>
      <trkpt lat="42.86556" lon="-0.0567">
        <ele>1964</ele>
        <time>2013-03-09T09:51:44Z</time>
      </trkpt>
      <trkpt lat="42.86551" lon="-0.05672">
        <ele>1965</ele>
        <time>2013-03-09T09:51:50Z</time>
      </trkpt>
      <trkpt lat="42.86544" lon="-0.05674">
        <ele>1966</ele>
        <time>2013-03-09T09:51:58Z</time>
      </trkpt>
      <trkpt lat="42.86539" lon="-0.05676">
        <ele>1967</ele>
        <time>2013-03-09T09:52:06Z</time>
      </trkpt>
      <trkpt lat="42.86535" lon="-0.05679">
        <ele>1968</ele>
        <time>2013-03-09T09:52:13Z</time>
      </trkpt>
      <trkpt lat="42.86528" lon="-0.05681">
        <ele>1969</ele>
        <time>2013-03-09T09:52:22Z</time>
      </trkpt>
      <trkpt lat="42.86522" lon="-0.05682">
        <ele>1970</ele>
        <time>2013-03-09T09:52:29Z</time>
      </trkpt>
      <trkpt lat="42.86515" lon="-0.05682">
        <ele>1972</ele>
        <time>2013-03-09T09:52:38Z</time>
      </trkpt>
      <trkpt lat="42.86508" lon="-0.05682">
        <ele>1974</ele>
        <time>2013-03-09T09:52:44Z</time>
      </trkpt>
      <trkpt lat="42.86502" lon="-0.0568">
        <ele>1975</ele>
        <time>2013-03-09T09:52:51Z</time>
      </trkpt>
      <trkpt lat="42.86496" lon="-0.05679">
        <ele>1984</ele>
        <time>2013-03-09T09:52:58Z</time>
      </trkpt>
      <trkpt lat="42.86488" lon="-0.05675">
        <ele>1985</ele>
        <time>2013-03-09T09:53:06Z</time>
      </trkpt>
      <trkpt lat="42.86481" lon="-0.05675">
        <ele>1985</ele>
        <time>2013-03-09T09:53:14Z</time>
      </trkpt>
      <trkpt lat="42.86477" lon="-0.05677">
        <ele>1986</ele>
        <time>2013-03-09T09:53:20Z</time>
      </trkpt>
      <trkpt lat="42.86473" lon="-0.05677">
        <ele>1986</ele>
        <time>2013-03-09T09:53:27Z</time>
      </trkpt>
      <trkpt lat="42.86467" lon="-0.05679">
        <ele>1987</ele>
        <time>2013-03-09T09:53:34Z</time>
      </trkpt>
      <trkpt lat="42.86467" lon="-0.0568">
        <ele>1987</ele>
        <time>2013-03-09T09:53:35Z</time>
      </trkpt>
      <trkpt lat="42.8646" lon="-0.05684">
        <ele>1988</ele>
        <time>2013-03-09T09:53:44Z</time>
      </trkpt>
      <trkpt lat="42.86456" lon="-0.05685">
        <ele>1988</ele>
        <time>2013-03-09T09:53:49Z</time>
      </trkpt>
      <trkpt lat="42.86449" lon="-0.0569">
        <ele>1989</ele>
        <time>2013-03-09T09:53:59Z</time>
      </trkpt>
      <trkpt lat="42.86444" lon="-0.05692">
        <ele>1990</ele>
        <time>2013-03-09T09:54:07Z</time>
      </trkpt>
      <trkpt lat="42.86436" lon="-0.05694">
        <ele>1990</ele>
        <time>2013-03-09T09:54:16Z</time>
      </trkpt>
      <trkpt lat="42.86428" lon="-0.05696">
        <ele>1991</ele>
        <time>2013-03-09T09:54:25Z</time>
      </trkpt>
      <trkpt lat="42.8642" lon="-0.05696">
        <ele>1992</ele>
        <time>2013-03-09T09:54:33Z</time>
      </trkpt>
      <trkpt lat="42.86413" lon="-0.05695">
        <ele>2004</ele>
        <time>2013-03-09T09:54:40Z</time>
      </trkpt>
      <trkpt lat="42.86411" lon="-0.05695">
        <ele>2004</ele>
        <time>2013-03-09T09:54:43Z</time>
      </trkpt>
      <trkpt lat="42.86404" lon="-0.05696">
        <ele>2004</ele>
        <time>2013-03-09T09:54:51Z</time>
      </trkpt>
      <trkpt lat="42.86396" lon="-0.057">
        <ele>2005</ele>
        <time>2013-03-09T09:55:00Z</time>
      </trkpt>
      <trkpt lat="42.86389" lon="-0.05704">
        <ele>2005</ele>
        <time>2013-03-09T09:55:09Z</time>
      </trkpt>
      <trkpt lat="42.86382" lon="-0.05706">
        <ele>2006</ele>
        <time>2013-03-09T09:55:17Z</time>
      </trkpt>
      <trkpt lat="42.86382" lon="-0.05706">
        <ele>2006</ele>
        <time>2013-03-09T09:55:19Z</time>
      </trkpt>
      <trkpt lat="42.86375" lon="-0.05708">
        <ele>2007</ele>
        <time>2013-03-09T09:55:28Z</time>
      </trkpt>
      <trkpt lat="42.86368" lon="-0.05709">
        <ele>2008</ele>
        <time>2013-03-09T09:55:36Z</time>
      </trkpt>
      <trkpt lat="42.86367" lon="-0.0571">
        <ele>2008</ele>
        <time>2013-03-09T09:55:37Z</time>
      </trkpt>
      <trkpt lat="42.86358" lon="-0.05711">
        <ele>2009</ele>
        <time>2013-03-09T09:55:47Z</time>
      </trkpt>
      <trkpt lat="42.86353" lon="-0.05713">
        <ele>2009</ele>
        <time>2013-03-09T09:55:55Z</time>
      </trkpt>
      <trkpt lat="42.86352" lon="-0.05711">
        <ele>2009</ele>
        <time>2013-03-09T09:56:06Z</time>
      </trkpt>
      <trkpt lat="42.86349" lon="-0.05712">
        <ele>2010</ele>
        <time>2013-03-09T09:56:18Z</time>
      </trkpt>
      <trkpt lat="42.86347" lon="-0.05712">
        <ele>2010</ele>
        <time>2013-03-09T09:56:30Z</time>
      </trkpt>
      <trkpt lat="42.86348" lon="-0.05711">
        <ele>2010</ele>
        <time>2013-03-09T09:56:41Z</time>
      </trkpt>
      <trkpt lat="42.86347" lon="-0.0571">
        <ele>2010</ele>
        <time>2013-03-09T09:56:48Z</time>
      </trkpt>
      <trkpt lat="42.86348" lon="-0.05709">
        <ele>2010</ele>
        <time>2013-03-09T09:57:01Z</time>
      </trkpt>
      <trkpt lat="42.86349" lon="-0.05711">
        <ele>2010</ele>
        <time>2013-03-09T09:57:20Z</time>
      </trkpt>
      <trkpt lat="42.86348" lon="-0.05708">
        <ele>2010</ele>
        <time>2013-03-09T09:57:40Z</time>
      </trkpt>
      <trkpt lat="42.86347" lon="-0.05707">
        <ele>2010</ele>
        <time>2013-03-09T09:57:59Z</time>
      </trkpt>
      <trkpt lat="42.86347" lon="-0.05707">
        <ele>2010</ele>
        <time>2013-03-09T09:58:16Z</time>
      </trkpt>
      <trkpt lat="42.86347" lon="-0.05707">
        <ele>2010</ele>
        <time>2013-03-09T09:58:33Z</time>
      </trkpt>
      <trkpt lat="42.86345" lon="-0.05706">
        <ele>2010</ele>
        <time>2013-03-09T09:58:47Z</time>
      </trkpt>
      <trkpt lat="42.86347" lon="-0.05708">
        <ele>2010</ele>
        <time>2013-03-09T09:59:06Z</time>
      </trkpt>
      <trkpt lat="42.86348" lon="-0.05709">
        <ele>2010</ele>
        <time>2013-03-09T09:59:27Z</time>
      </trkpt>
      <trkpt lat="42.86348" lon="-0.05707">
        <ele>2010</ele>
        <time>2013-03-09T09:59:41Z</time>
      </trkpt>
      <trkpt lat="42.86347" lon="-0.05708">
        <ele>2010</ele>
        <time>2013-03-09T09:59:57Z</time>
      </trkpt>
      <trkpt lat="42.86348" lon="-0.05708">
        <ele>2010</ele>
        <time>2013-03-09T10:00:14Z</time>
      </trkpt>
      <trkpt lat="42.86349" lon="-0.05707">
        <ele>2009</ele>
        <time>2013-03-09T10:00:33Z</time>
      </trkpt>
      <trkpt lat="42.86347" lon="-0.05708">
        <ele>2010</ele>
        <time>2013-03-09T10:00:58Z</time>
      </trkpt>
      <trkpt lat="42.86348" lon="-0.05708">
        <ele>2010</ele>
        <time>2013-03-09T10:01:23Z</time>
      </trkpt>
      <trkpt lat="42.86347" lon="-0.05709">
        <ele>2010</ele>
        <time>2013-03-09T10:01:46Z</time>
      </trkpt>
      <trkpt lat="42.86347" lon="-0.0571">
        <ele>2010</ele>
        <time>2013-03-09T10:02:05Z</time>
      </trkpt>
      <trkpt lat="42.86347" lon="-0.0571">
        <ele>2010</ele>
        <time>2013-03-09T10:02:25Z</time>
      </trkpt>
      <trkpt lat="42.86345" lon="-0.05711">
        <ele>2010</ele>
        <time>2013-03-09T10:02:41Z</time>
      </trkpt>
      <trkpt lat="42.86345" lon="-0.0571">
        <ele>2010</ele>
        <time>2013-03-09T10:02:55Z</time>
      </trkpt>
      <trkpt lat="42.86344" lon="-0.0571">
        <ele>2010</ele>
        <time>2013-03-09T10:03:16Z</time>
      </trkpt>
      <trkpt lat="42.86347" lon="-0.05711">
        <ele>2010</ele>
        <time>2013-03-09T10:03:36Z</time>
      </trkpt>
      <trkpt lat="42.86347" lon="-0.0571">
        <ele>2010</ele>
        <time>2013-03-09T10:03:49Z</time>
      </trkpt>
      <trkpt lat="42.86346" lon="-0.05716">
        <ele>2010</ele>
        <time>2013-03-09T10:04:04Z</time>
      </trkpt>
      <trkpt lat="42.86345" lon="-0.05715">
        <ele>2010</ele>
        <time>2013-03-09T10:04:12Z</time>
      </trkpt>
      <trkpt lat="42.86345" lon="-0.05712">
        <ele>2010</ele>
        <time>2013-03-09T10:04:27Z</time>
      </trkpt>
      <trkpt lat="42.86344" lon="-0.05711">
        <ele>2010</ele>
        <time>2013-03-09T10:04:44Z</time>
      </trkpt>
      <trkpt lat="42.86343" lon="-0.05712">
        <ele>2010</ele>
        <time>2013-03-09T10:05:10Z</time>
      </trkpt>
      <trkpt lat="42.86345" lon="-0.05715">
        <ele>2010</ele>
        <time>2013-03-09T10:05:29Z</time>
      </trkpt>
      <trkpt lat="42.86345" lon="-0.05714">
        <ele>2010</ele>
        <time>2013-03-09T10:05:35Z</time>
      </trkpt>
      <trkpt lat="42.86346" lon="-0.05714">
        <ele>2010</ele>
        <time>2013-03-09T10:05:42Z</time>
      </trkpt>
      <trkpt lat="42.86346" lon="-0.05713">
        <ele>2010</ele>
        <time>2013-03-09T10:05:52Z</time>
      </trkpt>
      <trkpt lat="42.86345" lon="-0.05713">
        <ele>2010</ele>
        <time>2013-03-09T10:06:03Z</time>
      </trkpt>
      <trkpt lat="42.86345" lon="-0.05711">
        <ele>2010</ele>
        <time>2013-03-09T10:06:08Z</time>
      </trkpt>
      <trkpt lat="42.86343" lon="-0.0571">
        <ele>2010</ele>
        <time>2013-03-09T10:06:14Z</time>
      </trkpt>
      <trkpt lat="42.86343" lon="-0.0571">
        <ele>2010</ele>
        <time>2013-03-09T10:06:28Z</time>
      </trkpt>
      <trkpt lat="42.86344" lon="-0.0571">
        <ele>2010</ele>
        <time>2013-03-09T10:06:37Z</time>
      </trkpt>
      <trkpt lat="42.86342" lon="-0.05711">
        <ele>2010</ele>
        <time>2013-03-09T10:06:48Z</time>
      </trkpt>
      <trkpt lat="42.86342" lon="-0.0571">
        <ele>2010</ele>
        <time>2013-03-09T10:06:55Z</time>
      </trkpt>
      <trkpt lat="42.8634" lon="-0.0571">
        <ele>2010</ele>
        <time>2013-03-09T10:07:17Z</time>
      </trkpt>
      <trkpt lat="42.86338" lon="-0.05709">
        <ele>2010</ele>
        <time>2013-03-09T10:07:33Z</time>
      </trkpt>
      <trkpt lat="42.86335" lon="-0.05709">
        <ele>2010</ele>
        <time>2013-03-09T10:07:40Z</time>
      </trkpt>
      <trkpt lat="42.86334" lon="-0.05709">
        <ele>2010</ele>
        <time>2013-03-09T10:07:47Z</time>
      </trkpt>
      <trkpt lat="42.8633" lon="-0.05707">
        <ele>2020</ele>
        <time>2013-03-09T10:07:54Z</time>
      </trkpt>
      <trkpt lat="42.86328" lon="-0.05707">
        <ele>2020</ele>
        <time>2013-03-09T10:07:56Z</time>
      </trkpt>
      <trkpt lat="42.86323" lon="-0.05706">
        <ele>2020</ele>
        <time>2013-03-09T10:08:02Z</time>
      </trkpt>
      <trkpt lat="42.86319" lon="-0.05707">
        <ele>2021</ele>
        <time>2013-03-09T10:08:06Z</time>
      </trkpt>
      <trkpt lat="42.86314" lon="-0.05712">
        <ele>2021</ele>
        <time>2013-03-09T10:08:15Z</time>
      </trkpt>
      <trkpt lat="42.8631" lon="-0.05718">
        <ele>2022</ele>
        <time>2013-03-09T10:08:23Z</time>
      </trkpt>
      <trkpt lat="42.86306" lon="-0.05722">
        <ele>2022</ele>
        <time>2013-03-09T10:08:30Z</time>
      </trkpt>
      <trkpt lat="42.86302" lon="-0.05727">
        <ele>2022</ele>
        <time>2013-03-09T10:08:37Z</time>
      </trkpt>
      <trkpt lat="42.863" lon="-0.05732">
        <ele>2022</ele>
        <time>2013-03-09T10:08:43Z</time>
      </trkpt>
      <trkpt lat="42.86297" lon="-0.05738">
        <ele>2023</ele>
        <time>2013-03-09T10:08:52Z</time>
      </trkpt>
      <trkpt lat="42.86296" lon="-0.05743">
        <ele>2023</ele>
        <time>2013-03-09T10:09:00Z</time>
      </trkpt>
      <trkpt lat="42.86293" lon="-0.05751">
        <ele>2030</ele>
        <time>2013-03-09T10:09:09Z</time>
      </trkpt>
      <trkpt lat="42.86291" lon="-0.05757">
        <ele>2031</ele>
        <time>2013-03-09T10:09:17Z</time>
      </trkpt>
      <trkpt lat="42.8629" lon="-0.0576">
        <ele>2031</ele>
        <time>2013-03-09T10:09:20Z</time>
      </trkpt>
      <trkpt lat="42.86288" lon="-0.05766">
        <ele>2032</ele>
        <time>2013-03-09T10:09:27Z</time>
      </trkpt>
      <trkpt lat="42.86286" lon="-0.05773">
        <ele>2032</ele>
        <time>2013-03-09T10:09:35Z</time>
      </trkpt>
      <trkpt lat="42.86288" lon="-0.05782">
        <ele>2033</ele>
        <time>2013-03-09T10:09:43Z</time>
      </trkpt>
      <trkpt lat="42.86289" lon="-0.05786">
        <ele>2034</ele>
        <time>2013-03-09T10:09:51Z</time>
      </trkpt>
      <trkpt lat="42.8629" lon="-0.05792">
        <ele>2034</ele>
        <time>2013-03-09T10:09:59Z</time>
      </trkpt>
      <trkpt lat="42.86291" lon="-0.05799">
        <ele>2035</ele>
        <time>2013-03-09T10:10:06Z</time>
      </trkpt>
      <trkpt lat="42.8629" lon="-0.05806">
        <ele>2036</ele>
        <time>2013-03-09T10:10:13Z</time>
      </trkpt>
      <trkpt lat="42.86288" lon="-0.05813">
        <ele>2037</ele>
        <time>2013-03-09T10:10:21Z</time>
      </trkpt>
      <trkpt lat="42.86286" lon="-0.05822">
        <ele>2037</ele>
        <time>2013-03-09T10:10:30Z</time>
      </trkpt>
      <trkpt lat="42.86283" lon="-0.0583">
        <ele>2038</ele>
        <time>2013-03-09T10:10:39Z</time>
      </trkpt>
      <trkpt lat="42.8628" lon="-0.05837">
        <ele>2049</ele>
        <time>2013-03-09T10:10:46Z</time>
      </trkpt>
      <trkpt lat="42.86279" lon="-0.05843">
        <ele>2049</ele>
        <time>2013-03-09T10:10:53Z</time>
      </trkpt>
      <trkpt lat="42.86276" lon="-0.05851">
        <ele>2050</ele>
        <time>2013-03-09T10:11:05Z</time>
      </trkpt>
      <trkpt lat="42.86274" lon="-0.05856">
        <ele>2050</ele>
        <time>2013-03-09T10:11:16Z</time>
      </trkpt>
      <trkpt lat="42.86271" lon="-0.05864">
        <ele>2051</ele>
        <time>2013-03-09T10:11:28Z</time>
      </trkpt>
      <trkpt lat="42.8627" lon="-0.05872">
        <ele>2052</ele>
        <time>2013-03-09T10:11:36Z</time>
      </trkpt>
      <trkpt lat="42.8627" lon="-0.05876">
        <ele>2053</ele>
        <time>2013-03-09T10:11:43Z</time>
      </trkpt>
      <trkpt lat="42.86271" lon="-0.05876">
        <ele>2053</ele>
        <time>2013-03-09T10:11:53Z</time>
      </trkpt>
      <trkpt lat="42.86276" lon="-0.05874">
        <ele>2053</ele>
        <time>2013-03-09T10:12:01Z</time>
      </trkpt>
      <trkpt lat="42.86281" lon="-0.0587">
        <ele>2053</ele>
        <time>2013-03-09T10:12:11Z</time>
      </trkpt>
      <trkpt lat="42.86286" lon="-0.05868">
        <ele>2053</ele>
        <time>2013-03-09T10:12:18Z</time>
      </trkpt>
      <trkpt lat="42.86289" lon="-0.05866">
        <ele>2052</ele>
        <time>2013-03-09T10:12:24Z</time>
      </trkpt>
      <trkpt lat="42.86293" lon="-0.05866">
        <ele>2053</ele>
        <time>2013-03-09T10:12:32Z</time>
      </trkpt>
      <trkpt lat="42.86299" lon="-0.05865">
        <ele>2053</ele>
        <time>2013-03-09T10:12:42Z</time>
      </trkpt>
      <trkpt lat="42.86301" lon="-0.05865">
        <ele>2053</ele>
        <time>2013-03-09T10:12:45Z</time>
      </trkpt>
      <trkpt lat="42.86306" lon="-0.05864">
        <ele>2053</ele>
        <time>2013-03-09T10:12:53Z</time>
      </trkpt>
      <trkpt lat="42.86308" lon="-0.05864">
        <ele>2052</ele>
        <time>2013-03-09T10:13:00Z</time>
      </trkpt>
      <trkpt lat="42.86314" lon="-0.05864">
        <ele>2053</ele>
        <time>2013-03-09T10:13:12Z</time>
      </trkpt>
      <trkpt lat="42.86315" lon="-0.05865">
        <ele>2053</ele>
        <time>2013-03-09T10:13:13Z</time>
      </trkpt>
      <trkpt lat="42.86318" lon="-0.05866">
        <ele>2053</ele>
        <time>2013-03-09T10:13:20Z</time>
      </trkpt>
      <trkpt lat="42.86322" lon="-0.05867">
        <ele>2053</ele>
        <time>2013-03-09T10:13:26Z</time>
      </trkpt>
      <trkpt lat="42.86326" lon="-0.0587">
        <ele>2053</ele>
        <time>2013-03-09T10:13:33Z</time>
      </trkpt>
      <trkpt lat="42.86325" lon="-0.05869">
        <ele>2053</ele>
        <time>2013-03-09T10:13:40Z</time>
      </trkpt>
      <trkpt lat="42.86326" lon="-0.0587">
        <ele>2053</ele>
        <time>2013-03-09T10:13:47Z</time>
      </trkpt>
      <trkpt lat="42.86321" lon="-0.05874">
        <ele>2054</ele>
        <time>2013-03-09T10:13:55Z</time>
      </trkpt>
      <trkpt lat="42.86317" lon="-0.05881">
        <ele>2055</ele>
        <time>2013-03-09T10:14:05Z</time>
      </trkpt>
      <trkpt lat="42.86314" lon="-0.05889">
        <ele>2056</ele>
        <time>2013-03-09T10:14:14Z</time>
      </trkpt>
      <trkpt lat="42.86312" lon="-0.05895">
        <ele>2057</ele>
        <time>2013-03-09T10:14:23Z</time>
      </trkpt>
      <trkpt lat="42.86306" lon="-0.05899">
        <ele>2057</ele>
        <time>2013-03-09T10:14:33Z</time>
      </trkpt>
      <trkpt lat="42.86305" lon="-0.05904">
        <ele>2057</ele>
        <time>2013-03-09T10:14:41Z</time>
      </trkpt>
      <trkpt lat="42.86305" lon="-0.05906">
        <ele>2058</ele>
        <time>2013-03-09T10:14:45Z</time>
      </trkpt>
      <trkpt lat="42.86306" lon="-0.05908">
        <ele>2058</ele>
        <time>2013-03-09T10:14:51Z</time>
      </trkpt>
      <trkpt lat="42.86308" lon="-0.05908">
        <ele>2058</ele>
        <time>2013-03-09T10:15:00Z</time>
      </trkpt>
      <trkpt lat="42.86308" lon="-0.05909">
        <ele>2058</ele>
        <time>2013-03-09T10:15:15Z</time>
      </trkpt>
      <trkpt lat="42.86307" lon="-0.05911">
        <ele>2058</ele>
        <time>2013-03-09T10:15:31Z</time>
      </trkpt>
      <trkpt lat="42.86306" lon="-0.05909">
        <ele>2058</ele>
        <time>2013-03-09T10:15:43Z</time>
      </trkpt>
      <trkpt lat="42.86305" lon="-0.05908">
        <ele>2058</ele>
        <time>2013-03-09T10:15:54Z</time>
      </trkpt>
      <trkpt lat="42.86306" lon="-0.05912">
        <ele>2058</ele>
        <time>2013-03-09T10:16:02Z</time>
      </trkpt>
      <trkpt lat="42.86307" lon="-0.05914">
        <ele>2058</ele>
        <time>2013-03-09T10:16:04Z</time>
      </trkpt>
      <trkpt lat="42.86318" lon="-0.05924">
        <ele>2069</ele>
        <time>2013-03-09T10:16:11Z</time>
      </trkpt>
      <trkpt lat="42.86328" lon="-0.05938">
        <ele>2070</ele>
        <time>2013-03-09T10:16:19Z</time>
      </trkpt>
      <trkpt lat="42.86335" lon="-0.05949">
        <ele>2065</ele>
        <time>2013-03-09T10:16:27Z</time>
      </trkpt>
      <trkpt lat="42.86342" lon="-0.05963">
        <ele>2067</ele>
        <time>2013-03-09T10:16:33Z</time>
      </trkpt>
      <trkpt lat="42.86345" lon="-0.0597">
        <ele>2068</ele>
        <time>2013-03-09T10:16:38Z</time>
      </trkpt>
      <trkpt lat="42.86348" lon="-0.05978">
        <ele>2069</ele>
        <time>2013-03-09T10:16:46Z</time>
      </trkpt>
      <trkpt lat="42.86351" lon="-0.05987">
        <ele>2071</ele>
        <time>2013-03-09T10:16:54Z</time>
      </trkpt>
      <trkpt lat="42.86352" lon="-0.05992">
        <ele>2071</ele>
        <time>2013-03-09T10:17:02Z</time>
      </trkpt>
      <trkpt lat="42.86356" lon="-0.05997">
        <ele>2070</ele>
        <time>2013-03-09T10:17:11Z</time>
      </trkpt>
      <trkpt lat="42.86355" lon="-0.06005">
        <ele>2081</ele>
        <time>2013-03-09T10:17:21Z</time>
      </trkpt>
      <trkpt lat="42.86354" lon="-0.06008">
        <ele>2081</ele>
        <time>2013-03-09T10:17:27Z</time>
      </trkpt>
      <trkpt lat="42.86353" lon="-0.06013">
        <ele>2081</ele>
        <time>2013-03-09T10:17:36Z</time>
      </trkpt>
      <trkpt lat="42.86352" lon="-0.06019">
        <ele>2082</ele>
        <time>2013-03-09T10:17:43Z</time>
      </trkpt>
      <trkpt lat="42.86353" lon="-0.06028">
        <ele>2082</ele>
        <time>2013-03-09T10:17:52Z</time>
      </trkpt>
      <trkpt lat="42.86355" lon="-0.06033">
        <ele>2083</ele>
        <time>2013-03-09T10:17:59Z</time>
      </trkpt>
      <trkpt lat="42.86358" lon="-0.06037">
        <ele>2083</ele>
        <time>2013-03-09T10:18:06Z</time>
      </trkpt>
      <trkpt lat="42.8636" lon="-0.0604">
        <ele>2083</ele>
        <time>2013-03-09T10:18:13Z</time>
      </trkpt>
      <trkpt lat="42.86363" lon="-0.06044">
        <ele>2083</ele>
        <time>2013-03-09T10:18:22Z</time>
      </trkpt>
      <trkpt lat="42.86365" lon="-0.06049">
        <ele>2083</ele>
        <time>2013-03-09T10:18:29Z</time>
      </trkpt>
      <trkpt lat="42.86368" lon="-0.06055">
        <ele>2084</ele>
        <time>2013-03-09T10:18:38Z</time>
      </trkpt>
      <trkpt lat="42.8637" lon="-0.06062">
        <ele>2084</ele>
        <time>2013-03-09T10:18:46Z</time>
      </trkpt>
      <trkpt lat="42.86371" lon="-0.0607">
        <ele>2085</ele>
        <time>2013-03-09T10:18:55Z</time>
      </trkpt>
      <trkpt lat="42.86371" lon="-0.06077">
        <ele>2085</ele>
        <time>2013-03-09T10:19:03Z</time>
      </trkpt>
      <trkpt lat="42.8637" lon="-0.06085">
        <ele>2097</ele>
        <time>2013-03-09T10:19:11Z</time>
      </trkpt>
      <trkpt lat="42.86369" lon="-0.06093">
        <ele>2098</ele>
        <time>2013-03-09T10:19:19Z</time>
      </trkpt>
      <trkpt lat="42.86368" lon="-0.06097">
        <ele>2098</ele>
        <time>2013-03-09T10:19:26Z</time>
      </trkpt>
      <trkpt lat="42.86367" lon="-0.06101">
        <ele>2099</ele>
        <time>2013-03-09T10:19:33Z</time>
      </trkpt>
      <trkpt lat="42.86366" lon="-0.06107">
        <ele>2099</ele>
        <time>2013-03-09T10:19:40Z</time>
      </trkpt>
      <trkpt lat="42.86366" lon="-0.06113">
        <ele>2100</ele>
        <time>2013-03-09T10:19:47Z</time>
      </trkpt>
      <trkpt lat="42.86367" lon="-0.06118">
        <ele>2100</ele>
        <time>2013-03-09T10:19:55Z</time>
      </trkpt>
      <trkpt lat="42.86368" lon="-0.0612">
        <ele>2100</ele>
        <time>2013-03-09T10:19:58Z</time>
      </trkpt>
      <trkpt lat="42.86372" lon="-0.06129">
        <ele>2100</ele>
        <time>2013-03-09T10:20:08Z</time>
      </trkpt>
      <trkpt lat="42.86374" lon="-0.06134">
        <ele>2101</ele>
        <time>2013-03-09T10:20:16Z</time>
      </trkpt>
      <trkpt lat="42.86376" lon="-0.06141">
        <ele>2101</ele>
        <time>2013-03-09T10:20:24Z</time>
      </trkpt>
      <trkpt lat="42.86376" lon="-0.06141">
        <ele>2101</ele>
        <time>2013-03-09T10:20:36Z</time>
      </trkpt>
      <trkpt lat="42.86375" lon="-0.0614">
        <ele>2101</ele>
        <time>2013-03-09T10:20:49Z</time>
      </trkpt>
      <trkpt lat="42.86376" lon="-0.06148">
        <ele>2102</ele>
        <time>2013-03-09T10:20:58Z</time>
      </trkpt>
      <trkpt lat="42.86376" lon="-0.06153">
        <ele>2102</ele>
        <time>2013-03-09T10:21:02Z</time>
      </trkpt>
      <trkpt lat="42.86376" lon="-0.06163">
        <ele>2102</ele>
        <time>2013-03-09T10:21:11Z</time>
      </trkpt>
      <trkpt lat="42.86376" lon="-0.06173">
        <ele>2111</ele>
        <time>2013-03-09T10:21:20Z</time>
      </trkpt>
      <trkpt lat="42.86375" lon="-0.06178">
        <ele>2112</ele>
        <time>2013-03-09T10:21:24Z</time>
      </trkpt>
      <trkpt lat="42.86374" lon="-0.06182">
        <ele>2112</ele>
        <time>2013-03-09T10:21:27Z</time>
      </trkpt>
      <trkpt lat="42.86372" lon="-0.06194">
        <ele>2113</ele>
        <time>2013-03-09T10:21:36Z</time>
      </trkpt>
      <trkpt lat="42.8637" lon="-0.06204">
        <ele>2114</ele>
        <time>2013-03-09T10:21:44Z</time>
      </trkpt>
      <trkpt lat="42.86369" lon="-0.06211">
        <ele>2114</ele>
        <time>2013-03-09T10:21:51Z</time>
      </trkpt>
      <trkpt lat="42.86367" lon="-0.0622">
        <ele>2115</ele>
        <time>2013-03-09T10:21:59Z</time>
      </trkpt>
      <trkpt lat="42.86365" lon="-0.0623">
        <ele>2116</ele>
        <time>2013-03-09T10:22:08Z</time>
      </trkpt>
      <trkpt lat="42.86364" lon="-0.06234">
        <ele>2116</ele>
        <time>2013-03-09T10:22:17Z</time>
      </trkpt>
      <trkpt lat="42.86363" lon="-0.06239">
        <ele>2117</ele>
        <time>2013-03-09T10:22:29Z</time>
      </trkpt>
      <trkpt lat="42.86362" lon="-0.06247">
        <ele>2117</ele>
        <time>2013-03-09T10:22:36Z</time>
      </trkpt>
      <trkpt lat="42.86361" lon="-0.06256">
        <ele>2124</ele>
        <time>2013-03-09T10:22:43Z</time>
      </trkpt>
      <trkpt lat="42.86359" lon="-0.06265">
        <ele>2124</ele>
        <time>2013-03-09T10:22:50Z</time>
      </trkpt>
      <trkpt lat="42.86358" lon="-0.06276">
        <ele>2124</ele>
        <time>2013-03-09T10:22:58Z</time>
      </trkpt>
      <trkpt lat="42.86358" lon="-0.06284">
        <ele>2125</ele>
        <time>2013-03-09T10:23:06Z</time>
      </trkpt>
      <trkpt lat="42.86358" lon="-0.06292">
        <ele>2125</ele>
        <time>2013-03-09T10:23:13Z</time>
      </trkpt>
      <trkpt lat="42.86359" lon="-0.06295">
        <ele>2125</ele>
        <time>2013-03-09T10:23:16Z</time>
      </trkpt>
      <trkpt lat="42.86361" lon="-0.06303">
        <ele>2126</ele>
        <time>2013-03-09T10:23:24Z</time>
      </trkpt>
      <trkpt lat="42.86363" lon="-0.0631">
        <ele>2126</ele>
        <time>2013-03-09T10:23:31Z</time>
      </trkpt>
      <trkpt lat="42.86365" lon="-0.06318">
        <ele>2126</ele>
        <time>2013-03-09T10:23:39Z</time>
      </trkpt>
      <trkpt lat="42.86368" lon="-0.06329">
        <ele>2126</ele>
        <time>2013-03-09T10:23:48Z</time>
      </trkpt>
      <trkpt lat="42.86369" lon="-0.06334">
        <ele>2132</ele>
        <time>2013-03-09T10:23:54Z</time>
      </trkpt>
      <trkpt lat="42.86371" lon="-0.06337">
        <ele>2132</ele>
        <time>2013-03-09T10:23:58Z</time>
      </trkpt>
      <trkpt lat="42.86374" lon="-0.06344">
        <ele>2132</ele>
        <time>2013-03-09T10:24:05Z</time>
      </trkpt>
      <trkpt lat="42.86378" lon="-0.06351">
        <ele>2132</ele>
        <time>2013-03-09T10:24:14Z</time>
      </trkpt>
      <trkpt lat="42.86382" lon="-0.06355">
        <ele>2132</ele>
        <time>2013-03-09T10:24:21Z</time>
      </trkpt>
      <trkpt lat="42.86383" lon="-0.06358">
        <ele>2132</ele>
        <time>2013-03-09T10:24:27Z</time>
      </trkpt>
      <trkpt lat="42.86382" lon="-0.06358">
        <ele>2132</ele>
        <time>2013-03-09T10:24:32Z</time>
      </trkpt>
      <trkpt lat="42.86382" lon="-0.06359">
        <ele>2132</ele>
        <time>2013-03-09T10:24:42Z</time>
      </trkpt>
      <trkpt lat="42.86384" lon="-0.06359">
        <ele>2132</ele>
        <time>2013-03-09T10:24:56Z</time>
      </trkpt>
      <trkpt lat="42.86385" lon="-0.06361">
        <ele>2132</ele>
        <time>2013-03-09T10:25:03Z</time>
      </trkpt>
      <trkpt lat="42.86386" lon="-0.06361">
        <ele>2132</ele>
        <time>2013-03-09T10:25:09Z</time>
      </trkpt>
      <trkpt lat="42.86387" lon="-0.06361">
        <ele>2132</ele>
        <time>2013-03-09T10:25:21Z</time>
      </trkpt>
      <trkpt lat="42.86386" lon="-0.06363">
        <ele>2132</ele>
        <time>2013-03-09T10:25:31Z</time>
      </trkpt>
      <trkpt lat="42.86386" lon="-0.06362">
        <ele>2132</ele>
        <time>2013-03-09T10:25:40Z</time>
      </trkpt>
      <trkpt lat="42.86387" lon="-0.06361">
        <ele>2132</ele>
        <time>2013-03-09T10:25:49Z</time>
      </trkpt>
      <trkpt lat="42.86387" lon="-0.06363">
        <ele>2132</ele>
        <time>2013-03-09T10:26:03Z</time>
      </trkpt>
      <trkpt lat="42.86386" lon="-0.06362">
        <ele>2132</ele>
        <time>2013-03-09T10:26:13Z</time>
      </trkpt>
      <trkpt lat="42.86387" lon="-0.0636">
        <ele>2132</ele>
        <time>2013-03-09T10:26:22Z</time>
      </trkpt>
      <trkpt lat="42.86388" lon="-0.06358">
        <ele>2132</ele>
        <time>2013-03-09T10:26:40Z</time>
      </trkpt>
      <trkpt lat="42.86386" lon="-0.06357">
        <ele>2132</ele>
        <time>2013-03-09T10:26:55Z</time>
      </trkpt>
      <trkpt lat="42.86387" lon="-0.06357">
        <ele>2132</ele>
        <time>2013-03-09T10:27:09Z</time>
      </trkpt>
      <trkpt lat="42.86387" lon="-0.06357">
        <ele>2132</ele>
        <time>2013-03-09T10:27:18Z</time>
      </trkpt>
      <trkpt lat="42.86389" lon="-0.06366">
        <ele>2132</ele>
        <time>2013-03-09T10:27:25Z</time>
      </trkpt>
      <trkpt lat="42.86391" lon="-0.06373">
        <ele>2133</ele>
        <time>2013-03-09T10:27:32Z</time>
      </trkpt>
      <trkpt lat="42.86393" lon="-0.06381">
        <ele>2133</ele>
        <time>2013-03-09T10:27:40Z</time>
      </trkpt>
      <trkpt lat="42.86394" lon="-0.06388">
        <ele>2134</ele>
        <time>2013-03-09T10:27:46Z</time>
      </trkpt>
      <trkpt lat="42.86395" lon="-0.06392">
        <ele>2134</ele>
        <time>2013-03-09T10:27:55Z</time>
      </trkpt>
      <trkpt lat="42.86397" lon="-0.06401">
        <ele>2135</ele>
        <time>2013-03-09T10:28:03Z</time>
      </trkpt>
      <trkpt lat="42.86399" lon="-0.06409">
        <ele>2135</ele>
        <time>2013-03-09T10:28:11Z</time>
      </trkpt>
      <trkpt lat="42.86402" lon="-0.06415">
        <ele>2136</ele>
        <time>2013-03-09T10:28:20Z</time>
      </trkpt>
      <trkpt lat="42.86402" lon="-0.06423">
        <ele>2141</ele>
        <time>2013-03-09T10:28:28Z</time>
      </trkpt>
      <trkpt lat="42.86403" lon="-0.06433">
        <ele>2142</ele>
        <time>2013-03-09T10:28:36Z</time>
      </trkpt>
      <trkpt lat="42.86404" lon="-0.06443">
        <ele>2143</ele>
        <time>2013-03-09T10:28:44Z</time>
      </trkpt>
      <trkpt lat="42.86404" lon="-0.06445">
        <ele>2143</ele>
        <time>2013-03-09T10:28:46Z</time>
      </trkpt>
      <trkpt lat="42.86405" lon="-0.06453">
        <ele>2144</ele>
        <time>2013-03-09T10:28:55Z</time>
      </trkpt>
      <trkpt lat="42.86404" lon="-0.06464">
        <ele>2146</ele>
        <time>2013-03-09T10:29:06Z</time>
      </trkpt>
      <trkpt lat="42.86403" lon="-0.06468">
        <ele>2146</ele>
        <time>2013-03-09T10:29:12Z</time>
      </trkpt>
      <trkpt lat="42.86403" lon="-0.06471">
        <ele>2147</ele>
        <time>2013-03-09T10:29:19Z</time>
      </trkpt>
      <trkpt lat="42.86405" lon="-0.06476">
        <ele>2147</ele>
        <time>2013-03-09T10:29:30Z</time>
      </trkpt>
      <trkpt lat="42.86406" lon="-0.06477">
        <ele>2148</ele>
        <time>2013-03-09T10:29:32Z</time>
      </trkpt>
      <trkpt lat="42.86408" lon="-0.06482">
        <ele>2149</ele>
        <time>2013-03-09T10:29:39Z</time>
      </trkpt>
      <trkpt lat="42.8641" lon="-0.06487">
        <ele>2150</ele>
        <time>2013-03-09T10:29:49Z</time>
      </trkpt>
      <trkpt lat="42.8641" lon="-0.06492">
        <ele>2151</ele>
        <time>2013-03-09T10:29:56Z</time>
      </trkpt>
      <trkpt lat="42.86409" lon="-0.065">
        <ele>2152</ele>
        <time>2013-03-09T10:30:03Z</time>
      </trkpt>
      <trkpt lat="42.86408" lon="-0.06505">
        <ele>2159</ele>
        <time>2013-03-09T10:30:10Z</time>
      </trkpt>
      <trkpt lat="42.86407" lon="-0.0651">
        <ele>2160</ele>
        <time>2013-03-09T10:30:19Z</time>
      </trkpt>
      <trkpt lat="42.86405" lon="-0.06515">
        <ele>2162</ele>
        <time>2013-03-09T10:30:25Z</time>
      </trkpt>
      <trkpt lat="42.86402" lon="-0.06523">
        <ele>2164</ele>
        <time>2013-03-09T10:30:37Z</time>
      </trkpt>
      <trkpt lat="42.86398" lon="-0.06526">
        <ele>2165</ele>
        <time>2013-03-09T10:30:44Z</time>
      </trkpt>
      <trkpt lat="42.86394" lon="-0.06529">
        <ele>2166</ele>
        <time>2013-03-09T10:30:52Z</time>
      </trkpt>
      <trkpt lat="42.86389" lon="-0.06533">
        <ele>2167</ele>
        <time>2013-03-09T10:31:01Z</time>
      </trkpt>
      <trkpt lat="42.86385" lon="-0.06535">
        <ele>2167</ele>
        <time>2013-03-09T10:31:10Z</time>
      </trkpt>
      <trkpt lat="42.86381" lon="-0.0654">
        <ele>2168</ele>
        <time>2013-03-09T10:31:18Z</time>
      </trkpt>
      <trkpt lat="42.86378" lon="-0.06544">
        <ele>2169</ele>
        <time>2013-03-09T10:31:27Z</time>
      </trkpt>
      <trkpt lat="42.8638" lon="-0.06547">
        <ele>2170</ele>
        <time>2013-03-09T10:31:34Z</time>
      </trkpt>
      <trkpt lat="42.86382" lon="-0.06551">
        <ele>2170</ele>
        <time>2013-03-09T10:31:41Z</time>
      </trkpt>
      <trkpt lat="42.86384" lon="-0.06555">
        <ele>2171</ele>
        <time>2013-03-09T10:31:49Z</time>
      </trkpt>
      <trkpt lat="42.86386" lon="-0.0656">
        <ele>2172</ele>
        <time>2013-03-09T10:31:56Z</time>
      </trkpt>
      <trkpt lat="42.86387" lon="-0.06565">
        <ele>2173</ele>
        <time>2013-03-09T10:32:05Z</time>
      </trkpt>
      <trkpt lat="42.86388" lon="-0.06573">
        <ele>2174</ele>
        <time>2013-03-09T10:32:16Z</time>
      </trkpt>
      <trkpt lat="42.86388" lon="-0.0658">
        <ele>2175</ele>
        <time>2013-03-09T10:32:23Z</time>
      </trkpt>
      <trkpt lat="42.86388" lon="-0.06584">
        <ele>2191</ele>
        <time>2013-03-09T10:32:29Z</time>
      </trkpt>
      <trkpt lat="42.86387" lon="-0.06584">
        <ele>2191</ele>
        <time>2013-03-09T10:32:30Z</time>
      </trkpt>
      <trkpt lat="42.86384" lon="-0.06582">
        <ele>2175</ele>
        <time>2013-03-09T10:32:38Z</time>
      </trkpt>
      <trkpt lat="42.8638" lon="-0.06581">
        <ele>2175</ele>
        <time>2013-03-09T10:32:45Z</time>
      </trkpt>
      <trkpt lat="42.86375" lon="-0.06582">
        <ele>2175</ele>
        <time>2013-03-09T10:32:55Z</time>
      </trkpt>
      <trkpt lat="42.86377" lon="-0.0658">
        <ele>2174</ele>
        <time>2013-03-09T10:33:06Z</time>
      </trkpt>
      <trkpt lat="42.86375" lon="-0.0658">
        <ele>2175</ele>
        <time>2013-03-09T10:33:14Z</time>
      </trkpt>
      <trkpt lat="42.86371" lon="-0.06584">
        <ele>2192</ele>
        <time>2013-03-09T10:33:20Z</time>
      </trkpt>
      <trkpt lat="42.86366" lon="-0.06586">
        <ele>2192</ele>
        <time>2013-03-09T10:33:28Z</time>
      </trkpt>
      <trkpt lat="42.86364" lon="-0.06589">
        <ele>2193</ele>
        <time>2013-03-09T10:33:33Z</time>
      </trkpt>
      <trkpt lat="42.8636" lon="-0.06592">
        <ele>2193</ele>
        <time>2013-03-09T10:33:41Z</time>
      </trkpt>
      <trkpt lat="42.86356" lon="-0.06596">
        <ele>2193</ele>
        <time>2013-03-09T10:33:49Z</time>
      </trkpt>
      <trkpt lat="42.86354" lon="-0.06599">
        <ele>2193</ele>
        <time>2013-03-09T10:33:57Z</time>
      </trkpt>
      <trkpt lat="42.86352" lon="-0.06601">
        <ele>2193</ele>
        <time>2013-03-09T10:34:04Z</time>
      </trkpt>
      <trkpt lat="42.86351" lon="-0.06604">
        <ele>2194</ele>
        <time>2013-03-09T10:34:12Z</time>
      </trkpt>
      <trkpt lat="42.86351" lon="-0.06604">
        <ele>2194</ele>
        <time>2013-03-09T10:34:13Z</time>
      </trkpt>
      <trkpt lat="42.86349" lon="-0.06602">
        <ele>2193</ele>
        <time>2013-03-09T10:34:27Z</time>
      </trkpt>
      <trkpt lat="42.8635" lon="-0.06604">
        <ele>2194</ele>
        <time>2013-03-09T10:34:38Z</time>
      </trkpt>
      <trkpt lat="42.86348" lon="-0.06606">
        <ele>2194</ele>
        <time>2013-03-09T10:34:51Z</time>
      </trkpt>
      <trkpt lat="42.8635" lon="-0.06609">
        <ele>2195</ele>
        <time>2013-03-09T10:34:58Z</time>
      </trkpt>
      <trkpt lat="42.86352" lon="-0.06613">
        <ele>2195</ele>
        <time>2013-03-09T10:35:06Z</time>
      </trkpt>
      <trkpt lat="42.86354" lon="-0.06616">
        <ele>2196</ele>
        <time>2013-03-09T10:35:14Z</time>
      </trkpt>
      <trkpt lat="42.86357" lon="-0.06621">
        <ele>2197</ele>
        <time>2013-03-09T10:35:23Z</time>
      </trkpt>
      <trkpt lat="42.86361" lon="-0.06629">
        <ele>2198</ele>
        <time>2013-03-09T10:35:32Z</time>
      </trkpt>
      <trkpt lat="42.86363" lon="-0.06636">
        <ele>2199</ele>
        <time>2013-03-09T10:35:40Z</time>
      </trkpt>
      <trkpt lat="42.86365" lon="-0.06641">
        <ele>2199</ele>
        <time>2013-03-09T10:35:48Z</time>
      </trkpt>
      <trkpt lat="42.86368" lon="-0.06648">
        <ele>2200</ele>
        <time>2013-03-09T10:35:57Z</time>
      </trkpt>
      <trkpt lat="42.86369" lon="-0.06654">
        <ele>2201</ele>
        <time>2013-03-09T10:36:03Z</time>
      </trkpt>
      <trkpt lat="42.86371" lon="-0.06658">
        <ele>2201</ele>
        <time>2013-03-09T10:36:08Z</time>
      </trkpt>
      <trkpt lat="42.86372" lon="-0.06667">
        <ele>2217</ele>
        <time>2013-03-09T10:36:16Z</time>
      </trkpt>
      <trkpt lat="42.86374" lon="-0.06671">
        <ele>2217</ele>
        <time>2013-03-09T10:36:20Z</time>
      </trkpt>
      <trkpt lat="42.86378" lon="-0.06678">
        <ele>2218</ele>
        <time>2013-03-09T10:36:27Z</time>
      </trkpt>
      <trkpt lat="42.86381" lon="-0.06687">
        <ele>2218</ele>
        <time>2013-03-09T10:36:35Z</time>
      </trkpt>
      <trkpt lat="42.8638" lon="-0.06684">
        <ele>2218</ele>
        <time>2013-03-09T10:36:45Z</time>
      </trkpt>
      <trkpt lat="42.8638" lon="-0.06688">
        <ele>2219</ele>
        <time>2013-03-09T10:37:01Z</time>
      </trkpt>
      <trkpt lat="42.86379" lon="-0.06686">
        <ele>2219</ele>
        <time>2013-03-09T10:37:15Z</time>
      </trkpt>
      <trkpt lat="42.86382" lon="-0.06688">
        <ele>2219</ele>
        <time>2013-03-09T10:37:24Z</time>
      </trkpt>
      <trkpt lat="42.86388" lon="-0.06689">
        <ele>2218</ele>
        <time>2013-03-09T10:37:31Z</time>
      </trkpt>
      <trkpt lat="42.86389" lon="-0.06688">
        <ele>2218</ele>
        <time>2013-03-09T10:37:33Z</time>
      </trkpt>
      <trkpt lat="42.86395" lon="-0.0669">
        <ele>2218</ele>
        <time>2013-03-09T10:37:41Z</time>
      </trkpt>
      <trkpt lat="42.86401" lon="-0.06694">
        <ele>2218</ele>
        <time>2013-03-09T10:37:52Z</time>
      </trkpt>
      <trkpt lat="42.86406" lon="-0.06698">
        <ele>2219</ele>
        <time>2013-03-09T10:38:00Z</time>
      </trkpt>
      <trkpt lat="42.86409" lon="-0.06701">
        <ele>2220</ele>
        <time>2013-03-09T10:38:08Z</time>
      </trkpt>
      <trkpt lat="42.86413" lon="-0.06705">
        <ele>2221</ele>
        <time>2013-03-09T10:38:17Z</time>
      </trkpt>
      <trkpt lat="42.86413" lon="-0.06706">
        <ele>2221</ele>
        <time>2013-03-09T10:38:18Z</time>
      </trkpt>
      <trkpt lat="42.86415" lon="-0.06707">
        <ele>2222</ele>
        <time>2013-03-09T10:38:25Z</time>
      </trkpt>
      <trkpt lat="42.86416" lon="-0.06706">
        <ele>2221</ele>
        <time>2013-03-09T10:38:37Z</time>
      </trkpt>
      <trkpt lat="42.86418" lon="-0.06707">
        <ele>2223</ele>
        <time>2013-03-09T10:38:50Z</time>
      </trkpt>
      <trkpt lat="42.86423" lon="-0.06714">
        <ele>2224</ele>
        <time>2013-03-09T10:39:00Z</time>
      </trkpt>
      <trkpt lat="42.86424" lon="-0.06714">
        <ele>2225</ele>
        <time>2013-03-09T10:39:01Z</time>
      </trkpt>
      <trkpt lat="42.86431" lon="-0.06717">
        <ele>2225</ele>
        <time>2013-03-09T10:39:10Z</time>
      </trkpt>
      <trkpt lat="42.86436" lon="-0.0672">
        <ele>2226</ele>
        <time>2013-03-09T10:39:18Z</time>
      </trkpt>
      <trkpt lat="42.86441" lon="-0.0672">
        <ele>2226</ele>
        <time>2013-03-09T10:39:25Z</time>
      </trkpt>
      <trkpt lat="42.86447" lon="-0.0672">
        <ele>2226</ele>
        <time>2013-03-09T10:39:34Z</time>
      </trkpt>
      <trkpt lat="42.86452" lon="-0.06719">
        <ele>2225</ele>
        <time>2013-03-09T10:39:42Z</time>
      </trkpt>
      <trkpt lat="42.86459" lon="-0.0672">
        <ele>2225</ele>
        <time>2013-03-09T10:39:51Z</time>
      </trkpt>
      <trkpt lat="42.86467" lon="-0.06721">
        <ele>2226</ele>
        <time>2013-03-09T10:39:59Z</time>
      </trkpt>
      <trkpt lat="42.86469" lon="-0.0672">
        <ele>2226</ele>
        <time>2013-03-09T10:40:07Z</time>
      </trkpt>
      <trkpt lat="42.8647" lon="-0.06719">
        <ele>2226</ele>
        <time>2013-03-09T10:40:21Z</time>
      </trkpt>
      <trkpt lat="42.86472" lon="-0.06721">
        <ele>2226</ele>
        <time>2013-03-09T10:40:31Z</time>
      </trkpt>
      <trkpt lat="42.8647" lon="-0.06723">
        <ele>2226</ele>
        <time>2013-03-09T10:40:40Z</time>
      </trkpt>
      <trkpt lat="42.86474" lon="-0.06722">
        <ele>2226</ele>
        <time>2013-03-09T10:40:53Z</time>
      </trkpt>
      <trkpt lat="42.86475" lon="-0.06721">
        <ele>2226</ele>
        <time>2013-03-09T10:40:55Z</time>
      </trkpt>
      <trkpt lat="42.86479" lon="-0.0672">
        <ele>2226</ele>
        <time>2013-03-09T10:41:02Z</time>
      </trkpt>
      <trkpt lat="42.86482" lon="-0.06723">
        <ele>2227</ele>
        <time>2013-03-09T10:41:07Z</time>
      </trkpt>
      <trkpt lat="42.86486" lon="-0.06728">
        <ele>2228</ele>
        <time>2013-03-09T10:41:15Z</time>
      </trkpt>
      <trkpt lat="42.86489" lon="-0.06734">
        <ele>2230</ele>
        <time>2013-03-09T10:41:23Z</time>
      </trkpt>
      <trkpt lat="42.86493" lon="-0.06738">
        <ele>2232</ele>
        <time>2013-03-09T10:41:30Z</time>
      </trkpt>
      <trkpt lat="42.86497" lon="-0.06744">
        <ele>2235</ele>
        <time>2013-03-09T10:41:38Z</time>
      </trkpt>
      <trkpt lat="42.86501" lon="-0.0675">
        <ele>2238</ele>
        <time>2013-03-09T10:41:47Z</time>
      </trkpt>
      <trkpt lat="42.86506" lon="-0.06757">
        <ele>2241</ele>
        <time>2013-03-09T10:41:55Z</time>
      </trkpt>
      <trkpt lat="42.86511" lon="-0.06763">
        <ele>2243</ele>
        <time>2013-03-09T10:42:04Z</time>
      </trkpt>
      <trkpt lat="42.86514" lon="-0.06769">
        <ele>2244</ele>
        <time>2013-03-09T10:42:14Z</time>
      </trkpt>
      <trkpt lat="42.86518" lon="-0.06776">
        <ele>2246</ele>
        <time>2013-03-09T10:42:25Z</time>
      </trkpt>
      <trkpt lat="42.86522" lon="-0.0678">
        <ele>2246</ele>
        <time>2013-03-09T10:42:34Z</time>
      </trkpt>
      <trkpt lat="42.86524" lon="-0.06781">
        <ele>2246</ele>
        <time>2013-03-09T10:42:43Z</time>
      </trkpt>
      <trkpt lat="42.86524" lon="-0.06782">
        <ele>2247</ele>
        <time>2013-03-09T10:42:57Z</time>
      </trkpt>
      <trkpt lat="42.86525" lon="-0.06782">
        <ele>2247</ele>
        <time>2013-03-09T10:43:10Z</time>
      </trkpt>
      <trkpt lat="42.86527" lon="-0.0678">
        <ele>2246</ele>
        <time>2013-03-09T10:43:27Z</time>
      </trkpt>
      <trkpt lat="42.86528" lon="-0.06784">
        <ele>2247</ele>
        <time>2013-03-09T10:43:34Z</time>
      </trkpt>
      <trkpt lat="42.86528" lon="-0.06786">
        <ele>2247</ele>
        <time>2013-03-09T10:43:36Z</time>
      </trkpt>
      <trkpt lat="42.8653" lon="-0.0679">
        <ele>2248</ele>
        <time>2013-03-09T10:43:42Z</time>
      </trkpt>
      <trkpt lat="42.86532" lon="-0.06794">
        <ele>2249</ele>
        <time>2013-03-09T10:43:49Z</time>
      </trkpt>
      <trkpt lat="42.86535" lon="-0.06799">
        <ele>2249</ele>
        <time>2013-03-09T10:43:57Z</time>
      </trkpt>
      <trkpt lat="42.86538" lon="-0.06804">
        <ele>2250</ele>
        <time>2013-03-09T10:44:05Z</time>
      </trkpt>
      <trkpt lat="42.86541" lon="-0.0681">
        <ele>2250</ele>
        <time>2013-03-09T10:44:13Z</time>
      </trkpt>
      <trkpt lat="42.86545" lon="-0.06816">
        <ele>2251</ele>
        <time>2013-03-09T10:44:21Z</time>
      </trkpt>
      <trkpt lat="42.86548" lon="-0.06821">
        <ele>2251</ele>
        <time>2013-03-09T10:44:29Z</time>
      </trkpt>
      <trkpt lat="42.86551" lon="-0.06827">
        <ele>2251</ele>
        <time>2013-03-09T10:44:37Z</time>
      </trkpt>
      <trkpt lat="42.86554" lon="-0.06833">
        <ele>2251</ele>
        <time>2013-03-09T10:44:45Z</time>
      </trkpt>
      <trkpt lat="42.86557" lon="-0.06838">
        <ele>2268</ele>
        <time>2013-03-09T10:44:53Z</time>
      </trkpt>
      <trkpt lat="42.8656" lon="-0.06844">
        <ele>2268</ele>
        <time>2013-03-09T10:45:04Z</time>
      </trkpt>
      <trkpt lat="42.86562" lon="-0.06847">
        <ele>2268</ele>
        <time>2013-03-09T10:45:12Z</time>
      </trkpt>
      <trkpt lat="42.86564" lon="-0.06852">
        <ele>2269</ele>
        <time>2013-03-09T10:45:20Z</time>
      </trkpt>
      <trkpt lat="42.86567" lon="-0.06856">
        <ele>2269</ele>
        <time>2013-03-09T10:45:29Z</time>
      </trkpt>
      <trkpt lat="42.8657" lon="-0.06861">
        <ele>2270</ele>
        <time>2013-03-09T10:45:37Z</time>
      </trkpt>
      <trkpt lat="42.86574" lon="-0.0687">
        <ele>2272</ele>
        <time>2013-03-09T10:45:45Z</time>
      </trkpt>
      <trkpt lat="42.86575" lon="-0.06869">
        <ele>2272</ele>
        <time>2013-03-09T10:45:54Z</time>
      </trkpt>
      <trkpt lat="42.86576" lon="-0.06866">
        <ele>2271</ele>
        <time>2013-03-09T10:46:11Z</time>
      </trkpt>
      <trkpt lat="42.86574" lon="-0.06868">
        <ele>2271</ele>
        <time>2013-03-09T10:46:27Z</time>
      </trkpt>
      <trkpt lat="42.86574" lon="-0.06871">
        <ele>2272</ele>
        <time>2013-03-09T10:46:35Z</time>
      </trkpt>
      <trkpt lat="42.86575" lon="-0.06874">
        <ele>2273</ele>
        <time>2013-03-09T10:46:43Z</time>
      </trkpt>
      <trkpt lat="42.86577" lon="-0.06881">
        <ele>2274</ele>
        <time>2013-03-09T10:46:51Z</time>
      </trkpt>
      <trkpt lat="42.8658" lon="-0.06886">
        <ele>2275</ele>
        <time>2013-03-09T10:46:58Z</time>
      </trkpt>
      <trkpt lat="42.86583" lon="-0.06893">
        <ele>2276</ele>
        <time>2013-03-09T10:47:06Z</time>
      </trkpt>
      <trkpt lat="42.86586" lon="-0.06893">
        <ele>2264</ele>
        <time>2013-03-09T10:47:24Z</time>
      </trkpt>
      <trkpt lat="42.86585" lon="-0.06893">
        <ele>2264</ele>
        <time>2013-03-09T10:47:43Z</time>
      </trkpt>
      <trkpt lat="42.86587" lon="-0.06898">
        <ele>2266</ele>
        <time>2013-03-09T10:47:58Z</time>
      </trkpt>
      <trkpt lat="42.86589" lon="-0.06906">
        <ele>2269</ele>
        <time>2013-03-09T10:48:06Z</time>
      </trkpt>
      <trkpt lat="42.86592" lon="-0.06914">
        <ele>2272</ele>
        <time>2013-03-09T10:48:14Z</time>
      </trkpt>
      <trkpt lat="42.86594" lon="-0.06922">
        <ele>2277</ele>
        <time>2013-03-09T10:48:23Z</time>
      </trkpt>
      <trkpt lat="42.86593" lon="-0.06922">
        <ele>2277</ele>
        <time>2013-03-09T10:48:30Z</time>
      </trkpt>
      <trkpt lat="42.86595" lon="-0.06918">
        <ele>2277</ele>
        <time>2013-03-09T10:48:48Z</time>
      </trkpt>
      <trkpt lat="42.86593" lon="-0.06918">
        <ele>2277</ele>
        <time>2013-03-09T10:49:04Z</time>
      </trkpt>
      <trkpt lat="42.86593" lon="-0.06918">
        <ele>2277</ele>
        <time>2013-03-09T10:49:19Z</time>
      </trkpt>
      <trkpt lat="42.86595" lon="-0.06922">
        <ele>2276</ele>
        <time>2013-03-09T10:49:32Z</time>
      </trkpt>
      <trkpt lat="42.86597" lon="-0.0693">
        <ele>2276</ele>
        <time>2013-03-09T10:49:39Z</time>
      </trkpt>
      <trkpt lat="42.86598" lon="-0.06938">
        <ele>2276</ele>
        <time>2013-03-09T10:49:46Z</time>
      </trkpt>
      <trkpt lat="42.866" lon="-0.06945">
        <ele>2276</ele>
        <time>2013-03-09T10:49:54Z</time>
      </trkpt>
      <trkpt lat="42.86602" lon="-0.06949">
        <ele>2276</ele>
        <time>2013-03-09T10:50:04Z</time>
      </trkpt>
      <trkpt lat="42.86604" lon="-0.06952">
        <ele>2276</ele>
        <time>2013-03-09T10:50:15Z</time>
      </trkpt>
      <trkpt lat="42.86602" lon="-0.06951">
        <ele>2276</ele>
        <time>2013-03-09T10:50:34Z</time>
      </trkpt>
      <trkpt lat="42.866" lon="-0.06951">
        <ele>2276</ele>
        <time>2013-03-09T10:50:52Z</time>
      </trkpt>
      <trkpt lat="42.86601" lon="-0.0695">
        <ele>2276</ele>
        <time>2013-03-09T10:51:09Z</time>
      </trkpt>
      <trkpt lat="42.86601" lon="-0.0695">
        <ele>2276</ele>
        <time>2013-03-09T10:51:25Z</time>
      </trkpt>
      <trkpt lat="42.86602" lon="-0.06949">
        <ele>2276</ele>
        <time>2013-03-09T10:51:50Z</time>
      </trkpt>
      <trkpt lat="42.86604" lon="-0.06949">
        <ele>2275</ele>
        <time>2013-03-09T10:52:18Z</time>
      </trkpt>
      <trkpt lat="42.86605" lon="-0.06948">
        <ele>2275</ele>
        <time>2013-03-09T10:52:37Z</time>
      </trkpt>
      <trkpt lat="42.86606" lon="-0.06949">
        <ele>2275</ele>
        <time>2013-03-09T10:52:52Z</time>
      </trkpt>
      <trkpt lat="42.86604" lon="-0.0695">
        <ele>2276</ele>
        <time>2013-03-09T10:53:21Z</time>
      </trkpt>
      <trkpt lat="42.86605" lon="-0.06949">
        <ele>2275</ele>
        <time>2013-03-09T10:53:41Z</time>
      </trkpt>
      <trkpt lat="42.86603" lon="-0.06948">
        <ele>2276</ele>
        <time>2013-03-09T10:54:10Z</time>
      </trkpt>
      <trkpt lat="42.86602" lon="-0.0695">
        <ele>2276</ele>
        <time>2013-03-09T10:54:36Z</time>
      </trkpt>
      <trkpt lat="42.86603" lon="-0.06951">
        <ele>2276</ele>
        <time>2013-03-09T10:55:01Z</time>
      </trkpt>
      <trkpt lat="42.866" lon="-0.06948">
        <ele>2276</ele>
        <time>2013-03-09T10:55:28Z</time>
      </trkpt>
      <trkpt lat="42.86601" lon="-0.06952">
        <ele>2276</ele>
        <time>2013-03-09T10:55:59Z</time>
      </trkpt>
      <trkpt lat="42.86601" lon="-0.06948">
        <ele>2276</ele>
        <time>2013-03-09T10:56:27Z</time>
      </trkpt>
      <trkpt lat="42.86601" lon="-0.06947">
        <ele>2276</ele>
        <time>2013-03-09T10:56:50Z</time>
      </trkpt>
      <trkpt lat="42.86602" lon="-0.06946">
        <ele>2276</ele>
        <time>2013-03-09T10:56:57Z</time>
      </trkpt>
      <trkpt lat="42.86602" lon="-0.06946">
        <ele>2276</ele>
        <time>2013-03-09T10:57:00Z</time>
      </trkpt>
      <trkpt lat="42.86602" lon="-0.06945">
        <ele>2276</ele>
        <time>2013-03-09T10:57:02Z</time>
      </trkpt>
      <trkpt lat="42.86602" lon="-0.06945">
        <ele>2276</ele>
        <time>2013-03-09T10:57:04Z</time>
      </trkpt>
      <trkpt lat="42.86606" lon="-0.06951">
        <ele>2275</ele>
        <time>2013-03-09T10:57:12Z</time>
      </trkpt>
      <trkpt lat="42.86606" lon="-0.06948">
        <ele>2275</ele>
        <time>2013-03-09T10:57:24Z</time>
      </trkpt>
      <trkpt lat="42.86604" lon="-0.06947">
        <ele>2275</ele>
        <time>2013-03-09T10:57:30Z</time>
      </trkpt>
      <trkpt lat="42.86603" lon="-0.06945">
        <ele>2275</ele>
        <time>2013-03-09T10:57:42Z</time>
      </trkpt>
      <trkpt lat="42.86603" lon="-0.06946">
        <ele>2275</ele>
        <time>2013-03-09T10:57:49Z</time>
      </trkpt>
      <trkpt lat="42.86602" lon="-0.06945">
        <ele>2275</ele>
        <time>2013-03-09T10:57:59Z</time>
      </trkpt>
      <trkpt lat="42.86602" lon="-0.06947">
        <ele>2276</ele>
        <time>2013-03-09T10:58:06Z</time>
      </trkpt>
      <trkpt lat="42.86602" lon="-0.06948">
        <ele>2276</ele>
        <time>2013-03-09T10:58:20Z</time>
      </trkpt>
      <trkpt lat="42.86603" lon="-0.06949">
        <ele>2276</ele>
        <time>2013-03-09T10:58:25Z</time>
      </trkpt>
      <trkpt lat="42.86603" lon="-0.06957">
        <ele>2276</ele>
        <time>2013-03-09T10:58:32Z</time>
      </trkpt>
      <trkpt lat="42.86603" lon="-0.06965">
        <ele>2277</ele>
        <time>2013-03-09T10:58:39Z</time>
      </trkpt>
      <trkpt lat="42.86604" lon="-0.06967">
        <ele>2278</ele>
        <time>2013-03-09T10:58:41Z</time>
      </trkpt>
      <trkpt lat="42.86604" lon="-0.06978">
        <ele>2279</ele>
        <time>2013-03-09T10:58:50Z</time>
      </trkpt>
      <trkpt lat="42.86605" lon="-0.06982">
        <ele>2280</ele>
        <time>2013-03-09T10:58:54Z</time>
      </trkpt>
      <trkpt lat="42.86606" lon="-0.06993">
        <ele>2282</ele>
        <time>2013-03-09T10:59:03Z</time>
      </trkpt>
      <trkpt lat="42.86606" lon="-0.06998">
        <ele>2282</ele>
        <time>2013-03-09T10:59:07Z</time>
      </trkpt>
      <trkpt lat="42.86606" lon="-0.07008">
        <ele>2289</ele>
        <time>2013-03-09T10:59:15Z</time>
      </trkpt>
      <trkpt lat="42.86606" lon="-0.07016">
        <ele>2288</ele>
        <time>2013-03-09T10:59:23Z</time>
      </trkpt>
      <trkpt lat="42.86606" lon="-0.07023">
        <ele>2288</ele>
        <time>2013-03-09T10:59:30Z</time>
      </trkpt>
      <trkpt lat="42.86604" lon="-0.07027">
        <ele>2289</ele>
        <time>2013-03-09T10:59:37Z</time>
      </trkpt>
      <trkpt lat="42.86604" lon="-0.07029">
        <ele>2289</ele>
        <time>2013-03-09T10:59:48Z</time>
      </trkpt>
      <trkpt lat="42.86603" lon="-0.07039">
        <ele>2289</ele>
        <time>2013-03-09T10:59:56Z</time>
      </trkpt>
      <trkpt lat="42.86602" lon="-0.07041">
        <ele>2289</ele>
        <time>2013-03-09T10:59:58Z</time>
      </trkpt>
      <trkpt lat="42.86602" lon="-0.07044">
        <ele>2289</ele>
        <time>2013-03-09T11:00:00Z</time>
      </trkpt>
      <trkpt lat="42.86602" lon="-0.07049">
        <ele>2290</ele>
        <time>2013-03-09T11:00:04Z</time>
      </trkpt>
      <trkpt lat="42.86602" lon="-0.07057">
        <ele>2291</ele>
        <time>2013-03-09T11:00:10Z</time>
      </trkpt>
      <trkpt lat="42.86601" lon="-0.07062">
        <ele>2291</ele>
        <time>2013-03-09T11:00:14Z</time>
      </trkpt>
      <trkpt lat="42.86599" lon="-0.07073">
        <ele>2293</ele>
        <time>2013-03-09T11:00:23Z</time>
      </trkpt>
      <trkpt lat="42.86598" lon="-0.07081">
        <ele>2295</ele>
        <time>2013-03-09T11:00:30Z</time>
      </trkpt>
      <trkpt lat="42.86597" lon="-0.07085">
        <ele>2298</ele>
        <time>2013-03-09T11:00:34Z</time>
      </trkpt>
      <trkpt lat="42.86596" lon="-0.0709">
        <ele>2298</ele>
        <time>2013-03-09T11:00:38Z</time>
      </trkpt>
      <trkpt lat="42.86594" lon="-0.07101">
        <ele>2298</ele>
        <time>2013-03-09T11:00:46Z</time>
      </trkpt>
      <trkpt lat="42.86592" lon="-0.07108">
        <ele>2298</ele>
        <time>2013-03-09T11:00:53Z</time>
      </trkpt>
      <trkpt lat="42.86592" lon="-0.0711">
        <ele>2298</ele>
        <time>2013-03-09T11:00:55Z</time>
      </trkpt>
      <trkpt lat="42.8659" lon="-0.07117">
        <ele>2298</ele>
        <time>2013-03-09T11:01:03Z</time>
      </trkpt>
      <trkpt lat="42.86587" lon="-0.07126">
        <ele>2298</ele>
        <time>2013-03-09T11:01:11Z</time>
      </trkpt>
      <trkpt lat="42.86586" lon="-0.07133">
        <ele>2299</ele>
        <time>2013-03-09T11:01:18Z</time>
      </trkpt>
      <trkpt lat="42.86584" lon="-0.07141">
        <ele>2300</ele>
        <time>2013-03-09T11:01:25Z</time>
      </trkpt>
      <trkpt lat="42.86583" lon="-0.07148">
        <ele>2319</ele>
        <time>2013-03-09T11:01:32Z</time>
      </trkpt>
      <trkpt lat="42.86582" lon="-0.07152">
        <ele>2318</ele>
        <time>2013-03-09T11:01:35Z</time>
      </trkpt>
      <trkpt lat="42.86581" lon="-0.0716">
        <ele>2312</ele>
        <time>2013-03-09T11:01:44Z</time>
      </trkpt>
      <trkpt lat="42.8658" lon="-0.07168">
        <ele>2310</ele>
        <time>2013-03-09T11:01:51Z</time>
      </trkpt>
      <trkpt lat="42.86581" lon="-0.07177">
        <ele>2318</ele>
        <time>2013-03-09T11:01:59Z</time>
      </trkpt>
      <trkpt lat="42.8658" lon="-0.0718">
        <ele>2320</ele>
        <time>2013-03-09T11:02:02Z</time>
      </trkpt>
      <trkpt lat="42.86579" lon="-0.07187">
        <ele>2325</ele>
        <time>2013-03-09T11:02:10Z</time>
      </trkpt>
      <trkpt lat="42.8658" lon="-0.07188">
        <ele>2325</ele>
        <time>2013-03-09T11:02:23Z</time>
      </trkpt>
      <trkpt lat="42.86579" lon="-0.07192">
        <ele>2328</ele>
        <time>2013-03-09T11:02:31Z</time>
      </trkpt>
      <trkpt lat="42.8658" lon="-0.07197">
        <ele>2329</ele>
        <time>2013-03-09T11:02:39Z</time>
      </trkpt>
      <trkpt lat="42.86583" lon="-0.07204">
        <ele>2331</ele>
        <time>2013-03-09T11:02:47Z</time>
      </trkpt>
      <trkpt lat="42.86585" lon="-0.07208">
        <ele>2310</ele>
        <time>2013-03-09T11:02:55Z</time>
      </trkpt>
      <trkpt lat="42.86586" lon="-0.07213">
        <ele>2311</ele>
        <time>2013-03-09T11:03:02Z</time>
      </trkpt>
      <trkpt lat="42.86588" lon="-0.07217">
        <ele>2312</ele>
        <time>2013-03-09T11:03:09Z</time>
      </trkpt>
      <trkpt lat="42.86589" lon="-0.07224">
        <ele>2313</ele>
        <time>2013-03-09T11:03:17Z</time>
      </trkpt>
      <trkpt lat="42.8659" lon="-0.07228">
        <ele>2314</ele>
        <time>2013-03-09T11:03:22Z</time>
      </trkpt>
      <trkpt lat="42.86592" lon="-0.07238">
        <ele>2316</ele>
        <time>2013-03-09T11:03:30Z</time>
      </trkpt>
      <trkpt lat="42.86592" lon="-0.07243">
        <ele>2317</ele>
        <time>2013-03-09T11:03:35Z</time>
      </trkpt>
      <trkpt lat="42.86593" lon="-0.0725">
        <ele>2318</ele>
        <time>2013-03-09T11:03:42Z</time>
      </trkpt>
      <trkpt lat="42.86594" lon="-0.07257">
        <ele>2324</ele>
        <time>2013-03-09T11:03:51Z</time>
      </trkpt>
      <trkpt lat="42.86595" lon="-0.07264">
        <ele>2324</ele>
        <time>2013-03-09T11:03:59Z</time>
      </trkpt>
      <trkpt lat="42.86596" lon="-0.07266">
        <ele>2325</ele>
        <time>2013-03-09T11:04:13Z</time>
      </trkpt>
      <trkpt lat="42.86594" lon="-0.07276">
        <ele>2326</ele>
        <time>2013-03-09T11:04:22Z</time>
      </trkpt>
      <trkpt lat="42.86592" lon="-0.07285">
        <ele>2327</ele>
        <time>2013-03-09T11:04:31Z</time>
      </trkpt>
      <trkpt lat="42.86592" lon="-0.07291">
        <ele>2328</ele>
        <time>2013-03-09T11:04:39Z</time>
      </trkpt>
      <trkpt lat="42.86592" lon="-0.07297">
        <ele>2329</ele>
        <time>2013-03-09T11:04:46Z</time>
      </trkpt>
      <trkpt lat="42.86591" lon="-0.07303">
        <ele>2330</ele>
        <time>2013-03-09T11:04:54Z</time>
      </trkpt>
      <trkpt lat="42.86591" lon="-0.07307">
        <ele>2331</ele>
        <time>2013-03-09T11:05:01Z</time>
      </trkpt>
      <trkpt lat="42.86591" lon="-0.07311">
        <ele>2332</ele>
        <time>2013-03-09T11:05:08Z</time>
      </trkpt>
      <trkpt lat="42.86591" lon="-0.07317">
        <ele>2333</ele>
        <time>2013-03-09T11:05:15Z</time>
      </trkpt>
      <trkpt lat="42.86596" lon="-0.07321">
        <ele>2333</ele>
        <time>2013-03-09T11:05:23Z</time>
      </trkpt>
      <trkpt lat="42.86597" lon="-0.07321">
        <ele>2333</ele>
        <time>2013-03-09T11:05:25Z</time>
      </trkpt>
      <trkpt lat="42.86597" lon="-0.07321">
        <ele>2333</ele>
        <time>2013-03-09T11:05:32Z</time>
      </trkpt>
      <trkpt lat="42.86596" lon="-0.07318">
        <ele>2333</ele>
        <time>2013-03-09T11:05:47Z</time>
      </trkpt>
      <trkpt lat="42.86597" lon="-0.07319">
        <ele>2333</ele>
        <time>2013-03-09T11:05:52Z</time>
      </trkpt>
      <trkpt lat="42.86596" lon="-0.07322">
        <ele>2334</ele>
        <time>2013-03-09T11:05:56Z</time>
      </trkpt>
      <trkpt lat="42.86594" lon="-0.07326">
        <ele>2335</ele>
        <time>2013-03-09T11:06:06Z</time>
      </trkpt>
      <trkpt lat="42.86589" lon="-0.07334">
        <ele>2341</ele>
        <time>2013-03-09T11:06:16Z</time>
      </trkpt>
      <trkpt lat="42.86589" lon="-0.07335">
        <ele>2341</ele>
        <time>2013-03-09T11:06:20Z</time>
      </trkpt>
      <trkpt lat="42.86586" lon="-0.07339">
        <ele>2341</ele>
        <time>2013-03-09T11:06:27Z</time>
      </trkpt>
      <trkpt lat="42.86584" lon="-0.0734">
        <ele>2342</ele>
        <time>2013-03-09T11:06:33Z</time>
      </trkpt>
      <trkpt lat="42.86583" lon="-0.07341">
        <ele>2342</ele>
        <time>2013-03-09T11:06:34Z</time>
      </trkpt>
      <trkpt lat="42.8658" lon="-0.07344">
        <ele>2349</ele>
        <time>2013-03-09T11:06:41Z</time>
      </trkpt>
      <trkpt lat="42.86578" lon="-0.07345">
        <ele>2350</ele>
        <time>2013-03-09T11:06:44Z</time>
      </trkpt>
      <trkpt lat="42.86577" lon="-0.07348">
        <ele>2352</ele>
        <time>2013-03-09T11:06:50Z</time>
      </trkpt>
      <trkpt lat="42.86577" lon="-0.07353">
        <ele>2354</ele>
        <time>2013-03-09T11:06:59Z</time>
      </trkpt>
      <trkpt lat="42.86578" lon="-0.07361">
        <ele>2357</ele>
        <time>2013-03-09T11:07:09Z</time>
      </trkpt>
      <trkpt lat="42.86579" lon="-0.07368">
        <ele>2359</ele>
        <time>2013-03-09T11:07:15Z</time>
      </trkpt>
      <trkpt lat="42.86581" lon="-0.07373">
        <ele>2359</ele>
        <time>2013-03-09T11:07:23Z</time>
      </trkpt>
      <trkpt lat="42.86583" lon="-0.07377">
        <ele>2360</ele>
        <time>2013-03-09T11:07:30Z</time>
      </trkpt>
      <trkpt lat="42.86583" lon="-0.07379">
        <ele>2360</ele>
        <time>2013-03-09T11:07:34Z</time>
      </trkpt>
      <trkpt lat="42.86585" lon="-0.0738">
        <ele>2348</ele>
        <time>2013-03-09T11:07:47Z</time>
      </trkpt>
      <trkpt lat="42.86585" lon="-0.0738">
        <ele>2348</ele>
        <time>2013-03-09T11:08:01Z</time>
      </trkpt>
      <trkpt lat="42.86582" lon="-0.07381">
        <ele>2360</ele>
        <time>2013-03-09T11:08:10Z</time>
      </trkpt>
      <trkpt lat="42.86574" lon="-0.07381">
        <ele>2361</ele>
        <time>2013-03-09T11:08:22Z</time>
      </trkpt>
      <trkpt lat="42.8657" lon="-0.07381">
        <ele>2362</ele>
        <time>2013-03-09T11:08:30Z</time>
      </trkpt>
      <trkpt lat="42.86565" lon="-0.0738">
        <ele>2362</ele>
        <time>2013-03-09T11:08:38Z</time>
      </trkpt>
      <trkpt lat="42.86562" lon="-0.07378">
        <ele>2362</ele>
        <time>2013-03-09T11:08:45Z</time>
      </trkpt>
      <trkpt lat="42.86556" lon="-0.07376">
        <ele>2363</ele>
        <time>2013-03-09T11:08:52Z</time>
      </trkpt>
      <trkpt lat="42.86554" lon="-0.07375">
        <ele>2363</ele>
        <time>2013-03-09T11:08:59Z</time>
      </trkpt>
      <trkpt lat="42.86555" lon="-0.07378">
        <ele>2363</ele>
        <time>2013-03-09T11:09:11Z</time>
      </trkpt>
      <trkpt lat="42.86553" lon="-0.07383">
        <ele>2364</ele>
        <time>2013-03-09T11:09:19Z</time>
      </trkpt>
      <trkpt lat="42.86551" lon="-0.0739">
        <ele>2365</ele>
        <time>2013-03-09T11:09:29Z</time>
      </trkpt>
      <trkpt lat="42.86547" lon="-0.07394">
        <ele>2366</ele>
        <time>2013-03-09T11:09:36Z</time>
      </trkpt>
      <trkpt lat="42.86545" lon="-0.07397">
        <ele>2366</ele>
        <time>2013-03-09T11:09:43Z</time>
      </trkpt>
      <trkpt lat="42.86543" lon="-0.07399">
        <ele>2367</ele>
        <time>2013-03-09T11:09:46Z</time>
      </trkpt>
      <trkpt lat="42.86541" lon="-0.07401">
        <ele>2367</ele>
        <time>2013-03-09T11:09:51Z</time>
      </trkpt>
      <trkpt lat="42.86535" lon="-0.07407">
        <ele>2369</ele>
        <time>2013-03-09T11:10:00Z</time>
      </trkpt>
      <trkpt lat="42.86531" lon="-0.0741">
        <ele>2370</ele>
        <time>2013-03-09T11:10:08Z</time>
      </trkpt>
      <trkpt lat="42.86527" lon="-0.07414">
        <ele>2371</ele>
        <time>2013-03-09T11:10:14Z</time>
      </trkpt>
      <trkpt lat="42.86523" lon="-0.07417">
        <ele>2376</ele>
        <time>2013-03-09T11:10:21Z</time>
      </trkpt>
      <trkpt lat="42.8652" lon="-0.0742">
        <ele>2377</ele>
        <time>2013-03-09T11:10:28Z</time>
      </trkpt>
      <trkpt lat="42.86519" lon="-0.07423">
        <ele>2377</ele>
        <time>2013-03-09T11:10:42Z</time>
      </trkpt>
      <trkpt lat="42.86515" lon="-0.07426">
        <ele>2378</ele>
        <time>2013-03-09T11:10:49Z</time>
      </trkpt>
      <trkpt lat="42.86511" lon="-0.0743">
        <ele>2378</ele>
        <time>2013-03-09T11:10:57Z</time>
      </trkpt>
      <trkpt lat="42.86508" lon="-0.07438">
        <ele>2378</ele>
        <time>2013-03-09T11:11:06Z</time>
      </trkpt>
      <trkpt lat="42.86504" lon="-0.07446">
        <ele>2378</ele>
        <time>2013-03-09T11:11:15Z</time>
      </trkpt>
      <trkpt lat="42.86503" lon="-0.07453">
        <ele>2378</ele>
        <time>2013-03-09T11:11:23Z</time>
      </trkpt>
      <trkpt lat="42.86503" lon="-0.07458">
        <ele>2378</ele>
        <time>2013-03-09T11:11:29Z</time>
      </trkpt>
      <trkpt lat="42.86502" lon="-0.07465">
        <ele>2378</ele>
        <time>2013-03-09T11:11:38Z</time>
      </trkpt>
      <trkpt lat="42.86501" lon="-0.07471">
        <ele>2379</ele>
        <time>2013-03-09T11:11:46Z</time>
      </trkpt>
      <trkpt lat="42.865" lon="-0.07477">
        <ele>2380</ele>
        <time>2013-03-09T11:11:54Z</time>
      </trkpt>
      <trkpt lat="42.865" lon="-0.07482">
        <ele>2402</ele>
        <time>2013-03-09T11:12:01Z</time>
      </trkpt>
      <trkpt lat="42.865" lon="-0.07485">
        <ele>2382</ele>
        <time>2013-03-09T11:12:15Z</time>
      </trkpt>
      <trkpt lat="42.86499" lon="-0.07487">
        <ele>2400</ele>
        <time>2013-03-09T11:12:25Z</time>
      </trkpt>
      <trkpt lat="42.86497" lon="-0.07494">
        <ele>2394</ele>
        <time>2013-03-09T11:12:35Z</time>
      </trkpt>
      <trkpt lat="42.86496" lon="-0.075">
        <ele>2392</ele>
        <time>2013-03-09T11:12:43Z</time>
      </trkpt>
      <trkpt lat="42.86496" lon="-0.07506">
        <ele>2395</ele>
        <time>2013-03-09T11:12:51Z</time>
      </trkpt>
      <trkpt lat="42.86496" lon="-0.07514">
        <ele>2400</ele>
        <time>2013-03-09T11:12:59Z</time>
      </trkpt>
      <trkpt lat="42.86495" lon="-0.07519">
        <ele>2403</ele>
        <time>2013-03-09T11:13:07Z</time>
      </trkpt>
      <trkpt lat="42.86496" lon="-0.07525">
        <ele>2405</ele>
        <time>2013-03-09T11:13:14Z</time>
      </trkpt>
      <trkpt lat="42.86495" lon="-0.07529">
        <ele>2406</ele>
        <time>2013-03-09T11:13:21Z</time>
      </trkpt>
      <trkpt lat="42.86496" lon="-0.0753">
        <ele>2406</ele>
        <time>2013-03-09T11:13:29Z</time>
      </trkpt>
      <trkpt lat="42.86494" lon="-0.07529">
        <ele>2406</ele>
        <time>2013-03-09T11:13:43Z</time>
      </trkpt>
      <trkpt lat="42.86494" lon="-0.07532">
        <ele>2407</ele>
        <time>2013-03-09T11:13:53Z</time>
      </trkpt>
      <trkpt lat="42.86495" lon="-0.07538">
        <ele>2408</ele>
        <time>2013-03-09T11:14:00Z</time>
      </trkpt>
      <trkpt lat="42.86494" lon="-0.07544">
        <ele>2408</ele>
        <time>2013-03-09T11:14:07Z</time>
      </trkpt>
      <trkpt lat="42.86494" lon="-0.07549">
        <ele>2408</ele>
        <time>2013-03-09T11:14:15Z</time>
      </trkpt>
      <trkpt lat="42.86493" lon="-0.07553">
        <ele>2408</ele>
        <time>2013-03-09T11:14:22Z</time>
      </trkpt>
      <trkpt lat="42.86495" lon="-0.07558">
        <ele>2407</ele>
        <time>2013-03-09T11:14:29Z</time>
      </trkpt>
      <trkpt lat="42.86493" lon="-0.07557">
        <ele>2407</ele>
        <time>2013-03-09T11:14:38Z</time>
      </trkpt>
      <trkpt lat="42.86489" lon="-0.07552">
        <ele>2409</ele>
        <time>2013-03-09T11:14:46Z</time>
      </trkpt>
      <trkpt lat="42.86485" lon="-0.07544">
        <ele>2410</ele>
        <time>2013-03-09T11:14:56Z</time>
      </trkpt>
      <trkpt lat="42.86484" lon="-0.0754">
        <ele>2410</ele>
        <time>2013-03-09T11:15:05Z</time>
      </trkpt>
      <trkpt lat="42.86481" lon="-0.07539">
        <ele>2410</ele>
        <time>2013-03-09T11:15:13Z</time>
      </trkpt>
      <trkpt lat="42.86481" lon="-0.07545">
        <ele>2411</ele>
        <time>2013-03-09T11:15:25Z</time>
      </trkpt>
      <trkpt lat="42.86482" lon="-0.07551">
        <ele>2410</ele>
        <time>2013-03-09T11:15:31Z</time>
      </trkpt>
      <trkpt lat="42.86482" lon="-0.07554">
        <ele>2410</ele>
        <time>2013-03-09T11:15:38Z</time>
      </trkpt>
      <trkpt lat="42.86481" lon="-0.07562">
        <ele>2410</ele>
        <time>2013-03-09T11:15:47Z</time>
      </trkpt>
      <trkpt lat="42.86481" lon="-0.07569">
        <ele>2409</ele>
        <time>2013-03-09T11:15:57Z</time>
      </trkpt>
      <trkpt lat="42.86481" lon="-0.07575">
        <ele>2408</ele>
        <time>2013-03-09T11:16:05Z</time>
      </trkpt>
      <trkpt lat="42.86481" lon="-0.0758">
        <ele>2407</ele>
        <time>2013-03-09T11:16:14Z</time>
      </trkpt>
      <trkpt lat="42.8648" lon="-0.07585">
        <ele>2410</ele>
        <time>2013-03-09T11:16:23Z</time>
      </trkpt>
      <trkpt lat="42.86481" lon="-0.07586">
        <ele>2409</ele>
        <time>2013-03-09T11:16:30Z</time>
      </trkpt>
      <trkpt lat="42.86482" lon="-0.07588">
        <ele>2409</ele>
        <time>2013-03-09T11:16:39Z</time>
      </trkpt>
      <trkpt lat="42.86482" lon="-0.07591">
        <ele>2410</ele>
        <time>2013-03-09T11:16:49Z</time>
      </trkpt>
      <trkpt lat="42.86482" lon="-0.07593">
        <ele>2410</ele>
        <time>2013-03-09T11:17:01Z</time>
      </trkpt>
      <trkpt lat="42.8648" lon="-0.07589">
        <ele>2410</ele>
        <time>2013-03-09T11:17:09Z</time>
      </trkpt>
      <trkpt lat="42.86476" lon="-0.07586">
        <ele>2412</ele>
        <time>2013-03-09T11:17:15Z</time>
      </trkpt>
      <trkpt lat="42.86474" lon="-0.07585">
        <ele>2413</ele>
        <time>2013-03-09T11:17:19Z</time>
      </trkpt>
      <trkpt lat="42.86469" lon="-0.07582">
        <ele>2413</ele>
        <time>2013-03-09T11:17:27Z</time>
      </trkpt>
      <trkpt lat="42.86465" lon="-0.07578">
        <ele>2414</ele>
        <time>2013-03-09T11:17:34Z</time>
      </trkpt>
      <trkpt lat="42.86462" lon="-0.07578">
        <ele>2415</ele>
        <time>2013-03-09T11:17:38Z</time>
      </trkpt>
      <trkpt lat="42.86461" lon="-0.07574">
        <ele>2416</ele>
        <time>2013-03-09T11:17:45Z</time>
      </trkpt>
      <trkpt lat="42.86459" lon="-0.07575">
        <ele>2417</ele>
        <time>2013-03-09T11:17:53Z</time>
      </trkpt>
      <trkpt lat="42.86457" lon="-0.07574">
        <ele>2417</ele>
        <time>2013-03-09T11:18:08Z</time>
      </trkpt>
      <trkpt lat="42.86459" lon="-0.07579">
        <ele>2417</ele>
        <time>2013-03-09T11:18:15Z</time>
      </trkpt>
      <trkpt lat="42.8646" lon="-0.07586">
        <ele>2419</ele>
        <time>2013-03-09T11:18:24Z</time>
      </trkpt>
      <trkpt lat="42.86461" lon="-0.0759">
        <ele>2418</ele>
        <time>2013-03-09T11:18:30Z</time>
      </trkpt>
      <trkpt lat="42.86462" lon="-0.07596">
        <ele>2418</ele>
        <time>2013-03-09T11:18:37Z</time>
      </trkpt>
      <trkpt lat="42.86461" lon="-0.07602">
        <ele>2419</ele>
        <time>2013-03-09T11:18:45Z</time>
      </trkpt>
      <trkpt lat="42.86463" lon="-0.07606">
        <ele>2419</ele>
        <time>2013-03-09T11:18:51Z</time>
      </trkpt>
      <trkpt lat="42.86463" lon="-0.07612">
        <ele>2419</ele>
        <time>2013-03-09T11:18:58Z</time>
      </trkpt>
      <trkpt lat="42.86462" lon="-0.07619">
        <ele>2420</ele>
        <time>2013-03-09T11:19:05Z</time>
      </trkpt>
      <trkpt lat="42.86459" lon="-0.0762">
        <ele>2420</ele>
        <time>2013-03-09T11:19:11Z</time>
      </trkpt>
      <trkpt lat="42.8646" lon="-0.07627">
        <ele>2421</ele>
        <time>2013-03-09T11:19:19Z</time>
      </trkpt>
      <trkpt lat="42.86457" lon="-0.07623">
        <ele>2421</ele>
        <time>2013-03-09T11:19:31Z</time>
      </trkpt>
      <trkpt lat="42.86457" lon="-0.07624">
        <ele>2421</ele>
        <time>2013-03-09T11:19:50Z</time>
      </trkpt>
      <trkpt lat="42.86456" lon="-0.07621">
        <ele>2421</ele>
        <time>2013-03-09T11:19:57Z</time>
      </trkpt>
      <trkpt lat="42.86451" lon="-0.07617">
        <ele>2422</ele>
        <time>2013-03-09T11:20:06Z</time>
      </trkpt>
      <trkpt lat="42.86447" lon="-0.07615">
        <ele>2423</ele>
        <time>2013-03-09T11:20:14Z</time>
      </trkpt>
      <trkpt lat="42.86442" lon="-0.07613">
        <ele>2424</ele>
        <time>2013-03-09T11:20:22Z</time>
      </trkpt>
      <trkpt lat="42.86438" lon="-0.07612">
        <ele>2425</ele>
        <time>2013-03-09T11:20:29Z</time>
      </trkpt>
      <trkpt lat="42.86435" lon="-0.07612">
        <ele>2426</ele>
        <time>2013-03-09T11:20:34Z</time>
      </trkpt>
      <trkpt lat="42.86435" lon="-0.07621">
        <ele>2426</ele>
        <time>2013-03-09T11:20:43Z</time>
      </trkpt>
      <trkpt lat="42.86435" lon="-0.0763">
        <ele>2426</ele>
        <time>2013-03-09T11:20:51Z</time>
      </trkpt>
      <trkpt lat="42.86437" lon="-0.07638">
        <ele>2427</ele>
        <time>2013-03-09T11:21:00Z</time>
      </trkpt>
      <trkpt lat="42.86437" lon="-0.07646">
        <ele>2428</ele>
        <time>2013-03-09T11:21:08Z</time>
      </trkpt>
      <trkpt lat="42.86439" lon="-0.07652">
        <ele>2428</ele>
        <time>2013-03-09T11:21:16Z</time>
      </trkpt>
      <trkpt lat="42.86439" lon="-0.07662">
        <ele>2429</ele>
        <time>2013-03-09T11:21:24Z</time>
      </trkpt>
      <trkpt lat="42.86441" lon="-0.07666">
        <ele>2428</ele>
        <time>2013-03-09T11:21:30Z</time>
      </trkpt>
      <trkpt lat="42.86439" lon="-0.07667">
        <ele>2436</ele>
        <time>2013-03-09T11:21:41Z</time>
      </trkpt>
      <trkpt lat="42.86439" lon="-0.0767">
        <ele>2437</ele>
        <time>2013-03-09T11:21:57Z</time>
      </trkpt>
      <trkpt lat="42.86441" lon="-0.07672">
        <ele>2436</ele>
        <time>2013-03-09T11:22:03Z</time>
      </trkpt>
      <trkpt lat="42.86441" lon="-0.0768">
        <ele>2436</ele>
        <time>2013-03-09T11:22:11Z</time>
      </trkpt>
      <trkpt lat="42.86442" lon="-0.07682">
        <ele>2436</ele>
        <time>2013-03-09T11:22:18Z</time>
      </trkpt>
      <trkpt lat="42.86442" lon="-0.07686">
        <ele>2436</ele>
        <time>2013-03-09T11:22:22Z</time>
      </trkpt>
      <trkpt lat="42.8644" lon="-0.07694">
        <ele>2437</ele>
        <time>2013-03-09T11:22:30Z</time>
      </trkpt>
      <trkpt lat="42.86438" lon="-0.07699">
        <ele>2437</ele>
        <time>2013-03-09T11:22:35Z</time>
      </trkpt>
      <trkpt lat="42.86435" lon="-0.07707">
        <ele>2438</ele>
        <time>2013-03-09T11:22:43Z</time>
      </trkpt>
      <trkpt lat="42.86431" lon="-0.07713">
        <ele>2439</ele>
        <time>2013-03-09T11:22:51Z</time>
      </trkpt>
      <trkpt lat="42.86429" lon="-0.07715">
        <ele>2440</ele>
        <time>2013-03-09T11:22:59Z</time>
      </trkpt>
      <trkpt lat="42.86431" lon="-0.07714">
        <ele>2439</ele>
        <time>2013-03-09T11:23:15Z</time>
      </trkpt>
      <trkpt lat="42.86428" lon="-0.07718">
        <ele>2440</ele>
        <time>2013-03-09T11:23:25Z</time>
      </trkpt>
      <trkpt lat="42.86424" lon="-0.07724">
        <ele>2442</ele>
        <time>2013-03-09T11:23:33Z</time>
      </trkpt>
      <trkpt lat="42.86421" lon="-0.07735">
        <ele>2445</ele>
        <time>2013-03-09T11:23:41Z</time>
      </trkpt>
      <trkpt lat="42.86418" lon="-0.07742">
        <ele>2448</ele>
        <time>2013-03-09T11:23:47Z</time>
      </trkpt>
      <trkpt lat="42.86417" lon="-0.07749">
        <ele>2453</ele>
        <time>2013-03-09T11:23:54Z</time>
      </trkpt>
      <trkpt lat="42.86417" lon="-0.07755">
        <ele>2453</ele>
        <time>2013-03-09T11:24:00Z</time>
      </trkpt>
      <trkpt lat="42.86419" lon="-0.07757">
        <ele>2453</ele>
        <time>2013-03-09T11:24:04Z</time>
      </trkpt>
      <trkpt lat="42.86418" lon="-0.07758">
        <ele>2453</ele>
        <time>2013-03-09T11:24:11Z</time>
      </trkpt>
      <trkpt lat="42.86418" lon="-0.07756">
        <ele>2453</ele>
        <time>2013-03-09T11:24:30Z</time>
      </trkpt>
      <trkpt lat="42.86418" lon="-0.07762">
        <ele>2453</ele>
        <time>2013-03-09T11:24:38Z</time>
      </trkpt>
      <trkpt lat="42.86418" lon="-0.07768">
        <ele>2453</ele>
        <time>2013-03-09T11:24:45Z</time>
      </trkpt>
      <trkpt lat="42.8642" lon="-0.07772">
        <ele>2454</ele>
        <time>2013-03-09T11:24:53Z</time>
      </trkpt>
      <trkpt lat="42.86421" lon="-0.07778">
        <ele>2454</ele>
        <time>2013-03-09T11:25:00Z</time>
      </trkpt>
      <trkpt lat="42.86422" lon="-0.07783">
        <ele>2455</ele>
        <time>2013-03-09T11:25:05Z</time>
      </trkpt>
      <trkpt lat="42.86424" lon="-0.07787">
        <ele>2455</ele>
        <time>2013-03-09T11:25:11Z</time>
      </trkpt>
      <trkpt lat="42.86425" lon="-0.07792">
        <ele>2456</ele>
        <time>2013-03-09T11:25:20Z</time>
      </trkpt>
      <trkpt lat="42.86426" lon="-0.0779">
        <ele>2455</ele>
        <time>2013-03-09T11:25:31Z</time>
      </trkpt>
      <trkpt lat="42.86426" lon="-0.07792">
        <ele>2455</ele>
        <time>2013-03-09T11:25:41Z</time>
      </trkpt>
      <trkpt lat="42.86426" lon="-0.07799">
        <ele>2457</ele>
        <time>2013-03-09T11:25:49Z</time>
      </trkpt>
      <trkpt lat="42.86427" lon="-0.07807">
        <ele>2458</ele>
        <time>2013-03-09T11:26:00Z</time>
      </trkpt>
      <trkpt lat="42.86429" lon="-0.07816">
        <ele>2460</ele>
        <time>2013-03-09T11:26:09Z</time>
      </trkpt>
      <trkpt lat="42.8643" lon="-0.07821">
        <ele>2461</ele>
        <time>2013-03-09T11:26:16Z</time>
      </trkpt>
      <trkpt lat="42.86431" lon="-0.07829">
        <ele>2461</ele>
        <time>2013-03-09T11:26:24Z</time>
      </trkpt>
      <trkpt lat="42.86432" lon="-0.07832">
        <ele>2461</ele>
        <time>2013-03-09T11:26:27Z</time>
      </trkpt>
      <trkpt lat="42.86435" lon="-0.07838">
        <ele>2470</ele>
        <time>2013-03-09T11:26:35Z</time>
      </trkpt>
      <trkpt lat="42.86436" lon="-0.0784">
        <ele>2470</ele>
        <time>2013-03-09T11:26:41Z</time>
      </trkpt>
      <trkpt lat="42.86436" lon="-0.07839">
        <ele>2470</ele>
        <time>2013-03-09T11:26:50Z</time>
      </trkpt>
      <trkpt lat="42.86437" lon="-0.07841">
        <ele>2471</ele>
        <time>2013-03-09T11:27:04Z</time>
      </trkpt>
      <trkpt lat="42.8644" lon="-0.07846">
        <ele>2471</ele>
        <time>2013-03-09T11:27:13Z</time>
      </trkpt>
      <trkpt lat="42.86443" lon="-0.07851">
        <ele>2471</ele>
        <time>2013-03-09T11:27:19Z</time>
      </trkpt>
      <trkpt lat="42.86447" lon="-0.07854">
        <ele>2472</ele>
        <time>2013-03-09T11:27:27Z</time>
      </trkpt>
      <trkpt lat="42.86448" lon="-0.07855">
        <ele>2472</ele>
        <time>2013-03-09T11:27:28Z</time>
      </trkpt>
      <trkpt lat="42.86451" lon="-0.07859">
        <ele>2472</ele>
        <time>2013-03-09T11:27:34Z</time>
      </trkpt>
      <trkpt lat="42.86457" lon="-0.07865">
        <ele>2472</ele>
        <time>2013-03-09T11:27:43Z</time>
      </trkpt>
      <trkpt lat="42.86462" lon="-0.07871">
        <ele>2473</ele>
        <time>2013-03-09T11:27:52Z</time>
      </trkpt>
      <trkpt lat="42.86465" lon="-0.07875">
        <ele>2473</ele>
        <time>2013-03-09T11:27:59Z</time>
      </trkpt>
      <trkpt lat="42.86465" lon="-0.07874">
        <ele>2473</ele>
        <time>2013-03-09T11:28:11Z</time>
      </trkpt>
      <trkpt lat="42.86466" lon="-0.07875">
        <ele>2473</ele>
        <time>2013-03-09T11:28:21Z</time>
      </trkpt>
      <trkpt lat="42.86466" lon="-0.07877">
        <ele>2474</ele>
        <time>2013-03-09T11:28:32Z</time>
      </trkpt>
      <trkpt lat="42.86466" lon="-0.07878">
        <ele>2474</ele>
        <time>2013-03-09T11:28:41Z</time>
      </trkpt>
      <trkpt lat="42.86467" lon="-0.07879">
        <ele>2474</ele>
        <time>2013-03-09T11:28:50Z</time>
      </trkpt>
      <trkpt lat="42.86468" lon="-0.07879">
        <ele>2474</ele>
        <time>2013-03-09T11:29:03Z</time>
      </trkpt>
      <trkpt lat="42.86467" lon="-0.07878">
        <ele>2474</ele>
        <time>2013-03-09T11:29:17Z</time>
      </trkpt>
      <trkpt lat="42.86469" lon="-0.07877">
        <ele>2474</ele>
        <time>2013-03-09T11:29:33Z</time>
      </trkpt>
      <trkpt lat="42.86467" lon="-0.07877">
        <ele>2474</ele>
        <time>2013-03-09T11:29:46Z</time>
      </trkpt>
      <trkpt lat="42.86469" lon="-0.07878">
        <ele>2474</ele>
        <time>2013-03-09T11:29:57Z</time>
      </trkpt>
      <trkpt lat="42.8647" lon="-0.0788">
        <ele>2474</ele>
        <time>2013-03-09T11:30:04Z</time>
      </trkpt>
      <trkpt lat="42.86473" lon="-0.07884">
        <ele>2475</ele>
        <time>2013-03-09T11:30:12Z</time>
      </trkpt>
      <trkpt lat="42.86475" lon="-0.07889">
        <ele>2475</ele>
        <time>2013-03-09T11:30:20Z</time>
      </trkpt>
      <trkpt lat="42.86477" lon="-0.07893">
        <ele>2476</ele>
        <time>2013-03-09T11:30:27Z</time>
      </trkpt>
      <trkpt lat="42.86479" lon="-0.079">
        <ele>2477</ele>
        <time>2013-03-09T11:30:35Z</time>
      </trkpt>
      <trkpt lat="42.86481" lon="-0.07905">
        <ele>2478</ele>
        <time>2013-03-09T11:30:43Z</time>
      </trkpt>
      <trkpt lat="42.86484" lon="-0.07909">
        <ele>2479</ele>
        <time>2013-03-09T11:30:51Z</time>
      </trkpt>
      <trkpt lat="42.86487" lon="-0.07914">
        <ele>2479</ele>
        <time>2013-03-09T11:30:59Z</time>
      </trkpt>
      <trkpt lat="42.86486" lon="-0.07915">
        <ele>2479</ele>
        <time>2013-03-09T11:31:06Z</time>
      </trkpt>
      <trkpt lat="42.86482" lon="-0.07917">
        <ele>2479</ele>
        <time>2013-03-09T11:31:12Z</time>
      </trkpt>
      <trkpt lat="42.86479" lon="-0.07919">
        <ele>2490</ele>
        <time>2013-03-09T11:31:21Z</time>
      </trkpt>
      <trkpt lat="42.86476" lon="-0.07922">
        <ele>2491</ele>
        <time>2013-03-09T11:31:28Z</time>
      </trkpt>
      <trkpt lat="42.86471" lon="-0.07926">
        <ele>2492</ele>
        <time>2013-03-09T11:31:37Z</time>
      </trkpt>
      <trkpt lat="42.86466" lon="-0.07931">
        <ele>2492</ele>
        <time>2013-03-09T11:31:44Z</time>
      </trkpt>
      <trkpt lat="42.86462" lon="-0.07934">
        <ele>2493</ele>
        <time>2013-03-09T11:31:53Z</time>
      </trkpt>
      <trkpt lat="42.86458" lon="-0.0794">
        <ele>2494</ele>
        <time>2013-03-09T11:32:02Z</time>
      </trkpt>
      <trkpt lat="42.86454" lon="-0.07945">
        <ele>2494</ele>
        <time>2013-03-09T11:32:11Z</time>
      </trkpt>
      <trkpt lat="42.86451" lon="-0.07951">
        <ele>2495</ele>
        <time>2013-03-09T11:32:20Z</time>
      </trkpt>
      <trkpt lat="42.86452" lon="-0.07953">
        <ele>2495</ele>
        <time>2013-03-09T11:32:25Z</time>
      </trkpt>
      <trkpt lat="42.86452" lon="-0.07954">
        <ele>2495</ele>
        <time>2013-03-09T11:32:37Z</time>
      </trkpt>
      <trkpt lat="42.86455" lon="-0.07955">
        <ele>2495</ele>
        <time>2013-03-09T11:32:47Z</time>
      </trkpt>
      <trkpt lat="42.86457" lon="-0.07958">
        <ele>2496</ele>
        <time>2013-03-09T11:32:53Z</time>
      </trkpt>
      <trkpt lat="42.86461" lon="-0.0796">
        <ele>2496</ele>
        <time>2013-03-09T11:32:59Z</time>
      </trkpt>
      <trkpt lat="42.86464" lon="-0.07961">
        <ele>2496</ele>
        <time>2013-03-09T11:33:05Z</time>
      </trkpt>
      <trkpt lat="42.86467" lon="-0.07962">
        <ele>2496</ele>
        <time>2013-03-09T11:33:11Z</time>
      </trkpt>
      <trkpt lat="42.86471" lon="-0.07964">
        <ele>2497</ele>
        <time>2013-03-09T11:33:19Z</time>
      </trkpt>
      <trkpt lat="42.86476" lon="-0.07967">
        <ele>2497</ele>
        <time>2013-03-09T11:33:29Z</time>
      </trkpt>
      <trkpt lat="42.86479" lon="-0.07968">
        <ele>2498</ele>
        <time>2013-03-09T11:33:33Z</time>
      </trkpt>
      <trkpt lat="42.8648" lon="-0.07971">
        <ele>2498</ele>
        <time>2013-03-09T11:33:39Z</time>
      </trkpt>
      <trkpt lat="42.8648" lon="-0.07972">
        <ele>2499</ele>
        <time>2013-03-09T11:33:46Z</time>
      </trkpt>
      <trkpt lat="42.8648" lon="-0.07971">
        <ele>2498</ele>
        <time>2013-03-09T11:33:53Z</time>
      </trkpt>
      <trkpt lat="42.8648" lon="-0.0797">
        <ele>2498</ele>
        <time>2013-03-09T11:34:02Z</time>
      </trkpt>
      <trkpt lat="42.86483" lon="-0.07972">
        <ele>2499</ele>
        <time>2013-03-09T11:34:09Z</time>
      </trkpt>
      <trkpt lat="42.86487" lon="-0.07977">
        <ele>2500</ele>
        <time>2013-03-09T11:34:18Z</time>
      </trkpt>
      <trkpt lat="42.86489" lon="-0.07981">
        <ele>2502</ele>
        <time>2013-03-09T11:34:24Z</time>
      </trkpt>
      <trkpt lat="42.86492" lon="-0.07985">
        <ele>2503</ele>
        <time>2013-03-09T11:34:31Z</time>
      </trkpt>
      <trkpt lat="42.86495" lon="-0.07987">
        <ele>2504</ele>
        <time>2013-03-09T11:34:37Z</time>
      </trkpt>
      <trkpt lat="42.86493" lon="-0.07988">
        <ele>2504</ele>
        <time>2013-03-09T11:34:47Z</time>
      </trkpt>
      <trkpt lat="42.86496" lon="-0.07989">
        <ele>2505</ele>
        <time>2013-03-09T11:34:53Z</time>
      </trkpt>
      <trkpt lat="42.86498" lon="-0.07989">
        <ele>2505</ele>
        <time>2013-03-09T11:34:58Z</time>
      </trkpt>
      <trkpt lat="42.86501" lon="-0.07991">
        <ele>2508</ele>
        <time>2013-03-09T11:35:04Z</time>
      </trkpt>
      <trkpt lat="42.86504" lon="-0.07991">
        <ele>2508</ele>
        <time>2013-03-09T11:35:15Z</time>
      </trkpt>
      <trkpt lat="42.86504" lon="-0.07992">
        <ele>2508</ele>
        <time>2013-03-09T11:35:28Z</time>
      </trkpt>
      <trkpt lat="42.86507" lon="-0.07993">
        <ele>2508</ele>
        <time>2013-03-09T11:35:38Z</time>
      </trkpt>
      <trkpt lat="42.86512" lon="-0.07995">
        <ele>2508</ele>
        <time>2013-03-09T11:35:49Z</time>
      </trkpt>
      <trkpt lat="42.86514" lon="-0.07997">
        <ele>2508</ele>
        <time>2013-03-09T11:35:53Z</time>
      </trkpt>
      <trkpt lat="42.86518" lon="-0.07999">
        <ele>2507</ele>
        <time>2013-03-09T11:36:01Z</time>
      </trkpt>
      <trkpt lat="42.86523" lon="-0.08001">
        <ele>2516</ele>
        <time>2013-03-09T11:36:09Z</time>
      </trkpt>
      <trkpt lat="42.86524" lon="-0.08">
        <ele>2507</ele>
        <time>2013-03-09T11:36:17Z</time>
      </trkpt>
      <trkpt lat="42.86524" lon="-0.07999">
        <ele>2507</ele>
        <time>2013-03-09T11:36:26Z</time>
      </trkpt>
      <trkpt lat="42.86525" lon="-0.08">
        <ele>2516</ele>
        <time>2013-03-09T11:36:34Z</time>
      </trkpt>
      <trkpt lat="42.86526" lon="-0.08">
        <ele>2507</ele>
        <time>2013-03-09T11:36:42Z</time>
      </trkpt>
      <trkpt lat="42.86525" lon="-0.08">
        <ele>2516</ele>
        <time>2013-03-09T11:36:58Z</time>
      </trkpt>
      <trkpt lat="42.86526" lon="-0.08">
        <ele>2507</ele>
        <time>2013-03-09T11:37:08Z</time>
      </trkpt>
      <trkpt lat="42.86526" lon="-0.08">
        <ele>2516</ele>
        <time>2013-03-09T11:37:18Z</time>
      </trkpt>
      <trkpt lat="42.86525" lon="-0.08">
        <ele>2516</ele>
        <time>2013-03-09T11:37:28Z</time>
      </trkpt>
      <trkpt lat="42.86527" lon="-0.08001">
        <ele>2516</ele>
        <time>2013-03-09T11:37:39Z</time>
      </trkpt>
      <trkpt lat="42.86531" lon="-0.08003">
        <ele>2517</ele>
        <time>2013-03-09T11:37:51Z</time>
      </trkpt>
      <trkpt lat="42.86536" lon="-0.08005">
        <ele>2518</ele>
        <time>2013-03-09T11:38:01Z</time>
      </trkpt>
      <trkpt lat="42.86538" lon="-0.08005">
        <ele>2518</ele>
        <time>2013-03-09T11:38:05Z</time>
      </trkpt>
      <trkpt lat="42.86542" lon="-0.08006">
        <ele>2518</ele>
        <time>2013-03-09T11:38:13Z</time>
      </trkpt>
      <trkpt lat="42.86545" lon="-0.08007">
        <ele>2519</ele>
        <time>2013-03-09T11:38:20Z</time>
      </trkpt>
      <trkpt lat="42.86547" lon="-0.08007">
        <ele>2519</ele>
        <time>2013-03-09T11:38:28Z</time>
      </trkpt>
      <trkpt lat="42.86547" lon="-0.08007">
        <ele>2519</ele>
        <time>2013-03-09T11:38:30Z</time>
      </trkpt>
      <trkpt lat="42.86546" lon="-0.08008">
        <ele>2519</ele>
        <time>2013-03-09T11:38:35Z</time>
      </trkpt>
      <trkpt lat="42.86542" lon="-0.08013">
        <ele>2518</ele>
        <time>2013-03-09T11:38:45Z</time>
      </trkpt>
      <trkpt lat="42.86538" lon="-0.08017">
        <ele>2518</ele>
        <time>2013-03-09T11:38:53Z</time>
      </trkpt>
      <trkpt lat="42.86535" lon="-0.08021">
        <ele>2518</ele>
        <time>2013-03-09T11:39:01Z</time>
      </trkpt>
      <trkpt lat="42.86531" lon="-0.08026">
        <ele>2517</ele>
        <time>2013-03-09T11:39:10Z</time>
      </trkpt>
      <trkpt lat="42.8653" lon="-0.08028">
        <ele>2517</ele>
        <time>2013-03-09T11:39:18Z</time>
      </trkpt>
      <trkpt lat="42.86531" lon="-0.08029">
        <ele>2517</ele>
        <time>2013-03-09T11:39:24Z</time>
      </trkpt>
      <trkpt lat="42.86536" lon="-0.08029">
        <ele>2518</ele>
        <time>2013-03-09T11:39:35Z</time>
      </trkpt>
      <trkpt lat="42.8654" lon="-0.0803">
        <ele>2518</ele>
        <time>2013-03-09T11:39:46Z</time>
      </trkpt>
      <trkpt lat="42.86544" lon="-0.08031">
        <ele>2519</ele>
        <time>2013-03-09T11:39:56Z</time>
      </trkpt>
      <trkpt lat="42.86551" lon="-0.08033">
        <ele>2520</ele>
        <time>2013-03-09T11:40:06Z</time>
      </trkpt>
      <trkpt lat="42.8655" lon="-0.08032">
        <ele>2519</ele>
        <time>2013-03-09T11:40:22Z</time>
      </trkpt>
      <trkpt lat="42.86551" lon="-0.08032">
        <ele>2520</ele>
        <time>2013-03-09T11:40:41Z</time>
      </trkpt>
      <trkpt lat="42.86553" lon="-0.08033">
        <ele>2520</ele>
        <time>2013-03-09T11:40:49Z</time>
      </trkpt>
      <trkpt lat="42.86557" lon="-0.08034">
        <ele>2520</ele>
        <time>2013-03-09T11:40:57Z</time>
      </trkpt>
      <trkpt lat="42.86561" lon="-0.08036">
        <ele>2521</ele>
        <time>2013-03-09T11:41:05Z</time>
      </trkpt>
      <trkpt lat="42.86565" lon="-0.08038">
        <ele>2521</ele>
        <time>2013-03-09T11:41:14Z</time>
      </trkpt>
      <trkpt lat="42.86569" lon="-0.08038">
        <ele>2522</ele>
        <time>2013-03-09T11:41:21Z</time>
      </trkpt>
      <trkpt lat="42.8657" lon="-0.08039">
        <ele>2522</ele>
        <time>2013-03-09T11:41:30Z</time>
      </trkpt>
      <trkpt lat="42.8657" lon="-0.08039">
        <ele>2522</ele>
        <time>2013-03-09T11:41:45Z</time>
      </trkpt>
      <trkpt lat="42.86569" lon="-0.08039">
        <ele>2522</ele>
        <time>2013-03-09T11:41:59Z</time>
      </trkpt>
      <trkpt lat="42.86574" lon="-0.0804">
        <ele>2522</ele>
        <time>2013-03-09T11:42:07Z</time>
      </trkpt>
      <trkpt lat="42.86578" lon="-0.08042">
        <ele>2522</ele>
        <time>2013-03-09T11:42:15Z</time>
      </trkpt>
      <trkpt lat="42.86582" lon="-0.08043">
        <ele>2523</ele>
        <time>2013-03-09T11:42:23Z</time>
      </trkpt>
      <trkpt lat="42.86584" lon="-0.08043">
        <ele>2527</ele>
        <time>2013-03-09T11:42:27Z</time>
      </trkpt>
      <trkpt lat="42.86587" lon="-0.08044">
        <ele>2527</ele>
        <time>2013-03-09T11:42:35Z</time>
      </trkpt>
      <trkpt lat="42.86585" lon="-0.08045">
        <ele>2528</ele>
        <time>2013-03-09T11:42:40Z</time>
      </trkpt>
      <trkpt lat="42.86584" lon="-0.08047">
        <ele>2528</ele>
        <time>2013-03-09T11:42:46Z</time>
      </trkpt>
      <trkpt lat="42.86579" lon="-0.08051">
        <ele>2523</ele>
        <time>2013-03-09T11:42:55Z</time>
      </trkpt>
      <trkpt lat="42.86575" lon="-0.08054">
        <ele>2523</ele>
        <time>2013-03-09T11:43:03Z</time>
      </trkpt>
      <trkpt lat="42.8657" lon="-0.08057">
        <ele>2523</ele>
        <time>2013-03-09T11:43:11Z</time>
      </trkpt>
      <trkpt lat="42.86569" lon="-0.08056">
        <ele>2523</ele>
        <time>2013-03-09T11:43:17Z</time>
      </trkpt>
      <trkpt lat="42.8657" lon="-0.08059">
        <ele>2524</ele>
        <time>2013-03-09T11:43:25Z</time>
      </trkpt>
      <trkpt lat="42.86571" lon="-0.08059">
        <ele>2524</ele>
        <time>2013-03-09T11:43:28Z</time>
      </trkpt>
      <trkpt lat="42.8657" lon="-0.0806">
        <ele>2524</ele>
        <time>2013-03-09T11:43:34Z</time>
      </trkpt>
      <trkpt lat="42.86571" lon="-0.0806">
        <ele>2524</ele>
        <time>2013-03-09T11:43:44Z</time>
      </trkpt>
      <trkpt lat="42.86572" lon="-0.08061">
        <ele>2524</ele>
        <time>2013-03-09T11:43:51Z</time>
      </trkpt>
      <trkpt lat="42.86573" lon="-0.08061">
        <ele>2524</ele>
        <time>2013-03-09T11:44:04Z</time>
      </trkpt>
      <trkpt lat="42.86573" lon="-0.08061">
        <ele>2524</ele>
        <time>2013-03-09T11:44:16Z</time>
      </trkpt>
      <trkpt lat="42.86574" lon="-0.08061">
        <ele>2524</ele>
        <time>2013-03-09T11:44:22Z</time>
      </trkpt>
      <trkpt lat="42.86577" lon="-0.08062">
        <ele>2525</ele>
        <time>2013-03-09T11:44:29Z</time>
      </trkpt>
      <trkpt lat="42.86582" lon="-0.08063">
        <ele>2526</ele>
        <time>2013-03-09T11:44:38Z</time>
      </trkpt>
      <trkpt lat="42.86585" lon="-0.08063">
        <ele>2529</ele>
        <time>2013-03-09T11:44:45Z</time>
      </trkpt>
      <trkpt lat="42.86585" lon="-0.08063">
        <ele>2529</ele>
        <time>2013-03-09T11:44:53Z</time>
      </trkpt>
      <trkpt lat="42.86585" lon="-0.08063">
        <ele>2529</ele>
        <time>2013-03-09T11:45:04Z</time>
      </trkpt>
      <trkpt lat="42.86585" lon="-0.08064">
        <ele>2529</ele>
        <time>2013-03-09T11:45:13Z</time>
      </trkpt>
      <trkpt lat="42.86586" lon="-0.08064">
        <ele>2529</ele>
        <time>2013-03-09T11:45:22Z</time>
      </trkpt>
      <trkpt lat="42.86586" lon="-0.08063">
        <ele>2529</ele>
        <time>2013-03-09T11:45:30Z</time>
      </trkpt>
      <trkpt lat="42.86588" lon="-0.08063">
        <ele>2529</ele>
        <time>2013-03-09T11:45:35Z</time>
      </trkpt>
      <trkpt lat="42.86588" lon="-0.08063">
        <ele>2529</ele>
        <time>2013-03-09T11:45:43Z</time>
      </trkpt>
      <trkpt lat="42.86592" lon="-0.08063">
        <ele>2529</ele>
        <time>2013-03-09T11:45:50Z</time>
      </trkpt>
      <trkpt lat="42.86593" lon="-0.08064">
        <ele>2529</ele>
        <time>2013-03-09T11:45:57Z</time>
      </trkpt>
      <trkpt lat="42.86593" lon="-0.08063">
        <ele>2529</ele>
        <time>2013-03-09T11:46:04Z</time>
      </trkpt>
      <trkpt lat="42.86593" lon="-0.08063">
        <ele>2529</ele>
        <time>2013-03-09T11:46:13Z</time>
      </trkpt>
      <trkpt lat="42.86594" lon="-0.08062">
        <ele>2529</ele>
        <time>2013-03-09T11:46:23Z</time>
      </trkpt>
      <trkpt lat="42.86593" lon="-0.08062">
        <ele>2529</ele>
        <time>2013-03-09T11:46:34Z</time>
      </trkpt>
      <trkpt lat="42.86592" lon="-0.08062">
        <ele>2529</ele>
        <time>2013-03-09T11:46:40Z</time>
      </trkpt>
      <trkpt lat="42.8659" lon="-0.08063">
        <ele>2529</ele>
        <time>2013-03-09T11:46:47Z</time>
      </trkpt>
      <trkpt lat="42.86591" lon="-0.08063">
        <ele>2529</ele>
        <time>2013-03-09T11:47:00Z</time>
      </trkpt>
      <trkpt lat="42.86588" lon="-0.08063">
        <ele>2529</ele>
        <time>2013-03-09T11:47:09Z</time>
      </trkpt>
      <trkpt lat="42.86584" lon="-0.08065">
        <ele>2530</ele>
        <time>2013-03-09T11:47:16Z</time>
      </trkpt>
      <trkpt lat="42.8658" lon="-0.08068">
        <ele>2527</ele>
        <time>2013-03-09T11:47:23Z</time>
      </trkpt>
      <trkpt lat="42.86577" lon="-0.08071">
        <ele>2527</ele>
        <time>2013-03-09T11:47:29Z</time>
      </trkpt>
      <trkpt lat="42.86574" lon="-0.08072">
        <ele>2527</ele>
        <time>2013-03-09T11:47:35Z</time>
      </trkpt>
      <trkpt lat="42.86573" lon="-0.08073">
        <ele>2527</ele>
        <time>2013-03-09T11:47:45Z</time>
      </trkpt>
      <trkpt lat="42.86575" lon="-0.08075">
        <ele>2528</ele>
        <time>2013-03-09T11:47:52Z</time>
      </trkpt>
      <trkpt lat="42.86576" lon="-0.08077">
        <ele>2529</ele>
        <time>2013-03-09T11:48:04Z</time>
      </trkpt>
      <trkpt lat="42.86577" lon="-0.08078">
        <ele>2529</ele>
        <time>2013-03-09T11:48:14Z</time>
      </trkpt>
      <trkpt lat="42.86578" lon="-0.08078">
        <ele>2530</ele>
        <time>2013-03-09T11:48:19Z</time>
      </trkpt>
      <trkpt lat="42.86577" lon="-0.08078">
        <ele>2529</ele>
        <time>2013-03-09T11:48:20Z</time>
      </trkpt>
      <trkpt lat="42.86578" lon="-0.08078">
        <ele>2530</ele>
        <time>2013-03-09T11:48:22Z</time>
      </trkpt>
      <trkpt lat="42.86578" lon="-0.08078">
        <ele>2530</ele>
        <time>2013-03-09T11:48:31Z</time>
      </trkpt>
      <trkpt lat="42.86578" lon="-0.08078">
        <ele>2530</ele>
        <time>2013-03-09T11:48:45Z</time>
      </trkpt>
      <trkpt lat="42.86578" lon="-0.08078">
        <ele>2530</ele>
        <time>2013-03-09T11:48:55Z</time>
      </trkpt>
      <trkpt lat="42.86578" lon="-0.08078">
        <ele>2530</ele>
        <time>2013-03-09T11:49:13Z</time>
      </trkpt>
      <trkpt lat="42.86578" lon="-0.08078">
        <ele>2530</ele>
        <time>2013-03-09T11:49:24Z</time>
      </trkpt>
      <trkpt lat="42.86578" lon="-0.08079">
        <ele>2530</ele>
        <time>2013-03-09T11:49:36Z</time>
      </trkpt>
      <trkpt lat="42.8658" lon="-0.08079">
        <ele>2531</ele>
        <time>2013-03-09T11:49:41Z</time>
      </trkpt>
      <trkpt lat="42.86581" lon="-0.08079">
        <ele>2531</ele>
        <time>2013-03-09T11:49:48Z</time>
      </trkpt>
      <trkpt lat="42.86582" lon="-0.08078">
        <ele>2531</ele>
        <time>2013-03-09T11:49:58Z</time>
      </trkpt>
      <trkpt lat="42.86581" lon="-0.08079">
        <ele>2531</ele>
        <time>2013-03-09T11:50:10Z</time>
      </trkpt>
      <trkpt lat="42.86583" lon="-0.08079">
        <ele>2531</ele>
        <time>2013-03-09T11:50:22Z</time>
      </trkpt>
      <trkpt lat="42.86584" lon="-0.0808">
        <ele>2533</ele>
        <time>2013-03-09T11:50:28Z</time>
      </trkpt>
      <trkpt lat="42.86585" lon="-0.08079">
        <ele>2533</ele>
        <time>2013-03-09T11:50:35Z</time>
      </trkpt>
      <trkpt lat="42.86587" lon="-0.0808">
        <ele>2532</ele>
        <time>2013-03-09T11:50:41Z</time>
      </trkpt>
      <trkpt lat="42.86589" lon="-0.08077">
        <ele>2532</ele>
        <time>2013-03-09T11:50:54Z</time>
      </trkpt>
      <trkpt lat="42.86591" lon="-0.08079">
        <ele>2532</ele>
        <time>2013-03-09T11:51:06Z</time>
      </trkpt>
      <trkpt lat="42.86593" lon="-0.08081">
        <ele>2531</ele>
        <time>2013-03-09T11:51:19Z</time>
      </trkpt>
      <trkpt lat="42.8659" lon="-0.08082">
        <ele>2532</ele>
        <time>2013-03-09T11:51:29Z</time>
      </trkpt>
      <trkpt lat="42.86589" lon="-0.0808">
        <ele>2532</ele>
        <time>2013-03-09T11:51:40Z</time>
      </trkpt>
      <trkpt lat="42.86589" lon="-0.08083">
        <ele>2532</ele>
        <time>2013-03-09T11:51:53Z</time>
      </trkpt>
      <trkpt lat="42.86588" lon="-0.08087">
        <ele>2529</ele>
        <time>2013-03-09T11:52:00Z</time>
      </trkpt>
      <trkpt lat="42.86588" lon="-0.08089">
        <ele>2528</ele>
        <time>2013-03-09T11:52:13Z</time>
      </trkpt>
      <trkpt lat="42.86588" lon="-0.0809">
        <ele>2527</ele>
        <time>2013-03-09T11:52:25Z</time>
      </trkpt>
      <trkpt lat="42.86587" lon="-0.08087">
        <ele>2529</ele>
        <time>2013-03-09T11:52:30Z</time>
      </trkpt>
      <trkpt lat="42.86587" lon="-0.08086">
        <ele>2530</ele>
        <time>2013-03-09T11:52:40Z</time>
      </trkpt>
      <trkpt lat="42.86587" lon="-0.08086">
        <ele>2530</ele>
        <time>2013-03-09T11:52:53Z</time>
      </trkpt>
      <trkpt lat="42.86585" lon="-0.08085">
        <ele>2531</ele>
        <time>2013-03-09T11:53:18Z</time>
      </trkpt>
      <trkpt lat="42.86587" lon="-0.08085">
        <ele>2531</ele>
        <time>2013-03-09T11:53:40Z</time>
      </trkpt>
      <trkpt lat="42.86587" lon="-0.08086">
        <ele>2530</ele>
        <time>2013-03-09T11:54:06Z</time>
      </trkpt>
      <trkpt lat="42.86586" lon="-0.08084">
        <ele>2531</ele>
        <time>2013-03-09T11:54:26Z</time>
      </trkpt>
      <trkpt lat="42.86586" lon="-0.08086">
        <ele>2530</ele>
        <time>2013-03-09T11:54:47Z</time>
      </trkpt>
      <trkpt lat="42.86587" lon="-0.08087">
        <ele>2529</ele>
        <time>2013-03-09T11:55:07Z</time>
      </trkpt>
      <trkpt lat="42.86587" lon="-0.08087">
        <ele>2530</ele>
        <time>2013-03-09T11:55:11Z</time>
      </trkpt>
      <trkpt lat="42.86589" lon="-0.08086">
        <ele>2529</ele>
        <time>2013-03-09T11:55:30Z</time>
      </trkpt>
      <trkpt lat="42.8659" lon="-0.08085">
        <ele>2528</ele>
        <time>2013-03-09T11:55:49Z</time>
      </trkpt>
      <trkpt lat="42.86588" lon="-0.08084">
        <ele>2529</ele>
        <time>2013-03-09T11:55:56Z</time>
      </trkpt>
      <trkpt lat="42.86589" lon="-0.08084">
        <ele>2529</ele>
        <time>2013-03-09T11:55:57Z</time>
      </trkpt>
      <trkpt lat="42.86588" lon="-0.08084">
        <ele>2530</ele>
        <time>2013-03-09T11:56:01Z</time>
      </trkpt>
      <trkpt lat="42.86588" lon="-0.08084">
        <ele>2530</ele>
        <time>2013-03-09T11:56:03Z</time>
      </trkpt>
      <trkpt lat="42.86589" lon="-0.08088">
        <ele>2528</ele>
        <time>2013-03-09T11:56:26Z</time>
      </trkpt>
      <trkpt lat="42.86589" lon="-0.08088">
        <ele>2528</ele>
        <time>2013-03-09T11:56:50Z</time>
      </trkpt>
      <trkpt lat="42.86587" lon="-0.08087">
        <ele>2529</ele>
        <time>2013-03-09T11:57:16Z</time>
      </trkpt>
      <trkpt lat="42.86587" lon="-0.08087">
        <ele>2529</ele>
        <time>2013-03-09T11:57:35Z</time>
      </trkpt>
      <trkpt lat="42.86588" lon="-0.08086">
        <ele>2529</ele>
        <time>2013-03-09T11:57:58Z</time>
      </trkpt>
      <trkpt lat="42.86587" lon="-0.08086">
        <ele>2530</ele>
        <time>2013-03-09T11:58:20Z</time>
      </trkpt>
      <trkpt lat="42.86586" lon="-0.08086">
        <ele>2530</ele>
        <time>2013-03-09T11:58:46Z</time>
      </trkpt>
      <trkpt lat="42.86587" lon="-0.08086">
        <ele>2530</ele>
        <time>2013-03-09T11:59:07Z</time>
      </trkpt>
      <trkpt lat="42.86586" lon="-0.08085">
        <ele>2531</ele>
        <time>2013-03-09T11:59:29Z</time>
      </trkpt>
      <trkpt lat="42.86586" lon="-0.08085">
        <ele>2531</ele>
        <time>2013-03-09T12:00:00Z</time>
      </trkpt>
      <trkpt lat="42.86587" lon="-0.08084">
        <ele>2531</ele>
        <time>2013-03-09T12:00:31Z</time>
      </trkpt>
      <trkpt lat="42.86588" lon="-0.08083">
        <ele>2530</ele>
        <time>2013-03-09T12:01:02Z</time>
      </trkpt>
      <trkpt lat="42.86589" lon="-0.08083">
        <ele>2529</ele>
        <time>2013-03-09T12:01:19Z</time>
      </trkpt>
      <trkpt lat="42.8659" lon="-0.08085">
        <ele>2528</ele>
        <time>2013-03-09T12:01:38Z</time>
      </trkpt>
      <trkpt lat="42.86591" lon="-0.08086">
        <ele>2528</ele>
        <time>2013-03-09T12:02:08Z</time>
      </trkpt>
      <trkpt lat="42.86589" lon="-0.08086">
        <ele>2528</ele>
        <time>2013-03-09T12:02:29Z</time>
      </trkpt>
      <trkpt lat="42.86589" lon="-0.08086">
        <ele>2529</ele>
        <time>2013-03-09T12:02:52Z</time>
      </trkpt>
      <trkpt lat="42.86588" lon="-0.08086">
        <ele>2529</ele>
        <time>2013-03-09T12:03:14Z</time>
      </trkpt>
      <trkpt lat="42.86589" lon="-0.08085">
        <ele>2529</ele>
        <time>2013-03-09T12:03:36Z</time>
      </trkpt>
      <trkpt lat="42.86589" lon="-0.08086">
        <ele>2529</ele>
        <time>2013-03-09T12:03:58Z</time>
      </trkpt>
      <trkpt lat="42.86589" lon="-0.08086">
        <ele>2529</ele>
        <time>2013-03-09T12:04:23Z</time>
      </trkpt>
      <trkpt lat="42.86589" lon="-0.08087">
        <ele>2528</ele>
        <time>2013-03-09T12:04:51Z</time>
      </trkpt>
      <trkpt lat="42.86589" lon="-0.08086">
        <ele>2528</ele>
        <time>2013-03-09T12:05:15Z</time>
      </trkpt>
      <trkpt lat="42.86588" lon="-0.08086">
        <ele>2529</ele>
        <time>2013-03-09T12:05:39Z</time>
      </trkpt>
      <trkpt lat="42.86587" lon="-0.08086">
        <ele>2530</ele>
        <time>2013-03-09T12:06:04Z</time>
      </trkpt>
      <trkpt lat="42.86586" lon="-0.08086">
        <ele>2530</ele>
        <time>2013-03-09T12:06:30Z</time>
      </trkpt>
      <trkpt lat="42.86587" lon="-0.08088">
        <ele>2529</ele>
        <time>2013-03-09T12:06:56Z</time>
      </trkpt>
      <trkpt lat="42.86587" lon="-0.08089">
        <ele>2528</ele>
        <time>2013-03-09T12:07:22Z</time>
      </trkpt>
      <trkpt lat="42.86587" lon="-0.0809">
        <ele>2528</ele>
        <time>2013-03-09T12:07:44Z</time>
      </trkpt>
      <trkpt lat="42.86586" lon="-0.08089">
        <ele>2528</ele>
        <time>2013-03-09T12:08:09Z</time>
      </trkpt>
      <trkpt lat="42.86587" lon="-0.0809">
        <ele>2528</ele>
        <time>2013-03-09T12:08:31Z</time>
      </trkpt>
      <trkpt lat="42.86587" lon="-0.0809">
        <ele>2528</ele>
        <time>2013-03-09T12:08:57Z</time>
      </trkpt>
      <trkpt lat="42.86587" lon="-0.08088">
        <ele>2529</ele>
        <time>2013-03-09T12:09:18Z</time>
      </trkpt>
      <trkpt lat="42.86587" lon="-0.08086">
        <ele>2530</ele>
        <time>2013-03-09T12:09:41Z</time>
      </trkpt>
      <trkpt lat="42.86587" lon="-0.08086">
        <ele>2530</ele>
        <time>2013-03-09T12:09:43Z</time>
      </trkpt>
      <trkpt lat="42.86587" lon="-0.08086">
        <ele>2530</ele>
        <time>2013-03-09T12:10:01Z</time>
      </trkpt>
      <trkpt lat="42.86586" lon="-0.08086">
        <ele>2531</ele>
        <time>2013-03-09T12:10:16Z</time>
      </trkpt>
      <trkpt lat="42.86586" lon="-0.08088">
        <ele>2529</ele>
        <time>2013-03-09T12:10:22Z</time>
      </trkpt>
      <trkpt lat="42.86586" lon="-0.0809">
        <ele>2528</ele>
        <time>2013-03-09T12:10:32Z</time>
      </trkpt>
      <trkpt lat="42.86586" lon="-0.0809">
        <ele>2528</ele>
        <time>2013-03-09T12:10:40Z</time>
      </trkpt>
      <trkpt lat="42.86586" lon="-0.08088">
        <ele>2529</ele>
        <time>2013-03-09T12:10:50Z</time>
      </trkpt>
      <trkpt lat="42.86587" lon="-0.08087">
        <ele>2529</ele>
        <time>2013-03-09T12:10:58Z</time>
      </trkpt>
      <trkpt lat="42.86587" lon="-0.08088">
        <ele>2529</ele>
        <time>2013-03-09T12:11:09Z</time>
      </trkpt>
      <trkpt lat="42.86587" lon="-0.08087">
        <ele>2529</ele>
        <time>2013-03-09T12:11:21Z</time>
      </trkpt>
      <trkpt lat="42.86587" lon="-0.08086">
        <ele>2530</ele>
        <time>2013-03-09T12:11:30Z</time>
      </trkpt>
      <trkpt lat="42.86587" lon="-0.08085">
        <ele>2531</ele>
        <time>2013-03-09T12:11:38Z</time>
      </trkpt>
      <trkpt lat="42.86587" lon="-0.08086">
        <ele>2530</ele>
        <time>2013-03-09T12:11:53Z</time>
      </trkpt>
      <trkpt lat="42.86587" lon="-0.08085">
        <ele>2530</ele>
        <time>2013-03-09T12:12:05Z</time>
      </trkpt>
      <trkpt lat="42.86586" lon="-0.08087">
        <ele>2530</ele>
        <time>2013-03-09T12:12:14Z</time>
      </trkpt>
      <trkpt lat="42.86586" lon="-0.08088">
        <ele>2529</ele>
        <time>2013-03-09T12:12:29Z</time>
      </trkpt>
      <trkpt lat="42.86587" lon="-0.08086">
        <ele>2529</ele>
        <time>2013-03-09T12:12:41Z</time>
      </trkpt>
      <trkpt lat="42.86588" lon="-0.08086">
        <ele>2529</ele>
        <time>2013-03-09T12:12:48Z</time>
      </trkpt>
      <trkpt lat="42.86588" lon="-0.08085">
        <ele>2529</ele>
        <time>2013-03-09T12:12:55Z</time>
      </trkpt>
      <trkpt lat="42.86588" lon="-0.08084">
        <ele>2529</ele>
        <time>2013-03-09T12:13:03Z</time>
      </trkpt>
      <trkpt lat="42.86588" lon="-0.08082">
        <ele>2533</ele>
        <time>2013-03-09T12:13:11Z</time>
      </trkpt>
      <trkpt lat="42.86584" lon="-0.0808">
        <ele>2533</ele>
        <time>2013-03-09T12:13:20Z</time>
      </trkpt>
      <trkpt lat="42.86581" lon="-0.08081">
        <ele>2532</ele>
        <time>2013-03-09T12:13:29Z</time>
      </trkpt>
      <trkpt lat="42.86581" lon="-0.0808">
        <ele>2531</ele>
        <time>2013-03-09T12:13:41Z</time>
      </trkpt>
      <trkpt lat="42.8658" lon="-0.08078">
        <ele>2530</ele>
        <time>2013-03-09T12:13:47Z</time>
      </trkpt>
      <trkpt lat="42.86579" lon="-0.08075">
        <ele>2529</ele>
        <time>2013-03-09T12:13:51Z</time>
      </trkpt>
      <trkpt lat="42.86577" lon="-0.08073">
        <ele>2528</ele>
        <time>2013-03-09T12:13:57Z</time>
      </trkpt>
      <trkpt lat="42.86583" lon="-0.0807">
        <ele>2528</ele>
        <time>2013-03-09T12:14:04Z</time>
      </trkpt>
      <trkpt lat="42.86584" lon="-0.08068">
        <ele>2530</ele>
        <time>2013-03-09T12:14:06Z</time>
      </trkpt>
      <trkpt lat="42.86586" lon="-0.08066">
        <ele>2530</ele>
        <time>2013-03-09T12:14:07Z</time>
      </trkpt>
      <trkpt lat="42.86585" lon="-0.08063">
        <ele>2529</ele>
        <time>2013-03-09T12:14:10Z</time>
      </trkpt>
      <trkpt lat="42.86585" lon="-0.08063">
        <ele>2529</ele>
        <time>2013-03-09T12:14:21Z</time>
      </trkpt>
      <trkpt lat="42.86586" lon="-0.08063">
        <ele>2529</ele>
        <time>2013-03-09T12:14:36Z</time>
      </trkpt>
      <trkpt lat="42.86582" lon="-0.0806">
        <ele>2525</ele>
        <time>2013-03-09T12:14:44Z</time>
      </trkpt>
      <trkpt lat="42.86579" lon="-0.08059">
        <ele>2525</ele>
        <time>2013-03-09T12:14:46Z</time>
      </trkpt>
      <trkpt lat="42.86577" lon="-0.08059">
        <ele>2524</ele>
        <time>2013-03-09T12:14:48Z</time>
      </trkpt>
      <trkpt lat="42.86578" lon="-0.0805">
        <ele>2523</ele>
        <time>2013-03-09T12:14:51Z</time>
      </trkpt>
      <trkpt lat="42.86581" lon="-0.08048">
        <ele>2523</ele>
        <time>2013-03-09T12:14:56Z</time>
      </trkpt>
      <trkpt lat="42.8658" lon="-0.08048">
        <ele>2523</ele>
        <time>2013-03-09T12:15:10Z</time>
      </trkpt>
      <trkpt lat="42.86584" lon="-0.08044">
        <ele>2527</ele>
        <time>2013-03-09T12:15:14Z</time>
      </trkpt>
      <trkpt lat="42.86587" lon="-0.08039">
        <ele>2527</ele>
        <time>2013-03-09T12:15:22Z</time>
      </trkpt>
      <trkpt lat="42.8658" lon="-0.08033">
        <ele>2522</ele>
        <time>2013-03-09T12:15:26Z</time>
      </trkpt>
      <trkpt lat="42.86573" lon="-0.08032">
        <ele>2522</ele>
        <time>2013-03-09T12:15:28Z</time>
      </trkpt>
      <trkpt lat="42.86572" lon="-0.08022">
        <ele>2522</ele>
        <time>2013-03-09T12:15:31Z</time>
      </trkpt>
      <trkpt lat="42.86577" lon="-0.08016">
        <ele>2522</ele>
        <time>2013-03-09T12:15:33Z</time>
      </trkpt>
      <trkpt lat="42.86575" lon="-0.08011">
        <ele>2523</ele>
        <time>2013-03-09T12:15:35Z</time>
      </trkpt>
      <trkpt lat="42.86568" lon="-0.08009">
        <ele>2522</ele>
        <time>2013-03-09T12:15:37Z</time>
      </trkpt>
      <trkpt lat="42.8656" lon="-0.08004">
        <ele>2521</ele>
        <time>2013-03-09T12:15:40Z</time>
      </trkpt>
      <trkpt lat="42.86563" lon="-0.07995">
        <ele>2512</ele>
        <time>2013-03-09T12:15:42Z</time>
      </trkpt>
      <trkpt lat="42.86566" lon="-0.07992">
        <ele>2513</ele>
        <time>2013-03-09T12:15:43Z</time>
      </trkpt>
      <trkpt lat="42.86572" lon="-0.07988">
        <ele>2514</ele>
        <time>2013-03-09T12:15:45Z</time>
      </trkpt>
      <trkpt lat="42.8657" lon="-0.0798">
        <ele>2510</ele>
        <time>2013-03-09T12:15:48Z</time>
      </trkpt>
      <trkpt lat="42.86567" lon="-0.07979">
        <ele>2509</ele>
        <time>2013-03-09T12:15:52Z</time>
      </trkpt>
      <trkpt lat="42.86567" lon="-0.0798">
        <ele>2510</ele>
        <time>2013-03-09T12:15:55Z</time>
      </trkpt>
      <trkpt lat="42.86568" lon="-0.0798">
        <ele>2510</ele>
        <time>2013-03-09T12:16:07Z</time>
      </trkpt>
      <trkpt lat="42.8656" lon="-0.07975">
        <ele>2507</ele>
        <time>2013-03-09T12:16:11Z</time>
      </trkpt>
      <trkpt lat="42.86558" lon="-0.07974">
        <ele>2506</ele>
        <time>2013-03-09T12:16:12Z</time>
      </trkpt>
      <trkpt lat="42.86555" lon="-0.07964">
        <ele>2504</ele>
        <time>2013-03-09T12:16:15Z</time>
      </trkpt>
      <trkpt lat="42.86563" lon="-0.07955">
        <ele>2502</ele>
        <time>2013-03-09T12:16:18Z</time>
      </trkpt>
      <trkpt lat="42.86563" lon="-0.07947">
        <ele>2500</ele>
        <time>2013-03-09T12:16:20Z</time>
      </trkpt>
      <trkpt lat="42.86556" lon="-0.07942">
        <ele>2499</ele>
        <time>2013-03-09T12:16:22Z</time>
      </trkpt>
      <trkpt lat="42.86549" lon="-0.07939">
        <ele>2498</ele>
        <time>2013-03-09T12:16:24Z</time>
      </trkpt>
      <trkpt lat="42.86547" lon="-0.07926">
        <ele>2497</ele>
        <time>2013-03-09T12:16:27Z</time>
      </trkpt>
      <trkpt lat="42.86555" lon="-0.07915">
        <ele>2477</ele>
        <time>2013-03-09T12:16:31Z</time>
      </trkpt>
      <trkpt lat="42.86552" lon="-0.07913">
        <ele>2476</ele>
        <time>2013-03-09T12:16:34Z</time>
      </trkpt>
      <trkpt lat="42.86551" lon="-0.07913">
        <ele>2476</ele>
        <time>2013-03-09T12:16:42Z</time>
      </trkpt>
      <trkpt lat="42.8655" lon="-0.07913">
        <ele>2476</ele>
        <time>2013-03-09T12:16:49Z</time>
      </trkpt>
      <trkpt lat="42.86549" lon="-0.07901">
        <ele>2475</ele>
        <time>2013-03-09T12:16:53Z</time>
      </trkpt>
      <trkpt lat="42.86555" lon="-0.07897">
        <ele>2475</ele>
        <time>2013-03-09T12:16:55Z</time>
      </trkpt>
      <trkpt lat="42.86555" lon="-0.07884">
        <ele>2472</ele>
        <time>2013-03-09T12:17:00Z</time>
      </trkpt>
      <trkpt lat="42.86552" lon="-0.07883">
        <ele>2472</ele>
        <time>2013-03-09T12:17:01Z</time>
      </trkpt>
      <trkpt lat="42.86549" lon="-0.07882">
        <ele>2471</ele>
        <time>2013-03-09T12:17:02Z</time>
      </trkpt>
      <trkpt lat="42.86543" lon="-0.0788">
        <ele>2471</ele>
        <time>2013-03-09T12:17:04Z</time>
      </trkpt>
      <trkpt lat="42.86534" lon="-0.07876">
        <ele>2470</ele>
        <time>2013-03-09T12:17:07Z</time>
      </trkpt>
      <trkpt lat="42.86536" lon="-0.07866">
        <ele>2468</ele>
        <time>2013-03-09T12:17:10Z</time>
      </trkpt>
      <trkpt lat="42.86544" lon="-0.07857">
        <ele>2467</ele>
        <time>2013-03-09T12:17:14Z</time>
      </trkpt>
      <trkpt lat="42.86536" lon="-0.07852">
        <ele>2466</ele>
        <time>2013-03-09T12:17:17Z</time>
      </trkpt>
      <trkpt lat="42.86527" lon="-0.07849">
        <ele>2465</ele>
        <time>2013-03-09T12:17:20Z</time>
      </trkpt>
      <trkpt lat="42.86524" lon="-0.07849">
        <ele>2465</ele>
        <time>2013-03-09T12:17:25Z</time>
      </trkpt>
      <trkpt lat="42.86524" lon="-0.07848">
        <ele>2465</ele>
        <time>2013-03-09T12:17:30Z</time>
      </trkpt>
      <trkpt lat="42.8652" lon="-0.07838">
        <ele>2463</ele>
        <time>2013-03-09T12:17:36Z</time>
      </trkpt>
      <trkpt lat="42.86528" lon="-0.07835">
        <ele>2464</ele>
        <time>2013-03-09T12:17:39Z</time>
      </trkpt>
      <trkpt lat="42.86533" lon="-0.07832">
        <ele>2446</ele>
        <time>2013-03-09T12:17:41Z</time>
      </trkpt>
      <trkpt lat="42.8653" lon="-0.07819">
        <ele>2445</ele>
        <time>2013-03-09T12:17:45Z</time>
      </trkpt>
      <trkpt lat="42.86512" lon="-0.07811">
        <ele>2446</ele>
        <time>2013-03-09T12:17:50Z</time>
      </trkpt>
      <trkpt lat="42.8651" lon="-0.07809">
        <ele>2445</ele>
        <time>2013-03-09T12:17:51Z</time>
      </trkpt>
      <trkpt lat="42.86506" lon="-0.07807">
        <ele>2445</ele>
        <time>2013-03-09T12:17:53Z</time>
      </trkpt>
      <trkpt lat="42.86503" lon="-0.078">
        <ele>2444</ele>
        <time>2013-03-09T12:17:55Z</time>
      </trkpt>
      <trkpt lat="42.86509" lon="-0.07793">
        <ele>2442</ele>
        <time>2013-03-09T12:17:57Z</time>
      </trkpt>
      <trkpt lat="42.8652" lon="-0.07789">
        <ele>2440</ele>
        <time>2013-03-09T12:18:00Z</time>
      </trkpt>
      <trkpt lat="42.86519" lon="-0.0778">
        <ele>2439</ele>
        <time>2013-03-09T12:18:02Z</time>
      </trkpt>
      <trkpt lat="42.86505" lon="-0.07763">
        <ele>2437</ele>
        <time>2013-03-09T12:18:06Z</time>
      </trkpt>
      <trkpt lat="42.86501" lon="-0.07749">
        <ele>2434</ele>
        <time>2013-03-09T12:18:11Z</time>
      </trkpt>
      <trkpt lat="42.86498" lon="-0.07731">
        <ele>2434</ele>
        <time>2013-03-09T12:18:18Z</time>
      </trkpt>
      <trkpt lat="42.86494" lon="-0.07715">
        <ele>2432</ele>
        <time>2013-03-09T12:18:24Z</time>
      </trkpt>
      <trkpt lat="42.86491" lon="-0.07696">
        <ele>2428</ele>
        <time>2013-03-09T12:18:29Z</time>
      </trkpt>
      <trkpt lat="42.86489" lon="-0.07676">
        <ele>2422</ele>
        <time>2013-03-09T12:18:33Z</time>
      </trkpt>
      <trkpt lat="42.86488" lon="-0.07667">
        <ele>2420</ele>
        <time>2013-03-09T12:18:35Z</time>
      </trkpt>
      <trkpt lat="42.86487" lon="-0.07659">
        <ele>2415</ele>
        <time>2013-03-09T12:18:37Z</time>
      </trkpt>
      <trkpt lat="42.86485" lon="-0.07638">
        <ele>2416</ele>
        <time>2013-03-09T12:18:41Z</time>
      </trkpt>
      <trkpt lat="42.86484" lon="-0.07622">
        <ele>2415</ele>
        <time>2013-03-09T12:18:44Z</time>
      </trkpt>
      <trkpt lat="42.86482" lon="-0.07601">
        <ele>2412</ele>
        <time>2013-03-09T12:18:48Z</time>
      </trkpt>
      <trkpt lat="42.86482" lon="-0.0759">
        <ele>2410</ele>
        <time>2013-03-09T12:18:50Z</time>
      </trkpt>
      <trkpt lat="42.86489" lon="-0.07579">
        <ele>2403</ele>
        <time>2013-03-09T12:18:53Z</time>
      </trkpt>
      <trkpt lat="42.86497" lon="-0.07576">
        <ele>2401</ele>
        <time>2013-03-09T12:18:55Z</time>
      </trkpt>
      <trkpt lat="42.86497" lon="-0.07565">
        <ele>2405</ele>
        <time>2013-03-09T12:18:57Z</time>
      </trkpt>
      <trkpt lat="42.86505" lon="-0.07545">
        <ele>2384</ele>
        <time>2013-03-09T12:19:01Z</time>
      </trkpt>
      <trkpt lat="42.86507" lon="-0.07523">
        <ele>2384</ele>
        <time>2013-03-09T12:19:05Z</time>
      </trkpt>
      <trkpt lat="42.86503" lon="-0.07492">
        <ele>2383</ele>
        <time>2013-03-09T12:19:10Z</time>
      </trkpt>
      <trkpt lat="42.86504" lon="-0.07479">
        <ele>2380</ele>
        <time>2013-03-09T12:19:12Z</time>
      </trkpt>
      <trkpt lat="42.86505" lon="-0.07472">
        <ele>2379</ele>
        <time>2013-03-09T12:19:13Z</time>
      </trkpt>
      <trkpt lat="42.86508" lon="-0.07447">
        <ele>2378</ele>
        <time>2013-03-09T12:19:17Z</time>
      </trkpt>
      <trkpt lat="42.86517" lon="-0.07428">
        <ele>2377</ele>
        <time>2013-03-09T12:19:23Z</time>
      </trkpt>
      <trkpt lat="42.86521" lon="-0.07417">
        <ele>2377</ele>
        <time>2013-03-09T12:19:28Z</time>
      </trkpt>
      <trkpt lat="42.86522" lon="-0.07416">
        <ele>2373</ele>
        <time>2013-03-09T12:19:39Z</time>
      </trkpt>
      <trkpt lat="42.8653" lon="-0.07409">
        <ele>2370</ele>
        <time>2013-03-09T12:19:45Z</time>
      </trkpt>
      <trkpt lat="42.86531" lon="-0.07408">
        <ele>2370</ele>
        <time>2013-03-09T12:19:46Z</time>
      </trkpt>
      <trkpt lat="42.86537" lon="-0.07405">
        <ele>2368</ele>
        <time>2013-03-09T12:19:49Z</time>
      </trkpt>
      <trkpt lat="42.86548" lon="-0.07403">
        <ele>2366</ele>
        <time>2013-03-09T12:19:52Z</time>
      </trkpt>
      <trkpt lat="42.86557" lon="-0.07394">
        <ele>2364</ele>
        <time>2013-03-09T12:19:55Z</time>
      </trkpt>
      <trkpt lat="42.86561" lon="-0.07393">
        <ele>2363</ele>
        <time>2013-03-09T12:19:56Z</time>
      </trkpt>
      <trkpt lat="42.86563" lon="-0.07382">
        <ele>2363</ele>
        <time>2013-03-09T12:19:58Z</time>
      </trkpt>
      <trkpt lat="42.86572" lon="-0.07375">
        <ele>2361</ele>
        <time>2013-03-09T12:20:01Z</time>
      </trkpt>
      <trkpt lat="42.86572" lon="-0.07367">
        <ele>2359</ele>
        <time>2013-03-09T12:20:03Z</time>
      </trkpt>
      <trkpt lat="42.86571" lon="-0.07362">
        <ele>2358</ele>
        <time>2013-03-09T12:20:04Z</time>
      </trkpt>
      <trkpt lat="42.8657" lon="-0.07353">
        <ele>2356</ele>
        <time>2013-03-09T12:20:06Z</time>
      </trkpt>
      <trkpt lat="42.86576" lon="-0.07344">
        <ele>2351</ele>
        <time>2013-03-09T12:20:09Z</time>
      </trkpt>
      <trkpt lat="42.8658" lon="-0.07336">
        <ele>2344</ele>
        <time>2013-03-09T12:20:11Z</time>
      </trkpt>
      <trkpt lat="42.86583" lon="-0.07327">
        <ele>2343</ele>
        <time>2013-03-09T12:20:13Z</time>
      </trkpt>
      <trkpt lat="42.86589" lon="-0.0731">
        <ele>2332</ele>
        <time>2013-03-09T12:20:17Z</time>
      </trkpt>
      <trkpt lat="42.86586" lon="-0.07278">
        <ele>2326</ele>
        <time>2013-03-09T12:20:23Z</time>
      </trkpt>
      <trkpt lat="42.86585" lon="-0.07263">
        <ele>2324</ele>
        <time>2013-03-09T12:20:26Z</time>
      </trkpt>
      <trkpt lat="42.86575" lon="-0.07231">
        <ele>2332</ele>
        <time>2013-03-09T12:20:32Z</time>
      </trkpt>
      <trkpt lat="42.8657" lon="-0.07221">
        <ele>2335</ele>
        <time>2013-03-09T12:20:36Z</time>
      </trkpt>
      <trkpt lat="42.86565" lon="-0.07205">
        <ele>2335</ele>
        <time>2013-03-09T12:20:40Z</time>
      </trkpt>
      <trkpt lat="42.8656" lon="-0.0718">
        <ele>2331</ele>
        <time>2013-03-09T12:20:45Z</time>
      </trkpt>
      <trkpt lat="42.86561" lon="-0.0715">
        <ele>2327</ele>
        <time>2013-03-09T12:20:51Z</time>
      </trkpt>
      <trkpt lat="42.86565" lon="-0.0714">
        <ele>2327</ele>
        <time>2013-03-09T12:20:54Z</time>
      </trkpt>
      <trkpt lat="42.86575" lon="-0.07137">
        <ele>2324</ele>
        <time>2013-03-09T12:20:57Z</time>
      </trkpt>
      <trkpt lat="42.8658" lon="-0.07122">
        <ele>2324</ele>
        <time>2013-03-09T12:21:00Z</time>
      </trkpt>
      <trkpt lat="42.86596" lon="-0.07108">
        <ele>2298</ele>
        <time>2013-03-09T12:21:05Z</time>
      </trkpt>
      <trkpt lat="42.86599" lon="-0.071">
        <ele>2298</ele>
        <time>2013-03-09T12:21:07Z</time>
      </trkpt>
      <trkpt lat="42.866" lon="-0.07095">
        <ele>2298</ele>
        <time>2013-03-09T12:21:08Z</time>
      </trkpt>
      <trkpt lat="42.86608" lon="-0.07087">
        <ele>2297</ele>
        <time>2013-03-09T12:21:11Z</time>
      </trkpt>
      <trkpt lat="42.86608" lon="-0.07085">
        <ele>2297</ele>
        <time>2013-03-09T12:21:16Z</time>
      </trkpt>
      <trkpt lat="42.86608" lon="-0.07085">
        <ele>2297</ele>
        <time>2013-03-09T12:21:21Z</time>
      </trkpt>
      <trkpt lat="42.86609" lon="-0.07083">
        <ele>2291</ele>
        <time>2013-03-09T12:21:27Z</time>
      </trkpt>
      <trkpt lat="42.86609" lon="-0.07081">
        <ele>2291</ele>
        <time>2013-03-09T12:21:41Z</time>
      </trkpt>
      <trkpt lat="42.86609" lon="-0.07081">
        <ele>2291</ele>
        <time>2013-03-09T12:21:45Z</time>
      </trkpt>
      <trkpt lat="42.86609" lon="-0.07065">
        <ele>2290</ele>
        <time>2013-03-09T12:21:50Z</time>
      </trkpt>
      <trkpt lat="42.86607" lon="-0.07036">
        <ele>2288</ele>
        <time>2013-03-09T12:21:55Z</time>
      </trkpt>
      <trkpt lat="42.86605" lon="-0.07005">
        <ele>2289</ele>
        <time>2013-03-09T12:22:01Z</time>
      </trkpt>
      <trkpt lat="42.866" lon="-0.06968">
        <ele>2278</ele>
        <time>2013-03-09T12:22:09Z</time>
      </trkpt>
      <trkpt lat="42.86589" lon="-0.06934">
        <ele>2277</ele>
        <time>2013-03-09T12:22:17Z</time>
      </trkpt>
      <trkpt lat="42.86569" lon="-0.06896">
        <ele>2277</ele>
        <time>2013-03-09T12:22:26Z</time>
      </trkpt>
      <trkpt lat="42.86562" lon="-0.06884">
        <ele>2276</ele>
        <time>2013-03-09T12:22:31Z</time>
      </trkpt>
      <trkpt lat="42.86562" lon="-0.06883">
        <ele>2276</ele>
        <time>2013-03-09T12:22:34Z</time>
      </trkpt>
      <trkpt lat="42.86557" lon="-0.06875">
        <ele>2275</ele>
        <time>2013-03-09T12:22:38Z</time>
      </trkpt>
      <trkpt lat="42.8656" lon="-0.06866">
        <ele>2273</ele>
        <time>2013-03-09T12:22:41Z</time>
      </trkpt>
      <trkpt lat="42.86562" lon="-0.06855">
        <ele>2270</ele>
        <time>2013-03-09T12:22:44Z</time>
      </trkpt>
      <trkpt lat="42.86567" lon="-0.06848">
        <ele>2267</ele>
        <time>2013-03-09T12:22:46Z</time>
      </trkpt>
      <trkpt lat="42.86567" lon="-0.0684">
        <ele>2265</ele>
        <time>2013-03-09T12:22:48Z</time>
      </trkpt>
      <trkpt lat="42.86564" lon="-0.06822">
        <ele>2250</ele>
        <time>2013-03-09T12:22:51Z</time>
      </trkpt>
      <trkpt lat="42.86559" lon="-0.06814">
        <ele>2249</ele>
        <time>2013-03-09T12:22:53Z</time>
      </trkpt>
      <trkpt lat="42.86552" lon="-0.06807">
        <ele>2249</ele>
        <time>2013-03-09T12:22:56Z</time>
      </trkpt>
      <trkpt lat="42.86541" lon="-0.06793">
        <ele>2248</ele>
        <time>2013-03-09T12:23:01Z</time>
      </trkpt>
      <trkpt lat="42.86538" lon="-0.0679">
        <ele>2247</ele>
        <time>2013-03-09T12:23:02Z</time>
      </trkpt>
      <trkpt lat="42.86535" lon="-0.06788">
        <ele>2247</ele>
        <time>2013-03-09T12:23:03Z</time>
      </trkpt>
      <trkpt lat="42.86524" lon="-0.06779">
        <ele>2246</ele>
        <time>2013-03-09T12:23:07Z</time>
      </trkpt>
      <trkpt lat="42.8652" lon="-0.0677">
        <ele>2245</ele>
        <time>2013-03-09T12:23:09Z</time>
      </trkpt>
      <trkpt lat="42.86517" lon="-0.06757">
        <ele>2242</ele>
        <time>2013-03-09T12:23:11Z</time>
      </trkpt>
      <trkpt lat="42.86506" lon="-0.06744">
        <ele>2233</ele>
        <time>2013-03-09T12:23:14Z</time>
      </trkpt>
      <trkpt lat="42.86503" lon="-0.06742">
        <ele>2233</ele>
        <time>2013-03-09T12:23:15Z</time>
      </trkpt>
      <trkpt lat="42.86489" lon="-0.06728">
        <ele>2229</ele>
        <time>2013-03-09T12:23:21Z</time>
      </trkpt>
      <trkpt lat="42.86493" lon="-0.06717">
        <ele>2226</ele>
        <time>2013-03-09T12:23:25Z</time>
      </trkpt>
      <trkpt lat="42.86491" lon="-0.06713">
        <ele>2225</ele>
        <time>2013-03-09T12:23:27Z</time>
      </trkpt>
      <trkpt lat="42.8649" lon="-0.06712">
        <ele>2225</ele>
        <time>2013-03-09T12:23:33Z</time>
      </trkpt>
      <trkpt lat="42.86489" lon="-0.06712">
        <ele>2225</ele>
        <time>2013-03-09T12:23:44Z</time>
      </trkpt>
      <trkpt lat="42.86481" lon="-0.0671">
        <ele>2224</ele>
        <time>2013-03-09T12:23:50Z</time>
      </trkpt>
      <trkpt lat="42.86474" lon="-0.0671">
        <ele>2224</ele>
        <time>2013-03-09T12:23:52Z</time>
      </trkpt>
      <trkpt lat="42.86453" lon="-0.06712">
        <ele>2224</ele>
        <time>2013-03-09T12:23:56Z</time>
      </trkpt>
      <trkpt lat="42.86427" lon="-0.06704">
        <ele>2222</ele>
        <time>2013-03-09T12:24:01Z</time>
      </trkpt>
      <trkpt lat="42.86417" lon="-0.06699">
        <ele>2220</ele>
        <time>2013-03-09T12:24:04Z</time>
      </trkpt>
      <trkpt lat="42.86419" lon="-0.06684">
        <ele>2215</ele>
        <time>2013-03-09T12:24:07Z</time>
      </trkpt>
      <trkpt lat="42.86414" lon="-0.06677">
        <ele>2212</ele>
        <time>2013-03-09T12:24:09Z</time>
      </trkpt>
      <trkpt lat="42.86412" lon="-0.06666">
        <ele>2204</ele>
        <time>2013-03-09T12:24:11Z</time>
      </trkpt>
      <trkpt lat="42.86411" lon="-0.06656">
        <ele>2202</ele>
        <time>2013-03-09T12:24:13Z</time>
      </trkpt>
      <trkpt lat="42.86406" lon="-0.06647">
        <ele>2200</ele>
        <time>2013-03-09T12:24:15Z</time>
      </trkpt>
      <trkpt lat="42.86398" lon="-0.06636">
        <ele>2198</ele>
        <time>2013-03-09T12:24:17Z</time>
      </trkpt>
      <trkpt lat="42.86391" lon="-0.06631">
        <ele>2197</ele>
        <time>2013-03-09T12:24:20Z</time>
      </trkpt>
      <trkpt lat="42.86389" lon="-0.06626">
        <ele>2197</ele>
        <time>2013-03-09T12:24:22Z</time>
      </trkpt>
      <trkpt lat="42.86385" lon="-0.06609">
        <ele>2194</ele>
        <time>2013-03-09T12:24:26Z</time>
      </trkpt>
      <trkpt lat="42.8638" lon="-0.06596">
        <ele>2193</ele>
        <time>2013-03-09T12:24:30Z</time>
      </trkpt>
      <trkpt lat="42.86379" lon="-0.0659">
        <ele>2192</ele>
        <time>2013-03-09T12:24:32Z</time>
      </trkpt>
      <trkpt lat="42.86375" lon="-0.06581">
        <ele>2175</ele>
        <time>2013-03-09T12:24:38Z</time>
      </trkpt>
      <trkpt lat="42.86373" lon="-0.06576">
        <ele>2174</ele>
        <time>2013-03-09T12:24:48Z</time>
      </trkpt>
      <trkpt lat="42.86369" lon="-0.0657">
        <ele>2174</ele>
        <time>2013-03-09T12:24:53Z</time>
      </trkpt>
      <trkpt lat="42.86373" lon="-0.06565">
        <ele>2173</ele>
        <time>2013-03-09T12:24:57Z</time>
      </trkpt>
      <trkpt lat="42.86372" lon="-0.06563">
        <ele>2173</ele>
        <time>2013-03-09T12:25:08Z</time>
      </trkpt>
      <trkpt lat="42.86372" lon="-0.06563">
        <ele>2173</ele>
        <time>2013-03-09T12:25:21Z</time>
      </trkpt>
      <trkpt lat="42.86374" lon="-0.06564">
        <ele>2173</ele>
        <time>2013-03-09T12:25:40Z</time>
      </trkpt>
      <trkpt lat="42.86372" lon="-0.06563">
        <ele>2172</ele>
        <time>2013-03-09T12:25:59Z</time>
      </trkpt>
      <trkpt lat="42.86372" lon="-0.06564">
        <ele>2173</ele>
        <time>2013-03-09T12:26:13Z</time>
      </trkpt>
      <trkpt lat="42.86379" lon="-0.06563">
        <ele>2172</ele>
        <time>2013-03-09T12:26:24Z</time>
      </trkpt>
      <trkpt lat="42.86381" lon="-0.06564">
        <ele>2173</ele>
        <time>2013-03-09T12:26:25Z</time>
      </trkpt>
      <trkpt lat="42.86382" lon="-0.06563">
        <ele>2172</ele>
        <time>2013-03-09T12:26:30Z</time>
      </trkpt>
      <trkpt lat="42.86383" lon="-0.06563">
        <ele>2172</ele>
        <time>2013-03-09T12:26:45Z</time>
      </trkpt>
      <trkpt lat="42.86384" lon="-0.06563">
        <ele>2173</ele>
        <time>2013-03-09T12:27:02Z</time>
      </trkpt>
      <trkpt lat="42.86393" lon="-0.06564">
        <ele>2173</ele>
        <time>2013-03-09T12:27:06Z</time>
      </trkpt>
      <trkpt lat="42.86395" lon="-0.06554">
        <ele>2171</ele>
        <time>2013-03-09T12:27:10Z</time>
      </trkpt>
      <trkpt lat="42.86391" lon="-0.06544">
        <ele>2169</ele>
        <time>2013-03-09T12:27:14Z</time>
      </trkpt>
      <trkpt lat="42.86391" lon="-0.06544">
        <ele>2169</ele>
        <time>2013-03-09T12:27:24Z</time>
      </trkpt>
      <trkpt lat="42.86391" lon="-0.06544">
        <ele>2169</ele>
        <time>2013-03-09T12:27:41Z</time>
      </trkpt>
      <trkpt lat="42.86392" lon="-0.06542">
        <ele>2169</ele>
        <time>2013-03-09T12:27:54Z</time>
      </trkpt>
      <trkpt lat="42.86392" lon="-0.06542">
        <ele>2169</ele>
        <time>2013-03-09T12:28:12Z</time>
      </trkpt>
      <trkpt lat="42.86391" lon="-0.06542">
        <ele>2169</ele>
        <time>2013-03-09T12:28:20Z</time>
      </trkpt>
      <trkpt lat="42.8639" lon="-0.06542">
        <ele>2169</ele>
        <time>2013-03-09T12:28:35Z</time>
      </trkpt>
      <trkpt lat="42.86392" lon="-0.06541">
        <ele>2168</ele>
        <time>2013-03-09T12:28:50Z</time>
      </trkpt>
      <trkpt lat="42.86391" lon="-0.06541">
        <ele>2168</ele>
        <time>2013-03-09T12:29:04Z</time>
      </trkpt>
      <trkpt lat="42.86391" lon="-0.06542">
        <ele>2168</ele>
        <time>2013-03-09T12:29:16Z</time>
      </trkpt>
      <trkpt lat="42.8639" lon="-0.06542">
        <ele>2169</ele>
        <time>2013-03-09T12:29:33Z</time>
      </trkpt>
      <trkpt lat="42.86391" lon="-0.06542">
        <ele>2169</ele>
        <time>2013-03-09T12:29:55Z</time>
      </trkpt>
      <trkpt lat="42.86391" lon="-0.06543">
        <ele>2169</ele>
        <time>2013-03-09T12:30:03Z</time>
      </trkpt>
      <trkpt lat="42.8639" lon="-0.06544">
        <ele>2169</ele>
        <time>2013-03-09T12:30:21Z</time>
      </trkpt>
      <trkpt lat="42.8639" lon="-0.06543">
        <ele>2169</ele>
        <time>2013-03-09T12:30:39Z</time>
      </trkpt>
      <trkpt lat="42.8639" lon="-0.06543">
        <ele>2169</ele>
        <time>2013-03-09T12:31:02Z</time>
      </trkpt>
      <trkpt lat="42.86391" lon="-0.06543">
        <ele>2169</ele>
        <time>2013-03-09T12:31:19Z</time>
      </trkpt>
      <trkpt lat="42.86391" lon="-0.06543">
        <ele>2169</ele>
        <time>2013-03-09T12:31:34Z</time>
      </trkpt>
      <trkpt lat="42.8639" lon="-0.06543">
        <ele>2169</ele>
        <time>2013-03-09T12:31:48Z</time>
      </trkpt>
      <trkpt lat="42.86389" lon="-0.06543">
        <ele>2169</ele>
        <time>2013-03-09T12:32:00Z</time>
      </trkpt>
      <trkpt lat="42.86392" lon="-0.06543">
        <ele>2169</ele>
        <time>2013-03-09T12:32:09Z</time>
      </trkpt>
      <trkpt lat="42.86394" lon="-0.06524">
        <ele>2165</ele>
        <time>2013-03-09T12:32:14Z</time>
      </trkpt>
      <trkpt lat="42.86397" lon="-0.06508">
        <ele>2162</ele>
        <time>2013-03-09T12:32:17Z</time>
      </trkpt>
      <trkpt lat="42.86398" lon="-0.06498">
        <ele>2149</ele>
        <time>2013-03-09T12:32:19Z</time>
      </trkpt>
      <trkpt lat="42.86396" lon="-0.06481">
        <ele>2148</ele>
        <time>2013-03-09T12:32:22Z</time>
      </trkpt>
      <trkpt lat="42.86396" lon="-0.06466">
        <ele>2146</ele>
        <time>2013-03-09T12:32:24Z</time>
      </trkpt>
      <trkpt lat="42.86403" lon="-0.0645">
        <ele>2144</ele>
        <time>2013-03-09T12:32:26Z</time>
      </trkpt>
      <trkpt lat="42.86409" lon="-0.06424">
        <ele>2140</ele>
        <time>2013-03-09T12:32:30Z</time>
      </trkpt>
      <trkpt lat="42.86405" lon="-0.06418">
        <ele>2140</ele>
        <time>2013-03-09T12:32:31Z</time>
      </trkpt>
      <trkpt lat="42.86396" lon="-0.0639">
        <ele>2134</ele>
        <time>2013-03-09T12:32:35Z</time>
      </trkpt>
      <trkpt lat="42.8639" lon="-0.06364">
        <ele>2132</ele>
        <time>2013-03-09T12:32:38Z</time>
      </trkpt>
      <trkpt lat="42.86373" lon="-0.06324">
        <ele>2126</ele>
        <time>2013-03-09T12:32:42Z</time>
      </trkpt>
      <trkpt lat="42.86366" lon="-0.06304">
        <ele>2125</ele>
        <time>2013-03-09T12:32:44Z</time>
      </trkpt>
      <trkpt lat="42.8636" lon="-0.06272">
        <ele>2124</ele>
        <time>2013-03-09T12:32:47Z</time>
      </trkpt>
      <trkpt lat="42.86361" lon="-0.06261">
        <ele>2124</ele>
        <time>2013-03-09T12:32:48Z</time>
      </trkpt>
      <trkpt lat="42.86362" lon="-0.06236">
        <ele>2117</ele>
        <time>2013-03-09T12:32:51Z</time>
      </trkpt>
      <trkpt lat="42.86362" lon="-0.06203">
        <ele>2114</ele>
        <time>2013-03-09T12:32:56Z</time>
      </trkpt>
      <trkpt lat="42.86357" lon="-0.06182">
        <ele>2114</ele>
        <time>2013-03-09T12:33:01Z</time>
      </trkpt>
      <trkpt lat="42.86349" lon="-0.06172">
        <ele>2116</ele>
        <time>2013-03-09T12:33:07Z</time>
      </trkpt>
      <trkpt lat="42.86345" lon="-0.06163">
        <ele>2112</ele>
        <time>2013-03-09T12:33:11Z</time>
      </trkpt>
      <trkpt lat="42.8635" lon="-0.06144">
        <ele>2106</ele>
        <time>2013-03-09T12:33:15Z</time>
      </trkpt>
      <trkpt lat="42.86349" lon="-0.06138">
        <ele>2105</ele>
        <time>2013-03-09T12:33:16Z</time>
      </trkpt>
      <trkpt lat="42.86348" lon="-0.06113">
        <ele>2102</ele>
        <time>2013-03-09T12:33:20Z</time>
      </trkpt>
      <trkpt lat="42.86347" lon="-0.06107">
        <ele>2102</ele>
        <time>2013-03-09T12:33:24Z</time>
      </trkpt>
      <trkpt lat="42.86345" lon="-0.06109">
        <ele>2102</ele>
        <time>2013-03-09T12:33:36Z</time>
      </trkpt>
      <trkpt lat="42.86346" lon="-0.06107">
        <ele>2102</ele>
        <time>2013-03-09T12:33:45Z</time>
      </trkpt>
      <trkpt lat="42.86346" lon="-0.06099">
        <ele>2102</ele>
        <time>2013-03-09T12:33:48Z</time>
      </trkpt>
      <trkpt lat="42.86355" lon="-0.06091">
        <ele>2101</ele>
        <time>2013-03-09T12:33:52Z</time>
      </trkpt>
      <trkpt lat="42.86357" lon="-0.06082">
        <ele>2090</ele>
        <time>2013-03-09T12:33:54Z</time>
      </trkpt>
      <trkpt lat="42.86362" lon="-0.06074">
        <ele>2088</ele>
        <time>2013-03-09T12:33:56Z</time>
      </trkpt>
      <trkpt lat="42.86362" lon="-0.06063">
        <ele>2086</ele>
        <time>2013-03-09T12:33:58Z</time>
      </trkpt>
      <trkpt lat="42.86361" lon="-0.06053">
        <ele>2085</ele>
        <time>2013-03-09T12:34:00Z</time>
      </trkpt>
      <trkpt lat="42.86366" lon="-0.06045">
        <ele>2083</ele>
        <time>2013-03-09T12:34:03Z</time>
      </trkpt>
      <trkpt lat="42.86371" lon="-0.0604">
        <ele>2081</ele>
        <time>2013-03-09T12:34:05Z</time>
      </trkpt>
      <trkpt lat="42.86375" lon="-0.06035">
        <ele>2080</ele>
        <time>2013-03-09T12:34:07Z</time>
      </trkpt>
      <trkpt lat="42.86377" lon="-0.06023">
        <ele>2078</ele>
        <time>2013-03-09T12:34:10Z</time>
      </trkpt>
      <trkpt lat="42.86387" lon="-0.06024">
        <ele>2076</ele>
        <time>2013-03-09T12:34:12Z</time>
      </trkpt>
      <trkpt lat="42.8641" lon="-0.06033">
        <ele>2074</ele>
        <time>2013-03-09T12:34:16Z</time>
      </trkpt>
      <trkpt lat="42.86422" lon="-0.06029">
        <ele>2058</ele>
        <time>2013-03-09T12:34:19Z</time>
      </trkpt>
      <trkpt lat="42.86422" lon="-0.06015">
        <ele>2057</ele>
        <time>2013-03-09T12:34:23Z</time>
      </trkpt>
      <trkpt lat="42.86421" lon="-0.06016">
        <ele>2057</ele>
        <time>2013-03-09T12:34:29Z</time>
      </trkpt>
      <trkpt lat="42.8642" lon="-0.06014">
        <ele>2057</ele>
        <time>2013-03-09T12:34:37Z</time>
      </trkpt>
      <trkpt lat="42.8642" lon="-0.06013">
        <ele>2057</ele>
        <time>2013-03-09T12:34:48Z</time>
      </trkpt>
      <trkpt lat="42.86419" lon="-0.05997">
        <ele>2054</ele>
        <time>2013-03-09T12:34:53Z</time>
      </trkpt>
      <trkpt lat="42.86419" lon="-0.05988">
        <ele>2048</ele>
        <time>2013-03-09T12:34:55Z</time>
      </trkpt>
      <trkpt lat="42.86416" lon="-0.05955">
        <ele>2056</ele>
        <time>2013-03-09T12:35:03Z</time>
      </trkpt>
      <trkpt lat="42.86413" lon="-0.05945">
        <ele>2054</ele>
        <time>2013-03-09T12:35:05Z</time>
      </trkpt>
      <trkpt lat="42.86407" lon="-0.05922">
        <ele>2048</ele>
        <time>2013-03-09T12:35:10Z</time>
      </trkpt>
      <trkpt lat="42.86407" lon="-0.05912">
        <ele>2040</ele>
        <time>2013-03-09T12:35:13Z</time>
      </trkpt>
      <trkpt lat="42.86414" lon="-0.05907">
        <ele>2039</ele>
        <time>2013-03-09T12:35:16Z</time>
      </trkpt>
      <trkpt lat="42.86417" lon="-0.05903">
        <ele>2025</ele>
        <time>2013-03-09T12:35:18Z</time>
      </trkpt>
      <trkpt lat="42.86416" lon="-0.05903">
        <ele>2038</ele>
        <time>2013-03-09T12:35:19Z</time>
      </trkpt>
      <trkpt lat="42.86419" lon="-0.05894">
        <ele>2019</ele>
        <time>2013-03-09T12:35:24Z</time>
      </trkpt>
      <trkpt lat="42.86422" lon="-0.0589">
        <ele>2016</ele>
        <time>2013-03-09T12:35:26Z</time>
      </trkpt>
      <trkpt lat="42.86421" lon="-0.05884">
        <ele>2013</ele>
        <time>2013-03-09T12:35:28Z</time>
      </trkpt>
      <trkpt lat="42.86426" lon="-0.0588">
        <ele>2011</ele>
        <time>2013-03-09T12:35:30Z</time>
      </trkpt>
      <trkpt lat="42.8643" lon="-0.05882">
        <ele>2011</ele>
        <time>2013-03-09T12:35:31Z</time>
      </trkpt>
      <trkpt lat="42.86437" lon="-0.05887">
        <ele>2011</ele>
        <time>2013-03-09T12:35:33Z</time>
      </trkpt>
      <trkpt lat="42.86441" lon="-0.05879">
        <ele>2008</ele>
        <time>2013-03-09T12:35:37Z</time>
      </trkpt>
      <trkpt lat="42.86438" lon="-0.05874">
        <ele>2008</ele>
        <time>2013-03-09T12:35:40Z</time>
      </trkpt>
      <trkpt lat="42.86442" lon="-0.05868">
        <ele>2006</ele>
        <time>2013-03-09T12:35:43Z</time>
      </trkpt>
      <trkpt lat="42.86449" lon="-0.05866">
        <ele>2004</ele>
        <time>2013-03-09T12:35:46Z</time>
      </trkpt>
      <trkpt lat="42.86446" lon="-0.05858">
        <ele>2003</ele>
        <time>2013-03-09T12:35:49Z</time>
      </trkpt>
      <trkpt lat="42.86445" lon="-0.05857">
        <ele>2003</ele>
        <time>2013-03-09T12:35:50Z</time>
      </trkpt>
      <trkpt lat="42.86441" lon="-0.0585">
        <ele>2003</ele>
        <time>2013-03-09T12:35:54Z</time>
      </trkpt>
      <trkpt lat="42.86439" lon="-0.05851">
        <ele>2003</ele>
        <time>2013-03-09T12:36:00Z</time>
      </trkpt>
      <trkpt lat="42.86438" lon="-0.05844">
        <ele>2003</ele>
        <time>2013-03-09T12:36:03Z</time>
      </trkpt>
      <trkpt lat="42.86445" lon="-0.0584">
        <ele>2001</ele>
        <time>2013-03-09T12:36:06Z</time>
      </trkpt>
      <trkpt lat="42.86451" lon="-0.05835">
        <ele>2000</ele>
        <time>2013-03-09T12:36:08Z</time>
      </trkpt>
      <trkpt lat="42.86449" lon="-0.05826">
        <ele>1988</ele>
        <time>2013-03-09T12:36:10Z</time>
      </trkpt>
      <trkpt lat="42.86445" lon="-0.05814">
        <ele>1988</ele>
        <time>2013-03-09T12:36:13Z</time>
      </trkpt>
      <trkpt lat="42.86435" lon="-0.05783">
        <ele>1987</ele>
        <time>2013-03-09T12:36:19Z</time>
      </trkpt>
      <trkpt lat="42.86431" lon="-0.05766">
        <ele>1988</ele>
        <time>2013-03-09T12:36:22Z</time>
      </trkpt>
      <trkpt lat="42.86429" lon="-0.05747">
        <ele>1989</ele>
        <time>2013-03-09T12:36:26Z</time>
      </trkpt>
      <trkpt lat="42.86431" lon="-0.05746">
        <ele>1989</ele>
        <time>2013-03-09T12:36:35Z</time>
      </trkpt>
      <trkpt lat="42.86431" lon="-0.05746">
        <ele>1989</ele>
        <time>2013-03-09T12:36:48Z</time>
      </trkpt>
      <trkpt lat="42.8643" lon="-0.05746">
        <ele>1989</ele>
        <time>2013-03-09T12:36:56Z</time>
      </trkpt>
      <trkpt lat="42.86439" lon="-0.05745">
        <ele>1988</ele>
        <time>2013-03-09T12:37:03Z</time>
      </trkpt>
      <trkpt lat="42.86453" lon="-0.05731">
        <ele>1986</ele>
        <time>2013-03-09T12:37:09Z</time>
      </trkpt>
      <trkpt lat="42.86461" lon="-0.05722">
        <ele>1985</ele>
        <time>2013-03-09T12:37:12Z</time>
      </trkpt>
      <trkpt lat="42.86483" lon="-0.05709">
        <ele>1983</ele>
        <time>2013-03-09T12:37:17Z</time>
      </trkpt>
      <trkpt lat="42.86487" lon="-0.05708">
        <ele>1983</ele>
        <time>2013-03-09T12:37:18Z</time>
      </trkpt>
      <trkpt lat="42.86495" lon="-0.05706">
        <ele>1983</ele>
        <time>2013-03-09T12:37:20Z</time>
      </trkpt>
      <trkpt lat="42.865" lon="-0.05702">
        <ele>1983</ele>
        <time>2013-03-09T12:37:25Z</time>
      </trkpt>
      <trkpt lat="42.865" lon="-0.05702">
        <ele>1983</ele>
        <time>2013-03-09T12:37:37Z</time>
      </trkpt>
      <trkpt lat="42.86501" lon="-0.05703">
        <ele>1969</ele>
        <time>2013-03-09T12:37:46Z</time>
      </trkpt>
      <trkpt lat="42.86501" lon="-0.05703">
        <ele>1969</ele>
        <time>2013-03-09T12:37:56Z</time>
      </trkpt>
      <trkpt lat="42.865" lon="-0.05702">
        <ele>1983</ele>
        <time>2013-03-09T12:38:11Z</time>
      </trkpt>
      <trkpt lat="42.86495" lon="-0.05696">
        <ele>1984</ele>
        <time>2013-03-09T12:38:27Z</time>
      </trkpt>
      <trkpt lat="42.86503" lon="-0.05696">
        <ele>1970</ele>
        <time>2013-03-09T12:38:34Z</time>
      </trkpt>
      <trkpt lat="42.86525" lon="-0.0569">
        <ele>1969</ele>
        <time>2013-03-09T12:38:41Z</time>
      </trkpt>
      <trkpt lat="42.86534" lon="-0.05685">
        <ele>1967</ele>
        <time>2013-03-09T12:38:43Z</time>
      </trkpt>
      <trkpt lat="42.86546" lon="-0.05677">
        <ele>1966</ele>
        <time>2013-03-09T12:38:46Z</time>
      </trkpt>
      <trkpt lat="42.8656" lon="-0.05668">
        <ele>1963</ele>
        <time>2013-03-09T12:38:50Z</time>
      </trkpt>
      <trkpt lat="42.86575" lon="-0.0566">
        <ele>1968</ele>
        <time>2013-03-09T12:38:55Z</time>
      </trkpt>
      <trkpt lat="42.86577" lon="-0.05658">
        <ele>1968</ele>
        <time>2013-03-09T12:38:56Z</time>
      </trkpt>
      <trkpt lat="42.86593" lon="-0.0564">
        <ele>1959</ele>
        <time>2013-03-09T12:39:03Z</time>
      </trkpt>
      <trkpt lat="42.86596" lon="-0.05637">
        <ele>1959</ele>
        <time>2013-03-09T12:39:04Z</time>
      </trkpt>
      <trkpt lat="42.86604" lon="-0.05619">
        <ele>1961</ele>
        <time>2013-03-09T12:39:08Z</time>
      </trkpt>
      <trkpt lat="42.86616" lon="-0.05607">
        <ele>1961</ele>
        <time>2013-03-09T12:39:13Z</time>
      </trkpt>
      <trkpt lat="42.86622" lon="-0.05613">
        <ele>1958</ele>
        <time>2013-03-09T12:39:15Z</time>
      </trkpt>
      <trkpt lat="42.86629" lon="-0.05611">
        <ele>1956</ele>
        <time>2013-03-09T12:39:17Z</time>
      </trkpt>
      <trkpt lat="42.86636" lon="-0.05616">
        <ele>1954</ele>
        <time>2013-03-09T12:39:19Z</time>
      </trkpt>
      <trkpt lat="42.86645" lon="-0.05614">
        <ele>1952</ele>
        <time>2013-03-09T12:39:21Z</time>
      </trkpt>
      <trkpt lat="42.86664" lon="-0.05599">
        <ele>1948</ele>
        <time>2013-03-09T12:39:26Z</time>
      </trkpt>
      <trkpt lat="42.8668" lon="-0.05576">
        <ele>1932</ele>
        <time>2013-03-09T12:39:32Z</time>
      </trkpt>
      <trkpt lat="42.86682" lon="-0.05572">
        <ele>1930</ele>
        <time>2013-03-09T12:39:33Z</time>
      </trkpt>
      <trkpt lat="42.86688" lon="-0.05558">
        <ele>1927</ele>
        <time>2013-03-09T12:39:37Z</time>
      </trkpt>
      <trkpt lat="42.86689" lon="-0.05557">
        <ele>1927</ele>
        <time>2013-03-09T12:39:39Z</time>
      </trkpt>
      <trkpt lat="42.8669" lon="-0.05557">
        <ele>1926</ele>
        <time>2013-03-09T12:39:47Z</time>
      </trkpt>
      <trkpt lat="42.86697" lon="-0.05561">
        <ele>1924</ele>
        <time>2013-03-09T12:39:50Z</time>
      </trkpt>
      <trkpt lat="42.86705" lon="-0.05558">
        <ele>1921</ele>
        <time>2013-03-09T12:39:52Z</time>
      </trkpt>
      <trkpt lat="42.86709" lon="-0.05559">
        <ele>1920</ele>
        <time>2013-03-09T12:39:53Z</time>
      </trkpt>
      <trkpt lat="42.86716" lon="-0.05567">
        <ele>1916</ele>
        <time>2013-03-09T12:39:55Z</time>
      </trkpt>
      <trkpt lat="42.86723" lon="-0.05563">
        <ele>1914</ele>
        <time>2013-03-09T12:39:57Z</time>
      </trkpt>
      <trkpt lat="42.86732" lon="-0.05563">
        <ele>1911</ele>
        <time>2013-03-09T12:39:59Z</time>
      </trkpt>
      <trkpt lat="42.86744" lon="-0.05576">
        <ele>1901</ele>
        <time>2013-03-09T12:40:02Z</time>
      </trkpt>
      <trkpt lat="42.86748" lon="-0.05582">
        <ele>1896</ele>
        <time>2013-03-09T12:40:05Z</time>
      </trkpt>
      <trkpt lat="42.86749" lon="-0.05582">
        <ele>1895</ele>
        <time>2013-03-09T12:40:06Z</time>
      </trkpt>
      <trkpt lat="42.86759" lon="-0.05591">
        <ele>1886</ele>
        <time>2013-03-09T12:40:13Z</time>
      </trkpt>
      <trkpt lat="42.86766" lon="-0.05587">
        <ele>1884</ele>
        <time>2013-03-09T12:40:16Z</time>
      </trkpt>
      <trkpt lat="42.86766" lon="-0.0558">
        <ele>1882</ele>
        <time>2013-03-09T12:40:18Z</time>
      </trkpt>
      <trkpt lat="42.86773" lon="-0.05571">
        <ele>1878</ele>
        <time>2013-03-09T12:40:22Z</time>
      </trkpt>
      <trkpt lat="42.86778" lon="-0.05563">
        <ele>1875</ele>
        <time>2013-03-09T12:40:25Z</time>
      </trkpt>
      <trkpt lat="42.86778" lon="-0.05551">
        <ele>1874</ele>
        <time>2013-03-09T12:40:28Z</time>
      </trkpt>
      <trkpt lat="42.86779" lon="-0.05537">
        <ele>1874</ele>
        <time>2013-03-09T12:40:31Z</time>
      </trkpt>
      <trkpt lat="42.86778" lon="-0.0553">
        <ele>1874</ele>
        <time>2013-03-09T12:40:34Z</time>
      </trkpt>
      <trkpt lat="42.86778" lon="-0.05527">
        <ele>1874</ele>
        <time>2013-03-09T12:40:40Z</time>
      </trkpt>
      <trkpt lat="42.86783" lon="-0.05513">
        <ele>1873</ele>
        <time>2013-03-09T12:40:44Z</time>
      </trkpt>
      <trkpt lat="42.8679" lon="-0.0551">
        <ele>1870</ele>
        <time>2013-03-09T12:40:46Z</time>
      </trkpt>
      <trkpt lat="42.86798" lon="-0.0552">
        <ele>1868</ele>
        <time>2013-03-09T12:40:49Z</time>
      </trkpt>
      <trkpt lat="42.868" lon="-0.05515">
        <ele>1866</ele>
        <time>2013-03-09T12:40:51Z</time>
      </trkpt>
      <trkpt lat="42.86809" lon="-0.05515">
        <ele>1863</ele>
        <time>2013-03-09T12:40:54Z</time>
      </trkpt>
      <trkpt lat="42.86813" lon="-0.05509">
        <ele>1860</ele>
        <time>2013-03-09T12:40:56Z</time>
      </trkpt>
      <trkpt lat="42.86814" lon="-0.05504">
        <ele>1859</ele>
        <time>2013-03-09T12:40:57Z</time>
      </trkpt>
      <trkpt lat="42.86814" lon="-0.05493">
        <ele>1857</ele>
        <time>2013-03-09T12:41:00Z</time>
      </trkpt>
      <trkpt lat="42.86823" lon="-0.05488">
        <ele>1854</ele>
        <time>2013-03-09T12:41:03Z</time>
      </trkpt>
      <trkpt lat="42.86828" lon="-0.05497">
        <ele>1848</ele>
        <time>2013-03-09T12:41:06Z</time>
      </trkpt>
      <trkpt lat="42.8683" lon="-0.05499">
        <ele>1846</ele>
        <time>2013-03-09T12:41:14Z</time>
      </trkpt>
      <trkpt lat="42.8683" lon="-0.05498">
        <ele>1846</ele>
        <time>2013-03-09T12:41:22Z</time>
      </trkpt>
      <trkpt lat="42.86837" lon="-0.05506">
        <ele>1838</ele>
        <time>2013-03-09T12:41:27Z</time>
      </trkpt>
      <trkpt lat="42.8684" lon="-0.0551">
        <ele>1836</ele>
        <time>2013-03-09T12:41:29Z</time>
      </trkpt>
      <trkpt lat="42.86841" lon="-0.05512">
        <ele>1835</ele>
        <time>2013-03-09T12:41:30Z</time>
      </trkpt>
      <trkpt lat="42.86848" lon="-0.05507">
        <ele>1833</ele>
        <time>2013-03-09T12:41:33Z</time>
      </trkpt>
      <trkpt lat="42.86853" lon="-0.05507">
        <ele>1830</ele>
        <time>2013-03-09T12:41:35Z</time>
      </trkpt>
      <trkpt lat="42.8686" lon="-0.05513">
        <ele>1827</ele>
        <time>2013-03-09T12:41:38Z</time>
      </trkpt>
      <trkpt lat="42.86864" lon="-0.05506">
        <ele>1826</ele>
        <time>2013-03-09T12:41:40Z</time>
      </trkpt>
      <trkpt lat="42.86866" lon="-0.05497">
        <ele>1819</ele>
        <time>2013-03-09T12:41:42Z</time>
      </trkpt>
      <trkpt lat="42.8687" lon="-0.05483">
        <ele>1817</ele>
        <time>2013-03-09T12:41:45Z</time>
      </trkpt>
      <trkpt lat="42.86871" lon="-0.05477">
        <ele>1816</ele>
        <time>2013-03-09T12:41:47Z</time>
      </trkpt>
      <trkpt lat="42.86871" lon="-0.05478">
        <ele>1816</ele>
        <time>2013-03-09T12:41:52Z</time>
      </trkpt>
      <trkpt lat="42.86871" lon="-0.05476">
        <ele>1816</ele>
        <time>2013-03-09T12:41:59Z</time>
      </trkpt>
      <trkpt lat="42.86872" lon="-0.05476">
        <ele>1816</ele>
        <time>2013-03-09T12:42:08Z</time>
      </trkpt>
      <trkpt lat="42.86872" lon="-0.05476">
        <ele>1816</ele>
        <time>2013-03-09T12:42:19Z</time>
      </trkpt>
      <trkpt lat="42.86874" lon="-0.05469">
        <ele>1814</ele>
        <time>2013-03-09T12:42:23Z</time>
      </trkpt>
      <trkpt lat="42.8688" lon="-0.05456">
        <ele>1812</ele>
        <time>2013-03-09T12:42:28Z</time>
      </trkpt>
      <trkpt lat="42.86888" lon="-0.05455">
        <ele>1810</ele>
        <time>2013-03-09T12:42:31Z</time>
      </trkpt>
      <trkpt lat="42.86892" lon="-0.05463">
        <ele>1809</ele>
        <time>2013-03-09T12:42:33Z</time>
      </trkpt>
      <trkpt lat="42.86894" lon="-0.05471">
        <ele>1808</ele>
        <time>2013-03-09T12:42:35Z</time>
      </trkpt>
      <trkpt lat="42.86905" lon="-0.05467">
        <ele>1806</ele>
        <time>2013-03-09T12:42:39Z</time>
      </trkpt>
      <trkpt lat="42.8691" lon="-0.05451">
        <ele>1804</ele>
        <time>2013-03-09T12:42:42Z</time>
      </trkpt>
      <trkpt lat="42.86917" lon="-0.05438">
        <ele>1776</ele>
        <time>2013-03-09T12:42:45Z</time>
      </trkpt>
      <trkpt lat="42.86929" lon="-0.05441">
        <ele>1775</ele>
        <time>2013-03-09T12:42:48Z</time>
      </trkpt>
      <trkpt lat="42.86934" lon="-0.0543">
        <ele>1775</ele>
        <time>2013-03-09T12:42:50Z</time>
      </trkpt>
      <trkpt lat="42.86937" lon="-0.05427">
        <ele>1774</ele>
        <time>2013-03-09T12:42:51Z</time>
      </trkpt>
      <trkpt lat="42.86949" lon="-0.05411">
        <ele>1769</ele>
        <time>2013-03-09T12:42:56Z</time>
      </trkpt>
      <trkpt lat="42.86957" lon="-0.05398">
        <ele>1766</ele>
        <time>2013-03-09T12:42:59Z</time>
      </trkpt>
      <trkpt lat="42.86969" lon="-0.05389">
        <ele>1763</ele>
        <time>2013-03-09T12:43:02Z</time>
      </trkpt>
      <trkpt lat="42.86978" lon="-0.05391">
        <ele>1761</ele>
        <time>2013-03-09T12:43:04Z</time>
      </trkpt>
      <trkpt lat="42.86989" lon="-0.05397">
        <ele>1759</ele>
        <time>2013-03-09T12:43:06Z</time>
      </trkpt>
      <trkpt lat="42.86993" lon="-0.05389">
        <ele>1759</ele>
        <time>2013-03-09T12:43:08Z</time>
      </trkpt>
      <trkpt lat="42.87001" lon="-0.0538">
        <ele>1733</ele>
        <time>2013-03-09T12:43:11Z</time>
      </trkpt>
      <trkpt lat="42.87005" lon="-0.05383">
        <ele>1733</ele>
        <time>2013-03-09T12:43:14Z</time>
      </trkpt>
      <trkpt lat="42.87007" lon="-0.05381">
        <ele>1733</ele>
        <time>2013-03-09T12:43:21Z</time>
      </trkpt>
      <trkpt lat="42.87007" lon="-0.0538">
        <ele>1733</ele>
        <time>2013-03-09T12:43:32Z</time>
      </trkpt>
      <trkpt lat="42.87006" lon="-0.05378">
        <ele>1733</ele>
        <time>2013-03-09T12:43:51Z</time>
      </trkpt>
      <trkpt lat="42.87007" lon="-0.05379">
        <ele>1733</ele>
        <time>2013-03-09T12:44:05Z</time>
      </trkpt>
      <trkpt lat="42.87008" lon="-0.05382">
        <ele>1733</ele>
        <time>2013-03-09T12:44:14Z</time>
      </trkpt>
      <trkpt lat="42.87011" lon="-0.05387">
        <ele>1733</ele>
        <time>2013-03-09T12:44:18Z</time>
      </trkpt>
      <trkpt lat="42.87017" lon="-0.05382">
        <ele>1731</ele>
        <time>2013-03-09T12:44:22Z</time>
      </trkpt>
      <trkpt lat="42.87021" lon="-0.05383">
        <ele>1730</ele>
        <time>2013-03-09T12:44:24Z</time>
      </trkpt>
      <trkpt lat="42.87024" lon="-0.05391">
        <ele>1730</ele>
        <time>2013-03-09T12:44:26Z</time>
      </trkpt>
      <trkpt lat="42.87033" lon="-0.05389">
        <ele>1727</ele>
        <time>2013-03-09T12:44:29Z</time>
      </trkpt>
      <trkpt lat="42.87035" lon="-0.05382">
        <ele>1726</ele>
        <time>2013-03-09T12:44:31Z</time>
      </trkpt>
      <trkpt lat="42.87036" lon="-0.05371">
        <ele>1726</ele>
        <time>2013-03-09T12:44:34Z</time>
      </trkpt>
      <trkpt lat="42.87039" lon="-0.0536">
        <ele>1725</ele>
        <time>2013-03-09T12:44:37Z</time>
      </trkpt>
      <trkpt lat="42.87047" lon="-0.05359">
        <ele>1722</ele>
        <time>2013-03-09T12:44:40Z</time>
      </trkpt>
      <trkpt lat="42.8705" lon="-0.05357">
        <ele>1721</ele>
        <time>2013-03-09T12:44:41Z</time>
      </trkpt>
      <trkpt lat="42.87056" lon="-0.05353">
        <ele>1719</ele>
        <time>2013-03-09T12:44:43Z</time>
      </trkpt>
      <trkpt lat="42.87061" lon="-0.0536">
        <ele>1718</ele>
        <time>2013-03-09T12:44:45Z</time>
      </trkpt>
      <trkpt lat="42.87068" lon="-0.05362">
        <ele>1717</ele>
        <time>2013-03-09T12:44:47Z</time>
      </trkpt>
      <trkpt lat="42.87077" lon="-0.05351">
        <ele>1712</ele>
        <time>2013-03-09T12:44:50Z</time>
      </trkpt>
      <trkpt lat="42.87083" lon="-0.05356">
        <ele>1713</ele>
        <time>2013-03-09T12:44:52Z</time>
      </trkpt>
      <trkpt lat="42.87093" lon="-0.05358">
        <ele>1688</ele>
        <time>2013-03-09T12:44:56Z</time>
      </trkpt>
      <trkpt lat="42.87097" lon="-0.05346">
        <ele>1690</ele>
        <time>2013-03-09T12:44:59Z</time>
      </trkpt>
      <trkpt lat="42.871" lon="-0.05348">
        <ele>1689</ele>
        <time>2013-03-09T12:45:00Z</time>
      </trkpt>
      <trkpt lat="42.87105" lon="-0.05355">
        <ele>1686</ele>
        <time>2013-03-09T12:45:03Z</time>
      </trkpt>
      <trkpt lat="42.87109" lon="-0.05351">
        <ele>1685</ele>
        <time>2013-03-09T12:45:05Z</time>
      </trkpt>
      <trkpt lat="42.87108" lon="-0.05346">
        <ele>1686</ele>
        <time>2013-03-09T12:45:12Z</time>
      </trkpt>
      <trkpt lat="42.87108" lon="-0.05345">
        <ele>1686</ele>
        <time>2013-03-09T12:45:25Z</time>
      </trkpt>
      <trkpt lat="42.87108" lon="-0.05338">
        <ele>1687</ele>
        <time>2013-03-09T12:45:34Z</time>
      </trkpt>
      <trkpt lat="42.87108" lon="-0.05328">
        <ele>1680</ele>
        <time>2013-03-09T12:45:37Z</time>
      </trkpt>
      <trkpt lat="42.8712" lon="-0.05327">
        <ele>1675</ele>
        <time>2013-03-09T12:45:41Z</time>
      </trkpt>
      <trkpt lat="42.87121" lon="-0.05329">
        <ele>1675</ele>
        <time>2013-03-09T12:45:42Z</time>
      </trkpt>
      <trkpt lat="42.87122" lon="-0.05331">
        <ele>1674</ele>
        <time>2013-03-09T12:45:46Z</time>
      </trkpt>
      <trkpt lat="42.87129" lon="-0.05338">
        <ele>1679</ele>
        <time>2013-03-09T12:45:51Z</time>
      </trkpt>
      <trkpt lat="42.87132" lon="-0.05347">
        <ele>1678</ele>
        <time>2013-03-09T12:45:54Z</time>
      </trkpt>
      <trkpt lat="42.87134" lon="-0.05351">
        <ele>1678</ele>
        <time>2013-03-09T12:45:56Z</time>
      </trkpt>
      <trkpt lat="42.87143" lon="-0.05344">
        <ele>1674</ele>
        <time>2013-03-09T12:46:00Z</time>
      </trkpt>
      <trkpt lat="42.87148" lon="-0.05345">
        <ele>1673</ele>
        <time>2013-03-09T12:46:02Z</time>
      </trkpt>
      <trkpt lat="42.87155" lon="-0.05361">
        <ele>1673</ele>
        <time>2013-03-09T12:46:06Z</time>
      </trkpt>
      <trkpt lat="42.8716" lon="-0.05359">
        <ele>1672</ele>
        <time>2013-03-09T12:46:08Z</time>
      </trkpt>
      <trkpt lat="42.87169" lon="-0.05358">
        <ele>1647</ele>
        <time>2013-03-09T12:46:11Z</time>
      </trkpt>
      <trkpt lat="42.87175" lon="-0.05364">
        <ele>1645</ele>
        <time>2013-03-09T12:46:13Z</time>
      </trkpt>
      <trkpt lat="42.8718" lon="-0.05355">
        <ele>1646</ele>
        <time>2013-03-09T12:46:15Z</time>
      </trkpt>
      <trkpt lat="42.87177" lon="-0.05344">
        <ele>1650</ele>
        <time>2013-03-09T12:46:18Z</time>
      </trkpt>
      <trkpt lat="42.87176" lon="-0.0534">
        <ele>1652</ele>
        <time>2013-03-09T12:46:24Z</time>
      </trkpt>
      <trkpt lat="42.87176" lon="-0.05338">
        <ele>1653</ele>
        <time>2013-03-09T12:46:31Z</time>
      </trkpt>
      <trkpt lat="42.87177" lon="-0.05322">
        <ele>1643</ele>
        <time>2013-03-09T12:46:37Z</time>
      </trkpt>
      <trkpt lat="42.87185" lon="-0.05325">
        <ele>1639</ele>
        <time>2013-03-09T12:46:40Z</time>
      </trkpt>
      <trkpt lat="42.87192" lon="-0.0533">
        <ele>1635</ele>
        <time>2013-03-09T12:46:43Z</time>
      </trkpt>
      <trkpt lat="42.87195" lon="-0.05322">
        <ele>1632</ele>
        <time>2013-03-09T12:46:46Z</time>
      </trkpt>
      <trkpt lat="42.872" lon="-0.05318">
        <ele>1629</ele>
        <time>2013-03-09T12:46:48Z</time>
      </trkpt>
      <trkpt lat="42.87202" lon="-0.05321">
        <ele>1628</ele>
        <time>2013-03-09T12:46:49Z</time>
      </trkpt>
      <trkpt lat="42.87204" lon="-0.05331">
        <ele>1628</ele>
        <time>2013-03-09T12:46:52Z</time>
      </trkpt>
      <trkpt lat="42.8721" lon="-0.05344">
        <ele>1635</ele>
        <time>2013-03-09T12:46:56Z</time>
      </trkpt>
      <trkpt lat="42.87216" lon="-0.05334">
        <ele>1632</ele>
        <time>2013-03-09T12:46:59Z</time>
      </trkpt>
      <trkpt lat="42.87217" lon="-0.05333">
        <ele>1622</ele>
        <time>2013-03-09T12:47:04Z</time>
      </trkpt>
      <trkpt lat="42.87217" lon="-0.05326">
        <ele>1621</ele>
        <time>2013-03-09T12:47:14Z</time>
      </trkpt>
      <trkpt lat="42.87222" lon="-0.05328">
        <ele>1619</ele>
        <time>2013-03-09T12:47:16Z</time>
      </trkpt>
      <trkpt lat="42.87224" lon="-0.05332">
        <ele>1619</ele>
        <time>2013-03-09T12:47:17Z</time>
      </trkpt>
      <trkpt lat="42.87235" lon="-0.0533">
        <ele>1613</ele>
        <time>2013-03-09T12:47:21Z</time>
      </trkpt>
      <trkpt lat="42.87241" lon="-0.0534">
        <ele>1616</ele>
        <time>2013-03-09T12:47:24Z</time>
      </trkpt>
      <trkpt lat="42.87247" lon="-0.05333">
        <ele>1606</ele>
        <time>2013-03-09T12:47:26Z</time>
      </trkpt>
      <trkpt lat="42.87248" lon="-0.05328">
        <ele>1608</ele>
        <time>2013-03-09T12:47:27Z</time>
      </trkpt>
      <trkpt lat="42.8725" lon="-0.05311">
        <ele>1594</ele>
        <time>2013-03-09T12:47:31Z</time>
      </trkpt>
      <trkpt lat="42.87251" lon="-0.05306">
        <ele>1593</ele>
        <time>2013-03-09T12:47:34Z</time>
      </trkpt>
      <trkpt lat="42.87252" lon="-0.05308">
        <ele>1593</ele>
        <time>2013-03-09T12:47:36Z</time>
      </trkpt>
      <trkpt lat="42.87254" lon="-0.05295">
        <ele>1591</ele>
        <time>2013-03-09T12:47:40Z</time>
      </trkpt>
      <trkpt lat="42.87251" lon="-0.05265">
        <ele>1589</ele>
        <time>2013-03-09T12:47:44Z</time>
      </trkpt>
      <trkpt lat="42.8725" lon="-0.05262">
        <ele>1601</ele>
        <time>2013-03-09T12:47:48Z</time>
      </trkpt>
      <trkpt lat="42.87251" lon="-0.05262">
        <ele>1589</ele>
        <time>2013-03-09T12:47:58Z</time>
      </trkpt>
      <trkpt lat="42.87248" lon="-0.05262">
        <ele>1601</ele>
        <time>2013-03-09T12:48:18Z</time>
      </trkpt>
      <trkpt lat="42.8725" lon="-0.05264">
        <ele>1602</ele>
        <time>2013-03-09T12:48:32Z</time>
      </trkpt>
      <trkpt lat="42.8725" lon="-0.05263">
        <ele>1602</ele>
        <time>2013-03-09T12:48:48Z</time>
      </trkpt>
      <trkpt lat="42.8725" lon="-0.05264">
        <ele>1589</ele>
        <time>2013-03-09T12:48:58Z</time>
      </trkpt>
      <trkpt lat="42.87251" lon="-0.05265">
        <ele>1589</ele>
        <time>2013-03-09T12:49:07Z</time>
      </trkpt>
      <trkpt lat="42.87252" lon="-0.05265">
        <ele>1589</ele>
        <time>2013-03-09T12:49:09Z</time>
      </trkpt>
      <trkpt lat="42.87256" lon="-0.05257">
        <ele>1589</ele>
        <time>2013-03-09T12:49:13Z</time>
      </trkpt>
      <trkpt lat="42.87265" lon="-0.05247">
        <ele>1584</ele>
        <time>2013-03-09T12:49:17Z</time>
      </trkpt>
      <trkpt lat="42.87268" lon="-0.05234">
        <ele>1582</ele>
        <time>2013-03-09T12:49:20Z</time>
      </trkpt>
      <trkpt lat="42.87273" lon="-0.05225">
        <ele>1580</ele>
        <time>2013-03-09T12:49:22Z</time>
      </trkpt>
      <trkpt lat="42.87287" lon="-0.05207">
        <ele>1577</ele>
        <time>2013-03-09T12:49:27Z</time>
      </trkpt>
      <trkpt lat="42.87287" lon="-0.05207">
        <ele>1577</ele>
        <time>2013-03-09T12:49:32Z</time>
      </trkpt>
      <trkpt lat="42.87287" lon="-0.05206">
        <ele>1577</ele>
        <time>2013-03-09T12:49:43Z</time>
      </trkpt>
      <trkpt lat="42.8729" lon="-0.05205">
        <ele>1577</ele>
        <time>2013-03-09T12:50:03Z</time>
      </trkpt>
      <trkpt lat="42.8729" lon="-0.05205">
        <ele>1577</ele>
        <time>2013-03-09T12:50:06Z</time>
      </trkpt>
      <trkpt lat="42.87282" lon="-0.05204">
        <ele>1577</ele>
        <time>2013-03-09T12:50:10Z</time>
      </trkpt>
      <trkpt lat="42.87267" lon="-0.05204">
        <ele>1577</ele>
        <time>2013-03-09T12:50:13Z</time>
      </trkpt>
      <trkpt lat="42.87262" lon="-0.05206">
        <ele>1577</ele>
        <time>2013-03-09T12:50:17Z</time>
      </trkpt>
      <trkpt lat="42.87262" lon="-0.05206">
        <ele>1577</ele>
        <time>2013-03-09T12:50:31Z</time>
      </trkpt>
      <trkpt lat="42.87261" lon="-0.05207">
        <ele>1577</ele>
        <time>2013-03-09T12:50:52Z</time>
      </trkpt>
      <trkpt lat="42.87256" lon="-0.05205">
        <ele>1577</ele>
        <time>2013-03-09T12:50:58Z</time>
      </trkpt>
      <trkpt lat="42.87255" lon="-0.05206">
        <ele>1577</ele>
        <time>2013-03-09T12:51:00Z</time>
      </trkpt>
      <trkpt lat="42.87241" lon="-0.05213">
        <ele>1591</ele>
        <time>2013-03-09T12:51:05Z</time>
      </trkpt>
      <trkpt lat="42.87241" lon="-0.05213">
        <ele>1591</ele>
        <time>2013-03-09T12:51:06Z</time>
      </trkpt>
      <trkpt lat="42.87233" lon="-0.05214">
        <ele>1592</ele>
        <time>2013-03-09T12:51:12Z</time>
      </trkpt>
      <trkpt lat="42.87229" lon="-0.05215">
        <ele>1592</ele>
        <time>2013-03-09T12:51:19Z</time>
      </trkpt>
      <trkpt lat="42.87228" lon="-0.05214">
        <ele>1592</ele>
        <time>2013-03-09T12:51:20Z</time>
      </trkpt>
      <trkpt lat="42.87226" lon="-0.05212">
        <ele>1592</ele>
        <time>2013-03-09T12:51:26Z</time>
      </trkpt>
      <trkpt lat="42.87221" lon="-0.05208">
        <ele>1593</ele>
        <time>2013-03-09T12:51:32Z</time>
      </trkpt>
      <trkpt lat="42.8722" lon="-0.05208">
        <ele>1593</ele>
        <time>2013-03-09T12:51:35Z</time>
      </trkpt>
      <trkpt lat="42.87212" lon="-0.052">
        <ele>1593</ele>
        <time>2013-03-09T12:51:39Z</time>
      </trkpt>
      <trkpt lat="42.87209" lon="-0.05199">
        <ele>1593</ele>
        <time>2013-03-09T12:51:43Z</time>
      </trkpt>
      <trkpt lat="42.87209" lon="-0.05198">
        <ele>1593</ele>
        <time>2013-03-09T12:51:57Z</time>
      </trkpt>
      <trkpt lat="42.8721" lon="-0.05198">
        <ele>1593</ele>
        <time>2013-03-09T12:52:06Z</time>
      </trkpt>
      <trkpt lat="42.8721" lon="-0.05197">
        <ele>1593</ele>
        <time>2013-03-09T12:52:07Z</time>
      </trkpt>
      <trkpt lat="42.87207" lon="-0.05192">
        <ele>1593</ele>
        <time>2013-03-09T12:52:11Z</time>
      </trkpt>
      <trkpt lat="42.87207" lon="-0.05192">
        <ele>1593</ele>
        <time>2013-03-09T12:52:19Z</time>
      </trkpt>
      <trkpt lat="42.87207" lon="-0.05192">
        <ele>1593</ele>
        <time>2013-03-09T12:52:26Z</time>
      </trkpt>
      <trkpt lat="42.87206" lon="-0.05192">
        <ele>1593</ele>
        <time>2013-03-09T12:52:37Z</time>
      </trkpt>
      <trkpt lat="42.87202" lon="-0.05188">
        <ele>1593</ele>
        <time>2013-03-09T12:52:42Z</time>
      </trkpt>
      <trkpt lat="42.872" lon="-0.05188">
        <ele>1593</ele>
        <time>2013-03-09T12:52:48Z</time>
      </trkpt>
      <trkpt lat="42.87198" lon="-0.05186">
        <ele>1593</ele>
        <time>2013-03-09T12:52:57Z</time>
      </trkpt>
      <trkpt lat="42.87198" lon="-0.05186">
        <ele>1593</ele>
        <time>2013-03-09T12:53:05Z</time>
      </trkpt>
      <trkpt lat="42.87198" lon="-0.05185">
        <ele>1593</ele>
        <time>2013-03-09T12:53:06Z</time>
      </trkpt>
      <trkpt lat="42.87197" lon="-0.05167">
        <ele>1573</ele>
        <time>2013-03-09T12:53:10Z</time>
      </trkpt>
      <trkpt lat="42.87197" lon="-0.0515">
        <ele>1571</ele>
        <time>2013-03-09T12:53:13Z</time>
      </trkpt>
      <trkpt lat="42.87196" lon="-0.05146">
        <ele>1571</ele>
        <time>2013-03-09T12:53:14Z</time>
      </trkpt>
      <trkpt lat="42.87188" lon="-0.05122">
        <ele>1566</ele>
        <time>2013-03-09T12:53:20Z</time>
      </trkpt>
      <trkpt lat="42.87187" lon="-0.0512">
        <ele>1566</ele>
        <time>2013-03-09T12:53:22Z</time>
      </trkpt>
      <trkpt lat="42.87188" lon="-0.05123">
        <ele>1566</ele>
        <time>2013-03-09T12:53:29Z</time>
      </trkpt>
      <trkpt lat="42.87188" lon="-0.05122">
        <ele>1566</ele>
        <time>2013-03-09T12:53:34Z</time>
      </trkpt>
      <trkpt lat="42.87191" lon="-0.05111">
        <ele>1564</ele>
        <time>2013-03-09T12:53:39Z</time>
      </trkpt>
      <trkpt lat="42.87199" lon="-0.05112">
        <ele>1563</ele>
        <time>2013-03-09T12:53:42Z</time>
      </trkpt>
      <trkpt lat="42.87201" lon="-0.05102">
        <ele>1561</ele>
        <time>2013-03-09T12:53:44Z</time>
      </trkpt>
      <trkpt lat="42.87193" lon="-0.05083">
        <ele>1560</ele>
        <time>2013-03-09T12:53:50Z</time>
      </trkpt>
      <trkpt lat="42.87197" lon="-0.05077">
        <ele>1541</ele>
        <time>2013-03-09T12:53:52Z</time>
      </trkpt>
      <trkpt lat="42.87199" lon="-0.05077">
        <ele>1540</ele>
        <time>2013-03-09T12:53:53Z</time>
      </trkpt>
      <trkpt lat="42.87213" lon="-0.05089">
        <ele>1558</ele>
        <time>2013-03-09T12:53:59Z</time>
      </trkpt>
      <trkpt lat="42.87215" lon="-0.05091">
        <ele>1557</ele>
        <time>2013-03-09T12:54:00Z</time>
      </trkpt>
      <trkpt lat="42.8722" lon="-0.05082">
        <ele>1537</ele>
        <time>2013-03-09T12:54:04Z</time>
      </trkpt>
      <trkpt lat="42.87217" lon="-0.0508">
        <ele>1537</ele>
        <time>2013-03-09T12:54:06Z</time>
      </trkpt>
      <trkpt lat="42.87217" lon="-0.05068">
        <ele>1536</ele>
        <time>2013-03-09T12:54:12Z</time>
      </trkpt>
      <trkpt lat="42.87221" lon="-0.05073">
        <ele>1536</ele>
        <time>2013-03-09T12:54:19Z</time>
      </trkpt>
      <trkpt lat="42.87223" lon="-0.05073">
        <ele>1535</ele>
        <time>2013-03-09T12:54:23Z</time>
      </trkpt>
      <trkpt lat="42.87228" lon="-0.05067">
        <ele>1534</ele>
        <time>2013-03-09T12:54:27Z</time>
      </trkpt>
      <trkpt lat="42.87227" lon="-0.05064">
        <ele>1534</ele>
        <time>2013-03-09T12:54:31Z</time>
      </trkpt>
      <trkpt lat="42.87229" lon="-0.05052">
        <ele>1532</ele>
        <time>2013-03-09T12:54:35Z</time>
      </trkpt>
      <trkpt lat="42.87235" lon="-0.05048">
        <ele>1530</ele>
        <time>2013-03-09T12:54:37Z</time>
      </trkpt>
      <trkpt lat="42.87246" lon="-0.05051">
        <ele>1530</ele>
        <time>2013-03-09T12:54:42Z</time>
      </trkpt>
      <trkpt lat="42.87246" lon="-0.05049">
        <ele>1529</ele>
        <time>2013-03-09T12:54:43Z</time>
      </trkpt>
      <trkpt lat="42.87248" lon="-0.05053">
        <ele>1531</ele>
        <time>2013-03-09T12:54:50Z</time>
      </trkpt>
      <trkpt lat="42.8725" lon="-0.05054">
        <ele>1531</ele>
        <time>2013-03-09T12:54:56Z</time>
      </trkpt>
      <trkpt lat="42.8725" lon="-0.05055">
        <ele>1521</ele>
        <time>2013-03-09T12:55:03Z</time>
      </trkpt>
      <trkpt lat="42.87249" lon="-0.05056">
        <ele>1531</ele>
        <time>2013-03-09T12:55:09Z</time>
      </trkpt>
      <trkpt lat="42.87242" lon="-0.05046">
        <ele>1529</ele>
        <time>2013-03-09T12:55:12Z</time>
      </trkpt>
      <trkpt lat="42.87242" lon="-0.05038">
        <ele>1526</ele>
        <time>2013-03-09T12:55:15Z</time>
      </trkpt>
      <trkpt lat="42.8725" lon="-0.05038">
        <ele>1514</ele>
        <time>2013-03-09T12:55:17Z</time>
      </trkpt>
      <trkpt lat="42.87254" lon="-0.05039">
        <ele>1514</ele>
        <time>2013-03-09T12:55:18Z</time>
      </trkpt>
      <trkpt lat="42.87264" lon="-0.05032">
        <ele>1512</ele>
        <time>2013-03-09T12:55:22Z</time>
      </trkpt>
      <trkpt lat="42.87263" lon="-0.05021">
        <ele>1508</ele>
        <time>2013-03-09T12:55:24Z</time>
      </trkpt>
      <trkpt lat="42.87258" lon="-0.05007">
        <ele>1503</ele>
        <time>2013-03-09T12:55:29Z</time>
      </trkpt>
      <trkpt lat="42.87251" lon="-0.05005">
        <ele>1501</ele>
        <time>2013-03-09T12:55:37Z</time>
      </trkpt>
      <trkpt lat="42.87247" lon="-0.05003">
        <ele>1503</ele>
        <time>2013-03-09T12:55:50Z</time>
      </trkpt>
      <trkpt lat="42.87247" lon="-0.04999">
        <ele>1499</ele>
        <time>2013-03-09T12:55:52Z</time>
      </trkpt>
      <trkpt lat="42.87252" lon="-0.04995">
        <ele>1493</ele>
        <time>2013-03-09T12:55:55Z</time>
      </trkpt>
      <trkpt lat="42.87262" lon="-0.04997">
        <ele>1489</ele>
        <time>2013-03-09T12:56:01Z</time>
      </trkpt>
      <trkpt lat="42.87262" lon="-0.04993">
        <ele>1488</ele>
        <time>2013-03-09T12:56:02Z</time>
      </trkpt>
      <trkpt lat="42.87262" lon="-0.04989">
        <ele>1486</ele>
        <time>2013-03-09T12:56:03Z</time>
      </trkpt>
      <trkpt lat="42.8726" lon="-0.04984">
        <ele>1485</ele>
        <time>2013-03-09T12:56:07Z</time>
      </trkpt>
      <trkpt lat="42.87259" lon="-0.04985">
        <ele>1486</ele>
        <time>2013-03-09T12:56:19Z</time>
      </trkpt>
      <trkpt lat="42.8726" lon="-0.04985">
        <ele>1485</ele>
        <time>2013-03-09T12:56:20Z</time>
      </trkpt>
      <trkpt lat="42.87267" lon="-0.04989">
        <ele>1484</ele>
        <time>2013-03-09T12:56:24Z</time>
      </trkpt>
      <trkpt lat="42.8727" lon="-0.04992">
        <ele>1484</ele>
        <time>2013-03-09T12:56:26Z</time>
      </trkpt>
      <trkpt lat="42.87275" lon="-0.04983">
        <ele>1481</ele>
        <time>2013-03-09T12:56:30Z</time>
      </trkpt>
      <trkpt lat="42.87274" lon="-0.04976">
        <ele>1479</ele>
        <time>2013-03-09T12:56:32Z</time>
      </trkpt>
      <trkpt lat="42.87274" lon="-0.04973">
        <ele>1479</ele>
        <time>2013-03-09T12:56:37Z</time>
      </trkpt>
      <trkpt lat="42.87274" lon="-0.04975">
        <ele>1479</ele>
        <time>2013-03-09T12:56:40Z</time>
      </trkpt>
      <trkpt lat="42.87276" lon="-0.04975">
        <ele>1479</ele>
        <time>2013-03-09T12:56:46Z</time>
      </trkpt>
      <trkpt lat="42.87276" lon="-0.04975">
        <ele>1479</ele>
        <time>2013-03-09T12:56:52Z</time>
      </trkpt>
      <trkpt lat="42.87277" lon="-0.04974">
        <ele>1479</ele>
        <time>2013-03-09T12:56:58Z</time>
      </trkpt>
      <trkpt lat="42.87277" lon="-0.04969">
        <ele>1477</ele>
        <time>2013-03-09T12:57:04Z</time>
      </trkpt>
      <trkpt lat="42.87276" lon="-0.04969">
        <ele>1478</ele>
        <time>2013-03-09T12:57:11Z</time>
      </trkpt>
      <trkpt lat="42.87276" lon="-0.04965">
        <ele>1477</ele>
        <time>2013-03-09T12:57:23Z</time>
      </trkpt>
      <trkpt lat="42.87277" lon="-0.04962">
        <ele>1476</ele>
        <time>2013-03-09T12:57:29Z</time>
      </trkpt>
      <trkpt lat="42.87278" lon="-0.04964">
        <ele>1476</ele>
        <time>2013-03-09T12:57:36Z</time>
      </trkpt>
      <trkpt lat="42.8728" lon="-0.04964">
        <ele>1476</ele>
        <time>2013-03-09T12:57:42Z</time>
      </trkpt>
      <trkpt lat="42.87281" lon="-0.04963">
        <ele>1476</ele>
        <time>2013-03-09T12:57:50Z</time>
      </trkpt>
      <trkpt lat="42.87279" lon="-0.04962">
        <ele>1476</ele>
        <time>2013-03-09T12:58:02Z</time>
      </trkpt>
      <trkpt lat="42.87279" lon="-0.0496">
        <ele>1476</ele>
        <time>2013-03-09T12:58:03Z</time>
      </trkpt>
      <trkpt lat="42.87278" lon="-0.04953">
        <ele>1475</ele>
        <time>2013-03-09T12:58:07Z</time>
      </trkpt>
      <trkpt lat="42.87279" lon="-0.04943">
        <ele>1473</ele>
        <time>2013-03-09T12:58:12Z</time>
      </trkpt>
      <trkpt lat="42.87282" lon="-0.04943">
        <ele>1472</ele>
        <time>2013-03-09T12:58:16Z</time>
      </trkpt>
      <trkpt lat="42.87284" lon="-0.04939">
        <ele>1472</ele>
        <time>2013-03-09T12:58:18Z</time>
      </trkpt>
      <trkpt lat="42.87286" lon="-0.04938">
        <ele>1471</ele>
        <time>2013-03-09T12:58:22Z</time>
      </trkpt>
      <trkpt lat="42.87286" lon="-0.04939">
        <ele>1471</ele>
        <time>2013-03-09T12:58:23Z</time>
      </trkpt>
      <trkpt lat="42.87287" lon="-0.0494">
        <ele>1471</ele>
        <time>2013-03-09T12:58:24Z</time>
      </trkpt>
      <trkpt lat="42.87287" lon="-0.0494">
        <ele>1471</ele>
        <time>2013-03-09T12:58:26Z</time>
      </trkpt>
      <trkpt lat="42.87286" lon="-0.04938">
        <ele>1471</ele>
        <time>2013-03-09T12:58:34Z</time>
      </trkpt>
      <trkpt lat="42.87285" lon="-0.04938">
        <ele>1471</ele>
        <time>2013-03-09T12:58:42Z</time>
      </trkpt>
      <trkpt lat="42.87284" lon="-0.04935">
        <ele>1471</ele>
        <time>2013-03-09T12:58:49Z</time>
      </trkpt>
      <trkpt lat="42.87283" lon="-0.04934">
        <ele>1471</ele>
        <time>2013-03-09T12:58:51Z</time>
      </trkpt>
      <trkpt lat="42.87281" lon="-0.04925">
        <ele>1471</ele>
        <time>2013-03-09T12:58:55Z</time>
      </trkpt>
      <trkpt lat="42.87274" lon="-0.04908">
        <ele>1460</ele>
        <time>2013-03-09T12:59:02Z</time>
      </trkpt>
      <trkpt lat="42.87278" lon="-0.04902">
        <ele>1458</ele>
        <time>2013-03-09T12:59:06Z</time>
      </trkpt>
      <trkpt lat="42.87285" lon="-0.04907">
        <ele>1456</ele>
        <time>2013-03-09T12:59:08Z</time>
      </trkpt>
      <trkpt lat="42.87289" lon="-0.0491">
        <ele>1455</ele>
        <time>2013-03-09T12:59:10Z</time>
      </trkpt>
      <trkpt lat="42.87289" lon="-0.04909">
        <ele>1455</ele>
        <time>2013-03-09T12:59:15Z</time>
      </trkpt>
      <trkpt lat="42.87289" lon="-0.04909">
        <ele>1455</ele>
        <time>2013-03-09T12:59:27Z</time>
      </trkpt>
      <trkpt lat="42.87294" lon="-0.04909">
        <ele>1454</ele>
        <time>2013-03-09T12:59:34Z</time>
      </trkpt>
      <trkpt lat="42.87291" lon="-0.04908">
        <ele>1455</ele>
        <time>2013-03-09T12:59:42Z</time>
      </trkpt>
      <trkpt lat="42.87292" lon="-0.04909">
        <ele>1454</ele>
        <time>2013-03-09T12:59:49Z</time>
      </trkpt>
      <trkpt lat="42.87296" lon="-0.04906">
        <ele>1453</ele>
        <time>2013-03-09T12:59:52Z</time>
      </trkpt>
      <trkpt lat="42.87296" lon="-0.04901">
        <ele>1453</ele>
        <time>2013-03-09T12:59:54Z</time>
      </trkpt>
      <trkpt lat="42.873" lon="-0.04895">
        <ele>1452</ele>
        <time>2013-03-09T12:59:58Z</time>
      </trkpt>
      <trkpt lat="42.87303" lon="-0.04896">
        <ele>1451</ele>
        <time>2013-03-09T13:00:05Z</time>
      </trkpt>
      <trkpt lat="42.87304" lon="-0.04896">
        <ele>1451</ele>
        <time>2013-03-09T13:00:06Z</time>
      </trkpt>
      <trkpt lat="42.87302" lon="-0.04879">
        <ele>1451</ele>
        <time>2013-03-09T13:00:11Z</time>
      </trkpt>
      <trkpt lat="42.87298" lon="-0.04865">
        <ele>1450</ele>
        <time>2013-03-09T13:00:14Z</time>
      </trkpt>
      <trkpt lat="42.87304" lon="-0.04859">
        <ele>1448</ele>
        <time>2013-03-09T13:00:17Z</time>
      </trkpt>
      <trkpt lat="42.87318" lon="-0.0487">
        <ele>1447</ele>
        <time>2013-03-09T13:00:21Z</time>
      </trkpt>
      <trkpt lat="42.87324" lon="-0.0487">
        <ele>1446</ele>
        <time>2013-03-09T13:00:23Z</time>
      </trkpt>
      <trkpt lat="42.87324" lon="-0.04845">
        <ele>1439</ele>
        <time>2013-03-09T13:00:30Z</time>
      </trkpt>
      <trkpt lat="42.87325" lon="-0.04843">
        <ele>1437</ele>
        <time>2013-03-09T13:00:31Z</time>
      </trkpt>
      <trkpt lat="42.87329" lon="-0.04841">
        <ele>1434</ele>
        <time>2013-03-09T13:00:33Z</time>
      </trkpt>
      <trkpt lat="42.87333" lon="-0.04845">
        <ele>1436</ele>
        <time>2013-03-09T13:00:35Z</time>
      </trkpt>
      <trkpt lat="42.87335" lon="-0.04848">
        <ele>1427</ele>
        <time>2013-03-09T13:00:36Z</time>
      </trkpt>
      <trkpt lat="42.87341" lon="-0.04852">
        <ele>1427</ele>
        <time>2013-03-09T13:00:41Z</time>
      </trkpt>
      <trkpt lat="42.87343" lon="-0.04857">
        <ele>1427</ele>
        <time>2013-03-09T13:00:53Z</time>
      </trkpt>
      <trkpt lat="42.87344" lon="-0.04855">
        <ele>1427</ele>
        <time>2013-03-09T13:00:57Z</time>
      </trkpt>
      <trkpt lat="42.87351" lon="-0.0486">
        <ele>1427</ele>
        <time>2013-03-09T13:01:00Z</time>
      </trkpt>
      <trkpt lat="42.87352" lon="-0.04863">
        <ele>1427</ele>
        <time>2013-03-09T13:01:01Z</time>
      </trkpt>
      <trkpt lat="42.8736" lon="-0.0486">
        <ele>1426</ele>
        <time>2013-03-09T13:01:05Z</time>
      </trkpt>
      <trkpt lat="42.87362" lon="-0.04855">
        <ele>1425</ele>
        <time>2013-03-09T13:01:06Z</time>
      </trkpt>
      <trkpt lat="42.87364" lon="-0.04837">
        <ele>1424</ele>
        <time>2013-03-09T13:01:12Z</time>
      </trkpt>
      <trkpt lat="42.87362" lon="-0.04842">
        <ele>1424</ele>
        <time>2013-03-09T13:01:26Z</time>
      </trkpt>
      <trkpt lat="42.87362" lon="-0.04839">
        <ele>1424</ele>
        <time>2013-03-09T13:01:42Z</time>
      </trkpt>
      <trkpt lat="42.87364" lon="-0.04838">
        <ele>1424</ele>
        <time>2013-03-09T13:01:44Z</time>
      </trkpt>
      <trkpt lat="42.87373" lon="-0.04837">
        <ele>1422</ele>
        <time>2013-03-09T13:01:48Z</time>
      </trkpt>
      <trkpt lat="42.87375" lon="-0.04841">
        <ele>1422</ele>
        <time>2013-03-09T13:01:49Z</time>
      </trkpt>
      <trkpt lat="42.87383" lon="-0.04841">
        <ele>1420</ele>
        <time>2013-03-09T13:01:54Z</time>
      </trkpt>
      <trkpt lat="42.87386" lon="-0.04835">
        <ele>1419</ele>
        <time>2013-03-09T13:01:58Z</time>
      </trkpt>
      <trkpt lat="42.87386" lon="-0.04836">
        <ele>1419</ele>
        <time>2013-03-09T13:02:03Z</time>
      </trkpt>
      <trkpt lat="42.87388" lon="-0.04837">
        <ele>1418</ele>
        <time>2013-03-09T13:02:10Z</time>
      </trkpt>
      <trkpt lat="42.87388" lon="-0.04838">
        <ele>1418</ele>
        <time>2013-03-09T13:02:11Z</time>
      </trkpt>
      <trkpt lat="42.87394" lon="-0.04839">
        <ele>1416</ele>
        <time>2013-03-09T13:02:16Z</time>
      </trkpt>
      <trkpt lat="42.87396" lon="-0.04837">
        <ele>1415</ele>
        <time>2013-03-09T13:02:17Z</time>
      </trkpt>
      <trkpt lat="42.87401" lon="-0.04838">
        <ele>1413</ele>
        <time>2013-03-09T13:02:20Z</time>
      </trkpt>
      <trkpt lat="42.87404" lon="-0.04845">
        <ele>1414</ele>
        <time>2013-03-09T13:02:24Z</time>
      </trkpt>
      <trkpt lat="42.87405" lon="-0.04846">
        <ele>1414</ele>
        <time>2013-03-09T13:02:25Z</time>
      </trkpt>
      <trkpt lat="42.87405" lon="-0.0485">
        <ele>1415</ele>
        <time>2013-03-09T13:02:27Z</time>
      </trkpt>
      <trkpt lat="42.87407" lon="-0.04853">
        <ele>1416</ele>
        <time>2013-03-09T13:02:29Z</time>
      </trkpt>
      <trkpt lat="42.8741" lon="-0.04853">
        <ele>1415</ele>
        <time>2013-03-09T13:02:32Z</time>
      </trkpt>
      <trkpt lat="42.87415" lon="-0.04849">
        <ele>1413</ele>
        <time>2013-03-09T13:02:34Z</time>
      </trkpt>
      <trkpt lat="42.87429" lon="-0.04836">
        <ele>1409</ele>
        <time>2013-03-09T13:02:41Z</time>
      </trkpt>
      <trkpt lat="42.87444" lon="-0.04823">
        <ele>1400</ele>
        <time>2013-03-09T13:02:46Z</time>
      </trkpt>
      <trkpt lat="42.8745" lon="-0.04821">
        <ele>1400</ele>
        <time>2013-03-09T13:02:48Z</time>
      </trkpt>
      <trkpt lat="42.87453" lon="-0.04818">
        <ele>1399</ele>
        <time>2013-03-09T13:02:49Z</time>
      </trkpt>
      <trkpt lat="42.87458" lon="-0.04811">
        <ele>1399</ele>
        <time>2013-03-09T13:02:51Z</time>
      </trkpt>
      <trkpt lat="42.87469" lon="-0.04804">
        <ele>1399</ele>
        <time>2013-03-09T13:02:57Z</time>
      </trkpt>
      <trkpt lat="42.87474" lon="-0.04796">
        <ele>1398</ele>
        <time>2013-03-09T13:02:59Z</time>
      </trkpt>
      <trkpt lat="42.87479" lon="-0.04795">
        <ele>1397</ele>
        <time>2013-03-09T13:03:04Z</time>
      </trkpt>
      <trkpt lat="42.87483" lon="-0.04797">
        <ele>1398</ele>
        <time>2013-03-09T13:03:14Z</time>
      </trkpt>
      <trkpt lat="42.87493" lon="-0.04786">
        <ele>1396</ele>
        <time>2013-03-09T13:03:20Z</time>
      </trkpt>
      <trkpt lat="42.87499" lon="-0.04775">
        <ele>1393</ele>
        <time>2013-03-09T13:03:25Z</time>
      </trkpt>
      <trkpt lat="42.87503" lon="-0.04773">
        <ele>1393</ele>
        <time>2013-03-09T13:03:27Z</time>
      </trkpt>
      <trkpt lat="42.87507" lon="-0.0477">
        <ele>1392</ele>
        <time>2013-03-09T13:03:28Z</time>
      </trkpt>
      <trkpt lat="42.87518" lon="-0.04763">
        <ele>1392</ele>
        <time>2013-03-09T13:03:31Z</time>
      </trkpt>
      <trkpt lat="42.87535" lon="-0.04744">
        <ele>1383</ele>
        <time>2013-03-09T13:03:36Z</time>
      </trkpt>
      <trkpt lat="42.87547" lon="-0.04727">
        <ele>1382</ele>
        <time>2013-03-09T13:03:39Z</time>
      </trkpt>
      <trkpt lat="42.8756" lon="-0.04702">
        <ele>1381</ele>
        <time>2013-03-09T13:03:45Z</time>
      </trkpt>
      <trkpt lat="42.87564" lon="-0.04693">
        <ele>1380</ele>
        <time>2013-03-09T13:03:47Z</time>
      </trkpt>
      <trkpt lat="42.87569" lon="-0.04674">
        <ele>1377</ele>
        <time>2013-03-09T13:03:52Z</time>
      </trkpt>
      <trkpt lat="42.87569" lon="-0.04672">
        <ele>1377</ele>
        <time>2013-03-09T13:03:59Z</time>
      </trkpt>
      <trkpt lat="42.87568" lon="-0.0467">
        <ele>1377</ele>
        <time>2013-03-09T13:04:07Z</time>
      </trkpt>
      <trkpt lat="42.8757" lon="-0.04668">
        <ele>1376</ele>
        <time>2013-03-09T13:04:16Z</time>
      </trkpt>
      <trkpt lat="42.8757" lon="-0.04666">
        <ele>1377</ele>
        <time>2013-03-09T13:04:23Z</time>
      </trkpt>
      <trkpt lat="42.8757" lon="-0.04663">
        <ele>1377</ele>
        <time>2013-03-09T13:04:29Z</time>
      </trkpt>
      <trkpt lat="42.8757" lon="-0.04661">
        <ele>1377</ele>
        <time>2013-03-09T13:04:31Z</time>
      </trkpt>
      <trkpt lat="42.87573" lon="-0.04658">
        <ele>1377</ele>
        <time>2013-03-09T13:04:39Z</time>
      </trkpt>
      <trkpt lat="42.87574" lon="-0.04655">
        <ele>1377</ele>
        <time>2013-03-09T13:04:47Z</time>
      </trkpt>
      <trkpt lat="42.87579" lon="-0.04653">
        <ele>1377</ele>
        <time>2013-03-09T13:04:54Z</time>
      </trkpt>
      <trkpt lat="42.87583" lon="-0.0465">
        <ele>1378</ele>
        <time>2013-03-09T13:05:01Z</time>
      </trkpt>
      <trkpt lat="42.87586" lon="-0.04649">
        <ele>1374</ele>
        <time>2013-03-09T13:05:07Z</time>
      </trkpt>
      <trkpt lat="42.87588" lon="-0.04647">
        <ele>1374</ele>
        <time>2013-03-09T13:05:12Z</time>
      </trkpt>
      <trkpt lat="42.87588" lon="-0.04643">
        <ele>1374</ele>
        <time>2013-03-09T13:05:19Z</time>
      </trkpt>
      <trkpt lat="42.87589" lon="-0.04641">
        <ele>1374</ele>
        <time>2013-03-09T13:05:25Z</time>
      </trkpt>
      <trkpt lat="42.8759" lon="-0.04639">
        <ele>1375</ele>
        <time>2013-03-09T13:05:27Z</time>
      </trkpt>
      <trkpt lat="42.87592" lon="-0.04638">
        <ele>1375</ele>
        <time>2013-03-09T13:05:28Z</time>
      </trkpt>
      <trkpt lat="42.87596" lon="-0.04639">
        <ele>1375</ele>
        <time>2013-03-09T13:05:36Z</time>
      </trkpt>
      <trkpt lat="42.87597" lon="-0.04641">
        <ele>1375</ele>
        <time>2013-03-09T13:05:43Z</time>
      </trkpt>
      <trkpt lat="42.87602" lon="-0.04638">
        <ele>1375</ele>
        <time>2013-03-09T13:05:51Z</time>
      </trkpt>
      <trkpt lat="42.87604" lon="-0.04637">
        <ele>1375</ele>
        <time>2013-03-09T13:05:54Z</time>
      </trkpt>
      <trkpt lat="42.87611" lon="-0.04633">
        <ele>1376</ele>
        <time>2013-03-09T13:05:58Z</time>
      </trkpt>
      <trkpt lat="42.87623" lon="-0.04629">
        <ele>1376</ele>
        <time>2013-03-09T13:06:04Z</time>
      </trkpt>
      <trkpt lat="42.87626" lon="-0.04627">
        <ele>1376</ele>
        <time>2013-03-09T13:06:11Z</time>
      </trkpt>
      <trkpt lat="42.8763" lon="-0.04625">
        <ele>1376</ele>
        <time>2013-03-09T13:06:21Z</time>
      </trkpt>
      <trkpt lat="42.87632" lon="-0.04623">
        <ele>1376</ele>
        <time>2013-03-09T13:06:35Z</time>
      </trkpt>
      <trkpt lat="42.87633" lon="-0.04618">
        <ele>1376</ele>
        <time>2013-03-09T13:06:45Z</time>
      </trkpt>
      <trkpt lat="42.87633" lon="-0.04618">
        <ele>1376</ele>
        <time>2013-03-09T13:06:58Z</time>
      </trkpt>
      <trkpt lat="42.87633" lon="-0.04616">
        <ele>1376</ele>
        <time>2013-03-09T13:07:05Z</time>
      </trkpt>
      <trkpt lat="42.87634" lon="-0.04619">
        <ele>1376</ele>
        <time>2013-03-09T13:07:17Z</time>
      </trkpt>
      <trkpt lat="42.87632" lon="-0.0462">
        <ele>1376</ele>
        <time>2013-03-09T13:07:30Z</time>
      </trkpt>
      <trkpt lat="42.87632" lon="-0.04623">
        <ele>1376</ele>
        <time>2013-03-09T13:07:43Z</time>
      </trkpt>
      <trkpt lat="42.8763" lon="-0.04623">
        <ele>1376</ele>
        <time>2013-03-09T13:07:52Z</time>
      </trkpt>
      <trkpt lat="42.87635" lon="-0.04619">
        <ele>1376</ele>
        <time>2013-03-09T13:08:06Z</time>
      </trkpt>
      <trkpt lat="42.87636" lon="-0.04619">
        <ele>1376</ele>
        <time>2013-03-09T13:08:21Z</time>
      </trkpt>
      <trkpt lat="42.87637" lon="-0.04624">
        <ele>1376</ele>
        <time>2013-03-09T13:08:38Z</time>
      </trkpt>
      <trkpt lat="42.87636" lon="-0.04619">
        <ele>1376</ele>
        <time>2013-03-09T13:08:52Z</time>
      </trkpt>
      <trkpt lat="42.87634" lon="-0.04618">
        <ele>1376</ele>
        <time>2013-03-09T13:09:02Z</time>
      </trkpt>
      <trkpt lat="42.87634" lon="-0.04615">
        <ele>1376</ele>
        <time>2013-03-09T13:09:09Z</time>
      </trkpt>
      <trkpt lat="42.87636" lon="-0.04609">
        <ele>1375</ele>
        <time>2013-03-09T13:09:16Z</time>
      </trkpt>
      <trkpt lat="42.87639" lon="-0.046">
        <ele>1374</ele>
        <time>2013-03-09T13:09:22Z</time>
      </trkpt>
      <trkpt lat="42.87647" lon="-0.04586">
        <ele>1373</ele>
        <time>2013-03-09T13:09:28Z</time>
      </trkpt>
      <trkpt lat="42.87659" lon="-0.0457">
        <ele>1369</ele>
        <time>2013-03-09T13:09:34Z</time>
      </trkpt>
      <trkpt lat="42.87672" lon="-0.04544">
        <ele>1364</ele>
        <time>2013-03-09T13:09:40Z</time>
      </trkpt>
      <trkpt lat="42.8768" lon="-0.04519">
        <ele>1362</ele>
        <time>2013-03-09T13:09:45Z</time>
      </trkpt>
      <trkpt lat="42.87681" lon="-0.04498">
        <ele>1354</ele>
        <time>2013-03-09T13:09:48Z</time>
      </trkpt>
      <trkpt lat="42.87681" lon="-0.04467">
        <ele>1351</ele>
        <time>2013-03-09T13:09:54Z</time>
      </trkpt>
      <trkpt lat="42.87679" lon="-0.04452">
        <ele>1350</ele>
        <time>2013-03-09T13:09:57Z</time>
      </trkpt>
      <trkpt lat="42.87676" lon="-0.04441">
        <ele>1349</ele>
        <time>2013-03-09T13:09:59Z</time>
      </trkpt>
      <trkpt lat="42.87669" lon="-0.04412">
        <ele>1347</ele>
        <time>2013-03-09T13:10:05Z</time>
      </trkpt>
      <trkpt lat="42.87663" lon="-0.04381">
        <ele>1356</ele>
        <time>2013-03-09T13:10:11Z</time>
      </trkpt>
      <trkpt lat="42.87658" lon="-0.0436">
        <ele>1353</ele>
        <time>2013-03-09T13:10:15Z</time>
      </trkpt>
      <trkpt lat="42.8765" lon="-0.0434">
        <ele>1351</ele>
        <time>2013-03-09T13:10:19Z</time>
      </trkpt>
      <trkpt lat="42.87644" lon="-0.04324">
        <ele>1345</ele>
        <time>2013-03-09T13:10:22Z</time>
      </trkpt>
      <trkpt lat="42.87635" lon="-0.04297">
        <ele>1346</ele>
        <time>2013-03-09T13:10:27Z</time>
      </trkpt>
      <trkpt lat="42.87635" lon="-0.04284">
        <ele>1345</ele>
        <time>2013-03-09T13:10:28Z</time>
      </trkpt>
      <trkpt lat="42.87635" lon="-0.04238">
        <ele>1332</ele>
        <time>2013-03-09T13:10:33Z</time>
      </trkpt>
      <trkpt lat="42.87636" lon="-0.0423">
        <ele>1332</ele>
        <time>2013-03-09T13:10:34Z</time>
      </trkpt>
      <trkpt lat="42.87636" lon="-0.04212">
        <ele>1331</ele>
        <time>2013-03-09T13:10:37Z</time>
      </trkpt>
      <trkpt lat="42.87637" lon="-0.04187">
        <ele>1329</ele>
        <time>2013-03-09T13:10:41Z</time>
      </trkpt>
      <trkpt lat="42.87637" lon="-0.04181">
        <ele>1328</ele>
        <time>2013-03-09T13:10:42Z</time>
      </trkpt>
      <trkpt lat="42.87637" lon="-0.04174">
        <ele>1327</ele>
        <time>2013-03-09T13:10:43Z</time>
      </trkpt>
      <trkpt lat="42.8764" lon="-0.04144">
        <ele>1323</ele>
        <time>2013-03-09T13:10:49Z</time>
      </trkpt>
      <trkpt lat="42.87642" lon="-0.04121">
        <ele>1322</ele>
        <time>2013-03-09T13:10:54Z</time>
      </trkpt>
      <trkpt lat="42.87643" lon="-0.0408">
        <ele>1317</ele>
        <time>2013-03-09T13:11:00Z</time>
      </trkpt>
      <trkpt lat="42.87644" lon="-0.04074">
        <ele>1317</ele>
        <time>2013-03-09T13:11:01Z</time>
      </trkpt>
      <trkpt lat="42.87658" lon="-0.04047">
        <ele>1318</ele>
        <time>2013-03-09T13:11:07Z</time>
      </trkpt>
      <trkpt lat="42.87668" lon="-0.04036">
        <ele>1293</ele>
        <time>2013-03-09T13:11:10Z</time>
      </trkpt>
      <trkpt lat="42.87675" lon="-0.04027">
        <ele>1294</ele>
        <time>2013-03-09T13:11:12Z</time>
      </trkpt>
      <trkpt lat="42.87683" lon="-0.04011">
        <ele>1295</ele>
        <time>2013-03-09T13:11:16Z</time>
      </trkpt>
      <trkpt lat="42.87688" lon="-0.03999">
        <ele>1292</ele>
        <time>2013-03-09T13:11:24Z</time>
      </trkpt>
      <trkpt lat="42.87695" lon="-0.03991">
        <ele>1289</ele>
        <time>2013-03-09T13:11:39Z</time>
      </trkpt>
      <trkpt lat="42.87692" lon="-0.03985">
        <ele>1289</ele>
        <time>2013-03-09T13:11:46Z</time>
      </trkpt>
      <trkpt lat="42.87691" lon="-0.0398">
        <ele>1289</ele>
        <time>2013-03-09T13:11:53Z</time>
      </trkpt>
      <trkpt lat="42.87692" lon="-0.03979">
        <ele>1289</ele>
        <time>2013-03-09T13:12:02Z</time>
      </trkpt>
      <trkpt lat="42.87688" lon="-0.0397">
        <ele>1288</ele>
        <time>2013-03-09T13:12:11Z</time>
      </trkpt>
      <trkpt lat="42.87686" lon="-0.03946">
        <ele>1288</ele>
        <time>2013-03-09T13:12:17Z</time>
      </trkpt>
      <trkpt lat="42.87686" lon="-0.03941">
        <ele>1288</ele>
        <time>2013-03-09T13:12:18Z</time>
      </trkpt>
      <trkpt lat="42.87686" lon="-0.03917">
        <ele>1290</ele>
        <time>2013-03-09T13:12:22Z</time>
      </trkpt>
      <trkpt lat="42.87687" lon="-0.03907">
        <ele>1287</ele>
        <time>2013-03-09T13:12:24Z</time>
      </trkpt>
      <trkpt lat="42.87689" lon="-0.03892">
        <ele>1285</ele>
        <time>2013-03-09T13:12:27Z</time>
      </trkpt>
      <trkpt lat="42.87692" lon="-0.03863">
        <ele>1284</ele>
        <time>2013-03-09T13:12:33Z</time>
      </trkpt>
      <trkpt lat="42.87694" lon="-0.03853">
        <ele>1284</ele>
        <time>2013-03-09T13:12:35Z</time>
      </trkpt>
      <trkpt lat="42.87705" lon="-0.03834">
        <ele>1282</ele>
        <time>2013-03-09T13:12:39Z</time>
      </trkpt>
      <trkpt lat="42.87706" lon="-0.03831">
        <ele>1284</ele>
        <time>2013-03-09T13:12:40Z</time>
      </trkpt>
      <trkpt lat="42.8772" lon="-0.03805">
        <ele>1281</ele>
        <time>2013-03-09T13:12:46Z</time>
      </trkpt>
      <trkpt lat="42.87728" lon="-0.03793">
        <ele>1281</ele>
        <time>2013-03-09T13:12:49Z</time>
      </trkpt>
      <trkpt lat="42.87733" lon="-0.03774">
        <ele>1279</ele>
        <time>2013-03-09T13:12:53Z</time>
      </trkpt>
      <trkpt lat="42.87743" lon="-0.03752">
        <ele>1272</ele>
        <time>2013-03-09T13:12:58Z</time>
      </trkpt>
      <trkpt lat="42.87753" lon="-0.03731">
        <ele>1261</ele>
        <time>2013-03-09T13:13:05Z</time>
      </trkpt>
      <trkpt lat="42.87766" lon="-0.03699">
        <ele>1259</ele>
        <time>2013-03-09T13:13:12Z</time>
      </trkpt>
      <trkpt lat="42.87767" lon="-0.03694">
        <ele>1260</ele>
        <time>2013-03-09T13:13:13Z</time>
      </trkpt>
      <trkpt lat="42.87775" lon="-0.03673">
        <ele>1260</ele>
        <time>2013-03-09T13:13:18Z</time>
      </trkpt>
      <trkpt lat="42.87778" lon="-0.03669">
        <ele>1259</ele>
        <time>2013-03-09T13:13:24Z</time>
      </trkpt>
      <trkpt lat="42.87778" lon="-0.03664">
        <ele>1260</ele>
        <time>2013-03-09T13:13:32Z</time>
      </trkpt>
      <trkpt lat="42.87779" lon="-0.03663">
        <ele>1260</ele>
        <time>2013-03-09T13:13:40Z</time>
      </trkpt>
      <trkpt lat="42.87778" lon="-0.03665">
        <ele>1260</ele>
        <time>2013-03-09T13:13:46Z</time>
      </trkpt>
      <trkpt lat="42.87782" lon="-0.03675">
        <ele>1258</ele>
        <time>2013-03-09T13:13:49Z</time>
      </trkpt>
      <trkpt lat="42.8779" lon="-0.03681">
        <ele>1255</ele>
        <time>2013-03-09T13:13:51Z</time>
      </trkpt>
      <trkpt lat="42.878" lon="-0.03696">
        <ele>1253</ele>
        <time>2013-03-09T13:13:54Z</time>
      </trkpt>
      <trkpt lat="42.87801" lon="-0.037">
        <ele>1253</ele>
        <time>2013-03-09T13:13:55Z</time>
      </trkpt>
      <trkpt lat="42.87808" lon="-0.03717">
        <ele>1252</ele>
        <time>2013-03-09T13:13:58Z</time>
      </trkpt>
      <trkpt lat="42.87816" lon="-0.03739">
        <ele>1249</ele>
        <time>2013-03-09T13:14:02Z</time>
      </trkpt>
      <trkpt lat="42.87825" lon="-0.03765">
        <ele>1246</ele>
        <time>2013-03-09T13:14:08Z</time>
      </trkpt>
      <trkpt lat="42.87825" lon="-0.03782">
        <ele>1248</ele>
        <time>2013-03-09T13:14:14Z</time>
      </trkpt>
      <trkpt lat="42.87831" lon="-0.03801">
        <ele>1247</ele>
        <time>2013-03-09T13:14:19Z</time>
      </trkpt>
      <trkpt lat="42.87831" lon="-0.03831">
        <ele>1239</ele>
        <time>2013-03-09T13:14:25Z</time>
      </trkpt>
      <trkpt lat="42.87839" lon="-0.03847">
        <ele>1235</ele>
        <time>2013-03-09T13:14:31Z</time>
      </trkpt>
      <trkpt lat="42.87846" lon="-0.03863">
        <ele>1233</ele>
        <time>2013-03-09T13:14:39Z</time>
      </trkpt>
      <trkpt lat="42.87852" lon="-0.0387">
        <ele>1233</ele>
        <time>2013-03-09T13:14:45Z</time>
      </trkpt>
      <trkpt lat="42.87853" lon="-0.03873">
        <ele>1233</ele>
        <time>2013-03-09T13:14:53Z</time>
      </trkpt>
      <trkpt lat="42.87855" lon="-0.03874">
        <ele>1233</ele>
        <time>2013-03-09T13:14:55Z</time>
      </trkpt>
      <trkpt lat="42.87862" lon="-0.03884">
        <ele>1233</ele>
        <time>2013-03-09T13:15:03Z</time>
      </trkpt>
      <trkpt lat="42.87871" lon="-0.03896">
        <ele>1232</ele>
        <time>2013-03-09T13:15:10Z</time>
      </trkpt>
      <trkpt lat="42.87879" lon="-0.03903">
        <ele>1231</ele>
        <time>2013-03-09T13:15:16Z</time>
      </trkpt>
      <trkpt lat="42.87896" lon="-0.03921">
        <ele>1233</ele>
        <time>2013-03-09T13:15:23Z</time>
      </trkpt>
      <trkpt lat="42.87909" lon="-0.03929">
        <ele>1232</ele>
        <time>2013-03-09T13:15:30Z</time>
      </trkpt>
      <trkpt lat="42.87922" lon="-0.03931">
        <ele>1231</ele>
        <time>2013-03-09T13:15:36Z</time>
      </trkpt>
      <trkpt lat="42.87935" lon="-0.03933">
        <ele>1233</ele>
        <time>2013-03-09T13:15:43Z</time>
      </trkpt>
      <trkpt lat="42.87938" lon="-0.03933">
        <ele>1233</ele>
        <time>2013-03-09T13:15:50Z</time>
      </trkpt>
      <trkpt lat="42.87941" lon="-0.03931">
        <ele>1233</ele>
        <time>2013-03-09T13:15:57Z</time>
      </trkpt>
      <trkpt lat="42.87946" lon="-0.03931">
        <ele>1234</ele>
        <time>2013-03-09T13:16:04Z</time>
      </trkpt>
      <trkpt lat="42.87949" lon="-0.03929">
        <ele>1234</ele>
        <time>2013-03-09T13:16:09Z</time>
      </trkpt>
      <trkpt lat="42.87953" lon="-0.03925">
        <ele>1234</ele>
        <time>2013-03-09T13:16:17Z</time>
      </trkpt>
      <trkpt lat="42.87957" lon="-0.03918">
        <ele>1234</ele>
        <time>2013-03-09T13:16:26Z</time>
      </trkpt>
      <trkpt lat="42.87959" lon="-0.03915">
        <ele>1226</ele>
        <time>2013-03-09T13:16:40Z</time>
      </trkpt>
      <trkpt lat="42.87964" lon="-0.03915">
        <ele>1226</ele>
        <time>2013-03-09T13:16:47Z</time>
      </trkpt>
      <trkpt lat="42.87966" lon="-0.03916">
        <ele>1226</ele>
        <time>2013-03-09T13:16:52Z</time>
      </trkpt>
      <trkpt lat="42.8797" lon="-0.03916">
        <ele>1226</ele>
        <time>2013-03-09T13:16:57Z</time>
      </trkpt>
      <trkpt lat="42.87972" lon="-0.03915">
        <ele>1226</ele>
        <time>2013-03-09T13:17:03Z</time>
      </trkpt>
      <trkpt lat="42.87976" lon="-0.03913">
        <ele>1226</ele>
        <time>2013-03-09T13:17:09Z</time>
      </trkpt>
      <trkpt lat="42.87982" lon="-0.0391">
        <ele>1227</ele>
        <time>2013-03-09T13:17:16Z</time>
      </trkpt>
      <trkpt lat="42.87985" lon="-0.0391">
        <ele>1227</ele>
        <time>2013-03-09T13:17:21Z</time>
      </trkpt>
      <trkpt lat="42.8799" lon="-0.03906">
        <ele>1227</ele>
        <time>2013-03-09T13:17:27Z</time>
      </trkpt>
      <trkpt lat="42.87994" lon="-0.03905">
        <ele>1228</ele>
        <time>2013-03-09T13:17:33Z</time>
      </trkpt>
      <trkpt lat="42.88001" lon="-0.03901">
        <ele>1227</ele>
        <time>2013-03-09T13:17:41Z</time>
      </trkpt>
      <trkpt lat="42.88005" lon="-0.039">
        <ele>1227</ele>
        <time>2013-03-09T13:17:50Z</time>
      </trkpt>
      <trkpt lat="42.88008" lon="-0.03899">
        <ele>1226</ele>
        <time>2013-03-09T13:17:56Z</time>
      </trkpt>
      <trkpt lat="42.88016" lon="-0.03895">
        <ele>1225</ele>
        <time>2013-03-09T13:18:03Z</time>
      </trkpt>
      <trkpt lat="42.88021" lon="-0.03894">
        <ele>1225</ele>
        <time>2013-03-09T13:18:11Z</time>
      </trkpt>
      <trkpt lat="42.88025" lon="-0.03892">
        <ele>1225</ele>
        <time>2013-03-09T13:18:17Z</time>
      </trkpt>
      <trkpt lat="42.8803" lon="-0.0389">
        <ele>1224</ele>
        <time>2013-03-09T13:18:23Z</time>
      </trkpt>
      <trkpt lat="42.8804" lon="-0.03892">
        <ele>1224</ele>
        <time>2013-03-09T13:18:32Z</time>
      </trkpt>
      <trkpt lat="42.88045" lon="-0.03894">
        <ele>1224</ele>
        <time>2013-03-09T13:18:39Z</time>
      </trkpt>
      <trkpt lat="42.88058" lon="-0.03898">
        <ele>1225</ele>
        <time>2013-03-09T13:18:47Z</time>
      </trkpt>
      <trkpt lat="42.88072" lon="-0.03904">
        <ele>1226</ele>
        <time>2013-03-09T13:18:57Z</time>
      </trkpt>
      <trkpt lat="42.88087" lon="-0.0391">
        <ele>1228</ele>
        <time>2013-03-09T13:19:07Z</time>
      </trkpt>
      <trkpt lat="42.88107" lon="-0.03906">
        <ele>1226</ele>
        <time>2013-03-09T13:19:15Z</time>
      </trkpt>
      <trkpt lat="42.88122" lon="-0.03902">
        <ele>1226</ele>
        <time>2013-03-09T13:19:22Z</time>
      </trkpt>
      <trkpt lat="42.88137" lon="-0.03898">
        <ele>1226</ele>
        <time>2013-03-09T13:19:30Z</time>
      </trkpt>
      <trkpt lat="42.88152" lon="-0.03896">
        <ele>1226</ele>
        <time>2013-03-09T13:19:37Z</time>
      </trkpt>
      <trkpt lat="42.88156" lon="-0.03894">
        <ele>1226</ele>
        <time>2013-03-09T13:19:39Z</time>
      </trkpt>
      <trkpt lat="42.88172" lon="-0.03883">
        <ele>1227</ele>
        <time>2013-03-09T13:19:46Z</time>
      </trkpt>
      <trkpt lat="42.88186" lon="-0.03869">
        <ele>1225</ele>
        <time>2013-03-09T13:19:52Z</time>
      </trkpt>
      <trkpt lat="42.88206" lon="-0.03855">
        <ele>1225</ele>
        <time>2013-03-09T13:20:01Z</time>
      </trkpt>
      <trkpt lat="42.8822" lon="-0.03839">
        <ele>1224</ele>
        <time>2013-03-09T13:20:08Z</time>
      </trkpt>
      <trkpt lat="42.88236" lon="-0.03824">
        <ele>1217</ele>
        <time>2013-03-09T13:20:14Z</time>
      </trkpt>
      <trkpt lat="42.8825" lon="-0.03826">
        <ele>1218</ele>
        <time>2013-03-09T13:20:21Z</time>
      </trkpt>
      <trkpt lat="42.88265" lon="-0.03839">
        <ele>1224</ele>
        <time>2013-03-09T13:20:28Z</time>
      </trkpt>
      <trkpt lat="42.88284" lon="-0.03857">
        <ele>1227</ele>
        <time>2013-03-09T13:20:35Z</time>
      </trkpt>
      <trkpt lat="42.88306" lon="-0.03863">
        <ele>1228</ele>
        <time>2013-03-09T13:20:40Z</time>
      </trkpt>
      <trkpt lat="42.88328" lon="-0.03866">
        <ele>1228</ele>
        <time>2013-03-09T13:20:47Z</time>
      </trkpt>
      <trkpt lat="42.88354" lon="-0.03863">
        <ele>1225</ele>
        <time>2013-03-09T13:20:55Z</time>
      </trkpt>
      <trkpt lat="42.88371" lon="-0.0386">
        <ele>1224</ele>
        <time>2013-03-09T13:21:01Z</time>
      </trkpt>
      <trkpt lat="42.88393" lon="-0.03851">
        <ele>1221</ele>
        <time>2013-03-09T13:21:07Z</time>
      </trkpt>
      <trkpt lat="42.88415" lon="-0.0384">
        <ele>1212</ele>
        <time>2013-03-09T13:21:13Z</time>
      </trkpt>
      <trkpt lat="42.88435" lon="-0.03828">
        <ele>1203</ele>
        <time>2013-03-09T13:21:19Z</time>
      </trkpt>
      <trkpt lat="42.88447" lon="-0.03825">
        <ele>1201</ele>
        <time>2013-03-09T13:21:25Z</time>
      </trkpt>
      <trkpt lat="42.88458" lon="-0.03825">
        <ele>1201</ele>
        <time>2013-03-09T13:21:32Z</time>
      </trkpt>
      <trkpt lat="42.88476" lon="-0.03835">
        <ele>1212</ele>
        <time>2013-03-09T13:21:41Z</time>
      </trkpt>
      <trkpt lat="42.8849" lon="-0.0385">
        <ele>1211</ele>
        <time>2013-03-09T13:21:49Z</time>
      </trkpt>
      <trkpt lat="42.88504" lon="-0.03856">
        <ele>1208</ele>
        <time>2013-03-09T13:21:55Z</time>
      </trkpt>
      <trkpt lat="42.88521" lon="-0.03861">
        <ele>1209</ele>
        <time>2013-03-09T13:22:02Z</time>
      </trkpt>
      <trkpt lat="42.88549" lon="-0.0387">
        <ele>1209</ele>
        <time>2013-03-09T13:22:11Z</time>
      </trkpt>
      <trkpt lat="42.88582" lon="-0.03883">
        <ele>1211</ele>
        <time>2013-03-09T13:22:19Z</time>
      </trkpt>
      <trkpt lat="42.88607" lon="-0.03887">
        <ele>1205</ele>
        <time>2013-03-09T13:22:27Z</time>
      </trkpt>
      <trkpt lat="42.88632" lon="-0.03893">
        <ele>1205</ele>
        <time>2013-03-09T13:22:35Z</time>
      </trkpt>
      <trkpt lat="42.88656" lon="-0.03901">
        <ele>1207</ele>
        <time>2013-03-09T13:22:42Z</time>
      </trkpt>
      <trkpt lat="42.88696" lon="-0.03883">
        <ele>1194</ele>
        <time>2013-03-09T13:22:49Z</time>
      </trkpt>
      <trkpt lat="42.88715" lon="-0.03882">
        <ele>1193</ele>
        <time>2013-03-09T13:22:55Z</time>
      </trkpt>
      <trkpt lat="42.88741" lon="-0.03887">
        <ele>1192</ele>
        <time>2013-03-09T13:23:04Z</time>
      </trkpt>
      <trkpt lat="42.8876" lon="-0.03888">
        <ele>1188</ele>
        <time>2013-03-09T13:23:12Z</time>
      </trkpt>
      <trkpt lat="42.88775" lon="-0.0389">
        <ele>1188</ele>
        <time>2013-03-09T13:23:20Z</time>
      </trkpt>
      <trkpt lat="42.88789" lon="-0.03893">
        <ele>1187</ele>
        <time>2013-03-09T13:23:29Z</time>
      </trkpt>
      <trkpt lat="42.88796" lon="-0.03893">
        <ele>1187</ele>
        <time>2013-03-09T13:23:36Z</time>
      </trkpt>
      <trkpt lat="42.88803" lon="-0.03894">
        <ele>1187</ele>
        <time>2013-03-09T13:23:43Z</time>
      </trkpt>
      <trkpt lat="42.88815" lon="-0.03893">
        <ele>1187</ele>
        <time>2013-03-09T13:23:50Z</time>
      </trkpt>
      <trkpt lat="42.88828" lon="-0.03895">
        <ele>1188</ele>
        <time>2013-03-09T13:23:56Z</time>
      </trkpt>
      <trkpt lat="42.88845" lon="-0.039">
        <ele>1190</ele>
        <time>2013-03-09T13:24:04Z</time>
      </trkpt>
      <trkpt lat="42.88858" lon="-0.03896">
        <ele>1190</ele>
        <time>2013-03-09T13:24:11Z</time>
      </trkpt>
      <trkpt lat="42.88866" lon="-0.03892">
        <ele>1190</ele>
        <time>2013-03-09T13:24:18Z</time>
      </trkpt>
      <trkpt lat="42.88871" lon="-0.0389">
        <ele>1190</ele>
        <time>2013-03-09T13:24:24Z</time>
      </trkpt>
      <trkpt lat="42.88877" lon="-0.03888">
        <ele>1190</ele>
        <time>2013-03-09T13:24:31Z</time>
      </trkpt>
      <trkpt lat="42.88887" lon="-0.03886">
        <ele>1190</ele>
        <time>2013-03-09T13:24:40Z</time>
      </trkpt>
      <trkpt lat="42.88894" lon="-0.03886">
        <ele>1191</ele>
        <time>2013-03-09T13:24:47Z</time>
      </trkpt>
      <trkpt lat="42.88907" lon="-0.03879">
        <ele>1190</ele>
        <time>2013-03-09T13:24:57Z</time>
      </trkpt>
      <trkpt lat="42.88912" lon="-0.03874">
        <ele>1189</ele>
        <time>2013-03-09T13:25:01Z</time>
      </trkpt>
      <trkpt lat="42.88917" lon="-0.03872">
        <ele>1194</ele>
        <time>2013-03-09T13:25:07Z</time>
      </trkpt>
      <trkpt lat="42.88918" lon="-0.03874">
        <ele>1194</ele>
        <time>2013-03-09T13:25:17Z</time>
      </trkpt>
      <trkpt lat="42.8892" lon="-0.03874">
        <ele>1194</ele>
        <time>2013-03-09T13:25:31Z</time>
      </trkpt>
      <trkpt lat="42.8892" lon="-0.03872">
        <ele>1194</ele>
        <time>2013-03-09T13:25:42Z</time>
      </trkpt>
      <trkpt lat="42.88919" lon="-0.03873">
        <ele>1194</ele>
        <time>2013-03-09T13:25:50Z</time>
      </trkpt>
      <trkpt lat="42.88919" lon="-0.03873">
        <ele>1194</ele>
        <time>2013-03-09T13:25:51Z</time>
      </trkpt>
      <trkpt lat="42.88922" lon="-0.03873">
        <ele>1194</ele>
        <time>2013-03-09T13:25:54Z</time>
      </trkpt>
      <trkpt lat="42.8893" lon="-0.03869">
        <ele>1193</ele>
        <time>2013-03-09T13:26:02Z</time>
      </trkpt>
      <trkpt lat="42.88934" lon="-0.03866">
        <ele>1193</ele>
        <time>2013-03-09T13:26:05Z</time>
      </trkpt>
      <trkpt lat="42.88943" lon="-0.03865">
        <ele>1193</ele>
        <time>2013-03-09T13:26:13Z</time>
      </trkpt>
      <trkpt lat="42.88949" lon="-0.03864">
        <ele>1193</ele>
        <time>2013-03-09T13:26:21Z</time>
      </trkpt>
      <trkpt lat="42.88957" lon="-0.03862">
        <ele>1194</ele>
        <time>2013-03-09T13:26:28Z</time>
      </trkpt>
      <trkpt lat="42.88959" lon="-0.0386">
        <ele>1193</ele>
        <time>2013-03-09T13:26:36Z</time>
      </trkpt>
      <trkpt lat="42.88958" lon="-0.0386">
        <ele>1193</ele>
        <time>2013-03-09T13:26:47Z</time>
      </trkpt>
      <trkpt lat="42.88959" lon="-0.0386">
        <ele>1193</ele>
        <time>2013-03-09T13:26:58Z</time>
      </trkpt>
      <trkpt lat="42.88958" lon="-0.03861">
        <ele>1193</ele>
        <time>2013-03-09T13:27:09Z</time>
      </trkpt>
      <trkpt lat="42.88959" lon="-0.03858">
        <ele>1193</ele>
        <time>2013-03-09T13:27:17Z</time>
      </trkpt>
      <trkpt lat="42.88959" lon="-0.03855">
        <ele>1193</ele>
        <time>2013-03-09T13:27:38Z</time>
      </trkpt>
      <trkpt lat="42.88959" lon="-0.03854">
        <ele>1192</ele>
        <time>2013-03-09T13:27:56Z</time>
      </trkpt>
      <trkpt lat="42.88959" lon="-0.03851">
        <ele>1192</ele>
        <time>2013-03-09T13:28:07Z</time>
      </trkpt>
      <trkpt lat="42.88958" lon="-0.03851">
        <ele>1192</ele>
        <time>2013-03-09T13:28:26Z</time>
      </trkpt>
      <trkpt lat="42.88958" lon="-0.03854">
        <ele>1192</ele>
        <time>2013-03-09T13:28:41Z</time>
      </trkpt>
      <trkpt lat="42.88963" lon="-0.03852">
        <ele>1192</ele>
        <time>2013-03-09T13:28:58Z</time>
      </trkpt>
      <trkpt lat="42.8896" lon="-0.03853">
        <ele>1192</ele>
        <time>2013-03-09T13:29:20Z</time>
      </trkpt>
      <trkpt lat="42.88957" lon="-0.03855">
        <ele>1193</ele>
        <time>2013-03-09T13:29:39Z</time>
      </trkpt>
      <trkpt lat="42.88956" lon="-0.03852">
        <ele>1192</ele>
        <time>2013-03-09T13:29:53Z</time>
      </trkpt>
      <trkpt lat="42.88953" lon="-0.03853">
        <ele>1192</ele>
        <time>2013-03-09T13:30:10Z</time>
      </trkpt>
      <trkpt lat="42.88952" lon="-0.03851">
        <ele>1192</ele>
        <time>2013-03-09T13:30:25Z</time>
      </trkpt>
      <trkpt lat="42.88955" lon="-0.03839">
        <ele>1191</ele>
        <time>2013-03-09T13:30:48Z</time>
      </trkpt>
      <trkpt lat="42.88959" lon="-0.03834">
        <ele>1191</ele>
        <time>2013-03-09T13:31:04Z</time>
      </trkpt>
      <trkpt lat="42.8895" lon="-0.03842">
        <ele>1190</ele>
        <time>2013-03-09T13:31:24Z</time>
      </trkpt>
      <trkpt lat="42.88948" lon="-0.03846">
        <ele>1191</ele>
        <time>2013-03-09T13:31:42Z</time>
      </trkpt>
      <trkpt lat="42.88954" lon="-0.03842">
        <ele>1191</ele>
        <time>2013-03-09T13:31:59Z</time>
      </trkpt>
      <trkpt lat="42.88956" lon="-0.03842">
        <ele>1191</ele>
        <time>2013-03-09T13:32:18Z</time>
      </trkpt>
      <trkpt lat="42.88962" lon="-0.03844">
        <ele>1192</ele>
        <time>2013-03-09T13:32:39Z</time>
      </trkpt>
      <trkpt lat="42.88959" lon="-0.03847">
        <ele>1192</ele>
        <time>2013-03-09T13:32:57Z</time>
      </trkpt>
      <trkpt lat="42.88961" lon="-0.03845">
        <ele>1192</ele>
        <time>2013-03-09T13:33:17Z</time>
      </trkpt>
      <trkpt lat="42.88962" lon="-0.03841">
        <ele>1191</ele>
        <time>2013-03-09T13:33:37Z</time>
      </trkpt>
      <trkpt lat="42.88962" lon="-0.03843">
        <ele>1191</ele>
        <time>2013-03-09T13:33:55Z</time>
      </trkpt>
      <trkpt lat="42.88959" lon="-0.03847">
        <ele>1192</ele>
        <time>2013-03-09T13:34:20Z</time>
      </trkpt>
      <trkpt lat="42.88953" lon="-0.03853">
        <ele>1192</ele>
        <time>2013-03-09T13:34:43Z</time>
      </trkpt>
      <trkpt lat="42.88954" lon="-0.03854">
        <ele>1192</ele>
        <time>2013-03-09T13:35:01Z</time>
      </trkpt>
      <trkpt lat="42.88953" lon="-0.03853">
        <ele>1192</ele>
        <time>2013-03-09T13:35:16Z</time>
      </trkpt>
      <trkpt lat="42.88952" lon="-0.03852">
        <ele>1192</ele>
        <time>2013-03-09T13:35:31Z</time>
      </trkpt>
      <trkpt lat="42.88954" lon="-0.03846">
        <ele>1191</ele>
        <time>2013-03-09T13:35:55Z</time>
      </trkpt>
      <trkpt lat="42.88959" lon="-0.03847">
        <ele>1192</ele>
        <time>2013-03-09T13:36:11Z</time>
      </trkpt>
      <trkpt lat="42.88958" lon="-0.03852">
        <ele>1192</ele>
        <time>2013-03-09T13:36:26Z</time>
      </trkpt>
      <trkpt lat="42.88961" lon="-0.03845">
        <ele>1192</ele>
        <time>2013-03-09T13:36:43Z</time>
      </trkpt>
      <trkpt lat="42.88963" lon="-0.03843">
        <ele>1191</ele>
        <time>2013-03-09T13:37:03Z</time>
      </trkpt>
      <trkpt lat="42.88962" lon="-0.03839">
        <ele>1191</ele>
        <time>2013-03-09T13:37:23Z</time>
      </trkpt>
      <trkpt lat="42.88963" lon="-0.03839">
        <ele>1191</ele>
        <time>2013-03-09T13:37:42Z</time>
      </trkpt>
    </trkseg>
  </trk>
</gpx>